<?xml version="1.0" encoding="UTF-8" standalone="no" ?>
<gpx xmlns="http://www.topografix.com/GPX/1/1" xmlns:xsi="http://www.w3.org/2001/XMLSchema-instance" xsi:schemaLocation="http://www.topografix.com/GPX/1/1 http://www.topografix.com/GPX/1/1/gpx.xsd" version="1.1" creator="VisuGPX - https://www.visugpx.com">
  <metadata>
    <name>fifi bramefant</name>
  </metadata>
  <trk>
    <name><![CDATA[fifi bramefant]]></name>
    <trkseg>
      <trkpt lat="45.90286" lon="3.43683">
        <ele>307.11395263672</ele>
        <time>2021-03-27T10:01:47.000Z</time>
      </trkpt>
      <trkpt lat="45.90286" lon="3.43683">
        <ele>307.10675048828</ele>
        <time>2021-03-27T10:01:47.000Z</time>
      </trkpt>
      <trkpt lat="45.90297" lon="3.4369">
        <ele>307</ele>
        <time>2021-03-27T10:01:47.003Z</time>
      </trkpt>
      <trkpt lat="45.90308" lon="3.437">
        <ele>306.74063110352</ele>
        <time>2021-03-27T10:01:47.008Z</time>
      </trkpt>
      <trkpt lat="45.90314" lon="3.43707">
        <ele>306.48147583008</ele>
        <time>2021-03-27T10:01:47.015Z</time>
      </trkpt>
      <trkpt lat="45.90321" lon="3.43717">
        <ele>305.94708251953</ele>
        <time>2021-03-27T10:01:47.024Z</time>
      </trkpt>
      <trkpt lat="45.9033" lon="3.43729">
        <ele>305.24530029297</ele>
        <time>2021-03-27T10:01:47.035Z</time>
      </trkpt>
      <trkpt lat="45.90335" lon="3.43733">
        <ele>304.89978027344</ele>
        <time>2021-03-27T10:01:47.047Z</time>
      </trkpt>
      <trkpt lat="45.90345" lon="3.43738">
        <ele>304.38018798828</ele>
        <time>2021-03-27T10:01:47.061Z</time>
      </trkpt>
      <trkpt lat="45.90377" lon="3.43747">
        <ele>304.25570678711</ele>
        <time>2021-03-27T10:01:47.082Z</time>
      </trkpt>
      <trkpt lat="45.90392" lon="3.43749">
        <ele>304.6120300293</ele>
        <time>2021-03-27T10:01:47.106Z</time>
      </trkpt>
      <trkpt lat="45.90394" lon="3.43749">
        <ele>304.75958251953</ele>
        <time>2021-03-27T10:01:47.130Z</time>
      </trkpt>
      <trkpt lat="45.90396" lon="3.43748">
        <ele>304.91793823242</ele>
        <time>2021-03-27T10:01:47.155Z</time>
      </trkpt>
      <trkpt lat="45.904" lon="3.43757">
        <ele>304.38226318359</ele>
        <time>2021-03-27T10:01:47.181Z</time>
      </trkpt>
      <trkpt lat="45.90403" lon="3.43761">
        <ele>303.96478271484</ele>
        <time>2021-03-27T10:01:47.208Z</time>
      </trkpt>
      <trkpt lat="45.90406" lon="3.43766">
        <ele>303.50051879883</ele>
        <time>2021-03-27T10:01:47.236Z</time>
      </trkpt>
      <trkpt lat="45.9041" lon="3.4377">
        <ele>303.07583618164</ele>
        <time>2021-03-27T10:01:47.265Z</time>
      </trkpt>
      <trkpt lat="45.90413" lon="3.43773">
        <ele>302.73031616211</ele>
        <time>2021-03-27T10:01:47.295Z</time>
      </trkpt>
      <trkpt lat="45.90416" lon="3.43776">
        <ele>302.41903686523</ele>
        <time>2021-03-27T10:01:47.325Z</time>
      </trkpt>
      <trkpt lat="45.9042" lon="3.43778">
        <ele>302.22106933594</ele>
        <time>2021-03-27T10:01:47.356Z</time>
      </trkpt>
      <trkpt lat="45.90424" lon="3.4378">
        <ele>302.00872802734</ele>
        <time>2021-03-27T10:01:47.388Z</time>
      </trkpt>
      <trkpt lat="45.9043" lon="3.43782">
        <ele>301.61981201172</ele>
        <time>2021-03-27T10:01:47.421Z</time>
      </trkpt>
      <trkpt lat="45.90439" lon="3.43783">
        <ele>300.9755859375</ele>
        <time>2021-03-27T10:01:47.456Z</time>
      </trkpt>
      <trkpt lat="45.9046" lon="3.43788">
        <ele>299.58428955078</ele>
        <time>2021-03-27T10:01:47.495Z</time>
      </trkpt>
      <trkpt lat="45.90491" lon="3.43794">
        <ele>299.87115478516</ele>
        <time>2021-03-27T10:01:47.541Z</time>
      </trkpt>
      <trkpt lat="45.90515" lon="3.43798">
        <ele>300.7864074707</ele>
        <time>2021-03-27T10:01:47.591Z</time>
      </trkpt>
      <trkpt lat="45.90534" lon="3.43802">
        <ele>300.93395996094</ele>
        <time>2021-03-27T10:01:47.645Z</time>
      </trkpt>
      <trkpt lat="45.90564" lon="3.43809">
        <ele>301</ele>
        <time>2021-03-27T10:01:47.705Z</time>
      </trkpt>
      <trkpt lat="45.90577" lon="3.43812">
        <ele>300.72052001953</ele>
        <time>2021-03-27T10:01:47.768Z</time>
      </trkpt>
      <trkpt lat="45.90585" lon="3.43812">
        <ele>300.70254516602</ele>
        <time>2021-03-27T10:01:47.833Z</time>
      </trkpt>
      <trkpt lat="45.90597" lon="3.43812">
        <ele>300.71334838867</ele>
        <time>2021-03-27T10:01:47.900Z</time>
      </trkpt>
      <trkpt lat="45.9063" lon="3.43811">
        <ele>300.74572753906</ele>
        <time>2021-03-27T10:01:47.974Z</time>
      </trkpt>
      <trkpt lat="45.90676" lon="3.4381">
        <ele>300.05624389648</ele>
        <time>2021-03-27T10:01:48.057Z</time>
      </trkpt>
      <trkpt lat="45.90693" lon="3.43808">
        <ele>299.28372192383</ele>
        <time>2021-03-27T10:01:48.143Z</time>
      </trkpt>
      <trkpt lat="45.90703" lon="3.43806">
        <ele>299.02819824219</ele>
        <time>2021-03-27T10:01:48.231Z</time>
      </trkpt>
      <trkpt lat="45.90708" lon="3.43805">
        <ele>298.92977905273</ele>
        <time>2021-03-27T10:01:48.320Z</time>
      </trkpt>
      <trkpt lat="45.90717" lon="3.43801">
        <ele>298.71148681641</ele>
        <time>2021-03-27T10:01:48.411Z</time>
      </trkpt>
      <trkpt lat="45.9073" lon="3.43796">
        <ele>298.41635131836</ele>
        <time>2021-03-27T10:01:48.505Z</time>
      </trkpt>
      <trkpt lat="45.90737" lon="3.43793">
        <ele>298.53628540039</ele>
        <time>2021-03-27T10:01:48.600Z</time>
      </trkpt>
      <trkpt lat="45.90745" lon="3.43789">
        <ele>298.9465637207</ele>
        <time>2021-03-27T10:01:48.697Z</time>
      </trkpt>
      <trkpt lat="45.90753" lon="3.43784">
        <ele>299.42883300781</ele>
        <time>2021-03-27T10:01:48.796Z</time>
      </trkpt>
      <trkpt lat="45.90764" lon="3.43776">
        <ele>299.89273071289</ele>
        <time>2021-03-27T10:01:48.897Z</time>
      </trkpt>
      <trkpt lat="45.90776" lon="3.43769">
        <ele>299.4860534668</ele>
        <time>2021-03-27T10:01:49.001Z</time>
      </trkpt>
      <trkpt lat="45.90785" lon="3.43762">
        <ele>299.16213989258</ele>
        <time>2021-03-27T10:01:49.107Z</time>
      </trkpt>
      <trkpt lat="45.90792" lon="3.43754">
        <ele>298.89221191406</ele>
        <time>2021-03-27T10:01:49.215Z</time>
      </trkpt>
      <trkpt lat="45.90797" lon="3.43764">
        <ele>298.71585083008</ele>
        <time>2021-03-27T10:01:49.324Z</time>
      </trkpt>
      <trkpt lat="45.90802" lon="3.43774">
        <ele>298.55029296875</ele>
        <time>2021-03-27T10:01:49.435Z</time>
      </trkpt>
      <trkpt lat="45.90811" lon="3.43796">
        <ele>298.22998046875</ele>
        <time>2021-03-27T10:01:49.550Z</time>
      </trkpt>
      <trkpt lat="45.90818" lon="3.43817">
        <ele>298.45941162109</ele>
        <time>2021-03-27T10:01:49.668Z</time>
      </trkpt>
      <trkpt lat="45.90823" lon="3.4383">
        <ele>298.94888305664</ele>
        <time>2021-03-27T10:01:49.788Z</time>
      </trkpt>
      <trkpt lat="45.90829" lon="3.43854">
        <ele>299</ele>
        <time>2021-03-27T10:01:49.911Z</time>
      </trkpt>
      <trkpt lat="45.90833" lon="3.43873">
        <ele>299</ele>
        <time>2021-03-27T10:01:50.037Z</time>
      </trkpt>
      <trkpt lat="45.90841" lon="3.43913">
        <ele>298</ele>
        <time>2021-03-27T10:01:50.169Z</time>
      </trkpt>
      <trkpt lat="45.9085" lon="3.43955">
        <ele>296.81198120117</ele>
        <time>2021-03-27T10:01:50.307Z</time>
      </trkpt>
      <trkpt lat="45.90857" lon="3.43996">
        <ele>296.54205322266</ele>
        <time>2021-03-27T10:01:50.451Z</time>
      </trkpt>
      <trkpt lat="45.90864" lon="3.44027">
        <ele>296.29733276367</ele>
        <time>2021-03-27T10:01:50.600Z</time>
      </trkpt>
      <trkpt lat="45.90872" lon="3.44062">
        <ele>295.69424438477</ele>
        <time>2021-03-27T10:01:50.754Z</time>
      </trkpt>
      <trkpt lat="45.90873" lon="3.44064">
        <ele>295.65603637695</ele>
        <time>2021-03-27T10:01:50.908Z</time>
      </trkpt>
      <trkpt lat="45.90884" lon="3.4411">
        <ele>295.39999389648</ele>
        <time>2021-03-27T10:01:51.069Z</time>
      </trkpt>
      <trkpt lat="45.9089" lon="3.44134">
        <ele>295</ele>
        <time>2021-03-27T10:01:51.234Z</time>
      </trkpt>
      <trkpt lat="45.90895" lon="3.44156">
        <ele>294.32556152344</ele>
        <time>2021-03-27T10:01:51.402Z</time>
      </trkpt>
      <trkpt lat="45.90897" lon="3.44171">
        <ele>294</ele>
        <time>2021-03-27T10:01:51.572Z</time>
      </trkpt>
      <trkpt lat="45.90898" lon="3.44184">
        <ele>294</ele>
        <time>2021-03-27T10:01:51.744Z</time>
      </trkpt>
      <trkpt lat="45.90899" lon="3.44206">
        <ele>294.47750854492</ele>
        <time>2021-03-27T10:01:51.919Z</time>
      </trkpt>
      <trkpt lat="45.909" lon="3.44248">
        <ele>296.00158691406</ele>
        <time>2021-03-27T10:01:52.100Z</time>
      </trkpt>
      <trkpt lat="45.90901" lon="3.44292">
        <ele>297.51486206055</ele>
        <time>2021-03-27T10:01:52.287Z</time>
      </trkpt>
      <trkpt lat="45.90902" lon="3.44304">
        <ele>297.84237670898</ele>
        <time>2021-03-27T10:01:52.475Z</time>
      </trkpt>
      <trkpt lat="45.90905" lon="3.44316">
        <ele>297.96643066406</ele>
        <time>2021-03-27T10:01:52.665Z</time>
      </trkpt>
      <trkpt lat="45.90908" lon="3.44325">
        <ele>297.95922851562</ele>
        <time>2021-03-27T10:01:52.857Z</time>
      </trkpt>
      <trkpt lat="45.90912" lon="3.44335">
        <ele>297.92828369141</ele>
        <time>2021-03-27T10:01:53.050Z</time>
      </trkpt>
      <trkpt lat="45.90918" lon="3.44345">
        <ele>298.06146240234</ele>
        <time>2021-03-27T10:01:53.245Z</time>
      </trkpt>
      <trkpt lat="45.90933" lon="3.44369">
        <ele>298.16870117188</ele>
        <time>2021-03-27T10:01:53.445Z</time>
      </trkpt>
      <trkpt lat="45.90946" lon="3.44386">
        <ele>298.31625366211</ele>
        <time>2021-03-27T10:01:53.648Z</time>
      </trkpt>
      <trkpt lat="45.90954" lon="3.44395">
        <ele>298.63549804688</ele>
        <time>2021-03-27T10:01:53.853Z</time>
      </trkpt>
      <trkpt lat="45.90961" lon="3.44403">
        <ele>298.91979980469</ele>
        <time>2021-03-27T10:01:54.060Z</time>
      </trkpt>
      <trkpt lat="45.90969" lon="3.4441">
        <ele>299.11776733398</ele>
        <time>2021-03-27T10:01:54.269Z</time>
      </trkpt>
      <trkpt lat="45.91015" lon="3.44436">
        <ele>297.50610351562</ele>
        <time>2021-03-27T10:01:54.488Z</time>
      </trkpt>
      <trkpt lat="45.91024" lon="3.44439">
        <ele>296.98425292969</ele>
        <time>2021-03-27T10:01:54.709Z</time>
      </trkpt>
      <trkpt lat="45.91033" lon="3.44444">
        <ele>296.4084777832</ele>
        <time>2021-03-27T10:01:54.931Z</time>
      </trkpt>
      <trkpt lat="45.91039" lon="3.44447">
        <ele>295.85784912109</ele>
        <time>2021-03-27T10:01:55.155Z</time>
      </trkpt>
      <trkpt lat="45.91044" lon="3.44451">
        <ele>295.69772338867</ele>
        <time>2021-03-27T10:01:55.380Z</time>
      </trkpt>
      <trkpt lat="45.91046" lon="3.44455">
        <ele>295.56457519531</ele>
        <time>2021-03-27T10:01:55.606Z</time>
      </trkpt>
      <trkpt lat="45.91048" lon="3.4446">
        <ele>295.38821411133</ele>
        <time>2021-03-27T10:01:55.832Z</time>
      </trkpt>
      <trkpt lat="45.9105" lon="3.44469">
        <ele>295.07150268555</ele>
        <time>2021-03-27T10:01:56.060Z</time>
      </trkpt>
      <trkpt lat="45.91051" lon="3.44478">
        <ele>294.46640014648</ele>
        <time>2021-03-27T10:01:56.289Z</time>
      </trkpt>
      <trkpt lat="45.91051" lon="3.44489">
        <ele>294.16317749023</ele>
        <time>2021-03-27T10:01:56.519Z</time>
      </trkpt>
      <trkpt lat="45.9105" lon="3.445">
        <ele>294.15399169922</ele>
        <time>2021-03-27T10:01:56.751Z</time>
      </trkpt>
      <trkpt lat="45.91048" lon="3.44508">
        <ele>293.70770263672</ele>
        <time>2021-03-27T10:01:56.984Z</time>
      </trkpt>
      <trkpt lat="45.91043" lon="3.4452">
        <ele>293.16787719727</ele>
        <time>2021-03-27T10:01:57.219Z</time>
      </trkpt>
      <trkpt lat="45.91035" lon="3.44537">
        <ele>292.5344543457</ele>
        <time>2021-03-27T10:01:57.457Z</time>
      </trkpt>
      <trkpt lat="45.91032" lon="3.44542">
        <ele>292.34729003906</ele>
        <time>2021-03-27T10:01:57.696Z</time>
      </trkpt>
      <trkpt lat="45.91027" lon="3.44556">
        <ele>292.20959472656</ele>
        <time>2021-03-27T10:01:57.937Z</time>
      </trkpt>
      <trkpt lat="45.91037" lon="3.44552">
        <ele>291.27230834961</ele>
        <time>2021-03-27T10:01:58.180Z</time>
      </trkpt>
      <trkpt lat="45.91076" lon="3.44535">
        <ele>289.69476318359</ele>
        <time>2021-03-27T10:01:58.431Z</time>
      </trkpt>
      <trkpt lat="45.91091" lon="3.44528">
        <ele>288.30569458008</ele>
        <time>2021-03-27T10:01:58.686Z</time>
      </trkpt>
      <trkpt lat="45.91095" lon="3.44525">
        <ele>288.1174621582</ele>
        <time>2021-03-27T10:01:58.942Z</time>
      </trkpt>
      <trkpt lat="45.91101" lon="3.44518">
        <ele>288.40899658203</ele>
        <time>2021-03-27T10:01:59.199Z</time>
      </trkpt>
      <trkpt lat="45.91104" lon="3.44513">
        <ele>288.72930908203</ele>
        <time>2021-03-27T10:01:59.457Z</time>
      </trkpt>
      <trkpt lat="45.9111" lon="3.445">
        <ele>288.73455810547</ele>
        <time>2021-03-27T10:01:59.717Z</time>
      </trkpt>
      <trkpt lat="45.91122" lon="3.4447">
        <ele>290.03274536133</ele>
        <time>2021-03-27T10:01:59.982Z</time>
      </trkpt>
      <trkpt lat="45.9113" lon="3.44452">
        <ele>289.56848144531</ele>
        <time>2021-03-27T10:02:00.250Z</time>
      </trkpt>
      <trkpt lat="45.91138" lon="3.44438">
        <ele>289.7653503418</ele>
        <time>2021-03-27T10:02:00.520Z</time>
      </trkpt>
      <trkpt lat="45.91144" lon="3.4443">
        <ele>289.69338989258</ele>
        <time>2021-03-27T10:02:00.792Z</time>
      </trkpt>
      <trkpt lat="45.91149" lon="3.44423">
        <ele>289.59982299805</ele>
        <time>2021-03-27T10:02:01.066Z</time>
      </trkpt>
      <trkpt lat="45.91155" lon="3.44417">
        <ele>289.47686767578</ele>
        <time>2021-03-27T10:02:01.341Z</time>
      </trkpt>
      <trkpt lat="45.91161" lon="3.44415">
        <ele>289.29690551758</ele>
        <time>2021-03-27T10:02:01.617Z</time>
      </trkpt>
      <trkpt lat="45.9117" lon="3.44411">
        <ele>288.87942504883</ele>
        <time>2021-03-27T10:02:01.895Z</time>
      </trkpt>
      <trkpt lat="45.91179" lon="3.4441">
        <ele>288.38629150391</ele>
        <time>2021-03-27T10:02:02.175Z</time>
      </trkpt>
      <trkpt lat="45.912" lon="3.44407">
        <ele>287.77807617188</ele>
        <time>2021-03-27T10:02:02.459Z</time>
      </trkpt>
      <trkpt lat="45.91214" lon="3.44406">
        <ele>287.40737915039</ele>
        <time>2021-03-27T10:02:02.746Z</time>
      </trkpt>
      <trkpt lat="45.91216" lon="3.44405">
        <ele>287.34619140625</ele>
        <time>2021-03-27T10:02:03.033Z</time>
      </trkpt>
      <trkpt lat="45.91221" lon="3.44406">
        <ele>287.12664794922</ele>
        <time>2021-03-27T10:02:03.321Z</time>
      </trkpt>
      <trkpt lat="45.91226" lon="3.44407">
        <ele>286.86752319336</ele>
        <time>2021-03-27T10:02:03.610Z</time>
      </trkpt>
      <trkpt lat="45.9123" lon="3.44409">
        <ele>286.45568847656</ele>
        <time>2021-03-27T10:02:03.900Z</time>
      </trkpt>
      <trkpt lat="45.91239" lon="3.44415">
        <ele>286.01135253906</ele>
        <time>2021-03-27T10:02:04.192Z</time>
      </trkpt>
      <trkpt lat="45.91263" lon="3.44433">
        <ele>285.40823364258</ele>
        <time>2021-03-27T10:02:04.490Z</time>
      </trkpt>
      <trkpt lat="45.91279" lon="3.44442">
        <ele>285.64935302734</ele>
        <time>2021-03-27T10:02:04.791Z</time>
      </trkpt>
      <trkpt lat="45.91286" lon="3.44445">
        <ele>285.61706542969</ele>
        <time>2021-03-27T10:02:05.094Z</time>
      </trkpt>
      <trkpt lat="45.91288" lon="3.44456">
        <ele>284.52655029297</ele>
        <time>2021-03-27T10:02:05.398Z</time>
      </trkpt>
      <trkpt lat="45.91288" lon="3.44464">
        <ele>283.64840698242</ele>
        <time>2021-03-27T10:02:05.703Z</time>
      </trkpt>
      <trkpt lat="45.91289" lon="3.44478">
        <ele>282.43963623047</ele>
        <time>2021-03-27T10:02:06.010Z</time>
      </trkpt>
      <trkpt lat="45.91288" lon="3.44503">
        <ele>280.78509521484</ele>
        <time>2021-03-27T10:02:06.321Z</time>
      </trkpt>
      <trkpt lat="45.91287" lon="3.44532">
        <ele>279.708984375</ele>
        <time>2021-03-27T10:02:06.636Z</time>
      </trkpt>
      <trkpt lat="45.91287" lon="3.44547">
        <ele>279.15832519531</ele>
        <time>2021-03-27T10:02:06.953Z</time>
      </trkpt>
      <trkpt lat="45.91288" lon="3.44563">
        <ele>279</ele>
        <time>2021-03-27T10:02:07.272Z</time>
      </trkpt>
      <trkpt lat="45.91289" lon="3.44581">
        <ele>279</ele>
        <time>2021-03-27T10:02:07.594Z</time>
      </trkpt>
      <trkpt lat="45.91292" lon="3.44597">
        <ele>279.45401000977</ele>
        <time>2021-03-27T10:02:07.918Z</time>
      </trkpt>
      <trkpt lat="45.91295" lon="3.44623">
        <ele>279.77844238281</ele>
        <time>2021-03-27T10:02:08.245Z</time>
      </trkpt>
      <trkpt lat="45.91297" lon="3.44634">
        <ele>279.72805786133</ele>
        <time>2021-03-27T10:02:08.574Z</time>
      </trkpt>
      <trkpt lat="45.91297" lon="3.44643">
        <ele>279.92242431641</ele>
        <time>2021-03-27T10:02:08.904Z</time>
      </trkpt>
      <trkpt lat="45.91296" lon="3.44657">
        <ele>280</ele>
        <time>2021-03-27T10:02:09.236Z</time>
      </trkpt>
      <trkpt lat="45.91293" lon="3.44704">
        <ele>280</ele>
        <time>2021-03-27T10:02:09.575Z</time>
      </trkpt>
      <trkpt lat="45.91288" lon="3.44761">
        <ele>280.91046142578</ele>
        <time>2021-03-27T10:02:09.922Z</time>
      </trkpt>
      <trkpt lat="45.91286" lon="3.44785">
        <ele>280.87966918945</ele>
        <time>2021-03-27T10:02:10.272Z</time>
      </trkpt>
      <trkpt lat="45.91283" lon="3.44826">
        <ele>280.76089477539</ele>
        <time>2021-03-27T10:02:10.628Z</time>
      </trkpt>
      <trkpt lat="45.9128" lon="3.44843">
        <ele>280.67810058594</ele>
        <time>2021-03-27T10:02:10.986Z</time>
      </trkpt>
      <trkpt lat="45.91277" lon="3.44863">
        <ele>281.13375854492</ele>
        <time>2021-03-27T10:02:11.347Z</time>
      </trkpt>
      <trkpt lat="45.91274" lon="3.44881">
        <ele>281.75997924805</ele>
        <time>2021-03-27T10:02:11.711Z</time>
      </trkpt>
      <trkpt lat="45.91269" lon="3.44899">
        <ele>282.52978515625</ele>
        <time>2021-03-27T10:02:12.078Z</time>
      </trkpt>
      <trkpt lat="45.91265" lon="3.44918">
        <ele>284.05575561523</ele>
        <time>2021-03-27T10:02:12.447Z</time>
      </trkpt>
      <trkpt lat="45.91263" lon="3.44925">
        <ele>284.36514282227</ele>
        <time>2021-03-27T10:02:12.818Z</time>
      </trkpt>
      <trkpt lat="45.9126" lon="3.44936">
        <ele>284.73583984375</ele>
        <time>2021-03-27T10:02:13.190Z</time>
      </trkpt>
      <trkpt lat="45.91255" lon="3.44944">
        <ele>285.04895019531</ele>
        <time>2021-03-27T10:02:13.564Z</time>
      </trkpt>
      <trkpt lat="45.91251" lon="3.44954">
        <ele>285.40884399414</ele>
        <time>2021-03-27T10:02:13.939Z</time>
      </trkpt>
      <trkpt lat="45.91249" lon="3.4496">
        <ele>285.52526855469</ele>
        <time>2021-03-27T10:02:14.315Z</time>
      </trkpt>
      <trkpt lat="45.91248" lon="3.44965">
        <ele>285.26611328125</ele>
        <time>2021-03-27T10:02:14.692Z</time>
      </trkpt>
      <trkpt lat="45.91248" lon="3.44971">
        <ele>285.04299926758</ele>
        <time>2021-03-27T10:02:15.070Z</time>
      </trkpt>
      <trkpt lat="45.91249" lon="3.44977">
        <ele>284.84503173828</ele>
        <time>2021-03-27T10:02:15.449Z</time>
      </trkpt>
      <trkpt lat="45.91251" lon="3.44982">
        <ele>284.81625366211</ele>
        <time>2021-03-27T10:02:15.828Z</time>
      </trkpt>
      <trkpt lat="45.91263" lon="3.45014">
        <ele>284.57510375977</ele>
        <time>2021-03-27T10:02:16.212Z</time>
      </trkpt>
      <trkpt lat="45.91276" lon="3.45047">
        <ele>284.13021850586</ele>
        <time>2021-03-27T10:02:16.602Z</time>
      </trkpt>
      <trkpt lat="45.91288" lon="3.45074">
        <ele>283.4248046875</ele>
        <time>2021-03-27T10:02:16.996Z</time>
      </trkpt>
      <trkpt lat="45.91296" lon="3.45092">
        <ele>282.88568115234</ele>
        <time>2021-03-27T10:02:17.393Z</time>
      </trkpt>
      <trkpt lat="45.91308" lon="3.45112">
        <ele>282.52410888672</ele>
        <time>2021-03-27T10:02:17.794Z</time>
      </trkpt>
      <trkpt lat="45.91313" lon="3.45118">
        <ele>282.28295898438</ele>
        <time>2021-03-27T10:02:18.196Z</time>
      </trkpt>
      <trkpt lat="45.91317" lon="3.45124">
        <ele>282.00942993164</ele>
        <time>2021-03-27T10:02:18.599Z</time>
      </trkpt>
      <trkpt lat="45.91325" lon="3.45132">
        <ele>282.26284790039</ele>
        <time>2021-03-27T10:02:19.004Z</time>
      </trkpt>
      <trkpt lat="45.91335" lon="3.45139">
        <ele>282.8171081543</ele>
        <time>2021-03-27T10:02:19.411Z</time>
      </trkpt>
      <trkpt lat="45.91345" lon="3.45145">
        <ele>283.5055847168</ele>
        <time>2021-03-27T10:02:19.821Z</time>
      </trkpt>
      <trkpt lat="45.91351" lon="3.45147">
        <ele>283.49838256836</ele>
        <time>2021-03-27T10:02:20.232Z</time>
      </trkpt>
      <trkpt lat="45.91355" lon="3.45149">
        <ele>283.53796386719</ele>
        <time>2021-03-27T10:02:20.644Z</time>
      </trkpt>
      <trkpt lat="45.91357" lon="3.4515">
        <ele>283.58474731445</ele>
        <time>2021-03-27T10:02:21.056Z</time>
      </trkpt>
      <trkpt lat="45.91362" lon="3.45149">
        <ele>283.78271484375</ele>
        <time>2021-03-27T10:02:21.469Z</time>
      </trkpt>
      <trkpt lat="45.91366" lon="3.45149">
        <ele>283.96264648438</ele>
        <time>2021-03-27T10:02:21.883Z</time>
      </trkpt>
      <trkpt lat="45.91369" lon="3.45147">
        <ele>284.19299316406</ele>
        <time>2021-03-27T10:02:22.298Z</time>
      </trkpt>
      <trkpt lat="45.91374" lon="3.45145">
        <ele>284.4521484375</ele>
        <time>2021-03-27T10:02:22.714Z</time>
      </trkpt>
      <trkpt lat="45.9138" lon="3.45143">
        <ele>284.26721191406</ele>
        <time>2021-03-27T10:02:23.131Z</time>
      </trkpt>
      <trkpt lat="45.91393" lon="3.45141">
        <ele>283.41424560547</ele>
        <time>2021-03-27T10:02:23.550Z</time>
      </trkpt>
      <trkpt lat="45.91404" lon="3.45141">
        <ele>282.66036987305</ele>
        <time>2021-03-27T10:02:23.972Z</time>
      </trkpt>
      <trkpt lat="45.91408" lon="3.45139">
        <ele>282.58117675781</ele>
        <time>2021-03-27T10:02:24.395Z</time>
      </trkpt>
      <trkpt lat="45.91414" lon="3.45137">
        <ele>282.5451965332</ele>
        <time>2021-03-27T10:02:24.819Z</time>
      </trkpt>
      <trkpt lat="45.91419" lon="3.45134">
        <ele>282.60638427734</ele>
        <time>2021-03-27T10:02:25.244Z</time>
      </trkpt>
      <trkpt lat="45.91426" lon="3.45128">
        <ele>282.77911376953</ele>
        <time>2021-03-27T10:02:25.670Z</time>
      </trkpt>
      <trkpt lat="45.91434" lon="3.4512">
        <ele>283.0778503418</ele>
        <time>2021-03-27T10:02:26.098Z</time>
      </trkpt>
      <trkpt lat="45.91443" lon="3.45109">
        <ele>283.51693725586</ele>
        <time>2021-03-27T10:02:26.529Z</time>
      </trkpt>
      <trkpt lat="45.91447" lon="3.45106">
        <ele>283.63568115234</ele>
        <time>2021-03-27T10:02:26.961Z</time>
      </trkpt>
      <trkpt lat="45.91451" lon="3.45103">
        <ele>283.66448974609</ele>
        <time>2021-03-27T10:02:27.393Z</time>
      </trkpt>
      <trkpt lat="45.91459" lon="3.45101">
        <ele>283.47732543945</ele>
        <time>2021-03-27T10:02:27.827Z</time>
      </trkpt>
      <trkpt lat="45.9147" lon="3.451">
        <ele>283.18942260742</ele>
        <time>2021-03-27T10:02:28.263Z</time>
      </trkpt>
      <trkpt lat="45.91476" lon="3.45099">
        <ele>282.8359375</ele>
        <time>2021-03-27T10:02:28.701Z</time>
      </trkpt>
      <trkpt lat="45.9148" lon="3.45097">
        <ele>282.41485595703</ele>
        <time>2021-03-27T10:02:29.139Z</time>
      </trkpt>
      <trkpt lat="45.91488" lon="3.4509">
        <ele>282</ele>
        <time>2021-03-27T10:02:29.579Z</time>
      </trkpt>
      <trkpt lat="45.91507" lon="3.45078">
        <ele>282</ele>
        <time>2021-03-27T10:02:30.023Z</time>
      </trkpt>
      <trkpt lat="45.91513" lon="3.45073">
        <ele>281.68084716797</ele>
        <time>2021-03-27T10:02:30.469Z</time>
      </trkpt>
      <trkpt lat="45.91518" lon="3.45069">
        <ele>281.51889038086</ele>
        <time>2021-03-27T10:02:30.916Z</time>
      </trkpt>
      <trkpt lat="45.91521" lon="3.45064">
        <ele>281.33535766602</ele>
        <time>2021-03-27T10:02:31.364Z</time>
      </trkpt>
      <trkpt lat="45.91526" lon="3.45055">
        <ele>281.04382324219</ele>
        <time>2021-03-27T10:02:31.813Z</time>
      </trkpt>
      <trkpt lat="45.9153" lon="3.45047">
        <ele>280.75592041016</ele>
        <time>2021-03-27T10:02:32.264Z</time>
      </trkpt>
      <trkpt lat="45.91533" lon="3.4504">
        <ele>280.4787902832</ele>
        <time>2021-03-27T10:02:32.716Z</time>
      </trkpt>
      <trkpt lat="45.91535" lon="3.45028">
        <ele>280.03970336914</ele>
        <time>2021-03-27T10:02:33.170Z</time>
      </trkpt>
      <trkpt lat="45.91538" lon="3.45007">
        <ele>279.96713256836</ele>
        <time>2021-03-27T10:02:33.627Z</time>
      </trkpt>
      <trkpt lat="45.91541" lon="3.44995">
        <ele>279.80932617188</ele>
        <time>2021-03-27T10:02:34.085Z</time>
      </trkpt>
      <trkpt lat="45.91546" lon="3.44984">
        <ele>279.2262878418</ele>
        <time>2021-03-27T10:02:34.545Z</time>
      </trkpt>
      <trkpt lat="45.91554" lon="3.4497">
        <ele>279</ele>
        <time>2021-03-27T10:02:35.008Z</time>
      </trkpt>
      <trkpt lat="45.9156" lon="3.4496">
        <ele>279</ele>
        <time>2021-03-27T10:02:35.473Z</time>
      </trkpt>
      <trkpt lat="45.91574" lon="3.44944">
        <ele>279</ele>
        <time>2021-03-27T10:02:35.941Z</time>
      </trkpt>
      <trkpt lat="45.91584" lon="3.44932">
        <ele>278.61547851562</ele>
        <time>2021-03-27T10:02:36.412Z</time>
      </trkpt>
      <trkpt lat="45.91593" lon="3.44923">
        <ele>278.91418457031</ele>
        <time>2021-03-27T10:02:36.885Z</time>
      </trkpt>
      <trkpt lat="45.91615" lon="3.44906">
        <ele>279.07504272461</ele>
        <time>2021-03-27T10:02:37.363Z</time>
      </trkpt>
      <trkpt lat="45.91624" lon="3.449">
        <ele>279.56341552734</ele>
        <time>2021-03-27T10:02:37.843Z</time>
      </trkpt>
      <trkpt lat="45.9163" lon="3.44895">
        <ele>279.72177124023</ele>
        <time>2021-03-27T10:02:38.325Z</time>
      </trkpt>
      <trkpt lat="45.91633" lon="3.44893">
        <ele>279.80453491211</ele>
        <time>2021-03-27T10:02:38.807Z</time>
      </trkpt>
      <trkpt lat="45.91643" lon="3.44883">
        <ele>280</ele>
        <time>2021-03-27T10:02:39.292Z</time>
      </trkpt>
      <trkpt lat="45.91671" lon="3.44856">
        <ele>280</ele>
        <time>2021-03-27T10:02:39.783Z</time>
      </trkpt>
      <trkpt lat="45.91683" lon="3.44845">
        <ele>280.53567504883</ele>
        <time>2021-03-27T10:02:40.277Z</time>
      </trkpt>
      <trkpt lat="45.91687" lon="3.4484">
        <ele>280.72280883789</ele>
        <time>2021-03-27T10:02:40.772Z</time>
      </trkpt>
      <trkpt lat="45.91691" lon="3.44833">
        <ele>280.94955444336</ele>
        <time>2021-03-27T10:02:41.268Z</time>
      </trkpt>
      <trkpt lat="45.91696" lon="3.44824">
        <ele>280.70855712891</ele>
        <time>2021-03-27T10:02:41.766Z</time>
      </trkpt>
      <trkpt lat="45.91703" lon="3.44808">
        <ele>280.14709472656</ele>
        <time>2021-03-27T10:02:42.267Z</time>
      </trkpt>
      <trkpt lat="45.91712" lon="3.44791">
        <ele>279.513671875</ele>
        <time>2021-03-27T10:02:42.771Z</time>
      </trkpt>
      <trkpt lat="45.91727" lon="3.44763">
        <ele>278.74404907227</ele>
        <time>2021-03-27T10:02:43.280Z</time>
      </trkpt>
      <trkpt lat="45.91747" lon="3.44724">
        <ele>278.45666503906</ele>
        <time>2021-03-27T10:02:43.795Z</time>
      </trkpt>
      <trkpt lat="45.9176" lon="3.44701">
        <ele>279.62484741211</ele>
        <time>2021-03-27T10:02:44.315Z</time>
      </trkpt>
      <trkpt lat="45.91768" lon="3.4469">
        <ele>280.34454345703</ele>
        <time>2021-03-27T10:02:44.837Z</time>
      </trkpt>
      <trkpt lat="45.91775" lon="3.44682">
        <ele>280.88800048828</ele>
        <time>2021-03-27T10:02:45.361Z</time>
      </trkpt>
      <trkpt lat="45.9178" lon="3.44677">
        <ele>281.48141479492</ele>
        <time>2021-03-27T10:02:45.886Z</time>
      </trkpt>
      <trkpt lat="45.91792" lon="3.4467">
        <ele>282.63903808594</ele>
        <time>2021-03-27T10:02:46.413Z</time>
      </trkpt>
      <trkpt lat="45.91807" lon="3.44663">
        <ele>282.43020629883</ele>
        <time>2021-03-27T10:02:46.944Z</time>
      </trkpt>
      <trkpt lat="45.91822" lon="3.44657">
        <ele>281.52792358398</ele>
        <time>2021-03-27T10:02:47.478Z</time>
      </trkpt>
      <trkpt lat="45.91835" lon="3.4465">
        <ele>280.82611083984</ele>
        <time>2021-03-27T10:02:48.014Z</time>
      </trkpt>
      <trkpt lat="45.91843" lon="3.44644">
        <ele>280.29705810547</ele>
        <time>2021-03-27T10:02:48.552Z</time>
      </trkpt>
      <trkpt lat="45.91851" lon="3.44638">
        <ele>279.81118774414</ele>
        <time>2021-03-27T10:02:49.092Z</time>
      </trkpt>
      <trkpt lat="45.91859" lon="3.44632">
        <ele>279.2893371582</ele>
        <time>2021-03-27T10:02:49.634Z</time>
      </trkpt>
      <trkpt lat="45.91864" lon="3.4463">
        <ele>279.041015625</ele>
        <time>2021-03-27T10:02:50.177Z</time>
      </trkpt>
      <trkpt lat="45.91867" lon="3.44629">
        <ele>279</ele>
        <time>2021-03-27T10:02:50.721Z</time>
      </trkpt>
      <trkpt lat="45.91875" lon="3.44628">
        <ele>278.91143798828</ele>
        <time>2021-03-27T10:02:51.266Z</time>
      </trkpt>
      <trkpt lat="45.91886" lon="3.4463">
        <ele>278.52993774414</ele>
        <time>2021-03-27T10:02:51.813Z</time>
      </trkpt>
      <trkpt lat="45.9189" lon="3.44631">
        <ele>278.37878417969</ele>
        <time>2021-03-27T10:02:52.361Z</time>
      </trkpt>
      <trkpt lat="45.91894" lon="3.4463">
        <ele>278.22763061523</ele>
        <time>2021-03-27T10:02:52.910Z</time>
      </trkpt>
      <trkpt lat="45.91899" lon="3.44629">
        <ele>278.06207275391</ele>
        <time>2021-03-27T10:02:53.460Z</time>
      </trkpt>
      <trkpt lat="45.91904" lon="3.44629">
        <ele>277.87850952148</ele>
        <time>2021-03-27T10:02:54.011Z</time>
      </trkpt>
      <trkpt lat="45.9191" lon="3.44629">
        <ele>277.67697143555</ele>
        <time>2021-03-27T10:02:54.563Z</time>
      </trkpt>
      <trkpt lat="45.91917" lon="3.44629">
        <ele>277.40704345703</ele>
        <time>2021-03-27T10:02:55.117Z</time>
      </trkpt>
      <trkpt lat="45.91928" lon="3.4463">
        <ele>277.02914428711</ele>
        <time>2021-03-27T10:02:55.673Z</time>
      </trkpt>
      <trkpt lat="45.91939" lon="3.44629">
        <ele>277</ele>
        <time>2021-03-27T10:02:56.231Z</time>
      </trkpt>
      <trkpt lat="45.91949" lon="3.44629">
        <ele>277</ele>
        <time>2021-03-27T10:02:56.791Z</time>
      </trkpt>
      <trkpt lat="45.91964" lon="3.4463">
        <ele>277.28088378906</ele>
        <time>2021-03-27T10:02:57.354Z</time>
      </trkpt>
      <trkpt lat="45.9198" lon="3.44632">
        <ele>277.78765869141</ele>
        <time>2021-03-27T10:02:57.920Z</time>
      </trkpt>
      <trkpt lat="45.92012" lon="3.44635">
        <ele>279.97003173828</ele>
        <time>2021-03-27T10:02:58.493Z</time>
      </trkpt>
      <trkpt lat="45.92029" lon="3.44636">
        <ele>281.23327636719</ele>
        <time>2021-03-27T10:02:59.069Z</time>
      </trkpt>
      <trkpt lat="45.92032" lon="3.44635">
        <ele>281.36642456055</ele>
        <time>2021-03-27T10:02:59.646Z</time>
      </trkpt>
      <trkpt lat="45.92034" lon="3.44633">
        <ele>281.47439575195</ele>
        <time>2021-03-27T10:03:00.223Z</time>
      </trkpt>
      <trkpt lat="45.92038" lon="3.44628">
        <ele>281.55718994141</ele>
        <time>2021-03-27T10:03:00.801Z</time>
      </trkpt>
      <trkpt lat="45.92043" lon="3.44619">
        <ele>281.18490600586</ele>
        <time>2021-03-27T10:03:01.381Z</time>
      </trkpt>
      <trkpt lat="45.9205" lon="3.44605">
        <ele>281.78082275391</ele>
        <time>2021-03-27T10:03:01.963Z</time>
      </trkpt>
      <trkpt lat="45.92056" lon="3.44593">
        <ele>281.99401855469</ele>
        <time>2021-03-27T10:03:02.547Z</time>
      </trkpt>
      <trkpt lat="45.92062" lon="3.44584">
        <ele>281.89685058594</ele>
        <time>2021-03-27T10:03:03.133Z</time>
      </trkpt>
      <trkpt lat="45.92068" lon="3.44575">
        <ele>281.83428955078</ele>
        <time>2021-03-27T10:03:03.721Z</time>
      </trkpt>
      <trkpt lat="45.9208" lon="3.44555">
        <ele>281.48498535156</ele>
        <time>2021-03-27T10:03:04.312Z</time>
      </trkpt>
      <trkpt lat="45.92085" lon="3.44544">
        <ele>280.54843139648</ele>
        <time>2021-03-27T10:03:04.905Z</time>
      </trkpt>
      <trkpt lat="45.92089" lon="3.44536">
        <ele>280.28930664062</ele>
        <time>2021-03-27T10:03:05.500Z</time>
      </trkpt>
      <trkpt lat="45.92094" lon="3.44526">
        <ele>279.90060424805</ele>
        <time>2021-03-27T10:03:06.096Z</time>
      </trkpt>
      <trkpt lat="45.921" lon="3.44514">
        <ele>278.85925292969</ele>
        <time>2021-03-27T10:03:06.694Z</time>
      </trkpt>
      <trkpt lat="45.92106" lon="3.44505">
        <ele>278.25997924805</ele>
        <time>2021-03-27T10:03:07.294Z</time>
      </trkpt>
      <trkpt lat="45.92111" lon="3.44498">
        <ele>278.15100097656</ele>
        <time>2021-03-27T10:03:07.896Z</time>
      </trkpt>
      <trkpt lat="45.92118" lon="3.4449">
        <ele>278.34176635742</ele>
        <time>2021-03-27T10:03:08.499Z</time>
      </trkpt>
      <trkpt lat="45.92123" lon="3.44485">
        <ele>278.52203369141</ele>
        <time>2021-03-27T10:03:09.104Z</time>
      </trkpt>
      <trkpt lat="45.92129" lon="3.44481">
        <ele>278.57601928711</ele>
        <time>2021-03-27T10:03:09.710Z</time>
      </trkpt>
      <trkpt lat="45.92139" lon="3.44473">
        <ele>278.68756103516</ele>
        <time>2021-03-27T10:03:10.318Z</time>
      </trkpt>
      <trkpt lat="45.92147" lon="3.44469">
        <ele>278.81353759766</ele>
        <time>2021-03-27T10:03:10.928Z</time>
      </trkpt>
      <trkpt lat="45.92159" lon="3.44463">
        <ele>279.01147460938</ele>
        <time>2021-03-27T10:03:11.540Z</time>
      </trkpt>
      <trkpt lat="45.92171" lon="3.44457">
        <ele>279.03643798828</ele>
        <time>2021-03-27T10:03:12.155Z</time>
      </trkpt>
      <trkpt lat="45.92182" lon="3.44453">
        <ele>278.69812011719</ele>
        <time>2021-03-27T10:03:12.772Z</time>
      </trkpt>
      <trkpt lat="45.92192" lon="3.4445">
        <ele>278.48217773438</ele>
        <time>2021-03-27T10:03:13.391Z</time>
      </trkpt>
      <trkpt lat="45.92204" lon="3.44447">
        <ele>278.30221557617</ele>
        <time>2021-03-27T10:03:14.013Z</time>
      </trkpt>
      <trkpt lat="45.92215" lon="3.44446">
        <ele>278.10794067383</ele>
        <time>2021-03-27T10:03:14.637Z</time>
      </trkpt>
      <trkpt lat="45.92233" lon="3.44445">
        <ele>278.0827331543</ele>
        <time>2021-03-27T10:03:15.265Z</time>
      </trkpt>
      <trkpt lat="45.92247" lon="3.44446">
        <ele>278</ele>
        <time>2021-03-27T10:03:15.895Z</time>
      </trkpt>
      <trkpt lat="45.92259" lon="3.44447">
        <ele>278</ele>
        <time>2021-03-27T10:03:16.528Z</time>
      </trkpt>
      <trkpt lat="45.9227" lon="3.4445">
        <ele>278</ele>
        <time>2021-03-27T10:03:17.163Z</time>
      </trkpt>
      <trkpt lat="45.92282" lon="3.44455">
        <ele>278</ele>
        <time>2021-03-27T10:03:17.801Z</time>
      </trkpt>
      <trkpt lat="45.92289" lon="3.44457">
        <ele>278</ele>
        <time>2021-03-27T10:03:18.440Z</time>
      </trkpt>
      <trkpt lat="45.92297" lon="3.44458">
        <ele>278</ele>
        <time>2021-03-27T10:03:19.080Z</time>
      </trkpt>
      <trkpt lat="45.92301" lon="3.44458">
        <ele>278</ele>
        <time>2021-03-27T10:03:19.721Z</time>
      </trkpt>
      <trkpt lat="45.92306" lon="3.44456">
        <ele>278</ele>
        <time>2021-03-27T10:03:20.363Z</time>
      </trkpt>
      <trkpt lat="45.92309" lon="3.44458">
        <ele>278</ele>
        <time>2021-03-27T10:03:21.006Z</time>
      </trkpt>
      <trkpt lat="45.92312" lon="3.4446">
        <ele>278</ele>
        <time>2021-03-27T10:03:21.650Z</time>
      </trkpt>
      <trkpt lat="45.92312" lon="3.4446">
        <ele>278</ele>
        <time>2021-03-27T10:03:22.294Z</time>
      </trkpt>
      <trkpt lat="45.92312" lon="3.4446">
        <ele>278</ele>
        <time>2021-03-27T10:03:22.938Z</time>
      </trkpt>
      <trkpt lat="45.92317" lon="3.44462">
        <ele>278</ele>
        <time>2021-03-27T10:03:23.583Z</time>
      </trkpt>
      <trkpt lat="45.92319" lon="3.44466">
        <ele>277.94625854492</ele>
        <time>2021-03-27T10:03:24.228Z</time>
      </trkpt>
      <trkpt lat="45.92325" lon="3.44476">
        <ele>277.89636230469</ele>
        <time>2021-03-27T10:03:24.875Z</time>
      </trkpt>
      <trkpt lat="45.92329" lon="3.44481">
        <ele>277.92156982422</ele>
        <time>2021-03-27T10:03:25.523Z</time>
      </trkpt>
      <trkpt lat="45.92333" lon="3.44484">
        <ele>277.89996337891</ele>
        <time>2021-03-27T10:03:26.172Z</time>
      </trkpt>
      <trkpt lat="45.92338" lon="3.44486">
        <ele>277.81359863281</ele>
        <time>2021-03-27T10:03:26.822Z</time>
      </trkpt>
      <trkpt lat="45.92345" lon="3.44488">
        <ele>277.62643432617</ele>
        <time>2021-03-27T10:03:27.474Z</time>
      </trkpt>
      <trkpt lat="45.92356" lon="3.44488">
        <ele>277.24133300781</ele>
        <time>2021-03-27T10:03:28.128Z</time>
      </trkpt>
      <trkpt lat="45.92374" lon="3.44483">
        <ele>276.47634887695</ele>
        <time>2021-03-27T10:03:28.786Z</time>
      </trkpt>
      <trkpt lat="45.92387" lon="3.44478">
        <ele>276.77865600586</ele>
        <time>2021-03-27T10:03:29.446Z</time>
      </trkpt>
      <trkpt lat="45.92397" lon="3.44474">
        <ele>276.98379516602</ele>
        <time>2021-03-27T10:03:30.108Z</time>
      </trkpt>
      <trkpt lat="45.92404" lon="3.4447">
        <ele>277.0881652832</ele>
        <time>2021-03-27T10:03:30.772Z</time>
      </trkpt>
      <trkpt lat="45.92413" lon="3.44464">
        <ele>277.18533325195</ele>
        <time>2021-03-27T10:03:31.438Z</time>
      </trkpt>
      <trkpt lat="45.92427" lon="3.44453">
        <ele>277.28970336914</ele>
        <time>2021-03-27T10:03:32.107Z</time>
      </trkpt>
      <trkpt lat="45.92443" lon="3.44439">
        <ele>277</ele>
        <time>2021-03-27T10:03:32.780Z</time>
      </trkpt>
      <trkpt lat="45.92458" lon="3.44428">
        <ele>277</ele>
        <time>2021-03-27T10:03:33.456Z</time>
      </trkpt>
      <trkpt lat="45.92466" lon="3.44423">
        <ele>277</ele>
        <time>2021-03-27T10:03:34.134Z</time>
      </trkpt>
      <trkpt lat="45.92473" lon="3.44419">
        <ele>277</ele>
        <time>2021-03-27T10:03:34.813Z</time>
      </trkpt>
      <trkpt lat="45.92487" lon="3.44412">
        <ele>277</ele>
        <time>2021-03-27T10:03:35.495Z</time>
      </trkpt>
      <trkpt lat="45.92509" lon="3.44399">
        <ele>277</ele>
        <time>2021-03-27T10:03:36.182Z</time>
      </trkpt>
      <trkpt lat="45.92524" lon="3.4439">
        <ele>277.09967041016</ele>
        <time>2021-03-27T10:03:36.872Z</time>
      </trkpt>
      <trkpt lat="45.92532" lon="3.44383">
        <ele>276.85494995117</ele>
        <time>2021-03-27T10:03:37.564Z</time>
      </trkpt>
      <trkpt lat="45.9254" lon="3.44376">
        <ele>277.01110839844</ele>
        <time>2021-03-27T10:03:38.258Z</time>
      </trkpt>
      <trkpt lat="45.92545" lon="3.4437">
        <ele>277.19467163086</ele>
        <time>2021-03-27T10:03:38.953Z</time>
      </trkpt>
      <trkpt lat="45.9255" lon="3.44362">
        <ele>277.10275268555</ele>
        <time>2021-03-27T10:03:39.650Z</time>
      </trkpt>
      <trkpt lat="45.92556" lon="3.44352">
        <ele>277</ele>
        <time>2021-03-27T10:03:40.349Z</time>
      </trkpt>
      <trkpt lat="45.92565" lon="3.44337">
        <ele>277</ele>
        <time>2021-03-27T10:03:41.051Z</time>
      </trkpt>
      <trkpt lat="45.92571" lon="3.4433">
        <ele>277.14120483398</ele>
        <time>2021-03-27T10:03:41.754Z</time>
      </trkpt>
      <trkpt lat="45.92577" lon="3.44323">
        <ele>277.34274291992</ele>
        <time>2021-03-27T10:03:42.459Z</time>
      </trkpt>
      <trkpt lat="45.92585" lon="3.44317">
        <ele>277.45080566406</ele>
        <time>2021-03-27T10:03:43.165Z</time>
      </trkpt>
      <trkpt lat="45.92591" lon="3.44311">
        <ele>277.23846435547</ele>
        <time>2021-03-27T10:03:43.873Z</time>
      </trkpt>
      <trkpt lat="45.92598" lon="3.44307">
        <ele>277.09408569336</ele>
        <time>2021-03-27T10:03:44.582Z</time>
      </trkpt>
      <trkpt lat="45.92603" lon="3.44305">
        <ele>276.75579833984</ele>
        <time>2021-03-27T10:03:45.292Z</time>
      </trkpt>
      <trkpt lat="45.92611" lon="3.44303">
        <ele>276.38510131836</ele>
        <time>2021-03-27T10:03:46.004Z</time>
      </trkpt>
      <trkpt lat="45.92618" lon="3.44303">
        <ele>276.09716796875</ele>
        <time>2021-03-27T10:03:46.717Z</time>
      </trkpt>
      <trkpt lat="45.92624" lon="3.44304">
        <ele>275.98748779297</ele>
        <time>2021-03-27T10:03:47.432Z</time>
      </trkpt>
      <trkpt lat="45.92631" lon="3.44307">
        <ele>276.09451293945</ele>
        <time>2021-03-27T10:03:48.148Z</time>
      </trkpt>
      <trkpt lat="45.92639" lon="3.4431">
        <ele>276.22409057617</ele>
        <time>2021-03-27T10:03:48.866Z</time>
      </trkpt>
      <trkpt lat="45.92659" lon="3.44324">
        <ele>276.72793579102</ele>
        <time>2021-03-27T10:03:49.588Z</time>
      </trkpt>
      <trkpt lat="45.92676" lon="3.44337">
        <ele>277</ele>
        <time>2021-03-27T10:03:50.314Z</time>
      </trkpt>
      <trkpt lat="45.92687" lon="3.44343">
        <ele>277.31243896484</ele>
        <time>2021-03-27T10:03:51.042Z</time>
      </trkpt>
      <trkpt lat="45.92691" lon="3.44345">
        <ele>277.44201660156</ele>
        <time>2021-03-27T10:03:51.771Z</time>
      </trkpt>
      <trkpt lat="45.92695" lon="3.44345">
        <ele>277.60757446289</ele>
        <time>2021-03-27T10:03:52.501Z</time>
      </trkpt>
      <trkpt lat="45.92701" lon="3.44344">
        <ele>277.81991577148</ele>
        <time>2021-03-27T10:03:53.232Z</time>
      </trkpt>
      <trkpt lat="45.92715" lon="3.4434">
        <ele>277.97280883789</ele>
        <time>2021-03-27T10:03:53.966Z</time>
      </trkpt>
      <trkpt lat="45.92739" lon="3.44332">
        <ele>277.01226806641</ele>
        <time>2021-03-27T10:03:54.705Z</time>
      </trkpt>
      <trkpt lat="45.92745" lon="3.44331">
        <ele>276.9582824707</ele>
        <time>2021-03-27T10:03:55.445Z</time>
      </trkpt>
      <trkpt lat="45.92752" lon="3.4433">
        <ele>276.93667602539</ele>
        <time>2021-03-27T10:03:56.187Z</time>
      </trkpt>
      <trkpt lat="45.92763" lon="3.4433">
        <ele>276.96276855469</ele>
        <time>2021-03-27T10:03:56.931Z</time>
      </trkpt>
      <trkpt lat="45.92775" lon="3.44331">
        <ele>277.46664428711</ele>
        <time>2021-03-27T10:03:57.677Z</time>
      </trkpt>
      <trkpt lat="45.92784" lon="3.44333">
        <ele>277.82293701172</ele>
        <time>2021-03-27T10:03:58.425Z</time>
      </trkpt>
      <trkpt lat="45.92791" lon="3.44335">
        <ele>278.21304321289</ele>
        <time>2021-03-27T10:03:59.175Z</time>
      </trkpt>
      <trkpt lat="45.92798" lon="3.44338">
        <ele>278.74575805664</ele>
        <time>2021-03-27T10:03:59.926Z</time>
      </trkpt>
      <trkpt lat="45.92815" lon="3.44348">
        <ele>280.02697753906</ele>
        <time>2021-03-27T10:04:00.681Z</time>
      </trkpt>
      <trkpt lat="45.9283" lon="3.44357">
        <ele>281.29025268555</ele>
        <time>2021-03-27T10:04:01.439Z</time>
      </trkpt>
      <trkpt lat="45.92842" lon="3.44367">
        <ele>281.88009643555</ele>
        <time>2021-03-27T10:04:02.200Z</time>
      </trkpt>
      <trkpt lat="45.92854" lon="3.44382">
        <ele>281.09646606445</ele>
        <time>2021-03-27T10:04:02.964Z</time>
      </trkpt>
      <trkpt lat="45.92858" lon="3.4439">
        <ele>280.50729370117</ele>
        <time>2021-03-27T10:04:03.729Z</time>
      </trkpt>
      <trkpt lat="45.92862" lon="3.44394">
        <ele>279.9782409668</ele>
        <time>2021-03-27T10:04:04.495Z</time>
      </trkpt>
      <trkpt lat="45.92865" lon="3.44396">
        <ele>279.56436157227</ele>
        <time>2021-03-27T10:04:05.262Z</time>
      </trkpt>
      <trkpt lat="45.92877" lon="3.44404">
        <ele>278.13494873047</ele>
        <time>2021-03-27T10:04:06.031Z</time>
      </trkpt>
      <trkpt lat="45.92903" lon="3.44422">
        <ele>276</ele>
        <time>2021-03-27T10:04:06.806Z</time>
      </trkpt>
      <trkpt lat="45.92906" lon="3.44422">
        <ele>276</ele>
        <time>2021-03-27T10:04:07.582Z</time>
      </trkpt>
      <trkpt lat="45.92908" lon="3.44422">
        <ele>276</ele>
        <time>2021-03-27T10:04:08.358Z</time>
      </trkpt>
      <trkpt lat="45.9291" lon="3.4442">
        <ele>276</ele>
        <time>2021-03-27T10:04:09.135Z</time>
      </trkpt>
      <trkpt lat="45.92915" lon="3.44414">
        <ele>276</ele>
        <time>2021-03-27T10:04:09.913Z</time>
      </trkpt>
      <trkpt lat="45.92922" lon="3.44407">
        <ele>276</ele>
        <time>2021-03-27T10:04:10.693Z</time>
      </trkpt>
      <trkpt lat="45.92926" lon="3.44403">
        <ele>276</ele>
        <time>2021-03-27T10:04:11.474Z</time>
      </trkpt>
      <trkpt lat="45.92931" lon="3.44401">
        <ele>276</ele>
        <time>2021-03-27T10:04:12.256Z</time>
      </trkpt>
      <trkpt lat="45.92939" lon="3.44399">
        <ele>276</ele>
        <time>2021-03-27T10:04:13.039Z</time>
      </trkpt>
      <trkpt lat="45.92947" lon="3.44398">
        <ele>276</ele>
        <time>2021-03-27T10:04:13.824Z</time>
      </trkpt>
      <trkpt lat="45.92966" lon="3.44398">
        <ele>275.6643371582</ele>
        <time>2021-03-27T10:04:14.613Z</time>
      </trkpt>
      <trkpt lat="45.92974" lon="3.44398">
        <ele>275.63040161133</ele>
        <time>2021-03-27T10:04:15.403Z</time>
      </trkpt>
      <trkpt lat="45.92981" lon="3.44397">
        <ele>275.66998291016</ele>
        <time>2021-03-27T10:04:16.195Z</time>
      </trkpt>
      <trkpt lat="45.92993" lon="3.44392">
        <ele>275.82113647461</ele>
        <time>2021-03-27T10:04:16.989Z</time>
      </trkpt>
      <trkpt lat="45.93016" lon="3.44383">
        <ele>276.3053894043</ele>
        <time>2021-03-27T10:04:17.788Z</time>
      </trkpt>
      <trkpt lat="45.93037" lon="3.44376">
        <ele>277</ele>
        <time>2021-03-27T10:04:18.591Z</time>
      </trkpt>
      <trkpt lat="45.93051" lon="3.4437">
        <ele>277</ele>
        <time>2021-03-27T10:04:19.397Z</time>
      </trkpt>
      <trkpt lat="45.93059" lon="3.44367">
        <ele>277</ele>
        <time>2021-03-27T10:04:20.205Z</time>
      </trkpt>
      <trkpt lat="45.93063" lon="3.44366">
        <ele>277</ele>
        <time>2021-03-27T10:04:21.014Z</time>
      </trkpt>
      <trkpt lat="45.93065" lon="3.44367">
        <ele>277</ele>
        <time>2021-03-27T10:04:21.823Z</time>
      </trkpt>
      <trkpt lat="45.93067" lon="3.44368">
        <ele>277</ele>
        <time>2021-03-27T10:04:22.633Z</time>
      </trkpt>
      <trkpt lat="45.93078" lon="3.44383">
        <ele>276.60827636719</ele>
        <time>2021-03-27T10:04:23.446Z</time>
      </trkpt>
      <trkpt lat="45.93091" lon="3.444">
        <ele>276.14758300781</ele>
        <time>2021-03-27T10:04:24.262Z</time>
      </trkpt>
      <trkpt lat="45.93098" lon="3.44407">
        <ele>276</ele>
        <time>2021-03-27T10:04:25.080Z</time>
      </trkpt>
      <trkpt lat="45.93104" lon="3.4441">
        <ele>276</ele>
        <time>2021-03-27T10:04:25.899Z</time>
      </trkpt>
      <trkpt lat="45.93108" lon="3.44412">
        <ele>276</ele>
        <time>2021-03-27T10:04:26.719Z</time>
      </trkpt>
      <trkpt lat="45.93113" lon="3.44413">
        <ele>276</ele>
        <time>2021-03-27T10:04:27.540Z</time>
      </trkpt>
      <trkpt lat="45.93125" lon="3.44413">
        <ele>276.22827148438</ele>
        <time>2021-03-27T10:04:28.364Z</time>
      </trkpt>
      <trkpt lat="45.93133" lon="3.44412">
        <ele>276.82931518555</ele>
        <time>2021-03-27T10:04:29.189Z</time>
      </trkpt>
      <trkpt lat="45.93139" lon="3.44409">
        <ele>277.3727722168</ele>
        <time>2021-03-27T10:04:30.015Z</time>
      </trkpt>
      <trkpt lat="45.93178" lon="3.44384">
        <ele>280.02935791016</ele>
        <time>2021-03-27T10:04:30.850Z</time>
      </trkpt>
      <trkpt lat="45.93207" lon="3.44368">
        <ele>279.68850708008</ele>
        <time>2021-03-27T10:04:31.691Z</time>
      </trkpt>
      <trkpt lat="45.93215" lon="3.44364">
        <ele>279.82885742188</ele>
        <time>2021-03-27T10:04:32.534Z</time>
      </trkpt>
      <trkpt lat="45.93221" lon="3.44362">
        <ele>279.90444946289</ele>
        <time>2021-03-27T10:04:33.378Z</time>
      </trkpt>
      <trkpt lat="45.93233" lon="3.44359">
        <ele>280</ele>
        <time>2021-03-27T10:04:34.225Z</time>
      </trkpt>
      <trkpt lat="45.93252" lon="3.44356">
        <ele>280.63958740234</ele>
        <time>2021-03-27T10:04:35.075Z</time>
      </trkpt>
      <trkpt lat="45.93263" lon="3.44354">
        <ele>280.96810913086</ele>
        <time>2021-03-27T10:04:35.928Z</time>
      </trkpt>
      <trkpt lat="45.93273" lon="3.4435">
        <ele>280.61181640625</ele>
        <time>2021-03-27T10:04:36.783Z</time>
      </trkpt>
      <trkpt lat="45.93279" lon="3.44347">
        <ele>280.45867919922</ele>
        <time>2021-03-27T10:04:37.639Z</time>
      </trkpt>
      <trkpt lat="45.93282" lon="3.44345">
        <ele>280.53787231445</ele>
        <time>2021-03-27T10:04:38.495Z</time>
      </trkpt>
      <trkpt lat="45.93284" lon="3.44342">
        <ele>280.6350402832</ele>
        <time>2021-03-27T10:04:39.352Z</time>
      </trkpt>
      <trkpt lat="45.93285" lon="3.44339">
        <ele>280.73580932617</ele>
        <time>2021-03-27T10:04:40.209Z</time>
      </trkpt>
      <trkpt lat="45.93286" lon="3.44336">
        <ele>280.86178588867</ele>
        <time>2021-03-27T10:04:41.067Z</time>
      </trkpt>
      <trkpt lat="45.93288" lon="3.44299">
        <ele>279.81021118164</ele>
        <time>2021-03-27T10:04:41.930Z</time>
      </trkpt>
      <trkpt lat="45.9329" lon="3.44262">
        <ele>278.98916625977</ele>
        <time>2021-03-27T10:04:42.798Z</time>
      </trkpt>
      <trkpt lat="45.93291" lon="3.4425">
        <ele>278.97479248047</ele>
        <time>2021-03-27T10:04:43.668Z</time>
      </trkpt>
      <trkpt lat="45.9329" lon="3.44244">
        <ele>278.83071899414</ele>
        <time>2021-03-27T10:04:44.539Z</time>
      </trkpt>
      <trkpt lat="45.9329" lon="3.44236">
        <ele>278.55725097656</ele>
        <time>2021-03-27T10:04:45.411Z</time>
      </trkpt>
      <trkpt lat="45.93288" lon="3.44229">
        <ele>278.244140625</ele>
        <time>2021-03-27T10:04:46.284Z</time>
      </trkpt>
      <trkpt lat="45.93281" lon="3.44208">
        <ele>277.69412231445</ele>
        <time>2021-03-27T10:04:47.160Z</time>
      </trkpt>
      <trkpt lat="45.93272" lon="3.44182">
        <ele>277.74203491211</ele>
        <time>2021-03-27T10:04:48.040Z</time>
      </trkpt>
      <trkpt lat="45.93267" lon="3.44171">
        <ele>277.99755859375</ele>
        <time>2021-03-27T10:04:48.922Z</time>
      </trkpt>
      <trkpt lat="45.93263" lon="3.4416">
        <ele>278.18161010742</ele>
        <time>2021-03-27T10:04:49.806Z</time>
      </trkpt>
      <trkpt lat="45.93259" lon="3.44153">
        <ele>278.4443359375</ele>
        <time>2021-03-27T10:04:50.691Z</time>
      </trkpt>
      <trkpt lat="45.93249" lon="3.44135">
        <ele>279.18432617188</ele>
        <time>2021-03-27T10:04:51.579Z</time>
      </trkpt>
      <trkpt lat="45.93246" lon="3.44129">
        <ele>279.62341308594</ele>
        <time>2021-03-27T10:04:52.468Z</time>
      </trkpt>
      <trkpt lat="45.93244" lon="3.44125">
        <ele>279.91851806641</ele>
        <time>2021-03-27T10:04:53.358Z</time>
      </trkpt>
      <trkpt lat="45.93244" lon="3.44121">
        <ele>280.14886474609</ele>
        <time>2021-03-27T10:04:54.249Z</time>
      </trkpt>
      <trkpt lat="45.93243" lon="3.44114">
        <ele>280.53945922852</ele>
        <time>2021-03-27T10:04:55.141Z</time>
      </trkpt>
      <trkpt lat="45.93243" lon="3.44101">
        <ele>281.01812744141</ele>
        <time>2021-03-27T10:04:56.034Z</time>
      </trkpt>
      <trkpt lat="45.93243" lon="3.44072">
        <ele>281.33557128906</ele>
        <time>2021-03-27T10:04:56.931Z</time>
      </trkpt>
      <trkpt lat="45.93244" lon="3.44056">
        <ele>281</ele>
        <time>2021-03-27T10:04:57.831Z</time>
      </trkpt>
      <trkpt lat="45.93245" lon="3.44046">
        <ele>280.6975402832</ele>
        <time>2021-03-27T10:04:58.732Z</time>
      </trkpt>
      <trkpt lat="45.93245" lon="3.44044">
        <ele>280.6579284668</ele>
        <time>2021-03-27T10:04:59.633Z</time>
      </trkpt>
      <trkpt lat="45.93247" lon="3.44032">
        <ele>280.4560546875</ele>
        <time>2021-03-27T10:05:00.536Z</time>
      </trkpt>
      <trkpt lat="45.93266" lon="3.44039">
        <ele>280.74908447266</ele>
        <time>2021-03-27T10:05:01.443Z</time>
      </trkpt>
      <trkpt lat="45.93281" lon="3.44045">
        <ele>279.65496826172</ele>
        <time>2021-03-27T10:05:02.353Z</time>
      </trkpt>
      <trkpt lat="45.93291" lon="3.44048">
        <ele>278.89916992188</ele>
        <time>2021-03-27T10:05:03.265Z</time>
      </trkpt>
      <trkpt lat="45.93299" lon="3.4405">
        <ele>278.33053588867</ele>
        <time>2021-03-27T10:05:04.179Z</time>
      </trkpt>
      <trkpt lat="45.9331" lon="3.44051">
        <ele>277.58193969727</ele>
        <time>2021-03-27T10:05:05.095Z</time>
      </trkpt>
      <trkpt lat="45.93328" lon="3.44052">
        <ele>277</ele>
        <time>2021-03-27T10:05:06.015Z</time>
      </trkpt>
      <trkpt lat="45.9335" lon="3.44052">
        <ele>276.85137939453</ele>
        <time>2021-03-27T10:05:06.939Z</time>
      </trkpt>
      <trkpt lat="45.93378" lon="3.44051">
        <ele>276.08868408203</ele>
        <time>2021-03-27T10:05:07.869Z</time>
      </trkpt>
      <trkpt lat="45.934" lon="3.44049">
        <ele>275.37249755859</ele>
        <time>2021-03-27T10:05:08.803Z</time>
      </trkpt>
      <trkpt lat="45.93414" lon="3.44048">
        <ele>275.8805847168</ele>
        <time>2021-03-27T10:05:09.740Z</time>
      </trkpt>
      <trkpt lat="45.93424" lon="3.44047">
        <ele>276.34124755859</ele>
        <time>2021-03-27T10:05:10.679Z</time>
      </trkpt>
      <trkpt lat="45.93429" lon="3.44045">
        <ele>276.70184326172</ele>
        <time>2021-03-27T10:05:11.619Z</time>
      </trkpt>
      <trkpt lat="45.93438" lon="3.44043">
        <ele>278.08386230469</ele>
        <time>2021-03-27T10:05:12.561Z</time>
      </trkpt>
      <trkpt lat="45.93444" lon="3.4404">
        <ele>279.09216308594</ele>
        <time>2021-03-27T10:05:13.504Z</time>
      </trkpt>
      <trkpt lat="45.93454" lon="3.44038">
        <ele>279.80477905273</ele>
        <time>2021-03-27T10:05:14.449Z</time>
      </trkpt>
      <trkpt lat="45.9347" lon="3.44033">
        <ele>280.94924926758</ele>
        <time>2021-03-27T10:05:15.397Z</time>
      </trkpt>
      <trkpt lat="45.93483" lon="3.44029">
        <ele>281.92098999023</ele>
        <time>2021-03-27T10:05:16.348Z</time>
      </trkpt>
      <trkpt lat="45.93489" lon="3.44027">
        <ele>282</ele>
        <time>2021-03-27T10:05:17.300Z</time>
      </trkpt>
      <trkpt lat="45.93494" lon="3.44024">
        <ele>282</ele>
        <time>2021-03-27T10:05:18.253Z</time>
      </trkpt>
      <trkpt lat="45.93498" lon="3.44021">
        <ele>282</ele>
        <time>2021-03-27T10:05:19.207Z</time>
      </trkpt>
      <trkpt lat="45.93503" lon="3.44015">
        <ele>282</ele>
        <time>2021-03-27T10:05:20.162Z</time>
      </trkpt>
      <trkpt lat="45.9351" lon="3.44006">
        <ele>282</ele>
        <time>2021-03-27T10:05:21.119Z</time>
      </trkpt>
      <trkpt lat="45.93517" lon="3.43996">
        <ele>282.07318115234</ele>
        <time>2021-03-27T10:05:22.078Z</time>
      </trkpt>
      <trkpt lat="45.93522" lon="3.43992">
        <ele>282.23153686523</ele>
        <time>2021-03-27T10:05:23.038Z</time>
      </trkpt>
      <trkpt lat="45.93526" lon="3.43989">
        <ele>282.32150268555</ele>
        <time>2021-03-27T10:05:23.999Z</time>
      </trkpt>
      <trkpt lat="45.9353" lon="3.43988">
        <ele>282.3551940918</ele>
        <time>2021-03-27T10:05:24.961Z</time>
      </trkpt>
      <trkpt lat="45.93538" lon="3.43986">
        <ele>282.07086181641</ele>
        <time>2021-03-27T10:05:25.925Z</time>
      </trkpt>
      <trkpt lat="45.93544" lon="3.43984">
        <ele>281.70263671875</ele>
        <time>2021-03-27T10:05:26.890Z</time>
      </trkpt>
      <trkpt lat="45.93554" lon="3.43982">
        <ele>281.07565307617</ele>
        <time>2021-03-27T10:05:27.857Z</time>
      </trkpt>
      <trkpt lat="45.93567" lon="3.4398">
        <ele>280.68695068359</ele>
        <time>2021-03-27T10:05:28.827Z</time>
      </trkpt>
      <trkpt lat="45.93575" lon="3.43978">
        <ele>280.72821044922</ele>
        <time>2021-03-27T10:05:29.798Z</time>
      </trkpt>
      <trkpt lat="45.93582" lon="3.43976">
        <ele>280.79656982422</ele>
        <time>2021-03-27T10:05:30.771Z</time>
      </trkpt>
      <trkpt lat="45.93588" lon="3.43974">
        <ele>280.87936401367</ele>
        <time>2021-03-27T10:05:31.745Z</time>
      </trkpt>
      <trkpt lat="45.93596" lon="3.4397">
        <ele>281.00457763672</ele>
        <time>2021-03-27T10:05:32.721Z</time>
      </trkpt>
      <trkpt lat="45.93603" lon="3.43965">
        <ele>280.63748168945</ele>
        <time>2021-03-27T10:05:33.698Z</time>
      </trkpt>
      <trkpt lat="45.9361" lon="3.4396">
        <ele>280.3459777832</ele>
        <time>2021-03-27T10:05:34.677Z</time>
      </trkpt>
      <trkpt lat="45.93617" lon="3.43952">
        <ele>280.08325195312</ele>
        <time>2021-03-27T10:05:35.658Z</time>
      </trkpt>
      <trkpt lat="45.93623" lon="3.43947">
        <ele>279.91409301758</ele>
        <time>2021-03-27T10:05:36.640Z</time>
      </trkpt>
      <trkpt lat="45.93629" lon="3.43938">
        <ele>280.14215087891</ele>
        <time>2021-03-27T10:05:37.624Z</time>
      </trkpt>
      <trkpt lat="45.93636" lon="3.43929">
        <ele>280.54525756836</ele>
        <time>2021-03-27T10:05:38.609Z</time>
      </trkpt>
      <trkpt lat="45.93642" lon="3.43921">
        <ele>280.92315673828</ele>
        <time>2021-03-27T10:05:39.596Z</time>
      </trkpt>
      <trkpt lat="45.9365" lon="3.43911">
        <ele>281.13232421875</ele>
        <time>2021-03-27T10:05:40.585Z</time>
      </trkpt>
      <trkpt lat="45.93658" lon="3.43902">
        <ele>280.99273681641</ele>
        <time>2021-03-27T10:05:41.576Z</time>
      </trkpt>
      <trkpt lat="45.93665" lon="3.43894">
        <ele>281.04241943359</ele>
        <time>2021-03-27T10:05:42.569Z</time>
      </trkpt>
      <trkpt lat="45.93672" lon="3.43887">
        <ele>281.28747558594</ele>
        <time>2021-03-27T10:05:43.564Z</time>
      </trkpt>
      <trkpt lat="45.93681" lon="3.43878">
        <ele>281.20816040039</ele>
        <time>2021-03-27T10:05:44.561Z</time>
      </trkpt>
      <trkpt lat="45.93683" lon="3.43876">
        <ele>281.1217956543</ele>
        <time>2021-03-27T10:05:45.559Z</time>
      </trkpt>
      <trkpt lat="45.93688" lon="3.43871">
        <ele>280.92742919922</ele>
        <time>2021-03-27T10:05:46.558Z</time>
      </trkpt>
      <trkpt lat="45.93694" lon="3.43866">
        <ele>280.65753173828</ele>
        <time>2021-03-27T10:05:47.558Z</time>
      </trkpt>
      <trkpt lat="45.93697" lon="3.43864">
        <ele>280.52075195312</ele>
        <time>2021-03-27T10:05:48.559Z</time>
      </trkpt>
      <trkpt lat="45.93701" lon="3.43862">
        <ele>280.34439086914</ele>
        <time>2021-03-27T10:05:49.561Z</time>
      </trkpt>
      <trkpt lat="45.9371" lon="3.43857">
        <ele>279.98156738281</ele>
        <time>2021-03-27T10:05:50.565Z</time>
      </trkpt>
      <trkpt lat="45.93712" lon="3.43863">
        <ele>279.79779052734</ele>
        <time>2021-03-27T10:05:51.570Z</time>
      </trkpt>
      <trkpt lat="45.93717" lon="3.43875">
        <ele>279.43157958984</ele>
        <time>2021-03-27T10:05:52.577Z</time>
      </trkpt>
      <trkpt lat="45.9372" lon="3.43887">
        <ele>279.02127075195</ele>
        <time>2021-03-27T10:05:53.585Z</time>
      </trkpt>
      <trkpt lat="45.93723" lon="3.43903">
        <ele>278.44903564453</ele>
        <time>2021-03-27T10:05:54.596Z</time>
      </trkpt>
      <trkpt lat="45.93726" lon="3.43924">
        <ele>278</ele>
        <time>2021-03-27T10:05:55.610Z</time>
      </trkpt>
      <trkpt lat="45.93729" lon="3.43938">
        <ele>278</ele>
        <time>2021-03-27T10:05:56.626Z</time>
      </trkpt>
      <trkpt lat="45.93732" lon="3.43948">
        <ele>277.74789428711</ele>
        <time>2021-03-27T10:05:57.643Z</time>
      </trkpt>
      <trkpt lat="45.93736" lon="3.4396">
        <ele>277.51513671875</ele>
        <time>2021-03-27T10:05:58.662Z</time>
      </trkpt>
      <trkpt lat="45.93744" lon="3.43981">
        <ele>276.99209594727</ele>
        <time>2021-03-27T10:05:59.684Z</time>
      </trkpt>
      <trkpt lat="45.93751" lon="3.43995">
        <ele>276.72576904297</ele>
        <time>2021-03-27T10:06:00.709Z</time>
      </trkpt>
      <trkpt lat="45.93755" lon="3.44">
        <ele>276.65020751953</ele>
        <time>2021-03-27T10:06:01.735Z</time>
      </trkpt>
      <trkpt lat="45.93759" lon="3.44007">
        <ele>276.54583740234</ele>
        <time>2021-03-27T10:06:02.762Z</time>
      </trkpt>
      <trkpt lat="45.93763" lon="3.44013">
        <ele>276.49905395508</ele>
        <time>2021-03-27T10:06:03.790Z</time>
      </trkpt>
      <trkpt lat="45.93766" lon="3.44016">
        <ele>276.49185180664</ele>
        <time>2021-03-27T10:06:04.819Z</time>
      </trkpt>
      <trkpt lat="45.9377" lon="3.44019">
        <ele>276.52062988281</ele>
        <time>2021-03-27T10:06:05.849Z</time>
      </trkpt>
      <trkpt lat="45.93774" lon="3.44022">
        <ele>276.58901977539</ele>
        <time>2021-03-27T10:06:06.880Z</time>
      </trkpt>
      <trkpt lat="45.9379" lon="3.44027">
        <ele>276.9453125</ele>
        <time>2021-03-27T10:06:07.914Z</time>
      </trkpt>
      <trkpt lat="45.93811" lon="3.44033">
        <ele>277.23324584961</ele>
        <time>2021-03-27T10:06:08.952Z</time>
      </trkpt>
      <trkpt lat="45.93822" lon="3.44034">
        <ele>277.45913696289</ele>
        <time>2021-03-27T10:06:09.993Z</time>
      </trkpt>
      <trkpt lat="45.93832" lon="3.44035">
        <ele>277.61047363281</ele>
        <time>2021-03-27T10:06:11.036Z</time>
      </trkpt>
      <trkpt lat="45.93844" lon="3.44033">
        <ele>277.51690673828</ele>
        <time>2021-03-27T10:06:12.081Z</time>
      </trkpt>
      <trkpt lat="45.93861" lon="3.44028">
        <ele>277.0712890625</ele>
        <time>2021-03-27T10:06:13.129Z</time>
      </trkpt>
      <trkpt lat="45.93879" lon="3.44023">
        <ele>277.123046875</ele>
        <time>2021-03-27T10:06:14.181Z</time>
      </trkpt>
      <trkpt lat="45.93889" lon="3.44021">
        <ele>277.16983032227</ele>
        <time>2021-03-27T10:06:15.235Z</time>
      </trkpt>
      <trkpt lat="45.93899" lon="3.44022">
        <ele>277.15902709961</ele>
        <time>2021-03-27T10:06:16.291Z</time>
      </trkpt>
      <trkpt lat="45.93909" lon="3.44023">
        <ele>277.10504150391</ele>
        <time>2021-03-27T10:06:17.349Z</time>
      </trkpt>
      <trkpt lat="45.93917" lon="3.44026">
        <ele>277.01507568359</ele>
        <time>2021-03-27T10:06:18.409Z</time>
      </trkpt>
      <trkpt lat="45.93924" lon="3.4403">
        <ele>277</ele>
        <time>2021-03-27T10:06:19.470Z</time>
      </trkpt>
      <trkpt lat="45.93932" lon="3.44035">
        <ele>277</ele>
        <time>2021-03-27T10:06:20.533Z</time>
      </trkpt>
      <trkpt lat="45.93943" lon="3.44045">
        <ele>277</ele>
        <time>2021-03-27T10:06:21.599Z</time>
      </trkpt>
      <trkpt lat="45.93948" lon="3.4405">
        <ele>277</ele>
        <time>2021-03-27T10:06:22.666Z</time>
      </trkpt>
      <trkpt lat="45.93959" lon="3.4406">
        <ele>277.07012939453</ele>
        <time>2021-03-27T10:06:23.735Z</time>
      </trkpt>
      <trkpt lat="45.9398" lon="3.44081">
        <ele>277.82952880859</ele>
        <time>2021-03-27T10:06:24.810Z</time>
      </trkpt>
      <trkpt lat="45.93998" lon="3.44097">
        <ele>279.01397705078</ele>
        <time>2021-03-27T10:06:25.889Z</time>
      </trkpt>
      <trkpt lat="45.94016" lon="3.4411">
        <ele>279.89370727539</ele>
        <time>2021-03-27T10:06:26.972Z</time>
      </trkpt>
      <trkpt lat="45.94026" lon="3.44117">
        <ele>279.77496337891</ele>
        <time>2021-03-27T10:06:28.057Z</time>
      </trkpt>
      <trkpt lat="45.94041" lon="3.44125">
        <ele>279.52688598633</ele>
        <time>2021-03-27T10:06:29.145Z</time>
      </trkpt>
      <trkpt lat="45.9405" lon="3.4413">
        <ele>279.04821777344</ele>
        <time>2021-03-27T10:06:30.235Z</time>
      </trkpt>
      <trkpt lat="45.94061" lon="3.44133">
        <ele>278.32122802734</ele>
        <time>2021-03-27T10:06:31.328Z</time>
      </trkpt>
      <trkpt lat="45.9407" lon="3.44136">
        <ele>277.94021606445</ele>
        <time>2021-03-27T10:06:32.422Z</time>
      </trkpt>
      <trkpt lat="45.94078" lon="3.44139">
        <ele>278.10360717773</ele>
        <time>2021-03-27T10:06:33.518Z</time>
      </trkpt>
      <trkpt lat="45.94087" lon="3.44144">
        <ele>278.470703125</ele>
        <time>2021-03-27T10:06:34.616Z</time>
      </trkpt>
      <trkpt lat="45.94092" lon="3.44148">
        <ele>278.74420166016</ele>
        <time>2021-03-27T10:06:35.715Z</time>
      </trkpt>
      <trkpt lat="45.94097" lon="3.44154">
        <ele>279.23443603516</ele>
        <time>2021-03-27T10:06:36.815Z</time>
      </trkpt>
      <trkpt lat="45.94108" lon="3.44172">
        <ele>280.43984985352</ele>
        <time>2021-03-27T10:06:37.919Z</time>
      </trkpt>
      <trkpt lat="45.94116" lon="3.44187">
        <ele>280.73135375977</ele>
        <time>2021-03-27T10:06:39.025Z</time>
      </trkpt>
      <trkpt lat="45.94131" lon="3.44215">
        <ele>280.47698974609</ele>
        <time>2021-03-27T10:06:40.136Z</time>
      </trkpt>
      <trkpt lat="45.94147" lon="3.44245">
        <ele>278.25933837891</ele>
        <time>2021-03-27T10:06:41.252Z</time>
      </trkpt>
      <trkpt lat="45.94172" lon="3.44293">
        <ele>274.26040649414</ele>
        <time>2021-03-27T10:06:42.377Z</time>
      </trkpt>
      <trkpt lat="45.94179" lon="3.44305">
        <ele>274.00231933594</ele>
        <time>2021-03-27T10:06:43.504Z</time>
      </trkpt>
      <trkpt lat="45.94185" lon="3.44314">
        <ele>274.20028686523</ele>
        <time>2021-03-27T10:06:44.633Z</time>
      </trkpt>
      <trkpt lat="45.94195" lon="3.44326">
        <ele>274.5673828125</ele>
        <time>2021-03-27T10:06:45.764Z</time>
      </trkpt>
      <trkpt lat="45.9421" lon="3.44342">
        <ele>274.89636230469</ele>
        <time>2021-03-27T10:06:46.899Z</time>
      </trkpt>
      <trkpt lat="45.94227" lon="3.44357">
        <ele>274.25933837891</ele>
        <time>2021-03-27T10:06:48.038Z</time>
      </trkpt>
      <trkpt lat="45.94254" lon="3.4438">
        <ele>274</ele>
        <time>2021-03-27T10:06:49.183Z</time>
      </trkpt>
      <trkpt lat="45.94268" lon="3.44395">
        <ele>274</ele>
        <time>2021-03-27T10:06:50.332Z</time>
      </trkpt>
      <trkpt lat="45.94282" lon="3.44411">
        <ele>274</ele>
        <time>2021-03-27T10:06:51.484Z</time>
      </trkpt>
      <trkpt lat="45.94289" lon="3.44422">
        <ele>274</ele>
        <time>2021-03-27T10:06:52.639Z</time>
      </trkpt>
      <trkpt lat="45.94297" lon="3.44432">
        <ele>274.24194335938</ele>
        <time>2021-03-27T10:06:53.796Z</time>
      </trkpt>
      <trkpt lat="45.94307" lon="3.44447">
        <ele>274.91848754883</ele>
        <time>2021-03-27T10:06:54.956Z</time>
      </trkpt>
      <trkpt lat="45.94313" lon="3.44453">
        <ele>275.56271362305</ele>
        <time>2021-03-27T10:06:56.117Z</time>
      </trkpt>
      <trkpt lat="45.94319" lon="3.44459">
        <ele>276.20330810547</ele>
        <time>2021-03-27T10:06:57.279Z</time>
      </trkpt>
      <trkpt lat="45.9433" lon="3.44469">
        <ele>277.3298034668</ele>
        <time>2021-03-27T10:06:58.444Z</time>
      </trkpt>
      <trkpt lat="45.94342" lon="3.44481">
        <ele>277.85430908203</ele>
        <time>2021-03-27T10:06:59.612Z</time>
      </trkpt>
      <trkpt lat="45.94352" lon="3.44491">
        <ele>278</ele>
        <time>2021-03-27T10:07:00.783Z</time>
      </trkpt>
      <trkpt lat="45.9436" lon="3.44497">
        <ele>278</ele>
        <time>2021-03-27T10:07:01.955Z</time>
      </trkpt>
      <trkpt lat="45.94368" lon="3.445">
        <ele>278</ele>
        <time>2021-03-27T10:07:03.129Z</time>
      </trkpt>
      <trkpt lat="45.94386" lon="3.44506">
        <ele>277.12426757812</ele>
        <time>2021-03-27T10:07:04.307Z</time>
      </trkpt>
      <trkpt lat="45.944" lon="3.44511">
        <ele>276.09494018555</ele>
        <time>2021-03-27T10:07:05.487Z</time>
      </trkpt>
      <trkpt lat="45.94407" lon="3.44514">
        <ele>276</ele>
        <time>2021-03-27T10:07:06.669Z</time>
      </trkpt>
      <trkpt lat="45.94414" lon="3.44517">
        <ele>276</ele>
        <time>2021-03-27T10:07:07.852Z</time>
      </trkpt>
      <trkpt lat="45.94421" lon="3.44522">
        <ele>276</ele>
        <time>2021-03-27T10:07:09.037Z</time>
      </trkpt>
      <trkpt lat="45.94431" lon="3.4453">
        <ele>276.29629516602</ele>
        <time>2021-03-27T10:07:10.224Z</time>
      </trkpt>
      <trkpt lat="45.94457" lon="3.4455">
        <ele>278.85159301758</ele>
        <time>2021-03-27T10:07:11.417Z</time>
      </trkpt>
      <trkpt lat="45.94517" lon="3.44599">
        <ele>276.60000610352</ele>
        <time>2021-03-27T10:07:12.624Z</time>
      </trkpt>
      <trkpt lat="45.9455" lon="3.44623">
        <ele>277.8039855957</ele>
        <time>2021-03-27T10:07:13.838Z</time>
      </trkpt>
      <trkpt lat="45.9458" lon="3.44643">
        <ele>278.59689331055</ele>
        <time>2021-03-27T10:07:15.059Z</time>
      </trkpt>
      <trkpt lat="45.94608" lon="3.44665">
        <ele>276.19403076172</ele>
        <time>2021-03-27T10:07:16.286Z</time>
      </trkpt>
      <trkpt lat="45.94622" lon="3.44676">
        <ele>275.1369934082</ele>
        <time>2021-03-27T10:07:17.517Z</time>
      </trkpt>
      <trkpt lat="45.94634" lon="3.44687">
        <ele>275</ele>
        <time>2021-03-27T10:07:18.750Z</time>
      </trkpt>
      <trkpt lat="45.9464" lon="3.44693">
        <ele>275</ele>
        <time>2021-03-27T10:07:19.985Z</time>
      </trkpt>
      <trkpt lat="45.94653" lon="3.44705">
        <ele>274.62866210938</ele>
        <time>2021-03-27T10:07:21.223Z</time>
      </trkpt>
      <trkpt lat="45.94669" lon="3.4472">
        <ele>274.65744018555</ele>
        <time>2021-03-27T10:07:22.465Z</time>
      </trkpt>
      <trkpt lat="45.94687" lon="3.44738">
        <ele>274.39019775391</ele>
        <time>2021-03-27T10:07:23.711Z</time>
      </trkpt>
      <trkpt lat="45.94713" lon="3.44763">
        <ele>274.23538208008</ele>
        <time>2021-03-27T10:07:24.964Z</time>
      </trkpt>
      <trkpt lat="45.94738" lon="3.44785">
        <ele>275.1135559082</ele>
        <time>2021-03-27T10:07:26.222Z</time>
      </trkpt>
      <trkpt lat="45.94754" lon="3.44799">
        <ele>275.69299316406</ele>
        <time>2021-03-27T10:07:27.484Z</time>
      </trkpt>
      <trkpt lat="45.94775" lon="3.44818">
        <ele>276.97378540039</ele>
        <time>2021-03-27T10:07:28.751Z</time>
      </trkpt>
      <trkpt lat="45.94786" lon="3.44829">
        <ele>277.76916503906</ele>
        <time>2021-03-27T10:07:30.021Z</time>
      </trkpt>
      <trkpt lat="45.94797" lon="3.44841">
        <ele>277.42108154297</ele>
        <time>2021-03-27T10:07:31.294Z</time>
      </trkpt>
      <trkpt lat="45.94819" lon="3.44866">
        <ele>275.78707885742</ele>
        <time>2021-03-27T10:07:32.572Z</time>
      </trkpt>
      <trkpt lat="45.94829" lon="3.44876">
        <ele>275.41278076172</ele>
        <time>2021-03-27T10:07:33.853Z</time>
      </trkpt>
      <trkpt lat="45.94838" lon="3.44884">
        <ele>275.13204956055</ele>
        <time>2021-03-27T10:07:35.136Z</time>
      </trkpt>
      <trkpt lat="45.94844" lon="3.44888">
        <ele>274.98449707031</ele>
        <time>2021-03-27T10:07:36.420Z</time>
      </trkpt>
      <trkpt lat="45.94848" lon="3.44889">
        <ele>275.06524658203</ele>
        <time>2021-03-27T10:07:37.705Z</time>
      </trkpt>
      <trkpt lat="45.94853" lon="3.44889">
        <ele>275.25598144531</ele>
        <time>2021-03-27T10:07:38.991Z</time>
      </trkpt>
      <trkpt lat="45.94857" lon="3.44888">
        <ele>275.41793823242</ele>
        <time>2021-03-27T10:07:40.278Z</time>
      </trkpt>
      <trkpt lat="45.94865" lon="3.44886">
        <ele>275.7551574707</ele>
        <time>2021-03-27T10:07:41.566Z</time>
      </trkpt>
      <trkpt lat="45.94889" lon="3.44877">
        <ele>277.08166503906</ele>
        <time>2021-03-27T10:07:42.859Z</time>
      </trkpt>
      <trkpt lat="45.94912" lon="3.44868">
        <ele>277</ele>
        <time>2021-03-27T10:07:44.157Z</time>
      </trkpt>
      <trkpt lat="45.9492" lon="3.44865">
        <ele>277</ele>
        <time>2021-03-27T10:07:45.457Z</time>
      </trkpt>
      <trkpt lat="45.94932" lon="3.44862">
        <ele>276.83038330078</ele>
        <time>2021-03-27T10:07:46.759Z</time>
      </trkpt>
      <trkpt lat="45.94938" lon="3.4486">
        <ele>276.34509277344</ele>
        <time>2021-03-27T10:07:48.062Z</time>
      </trkpt>
      <trkpt lat="45.94945" lon="3.44858">
        <ele>275.82684326172</ele>
        <time>2021-03-27T10:07:49.367Z</time>
      </trkpt>
      <trkpt lat="45.94953" lon="3.44875">
        <ele>275.27560424805</ele>
        <time>2021-03-27T10:07:50.675Z</time>
      </trkpt>
      <trkpt lat="45.94959" lon="3.44885">
        <ele>275</ele>
        <time>2021-03-27T10:07:51.984Z</time>
      </trkpt>
      <trkpt lat="45.94963" lon="3.44894">
        <ele>275.22927856445</ele>
        <time>2021-03-27T10:07:53.295Z</time>
      </trkpt>
      <trkpt lat="45.94969" lon="3.44902">
        <ele>275.43444824219</ele>
        <time>2021-03-27T10:07:54.608Z</time>
      </trkpt>
      <trkpt lat="45.94974" lon="3.4491">
        <ele>275.62518310547</ele>
        <time>2021-03-27T10:07:55.922Z</time>
      </trkpt>
      <trkpt lat="45.9498" lon="3.44918">
        <ele>275.92913818359</ele>
        <time>2021-03-27T10:07:57.238Z</time>
      </trkpt>
      <trkpt lat="45.94985" lon="3.44923">
        <ele>276.32809448242</ele>
        <time>2021-03-27T10:07:58.555Z</time>
      </trkpt>
      <trkpt lat="45.94992" lon="3.4493">
        <ele>277.0514831543</ele>
        <time>2021-03-27T10:07:59.874Z</time>
      </trkpt>
      <trkpt lat="45.94999" lon="3.44935">
        <ele>277.72451782227</ele>
        <time>2021-03-27T10:08:01.194Z</time>
      </trkpt>
      <trkpt lat="45.95007" lon="3.44941">
        <ele>278.54147338867</ele>
        <time>2021-03-27T10:08:02.516Z</time>
      </trkpt>
      <trkpt lat="45.95042" lon="3.4496">
        <ele>279.97088623047</ele>
        <time>2021-03-27T10:08:03.846Z</time>
      </trkpt>
      <trkpt lat="45.95058" lon="3.44968">
        <ele>278.93795776367</ele>
        <time>2021-03-27T10:08:05.179Z</time>
      </trkpt>
      <trkpt lat="45.95059" lon="3.44969">
        <ele>278.84078979492</ele>
        <time>2021-03-27T10:08:06.512Z</time>
      </trkpt>
      <trkpt lat="45.95064" lon="3.44972">
        <ele>278.50967407227</ele>
        <time>2021-03-27T10:08:07.846Z</time>
      </trkpt>
      <trkpt lat="45.95072" lon="3.44977">
        <ele>277.75540161133</ele>
        <time>2021-03-27T10:08:09.182Z</time>
      </trkpt>
      <trkpt lat="45.95083" lon="3.44987">
        <ele>276.47775268555</ele>
        <time>2021-03-27T10:08:10.521Z</time>
      </trkpt>
      <trkpt lat="45.95093" lon="3.44997">
        <ele>275.45562744141</ele>
        <time>2021-03-27T10:08:11.862Z</time>
      </trkpt>
      <trkpt lat="45.95098" lon="3.45003">
        <ele>274.91571044922</ele>
        <time>2021-03-27T10:08:13.204Z</time>
      </trkpt>
      <trkpt lat="45.95106" lon="3.45015">
        <ele>274.47305297852</ele>
        <time>2021-03-27T10:08:14.549Z</time>
      </trkpt>
      <trkpt lat="45.95115" lon="3.45028">
        <ele>274.02676391602</ele>
        <time>2021-03-27T10:08:15.896Z</time>
      </trkpt>
      <trkpt lat="45.95123" lon="3.45043">
        <ele>273.62368774414</ele>
        <time>2021-03-27T10:08:17.246Z</time>
      </trkpt>
      <trkpt lat="45.95141" lon="3.45079">
        <ele>274.89318847656</ele>
        <time>2021-03-27T10:08:18.602Z</time>
      </trkpt>
      <trkpt lat="45.9516" lon="3.45124">
        <ele>278.59106445312</ele>
        <time>2021-03-27T10:08:19.965Z</time>
      </trkpt>
      <trkpt lat="45.95171" lon="3.45146">
        <ele>279.48501586914</ele>
        <time>2021-03-27T10:08:21.332Z</time>
      </trkpt>
      <trkpt lat="45.9518" lon="3.45162">
        <ele>279.69107055664</ele>
        <time>2021-03-27T10:08:22.702Z</time>
      </trkpt>
      <trkpt lat="45.95186" lon="3.45173">
        <ele>279.09451293945</ele>
        <time>2021-03-27T10:08:24.074Z</time>
      </trkpt>
      <trkpt lat="45.95193" lon="3.45184">
        <ele>278.25595092773</ele>
        <time>2021-03-27T10:08:25.448Z</time>
      </trkpt>
      <trkpt lat="45.952" lon="3.45195">
        <ele>277.35586547852</ele>
        <time>2021-03-27T10:08:26.824Z</time>
      </trkpt>
      <trkpt lat="45.95212" lon="3.45208">
        <ele>276.5498046875</ele>
        <time>2021-03-27T10:08:28.203Z</time>
      </trkpt>
      <trkpt lat="45.95229" lon="3.45223">
        <ele>275.92733764648</ele>
        <time>2021-03-27T10:08:29.586Z</time>
      </trkpt>
      <trkpt lat="45.95241" lon="3.45234">
        <ele>275.4660949707</ele>
        <time>2021-03-27T10:08:30.972Z</time>
      </trkpt>
      <trkpt lat="45.95253" lon="3.45242">
        <ele>274.64190673828</ele>
        <time>2021-03-27T10:08:32.360Z</time>
      </trkpt>
      <trkpt lat="45.95255" lon="3.45243">
        <ele>274.41879272461</ele>
        <time>2021-03-27T10:08:33.749Z</time>
      </trkpt>
      <trkpt lat="45.95262" lon="3.45247">
        <ele>273.96969604492</ele>
        <time>2021-03-27T10:08:35.139Z</time>
      </trkpt>
      <trkpt lat="45.9528" lon="3.45255">
        <ele>273.61090087891</ele>
        <time>2021-03-27T10:08:36.533Z</time>
      </trkpt>
      <trkpt lat="45.95312" lon="3.4527">
        <ele>272.98107910156</ele>
        <time>2021-03-27T10:08:37.934Z</time>
      </trkpt>
      <trkpt lat="45.95338" lon="3.45283">
        <ele>273</ele>
        <time>2021-03-27T10:08:39.340Z</time>
      </trkpt>
      <trkpt lat="45.95377" lon="3.453">
        <ele>273.71557617188</ele>
        <time>2021-03-27T10:08:40.755Z</time>
      </trkpt>
      <trkpt lat="45.95414" lon="3.45318">
        <ele>274.03204345703</ele>
        <time>2021-03-27T10:08:42.177Z</time>
      </trkpt>
      <trkpt lat="45.95446" lon="3.45332">
        <ele>273.35968017578</ele>
        <time>2021-03-27T10:08:43.606Z</time>
      </trkpt>
      <trkpt lat="45.95463" lon="3.45341">
        <ele>273.50729370117</ele>
        <time>2021-03-27T10:08:45.039Z</time>
      </trkpt>
      <trkpt lat="45.95479" lon="3.45351">
        <ele>274.47540283203</ele>
        <time>2021-03-27T10:08:46.475Z</time>
      </trkpt>
      <trkpt lat="45.9549" lon="3.4536">
        <ele>274.98840332031</ele>
        <time>2021-03-27T10:08:47.914Z</time>
      </trkpt>
      <trkpt lat="45.95503" lon="3.45371">
        <ele>275</ele>
        <time>2021-03-27T10:08:49.356Z</time>
      </trkpt>
      <trkpt lat="45.95514" lon="3.45382">
        <ele>274.94741821289</ele>
        <time>2021-03-27T10:08:50.801Z</time>
      </trkpt>
      <trkpt lat="45.95527" lon="3.45398">
        <ele>274.10552978516</ele>
        <time>2021-03-27T10:08:52.249Z</time>
      </trkpt>
      <trkpt lat="45.95533" lon="3.45405">
        <ele>273.62326049805</ele>
        <time>2021-03-27T10:08:53.699Z</time>
      </trkpt>
      <trkpt lat="45.95539" lon="3.45415">
        <ele>273.07373046875</ele>
        <time>2021-03-27T10:08:55.150Z</time>
      </trkpt>
      <trkpt lat="45.95545" lon="3.45423">
        <ele>273</ele>
        <time>2021-03-27T10:08:56.603Z</time>
      </trkpt>
      <trkpt lat="45.95553" lon="3.45436">
        <ele>273</ele>
        <time>2021-03-27T10:08:58.058Z</time>
      </trkpt>
      <trkpt lat="45.95562" lon="3.45451">
        <ele>273</ele>
        <time>2021-03-27T10:08:59.516Z</time>
      </trkpt>
      <trkpt lat="45.95568" lon="3.45465">
        <ele>273</ele>
        <time>2021-03-27T10:09:00.976Z</time>
      </trkpt>
      <trkpt lat="45.95575" lon="3.45481">
        <ele>273.12399291992</ele>
        <time>2021-03-27T10:09:02.439Z</time>
      </trkpt>
      <trkpt lat="45.95582" lon="3.45501">
        <ele>273.50009155273</ele>
        <time>2021-03-27T10:09:03.905Z</time>
      </trkpt>
      <trkpt lat="45.95584" lon="3.45508">
        <ele>273.42810058594</ele>
        <time>2021-03-27T10:09:05.372Z</time>
      </trkpt>
      <trkpt lat="45.9559" lon="3.455">
        <ele>273.20138549805</ele>
        <time>2021-03-27T10:09:06.841Z</time>
      </trkpt>
      <trkpt lat="45.95595" lon="3.45494">
        <ele>273</ele>
        <time>2021-03-27T10:09:08.311Z</time>
      </trkpt>
      <trkpt lat="45.95599" lon="3.45486">
        <ele>273</ele>
        <time>2021-03-27T10:09:09.783Z</time>
      </trkpt>
      <trkpt lat="45.9561" lon="3.45467">
        <ele>273.65029907227</ele>
        <time>2021-03-27T10:09:11.258Z</time>
      </trkpt>
      <trkpt lat="45.95632" lon="3.45426">
        <ele>276.49996948242</ele>
        <time>2021-03-27T10:09:12.740Z</time>
      </trkpt>
      <trkpt lat="45.95649" lon="3.45395">
        <ele>277.62719726562</ele>
        <time>2021-03-27T10:09:14.228Z</time>
      </trkpt>
      <trkpt lat="45.95669" lon="3.45354">
        <ele>278.63464355469</ele>
        <time>2021-03-27T10:09:15.723Z</time>
      </trkpt>
      <trkpt lat="45.95688" lon="3.45319">
        <ele>278.40631103516</ele>
        <time>2021-03-27T10:09:17.224Z</time>
      </trkpt>
      <trkpt lat="45.95696" lon="3.45304">
        <ele>278.40081787109</ele>
        <time>2021-03-27T10:09:18.728Z</time>
      </trkpt>
      <trkpt lat="45.95701" lon="3.45298">
        <ele>278.24298095703</ele>
        <time>2021-03-27T10:09:20.233Z</time>
      </trkpt>
      <trkpt lat="45.95704" lon="3.45293">
        <ele>278.39053344727</ele>
        <time>2021-03-27T10:09:21.739Z</time>
      </trkpt>
      <trkpt lat="45.95707" lon="3.45291">
        <ele>278.46252441406</ele>
        <time>2021-03-27T10:09:23.245Z</time>
      </trkpt>
      <trkpt lat="45.9571" lon="3.45291">
        <ele>278.29965209961</ele>
        <time>2021-03-27T10:09:24.752Z</time>
      </trkpt>
      <trkpt lat="45.95713" lon="3.4529">
        <ele>278.0837097168</ele>
        <time>2021-03-27T10:09:26.260Z</time>
      </trkpt>
      <trkpt lat="45.95718" lon="3.45292">
        <ele>277.68423461914</ele>
        <time>2021-03-27T10:09:27.769Z</time>
      </trkpt>
      <trkpt lat="45.95735" lon="3.45301">
        <ele>276.21328735352</ele>
        <time>2021-03-27T10:09:29.281Z</time>
      </trkpt>
      <trkpt lat="45.9577" lon="3.45322">
        <ele>274.72247314453</ele>
        <time>2021-03-27T10:09:30.801Z</time>
      </trkpt>
      <trkpt lat="45.958" lon="3.45338">
        <ele>274</ele>
        <time>2021-03-27T10:09:32.327Z</time>
      </trkpt>
      <trkpt lat="45.95816" lon="3.45346">
        <ele>274</ele>
        <time>2021-03-27T10:09:33.857Z</time>
      </trkpt>
      <trkpt lat="45.95825" lon="3.45349">
        <ele>274</ele>
        <time>2021-03-27T10:09:35.388Z</time>
      </trkpt>
      <trkpt lat="45.95827" lon="3.45351">
        <ele>274</ele>
        <time>2021-03-27T10:09:36.920Z</time>
      </trkpt>
      <trkpt lat="45.9583" lon="3.45353">
        <ele>274</ele>
        <time>2021-03-27T10:09:38.453Z</time>
      </trkpt>
      <trkpt lat="45.95834" lon="3.45358">
        <ele>274</ele>
        <time>2021-03-27T10:09:39.987Z</time>
      </trkpt>
      <trkpt lat="45.95841" lon="3.45372">
        <ele>273.55093383789</ele>
        <time>2021-03-27T10:09:41.523Z</time>
      </trkpt>
      <trkpt lat="45.95856" lon="3.45404">
        <ele>273</ele>
        <time>2021-03-27T10:09:43.064Z</time>
      </trkpt>
      <trkpt lat="45.95869" lon="3.45427">
        <ele>273.4033203125</ele>
        <time>2021-03-27T10:09:44.609Z</time>
      </trkpt>
      <trkpt lat="45.95874" lon="3.45436">
        <ele>273.75601196289</ele>
        <time>2021-03-27T10:09:46.156Z</time>
      </trkpt>
      <trkpt lat="45.95884" lon="3.45452">
        <ele>274</ele>
        <time>2021-03-27T10:09:47.706Z</time>
      </trkpt>
      <trkpt lat="45.95894" lon="3.45464">
        <ele>274</ele>
        <time>2021-03-27T10:09:49.259Z</time>
      </trkpt>
      <trkpt lat="45.95898" lon="3.4547">
        <ele>274</ele>
        <time>2021-03-27T10:09:50.813Z</time>
      </trkpt>
      <trkpt lat="45.95904" lon="3.45477">
        <ele>273.77197265625</ele>
        <time>2021-03-27T10:09:52.368Z</time>
      </trkpt>
      <trkpt lat="45.95913" lon="3.45488">
        <ele>273.39410400391</ele>
        <time>2021-03-27T10:09:53.926Z</time>
      </trkpt>
      <trkpt lat="45.9592" lon="3.45495">
        <ele>273.12417602539</ele>
        <time>2021-03-27T10:09:55.486Z</time>
      </trkpt>
      <trkpt lat="45.95931" lon="3.45506">
        <ele>272.75708007812</ele>
        <time>2021-03-27T10:09:57.048Z</time>
      </trkpt>
      <trkpt lat="45.95945" lon="3.45518">
        <ele>272.29638671875</ele>
        <time>2021-03-27T10:09:58.614Z</time>
      </trkpt>
      <trkpt lat="45.95963" lon="3.45537">
        <ele>271.78430175781</ele>
        <time>2021-03-27T10:10:00.184Z</time>
      </trkpt>
      <trkpt lat="45.9598" lon="3.45556">
        <ele>271.18325805664</ele>
        <time>2021-03-27T10:10:01.758Z</time>
      </trkpt>
      <trkpt lat="45.95998" lon="3.45576">
        <ele>271</ele>
        <time>2021-03-27T10:10:03.337Z</time>
      </trkpt>
      <trkpt lat="45.96007" lon="3.45589">
        <ele>271</ele>
        <time>2021-03-27T10:10:04.918Z</time>
      </trkpt>
      <trkpt lat="45.96014" lon="3.45602">
        <ele>271</ele>
        <time>2021-03-27T10:10:06.502Z</time>
      </trkpt>
      <trkpt lat="45.96032" lon="3.45634">
        <ele>270.30459594727</ele>
        <time>2021-03-27T10:10:08.091Z</time>
      </trkpt>
      <trkpt lat="45.96053" lon="3.45675">
        <ele>270.79083251953</ele>
        <time>2021-03-27T10:10:09.687Z</time>
      </trkpt>
      <trkpt lat="45.96061" lon="3.4569">
        <ele>271.62579345703</ele>
        <time>2021-03-27T10:10:11.286Z</time>
      </trkpt>
      <trkpt lat="45.96066" lon="3.45701">
        <ele>272.18365478516</ele>
        <time>2021-03-27T10:10:12.887Z</time>
      </trkpt>
      <trkpt lat="45.9607" lon="3.45712">
        <ele>272.6262512207</ele>
        <time>2021-03-27T10:10:14.490Z</time>
      </trkpt>
      <trkpt lat="45.96074" lon="3.45721">
        <ele>272.79898071289</ele>
        <time>2021-03-27T10:10:16.094Z</time>
      </trkpt>
      <trkpt lat="45.96077" lon="3.45714">
        <ele>272.4462890625</ele>
        <time>2021-03-27T10:10:17.699Z</time>
      </trkpt>
      <trkpt lat="45.96078" lon="3.45711">
        <ele>272.2663269043</ele>
        <time>2021-03-27T10:10:19.305Z</time>
      </trkpt>
      <trkpt lat="45.96079" lon="3.45709">
        <ele>272.17276000977</ele>
        <time>2021-03-27T10:10:20.911Z</time>
      </trkpt>
      <trkpt lat="45.96079" lon="3.45707">
        <ele>272.10076904297</ele>
        <time>2021-03-27T10:10:22.517Z</time>
      </trkpt>
      <trkpt lat="45.96083" lon="3.45689">
        <ele>271.31979370117</ele>
        <time>2021-03-27T10:10:24.126Z</time>
      </trkpt>
      <trkpt lat="45.96095" lon="3.45621">
        <ele>270.39978027344</ele>
        <time>2021-03-27T10:10:25.745Z</time>
      </trkpt>
      <trkpt lat="45.96108" lon="3.45546">
        <ele>271.29586791992</ele>
        <time>2021-03-27T10:10:27.375Z</time>
      </trkpt>
      <trkpt lat="45.96113" lon="3.45516">
        <ele>272.37197875977</ele>
        <time>2021-03-27T10:10:29.009Z</time>
      </trkpt>
      <trkpt lat="45.96116" lon="3.4551">
        <ele>272.30303955078</ele>
        <time>2021-03-27T10:10:30.644Z</time>
      </trkpt>
      <trkpt lat="45.96118" lon="3.45507">
        <ele>272.22024536133</ele>
        <time>2021-03-27T10:10:32.279Z</time>
      </trkpt>
      <trkpt lat="45.96121" lon="3.45505">
        <ele>272.09429931641</ele>
        <time>2021-03-27T10:10:33.915Z</time>
      </trkpt>
      <trkpt lat="45.96125" lon="3.45504">
        <ele>272</ele>
        <time>2021-03-27T10:10:35.552Z</time>
      </trkpt>
      <trkpt lat="45.96128" lon="3.45504">
        <ele>272</ele>
        <time>2021-03-27T10:10:37.190Z</time>
      </trkpt>
      <trkpt lat="45.96129" lon="3.45504">
        <ele>272</ele>
        <time>2021-03-27T10:10:38.828Z</time>
      </trkpt>
      <trkpt lat="45.96132" lon="3.45507">
        <ele>272</ele>
        <time>2021-03-27T10:10:40.466Z</time>
      </trkpt>
      <trkpt lat="45.96142" lon="3.45513">
        <ele>272</ele>
        <time>2021-03-27T10:10:42.107Z</time>
      </trkpt>
      <trkpt lat="45.96179" lon="3.45533">
        <ele>272</ele>
        <time>2021-03-27T10:10:43.755Z</time>
      </trkpt>
      <trkpt lat="45.96228" lon="3.45561">
        <ele>272.73504638672</ele>
        <time>2021-03-27T10:10:45.414Z</time>
      </trkpt>
      <trkpt lat="45.96264" lon="3.45581">
        <ele>273</ele>
        <time>2021-03-27T10:10:47.081Z</time>
      </trkpt>
      <trkpt lat="45.96302" lon="3.45601">
        <ele>272.71832275391</ele>
        <time>2021-03-27T10:10:48.756Z</time>
      </trkpt>
      <trkpt lat="45.96334" lon="3.45618">
        <ele>274.40258789062</ele>
        <time>2021-03-27T10:10:50.438Z</time>
      </trkpt>
      <trkpt lat="45.96358" lon="3.45631">
        <ele>275.7668762207</ele>
        <time>2021-03-27T10:10:52.125Z</time>
      </trkpt>
      <trkpt lat="45.96373" lon="3.45639">
        <ele>276</ele>
        <time>2021-03-27T10:10:53.815Z</time>
      </trkpt>
      <trkpt lat="45.96379" lon="3.45642">
        <ele>275.68569946289</ele>
        <time>2021-03-27T10:10:55.506Z</time>
      </trkpt>
      <trkpt lat="45.96383" lon="3.45643">
        <ele>275.50933837891</ele>
        <time>2021-03-27T10:10:57.198Z</time>
      </trkpt>
      <trkpt lat="45.96388" lon="3.45644">
        <ele>275.26818847656</ele>
        <time>2021-03-27T10:10:58.891Z</time>
      </trkpt>
      <trkpt lat="45.96396" lon="3.45644">
        <ele>274.96588134766</ele>
        <time>2021-03-27T10:11:00.586Z</time>
      </trkpt>
      <trkpt lat="45.96393" lon="3.45642">
        <ele>275.16381835938</ele>
        <time>2021-03-27T10:11:02.281Z</time>
      </trkpt>
      <trkpt lat="45.96396" lon="3.45644">
        <ele>274.96588134766</ele>
        <time>2021-03-27T10:11:03.977Z</time>
      </trkpt>
      <trkpt lat="45.96398" lon="3.4564">
        <ele>275.04507446289</ele>
        <time>2021-03-27T10:11:05.674Z</time>
      </trkpt>
      <trkpt lat="45.96404" lon="3.45628">
        <ele>274.57522583008</ele>
        <time>2021-03-27T10:11:07.373Z</time>
      </trkpt>
      <trkpt lat="45.96411" lon="3.45617">
        <ele>273.92739868164</ele>
        <time>2021-03-27T10:11:09.074Z</time>
      </trkpt>
      <trkpt lat="45.96415" lon="3.45611">
        <ele>273.56750488281</ele>
        <time>2021-03-27T10:11:10.776Z</time>
      </trkpt>
      <trkpt lat="45.96418" lon="3.45605">
        <ele>273.24719238281</ele>
        <time>2021-03-27T10:11:12.479Z</time>
      </trkpt>
      <trkpt lat="45.96426" lon="3.45593">
        <ele>272.53457641602</ele>
        <time>2021-03-27T10:11:14.184Z</time>
      </trkpt>
      <trkpt lat="45.96434" lon="3.4558">
        <ele>271.93499755859</ele>
        <time>2021-03-27T10:11:15.892Z</time>
      </trkpt>
      <trkpt lat="45.9647" lon="3.45526">
        <ele>271.96994018555</ele>
        <time>2021-03-27T10:11:17.610Z</time>
      </trkpt>
      <trkpt lat="45.96505" lon="3.4547">
        <ele>270.97607421875</ele>
        <time>2021-03-27T10:11:19.339Z</time>
      </trkpt>
      <trkpt lat="45.96541" lon="3.45416">
        <ele>270</ele>
        <time>2021-03-27T10:11:21.078Z</time>
      </trkpt>
      <trkpt lat="45.96573" lon="3.45366">
        <ele>269.78128051758</ele>
        <time>2021-03-27T10:11:22.827Z</time>
      </trkpt>
      <trkpt lat="45.96606" lon="3.45315">
        <ele>271.63116455078</ele>
        <time>2021-03-27T10:11:24.586Z</time>
      </trkpt>
      <trkpt lat="45.96617" lon="3.45298">
        <ele>271.03265380859</ele>
        <time>2021-03-27T10:11:26.348Z</time>
      </trkpt>
      <trkpt lat="45.9666" lon="3.45232">
        <ele>270.71365356445</ele>
        <time>2021-03-27T10:11:28.122Z</time>
      </trkpt>
      <trkpt lat="45.96697" lon="3.45176">
        <ele>271</ele>
        <time>2021-03-27T10:11:29.907Z</time>
      </trkpt>
      <trkpt lat="45.96727" lon="3.4513">
        <ele>270.95098876953</ele>
        <time>2021-03-27T10:11:31.701Z</time>
      </trkpt>
      <trkpt lat="45.96751" lon="3.45093">
        <ele>273.72579956055</ele>
        <time>2021-03-27T10:11:33.502Z</time>
      </trkpt>
      <trkpt lat="45.96775" lon="3.45055">
        <ele>276</ele>
        <time>2021-03-27T10:11:35.310Z</time>
      </trkpt>
      <trkpt lat="45.96785" lon="3.45038">
        <ele>275.88342285156</ele>
        <time>2021-03-27T10:11:37.121Z</time>
      </trkpt>
      <trkpt lat="45.96798" lon="3.45015">
        <ele>274.46530151367</ele>
        <time>2021-03-27T10:11:38.936Z</time>
      </trkpt>
      <trkpt lat="45.96821" lon="3.44976">
        <ele>273.82815551758</ele>
        <time>2021-03-27T10:11:40.758Z</time>
      </trkpt>
      <trkpt lat="45.96842" lon="3.4494">
        <ele>273.84371948242</ele>
        <time>2021-03-27T10:11:42.587Z</time>
      </trkpt>
      <trkpt lat="45.96861" lon="3.44908">
        <ele>273.77423095703</ele>
        <time>2021-03-27T10:11:44.422Z</time>
      </trkpt>
      <trkpt lat="45.96868" lon="3.44896">
        <ele>274</ele>
        <time>2021-03-27T10:11:46.259Z</time>
      </trkpt>
      <trkpt lat="45.96942" lon="3.44768">
        <ele>272.31048583984</ele>
        <time>2021-03-27T10:11:48.119Z</time>
      </trkpt>
      <trkpt lat="45.96974" lon="3.44713">
        <ele>276.15267944336</ele>
        <time>2021-03-27T10:11:49.989Z</time>
      </trkpt>
      <trkpt lat="45.97" lon="3.44668">
        <ele>279.30953979492</ele>
        <time>2021-03-27T10:11:51.867Z</time>
      </trkpt>
      <trkpt lat="45.9702" lon="3.44632">
        <ele>283.62780761719</ele>
        <time>2021-03-27T10:11:53.752Z</time>
      </trkpt>
      <trkpt lat="45.97036" lon="3.44605">
        <ele>286.16510009766</ele>
        <time>2021-03-27T10:11:55.642Z</time>
      </trkpt>
      <trkpt lat="45.97042" lon="3.44593">
        <ele>286.54183959961</ele>
        <time>2021-03-27T10:11:57.534Z</time>
      </trkpt>
      <trkpt lat="45.97044" lon="3.44589">
        <ele>286.60662841797</ele>
        <time>2021-03-27T10:11:59.426Z</time>
      </trkpt>
      <trkpt lat="45.97052" lon="3.44576">
        <ele>286.21118164062</ele>
        <time>2021-03-27T10:12:01.321Z</time>
      </trkpt>
      <trkpt lat="45.97059" lon="3.4456">
        <ele>285.71450805664</ele>
        <time>2021-03-27T10:12:03.218Z</time>
      </trkpt>
      <trkpt lat="45.9707" lon="3.44532">
        <ele>284.93618774414</ele>
        <time>2021-03-27T10:12:05.120Z</time>
      </trkpt>
      <trkpt lat="45.97077" lon="3.44515">
        <ele>284.68783569336</ele>
        <time>2021-03-27T10:12:07.025Z</time>
      </trkpt>
      <trkpt lat="45.97102" lon="3.44455">
        <ele>285.37344360352</ele>
        <time>2021-03-27T10:12:08.940Z</time>
      </trkpt>
      <trkpt lat="45.97115" lon="3.44423">
        <ele>286.71984863281</ele>
        <time>2021-03-27T10:12:10.860Z</time>
      </trkpt>
      <trkpt lat="45.97121" lon="3.44415">
        <ele>286.99337768555</ele>
        <time>2021-03-27T10:12:12.781Z</time>
      </trkpt>
      <trkpt lat="45.97125" lon="3.44409">
        <ele>286.96752929688</ele>
        <time>2021-03-27T10:12:14.703Z</time>
      </trkpt>
      <trkpt lat="45.9713" lon="3.444">
        <ele>286.78756713867</ele>
        <time>2021-03-27T10:12:16.627Z</time>
      </trkpt>
      <trkpt lat="45.97132" lon="3.44399">
        <ele>286.72637939453</ele>
        <time>2021-03-27T10:12:18.551Z</time>
      </trkpt>
      <trkpt lat="45.97133" lon="3.44397">
        <ele>286.67239379883</ele>
        <time>2021-03-27T10:12:20.476Z</time>
      </trkpt>
      <trkpt lat="45.97135" lon="3.44395">
        <ele>286.62921142578</ele>
        <time>2021-03-27T10:12:22.401Z</time>
      </trkpt>
      <trkpt lat="45.97136" lon="3.44393">
        <ele>286.59323120117</ele>
        <time>2021-03-27T10:12:24.327Z</time>
      </trkpt>
      <trkpt lat="45.97136" lon="3.44391">
        <ele>286.56802368164</ele>
        <time>2021-03-27T10:12:26.253Z</time>
      </trkpt>
      <trkpt lat="45.97137" lon="3.44388">
        <ele>286.55722045898</ele>
        <time>2021-03-27T10:12:28.179Z</time>
      </trkpt>
      <trkpt lat="45.97136" lon="3.44385">
        <ele>286.48776245117</ele>
        <time>2021-03-27T10:12:30.106Z</time>
      </trkpt>
      <trkpt lat="45.97136" lon="3.44383">
        <ele>286.41577148438</ele>
        <time>2021-03-27T10:12:32.033Z</time>
      </trkpt>
      <trkpt lat="45.97135" lon="3.44381">
        <ele>286.35821533203</ele>
        <time>2021-03-27T10:12:33.960Z</time>
      </trkpt>
      <trkpt lat="45.97134" lon="3.44379">
        <ele>286.32220458984</ele>
        <time>2021-03-27T10:12:35.888Z</time>
      </trkpt>
      <trkpt lat="45.97133" lon="3.44377">
        <ele>286.29702758789</ele>
        <time>2021-03-27T10:12:37.816Z</time>
      </trkpt>
      <trkpt lat="45.97138" lon="3.44377">
        <ele>286.12786865234</ele>
        <time>2021-03-27T10:12:39.745Z</time>
      </trkpt>
      <trkpt lat="45.97142" lon="3.44379">
        <ele>286.05947875977</ele>
        <time>2021-03-27T10:12:41.675Z</time>
      </trkpt>
      <trkpt lat="45.97142" lon="3.44379">
        <ele>286.04867553711</ele>
        <time>2021-03-27T10:12:43.605Z</time>
      </trkpt>
      <trkpt lat="45.97146" lon="3.44381">
        <ele>286</ele>
        <time>2021-03-27T10:12:45.536Z</time>
      </trkpt>
      <trkpt lat="45.97148" lon="3.44383">
        <ele>286</ele>
        <time>2021-03-27T10:12:47.467Z</time>
      </trkpt>
      <trkpt lat="45.97152" lon="3.44388">
        <ele>286.00659179688</ele>
        <time>2021-03-27T10:12:49.399Z</time>
      </trkpt>
      <trkpt lat="45.97163" lon="3.44399">
        <ele>286.39651489258</ele>
        <time>2021-03-27T10:12:51.334Z</time>
      </trkpt>
      <trkpt lat="45.97168" lon="3.44404">
        <ele>286.56564331055</ele>
        <time>2021-03-27T10:12:53.270Z</time>
      </trkpt>
      <trkpt lat="45.97179" lon="3.44417">
        <ele>286.9831237793</ele>
        <time>2021-03-27T10:12:55.209Z</time>
      </trkpt>
      <trkpt lat="45.97189" lon="3.44427">
        <ele>287.64288330078</ele>
        <time>2021-03-27T10:12:57.150Z</time>
      </trkpt>
      <trkpt lat="45.97195" lon="3.44434">
        <ele>288.11795043945</ele>
        <time>2021-03-27T10:12:59.093Z</time>
      </trkpt>
      <trkpt lat="45.97202" lon="3.4444">
        <ele>288.62902832031</ele>
        <time>2021-03-27T10:13:01.038Z</time>
      </trkpt>
      <trkpt lat="45.9721" lon="3.44447">
        <ele>289.24633789062</ele>
        <time>2021-03-27T10:13:02.985Z</time>
      </trkpt>
      <trkpt lat="45.97219" lon="3.44456">
        <ele>289.85098266602</ele>
        <time>2021-03-27T10:13:04.934Z</time>
      </trkpt>
      <trkpt lat="45.97226" lon="3.44464">
        <ele>290.41241455078</ele>
        <time>2021-03-27T10:13:06.885Z</time>
      </trkpt>
      <trkpt lat="45.97232" lon="3.44472">
        <ele>290.94506835938</ele>
        <time>2021-03-27T10:13:08.837Z</time>
      </trkpt>
      <trkpt lat="45.9724" lon="3.44483">
        <ele>291.60369873047</ele>
        <time>2021-03-27T10:13:10.791Z</time>
      </trkpt>
      <trkpt lat="45.97245" lon="3.44492">
        <ele>292.10754394531</ele>
        <time>2021-03-27T10:13:12.747Z</time>
      </trkpt>
      <trkpt lat="45.97252" lon="3.445">
        <ele>292.5266418457</ele>
        <time>2021-03-27T10:13:14.705Z</time>
      </trkpt>
      <trkpt lat="45.97258" lon="3.44508">
        <ele>292.47625732422</ele>
        <time>2021-03-27T10:13:16.664Z</time>
      </trkpt>
      <trkpt lat="45.97266" lon="3.44517">
        <ele>292.52932739258</ele>
        <time>2021-03-27T10:13:18.625Z</time>
      </trkpt>
      <trkpt lat="45.97276" lon="3.44527">
        <ele>292.9267578125</ele>
        <time>2021-03-27T10:13:20.589Z</time>
      </trkpt>
      <trkpt lat="45.97283" lon="3.44534">
        <ele>293.44500732422</ele>
        <time>2021-03-27T10:13:22.555Z</time>
      </trkpt>
      <trkpt lat="45.9729" lon="3.44539">
        <ele>293.89846801758</ele>
        <time>2021-03-27T10:13:24.522Z</time>
      </trkpt>
      <trkpt lat="45.97296" lon="3.44543">
        <ele>294.52792358398</ele>
        <time>2021-03-27T10:13:26.490Z</time>
      </trkpt>
      <trkpt lat="45.97298" lon="3.44539">
        <ele>294.71145629883</ele>
        <time>2021-03-27T10:13:28.459Z</time>
      </trkpt>
      <trkpt lat="45.97302" lon="3.44528">
        <ele>294.85733032227</ele>
        <time>2021-03-27T10:13:30.430Z</time>
      </trkpt>
      <trkpt lat="45.97307" lon="3.44514">
        <ele>295.11990356445</ele>
        <time>2021-03-27T10:13:32.403Z</time>
      </trkpt>
      <trkpt lat="45.97311" lon="3.44503">
        <ele>294.88238525391</ele>
        <time>2021-03-27T10:13:34.378Z</time>
      </trkpt>
      <trkpt lat="45.97316" lon="3.44492">
        <ele>294.89218139648</ele>
        <time>2021-03-27T10:13:36.355Z</time>
      </trkpt>
      <trkpt lat="45.97325" lon="3.44474">
        <ele>295.46096801758</ele>
        <time>2021-03-27T10:13:38.335Z</time>
      </trkpt>
      <trkpt lat="45.97337" lon="3.44452">
        <ele>296.30313110352</ele>
        <time>2021-03-27T10:13:40.319Z</time>
      </trkpt>
      <trkpt lat="45.97346" lon="3.44437">
        <ele>296.97546386719</ele>
        <time>2021-03-27T10:13:42.305Z</time>
      </trkpt>
      <trkpt lat="45.97363" lon="3.44412">
        <ele>297.5837097168</ele>
        <time>2021-03-27T10:13:44.296Z</time>
      </trkpt>
      <trkpt lat="45.97373" lon="3.44395">
        <ele>297.95440673828</ele>
        <time>2021-03-27T10:13:46.290Z</time>
      </trkpt>
      <trkpt lat="45.97381" lon="3.44382">
        <ele>298.24951171875</ele>
        <time>2021-03-27T10:13:48.287Z</time>
      </trkpt>
      <trkpt lat="45.97388" lon="3.44369">
        <ele>298.49786376953</ele>
        <time>2021-03-27T10:13:50.286Z</time>
      </trkpt>
      <trkpt lat="45.97394" lon="3.44358">
        <ele>298.70660400391</ele>
        <time>2021-03-27T10:13:52.287Z</time>
      </trkpt>
      <trkpt lat="45.974" lon="3.44347">
        <ele>298.93692016602</ele>
        <time>2021-03-27T10:13:54.290Z</time>
      </trkpt>
      <trkpt lat="45.97407" lon="3.44334">
        <ele>299.11541748047</ele>
        <time>2021-03-27T10:13:56.295Z</time>
      </trkpt>
      <trkpt lat="45.97411" lon="3.44324">
        <ele>299.04275512695</ele>
        <time>2021-03-27T10:13:58.302Z</time>
      </trkpt>
      <trkpt lat="45.97416" lon="3.4431">
        <ele>299.03274536133</ele>
        <time>2021-03-27T10:14:00.311Z</time>
      </trkpt>
      <trkpt lat="45.97423" lon="3.44292">
        <ele>299.75390625</ele>
        <time>2021-03-27T10:14:02.323Z</time>
      </trkpt>
      <trkpt lat="45.97429" lon="3.44275">
        <ele>300.00180053711</ele>
        <time>2021-03-27T10:14:04.338Z</time>
      </trkpt>
      <trkpt lat="45.97436" lon="3.44259">
        <ele>300.86917114258</ele>
        <time>2021-03-27T10:14:06.355Z</time>
      </trkpt>
      <trkpt lat="45.97448" lon="3.44233">
        <ele>300.79919433594</ele>
        <time>2021-03-27T10:14:08.377Z</time>
      </trkpt>
      <trkpt lat="45.97451" lon="3.44226">
        <ele>300.43930053711</ele>
        <time>2021-03-27T10:14:10.400Z</time>
      </trkpt>
      <trkpt lat="45.97457" lon="3.44213">
        <ele>300.01522827148</ele>
        <time>2021-03-27T10:14:12.425Z</time>
      </trkpt>
      <trkpt lat="45.9747" lon="3.44187">
        <ele>300</ele>
        <time>2021-03-27T10:14:14.454Z</time>
      </trkpt>
      <trkpt lat="45.97475" lon="3.44195">
        <ele>300</ele>
        <time>2021-03-27T10:14:16.485Z</time>
      </trkpt>
      <trkpt lat="45.9747" lon="3.44187">
        <ele>300</ele>
        <time>2021-03-27T10:14:18.517Z</time>
      </trkpt>
      <trkpt lat="45.97485" lon="3.44161">
        <ele>300.13842773438</ele>
        <time>2021-03-27T10:14:20.554Z</time>
      </trkpt>
      <trkpt lat="45.97495" lon="3.44144">
        <ele>300.76824951172</ele>
        <time>2021-03-27T10:14:22.594Z</time>
      </trkpt>
      <trkpt lat="45.97499" lon="3.44138">
        <ele>300.96618652344</ele>
        <time>2021-03-27T10:14:24.635Z</time>
      </trkpt>
      <trkpt lat="45.97504" lon="3.44132">
        <ele>301.19293212891</ele>
        <time>2021-03-27T10:14:26.678Z</time>
      </trkpt>
      <trkpt lat="45.97509" lon="3.44127">
        <ele>301.36209106445</ele>
        <time>2021-03-27T10:14:28.722Z</time>
      </trkpt>
      <trkpt lat="45.97516" lon="3.44122">
        <ele>301.53845214844</ele>
        <time>2021-03-27T10:14:30.767Z</time>
      </trkpt>
      <trkpt lat="45.97523" lon="3.4412">
        <ele>301.63922119141</ele>
        <time>2021-03-27T10:14:32.814Z</time>
      </trkpt>
      <trkpt lat="45.97528" lon="3.44118">
        <ele>301.69320678711</ele>
        <time>2021-03-27T10:14:34.862Z</time>
      </trkpt>
      <trkpt lat="45.9753" lon="3.44118">
        <ele>301.71118164062</ele>
        <time>2021-03-27T10:14:36.910Z</time>
      </trkpt>
      <trkpt lat="45.97538" lon="3.44115">
        <ele>301.80117797852</ele>
        <time>2021-03-27T10:14:38.960Z</time>
      </trkpt>
      <trkpt lat="45.97546" lon="3.44114">
        <ele>302.01062011719</ele>
        <time>2021-03-27T10:14:41.011Z</time>
      </trkpt>
      <trkpt lat="45.97551" lon="3.44114">
        <ele>302.20498657227</ele>
        <time>2021-03-27T10:14:43.063Z</time>
      </trkpt>
      <trkpt lat="45.97557" lon="3.44114">
        <ele>302.38851928711</ele>
        <time>2021-03-27T10:14:45.117Z</time>
      </trkpt>
      <trkpt lat="45.97565" lon="3.44116">
        <ele>302.62966918945</ele>
        <time>2021-03-27T10:14:47.172Z</time>
      </trkpt>
      <trkpt lat="45.97578" lon="3.44117">
        <ele>302.74359130859</ele>
        <time>2021-03-27T10:14:49.230Z</time>
      </trkpt>
      <trkpt lat="45.97586" lon="3.44117">
        <ele>302.73638916016</ele>
        <time>2021-03-27T10:14:51.289Z</time>
      </trkpt>
      <trkpt lat="45.97592" lon="3.44116">
        <ele>302.75439453125</ele>
        <time>2021-03-27T10:14:53.350Z</time>
      </trkpt>
      <trkpt lat="45.97599" lon="3.44115">
        <ele>302.80117797852</ele>
        <time>2021-03-27T10:14:55.412Z</time>
      </trkpt>
      <trkpt lat="45.97607" lon="3.44112">
        <ele>302.62753295898</ele>
        <time>2021-03-27T10:14:57.476Z</time>
      </trkpt>
      <trkpt lat="45.97613" lon="3.44109">
        <ele>302.41159057617</ele>
        <time>2021-03-27T10:14:59.541Z</time>
      </trkpt>
      <trkpt lat="45.97618" lon="3.44105">
        <ele>302.22445678711</ele>
        <time>2021-03-27T10:15:01.607Z</time>
      </trkpt>
      <trkpt lat="45.97624" lon="3.441">
        <ele>302.33740234375</ele>
        <time>2021-03-27T10:15:03.675Z</time>
      </trkpt>
      <trkpt lat="45.97633" lon="3.44091">
        <ele>302.66491699219</ele>
        <time>2021-03-27T10:15:05.745Z</time>
      </trkpt>
      <trkpt lat="45.97643" lon="3.4408">
        <ele>302.26748657227</ele>
        <time>2021-03-27T10:15:07.817Z</time>
      </trkpt>
      <trkpt lat="45.97652" lon="3.44071">
        <ele>301.59805297852</ele>
        <time>2021-03-27T10:15:09.892Z</time>
      </trkpt>
      <trkpt lat="45.97659" lon="3.44066">
        <ele>301.17697143555</ele>
        <time>2021-03-27T10:15:11.968Z</time>
      </trkpt>
      <trkpt lat="45.97661" lon="3.44064">
        <ele>301.01861572266</ele>
        <time>2021-03-27T10:15:14.045Z</time>
      </trkpt>
      <trkpt lat="45.97659" lon="3.44066">
        <ele>301.17697143555</ele>
        <time>2021-03-27T10:15:16.122Z</time>
      </trkpt>
      <trkpt lat="45.97666" lon="3.4408">
        <ele>301.43612670898</ele>
        <time>2021-03-27T10:15:18.202Z</time>
      </trkpt>
      <trkpt lat="45.9767" lon="3.44088">
        <ele>301.35296630859</ele>
        <time>2021-03-27T10:15:20.283Z</time>
      </trkpt>
      <trkpt lat="45.97674" lon="3.44094">
        <ele>301.21621704102</ele>
        <time>2021-03-27T10:15:22.365Z</time>
      </trkpt>
      <trkpt lat="45.97679" lon="3.441">
        <ele>301.02905273438</ele>
        <time>2021-03-27T10:15:24.449Z</time>
      </trkpt>
      <trkpt lat="45.97684" lon="3.44106">
        <ele>301</ele>
        <time>2021-03-27T10:15:26.534Z</time>
      </trkpt>
      <trkpt lat="45.9769" lon="3.44109">
        <ele>301</ele>
        <time>2021-03-27T10:15:28.620Z</time>
      </trkpt>
      <trkpt lat="45.97704" lon="3.44116">
        <ele>301.22763061523</ele>
        <time>2021-03-27T10:15:30.709Z</time>
      </trkpt>
      <trkpt lat="45.97744" lon="3.44133">
        <ele>300.68969726562</ele>
        <time>2021-03-27T10:15:32.806Z</time>
      </trkpt>
      <trkpt lat="45.97802" lon="3.44156">
        <ele>300.11740112305</ele>
        <time>2021-03-27T10:15:34.915Z</time>
      </trkpt>
      <trkpt lat="45.97832" lon="3.44168">
        <ele>301.48461914062</ele>
        <time>2021-03-27T10:15:37.031Z</time>
      </trkpt>
      <trkpt lat="45.97868" lon="3.44183">
        <ele>301.21975708008</ele>
        <time>2021-03-27T10:15:39.154Z</time>
      </trkpt>
      <trkpt lat="45.97886" lon="3.4419">
        <ele>301</ele>
        <time>2021-03-27T10:15:41.281Z</time>
      </trkpt>
      <trkpt lat="45.97896" lon="3.44192">
        <ele>301</ele>
        <time>2021-03-27T10:15:43.410Z</time>
      </trkpt>
      <trkpt lat="45.9792" lon="3.44196">
        <ele>300.47668457031</ele>
        <time>2021-03-27T10:15:45.544Z</time>
      </trkpt>
      <trkpt lat="45.97962" lon="3.44203">
        <ele>299</ele>
        <time>2021-03-27T10:15:47.686Z</time>
      </trkpt>
      <trkpt lat="45.98" lon="3.44208">
        <ele>299</ele>
        <time>2021-03-27T10:15:49.836Z</time>
      </trkpt>
      <trkpt lat="45.98044" lon="3.44215">
        <ele>297.89630126953</ele>
        <time>2021-03-27T10:15:51.995Z</time>
      </trkpt>
      <trkpt lat="45.98057" lon="3.44218">
        <ele>297.41403198242</ele>
        <time>2021-03-27T10:15:54.156Z</time>
      </trkpt>
      <trkpt lat="45.98066" lon="3.44221">
        <ele>297.11172485352</ele>
        <time>2021-03-27T10:15:56.319Z</time>
      </trkpt>
      <trkpt lat="45.98076" lon="3.44226">
        <ele>297.19372558594</ele>
        <time>2021-03-27T10:15:58.484Z</time>
      </trkpt>
      <trkpt lat="45.98085" lon="3.44232">
        <ele>297.42407226562</ele>
        <time>2021-03-27T10:16:00.651Z</time>
      </trkpt>
      <trkpt lat="45.98092" lon="3.4424">
        <ele>297.6867980957</ele>
        <time>2021-03-27T10:16:02.820Z</time>
      </trkpt>
      <trkpt lat="45.98098" lon="3.44248">
        <ele>298.04345703125</ele>
        <time>2021-03-27T10:16:04.991Z</time>
      </trkpt>
      <trkpt lat="45.98107" lon="3.44263">
        <ele>298.37826538086</ele>
        <time>2021-03-27T10:16:07.165Z</time>
      </trkpt>
      <trkpt lat="45.98124" lon="3.44292">
        <ele>298.43182373047</ele>
        <time>2021-03-27T10:16:09.344Z</time>
      </trkpt>
      <trkpt lat="45.98132" lon="3.44303">
        <ele>298.03143310547</ele>
        <time>2021-03-27T10:16:11.525Z</time>
      </trkpt>
      <trkpt lat="45.98137" lon="3.4431">
        <ele>298</ele>
        <time>2021-03-27T10:16:13.707Z</time>
      </trkpt>
      <trkpt lat="45.98144" lon="3.44317">
        <ele>298</ele>
        <time>2021-03-27T10:16:15.891Z</time>
      </trkpt>
      <trkpt lat="45.98158" lon="3.44328">
        <ele>298</ele>
        <time>2021-03-27T10:16:18.078Z</time>
      </trkpt>
      <trkpt lat="45.98182" lon="3.44349">
        <ele>298</ele>
        <time>2021-03-27T10:16:20.271Z</time>
      </trkpt>
      <trkpt lat="45.98201" lon="3.44365">
        <ele>298</ele>
        <time>2021-03-27T10:16:22.468Z</time>
      </trkpt>
      <trkpt lat="45.98208" lon="3.44371">
        <ele>298</ele>
        <time>2021-03-27T10:16:24.667Z</time>
      </trkpt>
      <trkpt lat="45.98214" lon="3.44375">
        <ele>298</ele>
        <time>2021-03-27T10:16:26.867Z</time>
      </trkpt>
      <trkpt lat="45.98225" lon="3.44382">
        <ele>298</ele>
        <time>2021-03-27T10:16:29.070Z</time>
      </trkpt>
      <trkpt lat="45.98242" lon="3.44391">
        <ele>298.146484375</ele>
        <time>2021-03-27T10:16:31.276Z</time>
      </trkpt>
      <trkpt lat="45.98256" lon="3.44398">
        <ele>298.38760375977</ele>
        <time>2021-03-27T10:16:33.485Z</time>
      </trkpt>
      <trkpt lat="45.98264" lon="3.44403">
        <ele>298.57833862305</ele>
        <time>2021-03-27T10:16:35.696Z</time>
      </trkpt>
      <trkpt lat="45.98271" lon="3.44408">
        <ele>298.75469970703</ele>
        <time>2021-03-27T10:16:37.909Z</time>
      </trkpt>
      <trkpt lat="45.98278" lon="3.44414">
        <ele>298.95623779297</ele>
        <time>2021-03-27T10:16:40.123Z</time>
      </trkpt>
      <trkpt lat="45.98288" lon="3.44425">
        <ele>299.35934448242</ele>
        <time>2021-03-27T10:16:42.340Z</time>
      </trkpt>
      <trkpt lat="45.98314" lon="3.44455">
        <ele>300.43542480469</ele>
        <time>2021-03-27T10:16:44.563Z</time>
      </trkpt>
      <trkpt lat="45.98349" lon="3.44496">
        <ele>298.8171081543</ele>
        <time>2021-03-27T10:16:46.795Z</time>
      </trkpt>
      <trkpt lat="45.98386" lon="3.4454">
        <ele>296.58413696289</ele>
        <time>2021-03-27T10:16:49.037Z</time>
      </trkpt>
      <trkpt lat="45.98398" lon="3.44553">
        <ele>296.15225219727</ele>
        <time>2021-03-27T10:16:51.282Z</time>
      </trkpt>
      <trkpt lat="45.98404" lon="3.4456">
        <ele>295.92910766602</ele>
        <time>2021-03-27T10:16:53.529Z</time>
      </trkpt>
      <trkpt lat="45.98408" lon="3.44555">
        <ele>295.79595947266</ele>
        <time>2021-03-27T10:16:55.777Z</time>
      </trkpt>
      <trkpt lat="45.98404" lon="3.4456">
        <ele>295.92910766602</ele>
        <time>2021-03-27T10:16:58.026Z</time>
      </trkpt>
      <trkpt lat="45.98387" lon="3.44585">
        <ele>296.67306518555</ele>
        <time>2021-03-27T10:17:00.280Z</time>
      </trkpt>
      <trkpt lat="45.98372" lon="3.44607">
        <ele>298</ele>
        <time>2021-03-27T10:17:02.538Z</time>
      </trkpt>
      <trkpt lat="45.98367" lon="3.44616">
        <ele>298</ele>
        <time>2021-03-27T10:17:04.798Z</time>
      </trkpt>
      <trkpt lat="45.98364" lon="3.44622">
        <ele>298</ele>
        <time>2021-03-27T10:17:07.059Z</time>
      </trkpt>
      <trkpt lat="45.98363" lon="3.44627">
        <ele>298</ele>
        <time>2021-03-27T10:17:09.320Z</time>
      </trkpt>
      <trkpt lat="45.98362" lon="3.44633">
        <ele>298</ele>
        <time>2021-03-27T10:17:11.582Z</time>
      </trkpt>
      <trkpt lat="45.98362" lon="3.44641">
        <ele>298</ele>
        <time>2021-03-27T10:17:13.845Z</time>
      </trkpt>
      <trkpt lat="45.98362" lon="3.44649">
        <ele>298</ele>
        <time>2021-03-27T10:17:16.109Z</time>
      </trkpt>
      <trkpt lat="45.98362" lon="3.44665">
        <ele>298</ele>
        <time>2021-03-27T10:17:18.376Z</time>
      </trkpt>
      <trkpt lat="45.98362" lon="3.44713">
        <ele>298</ele>
        <time>2021-03-27T10:17:20.649Z</time>
      </trkpt>
      <trkpt lat="45.98362" lon="3.44753">
        <ele>296.84674072266</ele>
        <time>2021-03-27T10:17:22.928Z</time>
      </trkpt>
      <trkpt lat="45.98361" lon="3.44765">
        <ele>296.3098449707</ele>
        <time>2021-03-27T10:17:25.209Z</time>
      </trkpt>
      <trkpt lat="45.98361" lon="3.44777">
        <ele>295.43267822266</ele>
        <time>2021-03-27T10:17:27.491Z</time>
      </trkpt>
      <trkpt lat="45.98359" lon="3.44788">
        <ele>294.15258789062</ele>
        <time>2021-03-27T10:17:29.775Z</time>
      </trkpt>
      <trkpt lat="45.98365" lon="3.4479">
        <ele>294.22341918945</ele>
        <time>2021-03-27T10:17:32.060Z</time>
      </trkpt>
      <trkpt lat="45.984" lon="3.44798">
        <ele>293.56344604492</ele>
        <time>2021-03-27T10:17:34.352Z</time>
      </trkpt>
      <trkpt lat="45.9842" lon="3.44801">
        <ele>292.55212402344</ele>
        <time>2021-03-27T10:17:36.648Z</time>
      </trkpt>
      <trkpt lat="45.98433" lon="3.44803">
        <ele>292.10168457031</ele>
        <time>2021-03-27T10:17:38.947Z</time>
      </trkpt>
      <trkpt lat="45.98443" lon="3.44802">
        <ele>292.1520690918</ele>
        <time>2021-03-27T10:17:41.248Z</time>
      </trkpt>
      <trkpt lat="45.98461" lon="3.44799">
        <ele>292.263671875</ele>
        <time>2021-03-27T10:17:43.552Z</time>
      </trkpt>
      <trkpt lat="45.9849" lon="3.44793">
        <ele>292.01580810547</ele>
        <time>2021-03-27T10:17:45.862Z</time>
      </trkpt>
      <trkpt lat="45.98516" lon="3.44788">
        <ele>291.11560058594</ele>
        <time>2021-03-27T10:17:48.178Z</time>
      </trkpt>
      <trkpt lat="45.98547" lon="3.44782">
        <ele>290.81024169922</ele>
        <time>2021-03-27T10:17:50.500Z</time>
      </trkpt>
      <trkpt lat="45.98572" lon="3.44777">
        <ele>290.98034667969</ele>
        <time>2021-03-27T10:17:52.827Z</time>
      </trkpt>
      <trkpt lat="45.98602" lon="3.44772">
        <ele>291.16293334961</ele>
        <time>2021-03-27T10:17:55.160Z</time>
      </trkpt>
      <trkpt lat="45.98615" lon="3.44769">
        <ele>291.25289916992</ele>
        <time>2021-03-27T10:17:57.496Z</time>
      </trkpt>
      <trkpt lat="45.98624" lon="3.44767">
        <ele>291.34289550781</ele>
        <time>2021-03-27T10:17:59.833Z</time>
      </trkpt>
      <trkpt lat="45.98632" lon="3.44764">
        <ele>291.70227050781</ele>
        <time>2021-03-27T10:18:02.172Z</time>
      </trkpt>
      <trkpt lat="45.98648" lon="3.44757">
        <ele>292</ele>
        <time>2021-03-27T10:18:04.514Z</time>
      </trkpt>
      <trkpt lat="45.98671" lon="3.44748">
        <ele>291.97329711914</ele>
        <time>2021-03-27T10:18:06.861Z</time>
      </trkpt>
      <trkpt lat="45.9868" lon="3.44745">
        <ele>291.85815429688</ele>
        <time>2021-03-27T10:18:09.210Z</time>
      </trkpt>
      <trkpt lat="45.98689" lon="3.44743">
        <ele>291.47610473633</ele>
        <time>2021-03-27T10:18:11.561Z</time>
      </trkpt>
      <trkpt lat="45.98695" lon="3.44742">
        <ele>291.22418212891</ele>
        <time>2021-03-27T10:18:13.913Z</time>
      </trkpt>
      <trkpt lat="45.98702" lon="3.44742">
        <ele>291</ele>
        <time>2021-03-27T10:18:16.266Z</time>
      </trkpt>
      <trkpt lat="45.98713" lon="3.44744">
        <ele>290.83697509766</ele>
        <time>2021-03-27T10:18:18.622Z</time>
      </trkpt>
      <trkpt lat="45.98724" lon="3.44747">
        <ele>290.44110107422</ele>
        <time>2021-03-27T10:18:20.980Z</time>
      </trkpt>
      <trkpt lat="45.98738" lon="3.44754">
        <ele>290.10848999023</ele>
        <time>2021-03-27T10:18:23.341Z</time>
      </trkpt>
      <trkpt lat="45.98756" lon="3.44764">
        <ele>290</ele>
        <time>2021-03-27T10:18:25.706Z</time>
      </trkpt>
      <trkpt lat="45.98771" lon="3.44771">
        <ele>290</ele>
        <time>2021-03-27T10:18:28.074Z</time>
      </trkpt>
      <trkpt lat="45.9878" lon="3.44775">
        <ele>290</ele>
        <time>2021-03-27T10:18:30.444Z</time>
      </trkpt>
      <trkpt lat="45.98787" lon="3.44776">
        <ele>290</ele>
        <time>2021-03-27T10:18:32.815Z</time>
      </trkpt>
      <trkpt lat="45.98794" lon="3.44777">
        <ele>290.10961914062</ele>
        <time>2021-03-27T10:18:35.188Z</time>
      </trkpt>
      <trkpt lat="45.98802" lon="3.44776">
        <ele>290.36611938477</ele>
        <time>2021-03-27T10:18:37.562Z</time>
      </trkpt>
      <trkpt lat="45.98818" lon="3.44774">
        <ele>290.97076416016</ele>
        <time>2021-03-27T10:18:39.939Z</time>
      </trkpt>
      <trkpt lat="45.98831" lon="3.4477">
        <ele>291.43502807617</ele>
        <time>2021-03-27T10:18:42.319Z</time>
      </trkpt>
      <trkpt lat="45.98841" lon="3.44768">
        <ele>291.76974487305</ele>
        <time>2021-03-27T10:18:44.701Z</time>
      </trkpt>
      <trkpt lat="45.9885" lon="3.44766">
        <ele>291.76953125</ele>
        <time>2021-03-27T10:18:47.085Z</time>
      </trkpt>
      <trkpt lat="45.98856" lon="3.44766">
        <ele>291.35925292969</ele>
        <time>2021-03-27T10:18:49.470Z</time>
      </trkpt>
      <trkpt lat="45.98868" lon="3.44767">
        <ele>290.47387695312</ele>
        <time>2021-03-27T10:18:51.858Z</time>
      </trkpt>
      <trkpt lat="45.98876" lon="3.44769">
        <ele>289.94903564453</ele>
        <time>2021-03-27T10:18:54.247Z</time>
      </trkpt>
      <trkpt lat="45.98896" lon="3.44774">
        <ele>289.21841430664</ele>
        <time>2021-03-27T10:18:56.640Z</time>
      </trkpt>
      <trkpt lat="45.98921" lon="3.44781">
        <ele>289.65252685547</ele>
        <time>2021-03-27T10:18:59.038Z</time>
      </trkpt>
      <trkpt lat="45.9895" lon="3.44789">
        <ele>290.71423339844</ele>
        <time>2021-03-27T10:19:01.442Z</time>
      </trkpt>
      <trkpt lat="45.98965" lon="3.44794">
        <ele>291.25769042969</ele>
        <time>2021-03-27T10:19:03.849Z</time>
      </trkpt>
      <trkpt lat="45.98979" lon="3.44797">
        <ele>291.74356079102</ele>
        <time>2021-03-27T10:19:06.259Z</time>
      </trkpt>
      <trkpt lat="45.9899" lon="3.448">
        <ele>292.14303588867</ele>
        <time>2021-03-27T10:19:08.671Z</time>
      </trkpt>
      <trkpt lat="45.99015" lon="3.44802">
        <ele>293</ele>
        <time>2021-03-27T10:19:11.088Z</time>
      </trkpt>
      <trkpt lat="45.99048" lon="3.44806">
        <ele>292.49591064453</ele>
        <time>2021-03-27T10:19:13.512Z</time>
      </trkpt>
      <trkpt lat="45.99051" lon="3.44806">
        <ele>292.31594848633</ele>
        <time>2021-03-27T10:19:15.937Z</time>
      </trkpt>
      <trkpt lat="45.99058" lon="3.44807">
        <ele>291.7760925293</ele>
        <time>2021-03-27T10:19:18.363Z</time>
      </trkpt>
      <trkpt lat="45.99075" lon="3.44808">
        <ele>291</ele>
        <time>2021-03-27T10:19:20.792Z</time>
      </trkpt>
      <trkpt lat="45.99083" lon="3.44808">
        <ele>291</ele>
        <time>2021-03-27T10:19:23.223Z</time>
      </trkpt>
      <trkpt lat="45.99091" lon="3.44808">
        <ele>291</ele>
        <time>2021-03-27T10:19:25.656Z</time>
      </trkpt>
      <trkpt lat="45.99096" lon="3.44806">
        <ele>291</ele>
        <time>2021-03-27T10:19:28.090Z</time>
      </trkpt>
      <trkpt lat="45.99101" lon="3.44805">
        <ele>291.30465698242</ele>
        <time>2021-03-27T10:19:30.525Z</time>
      </trkpt>
      <trkpt lat="45.99107" lon="3.44801">
        <ele>291.74371337891</ele>
        <time>2021-03-27T10:19:32.961Z</time>
      </trkpt>
      <trkpt lat="45.99115" lon="3.44794">
        <ele>292.28503417969</ele>
        <time>2021-03-27T10:19:35.399Z</time>
      </trkpt>
      <trkpt lat="45.99124" lon="3.44786">
        <ele>292.34262084961</ele>
        <time>2021-03-27T10:19:37.839Z</time>
      </trkpt>
      <trkpt lat="45.99152" lon="3.44761">
        <ele>291.4303894043</ele>
        <time>2021-03-27T10:19:40.286Z</time>
      </trkpt>
      <trkpt lat="45.99166" lon="3.44749">
        <ele>291.02368164062</ele>
        <time>2021-03-27T10:19:42.736Z</time>
      </trkpt>
      <trkpt lat="45.99173" lon="3.44743">
        <ele>290.7897644043</ele>
        <time>2021-03-27T10:19:45.188Z</time>
      </trkpt>
      <trkpt lat="45.99174" lon="3.44742">
        <ele>290.76815795898</ele>
        <time>2021-03-27T10:19:47.640Z</time>
      </trkpt>
      <trkpt lat="45.99173" lon="3.44743">
        <ele>290.7897644043</ele>
        <time>2021-03-27T10:19:50.092Z</time>
      </trkpt>
      <trkpt lat="45.99166" lon="3.44749">
        <ele>291.02368164062</ele>
        <time>2021-03-27T10:19:52.546Z</time>
      </trkpt>
      <trkpt lat="45.99159" lon="3.44732">
        <ele>290.40106201172</ele>
        <time>2021-03-27T10:19:55.002Z</time>
      </trkpt>
      <trkpt lat="45.9913" lon="3.44646">
        <ele>289.31311035156</ele>
        <time>2021-03-27T10:19:57.472Z</time>
      </trkpt>
      <trkpt lat="45.99101" lon="3.44555">
        <ele>291.82403564453</ele>
        <time>2021-03-27T10:19:59.956Z</time>
      </trkpt>
      <trkpt lat="45.99085" lon="3.44507">
        <ele>290.57287597656</ele>
        <time>2021-03-27T10:20:02.447Z</time>
      </trkpt>
      <trkpt lat="45.99082" lon="3.44496">
        <ele>290.45770263672</ele>
        <time>2021-03-27T10:20:04.940Z</time>
      </trkpt>
      <trkpt lat="45.99081" lon="3.44489">
        <ele>290.41091918945</ele>
        <time>2021-03-27T10:20:07.434Z</time>
      </trkpt>
      <trkpt lat="45.99081" lon="3.44484">
        <ele>290.40731811523</ele>
        <time>2021-03-27T10:20:09.928Z</time>
      </trkpt>
      <trkpt lat="45.99081" lon="3.44478">
        <ele>290.27758789062</ele>
        <time>2021-03-27T10:20:12.423Z</time>
      </trkpt>
      <trkpt lat="45.99084" lon="3.44468">
        <ele>289.89611816406</ele>
        <time>2021-03-27T10:20:14.920Z</time>
      </trkpt>
      <trkpt lat="45.9914" lon="3.44322">
        <ele>292.59222412109</ele>
        <time>2021-03-27T10:20:17.440Z</time>
      </trkpt>
      <trkpt lat="45.99174" lon="3.4423">
        <ele>292.43362426758</ele>
        <time>2021-03-27T10:20:19.975Z</time>
      </trkpt>
      <trkpt lat="45.99195" lon="3.44178">
        <ele>292.03799438477</ele>
        <time>2021-03-27T10:20:22.518Z</time>
      </trkpt>
      <trkpt lat="45.99205" lon="3.44151">
        <ele>292.23101806641</ele>
        <time>2021-03-27T10:20:25.065Z</time>
      </trkpt>
      <trkpt lat="45.99247" lon="3.44041">
        <ele>289.52117919922</ele>
        <time>2021-03-27T10:20:27.630Z</time>
      </trkpt>
      <trkpt lat="45.99285" lon="3.4394">
        <ele>289.11019897461</ele>
        <time>2021-03-27T10:20:30.211Z</time>
      </trkpt>
      <trkpt lat="45.993" lon="3.43909">
        <ele>290.80419921875</ele>
        <time>2021-03-27T10:20:32.797Z</time>
      </trkpt>
      <trkpt lat="45.99305" lon="3.43898">
        <ele>291.46908569336</ele>
        <time>2021-03-27T10:20:35.385Z</time>
      </trkpt>
      <trkpt lat="45.99309" lon="3.43891">
        <ele>291.61303710938</ele>
        <time>2021-03-27T10:20:37.974Z</time>
      </trkpt>
      <trkpt lat="45.99312" lon="3.43887">
        <ele>291.76748657227</ele>
        <time>2021-03-27T10:20:40.564Z</time>
      </trkpt>
      <trkpt lat="45.99316" lon="3.43883">
        <ele>291.958984375</ele>
        <time>2021-03-27T10:20:43.155Z</time>
      </trkpt>
      <trkpt lat="45.99322" lon="3.4388">
        <ele>291.8994140625</ele>
        <time>2021-03-27T10:20:45.747Z</time>
      </trkpt>
      <trkpt lat="45.99328" lon="3.43879">
        <ele>292.31332397461</ele>
        <time>2021-03-27T10:20:48.340Z</time>
      </trkpt>
      <trkpt lat="45.99334" lon="3.4388">
        <ele>292.84237670898</ele>
        <time>2021-03-27T10:20:50.935Z</time>
      </trkpt>
      <trkpt lat="45.99349" lon="3.43882">
        <ele>293.93646240234</ele>
        <time>2021-03-27T10:20:53.533Z</time>
      </trkpt>
      <trkpt lat="45.99364" lon="3.43883">
        <ele>295.06655883789</ele>
        <time>2021-03-27T10:20:56.134Z</time>
      </trkpt>
      <trkpt lat="45.99371" lon="3.43883">
        <ele>295.57400512695</ele>
        <time>2021-03-27T10:20:58.736Z</time>
      </trkpt>
      <trkpt lat="45.99385" lon="3.43882">
        <ele>295.06979370117</ele>
        <time>2021-03-27T10:21:01.341Z</time>
      </trkpt>
      <trkpt lat="45.99397" lon="3.43879">
        <ele>294.29479980469</ele>
        <time>2021-03-27T10:21:03.948Z</time>
      </trkpt>
      <trkpt lat="45.99406" lon="3.4388">
        <ele>293.72372436523</ele>
        <time>2021-03-27T10:21:06.557Z</time>
      </trkpt>
      <trkpt lat="45.99405" lon="3.43877">
        <ele>293.96484375</ele>
        <time>2021-03-27T10:21:09.166Z</time>
      </trkpt>
      <trkpt lat="45.99404" lon="3.43873">
        <ele>294.33554077148</ele>
        <time>2021-03-27T10:21:11.776Z</time>
      </trkpt>
      <trkpt lat="45.99403" lon="3.43864">
        <ele>294.76742553711</ele>
        <time>2021-03-27T10:21:14.387Z</time>
      </trkpt>
      <trkpt lat="45.99404" lon="3.43856">
        <ele>295.14166259766</ele>
        <time>2021-03-27T10:21:17.000Z</time>
      </trkpt>
      <trkpt lat="45.99405" lon="3.43851">
        <ele>295.38278198242</ele>
        <time>2021-03-27T10:21:19.613Z</time>
      </trkpt>
      <trkpt lat="45.99407" lon="3.43844">
        <ele>295.61672973633</ele>
        <time>2021-03-27T10:21:22.227Z</time>
      </trkpt>
      <trkpt lat="45.99414" lon="3.43832">
        <ele>295.79666137695</ele>
        <time>2021-03-27T10:21:24.844Z</time>
      </trkpt>
      <trkpt lat="45.99435" lon="3.438">
        <ele>295.19165039062</ele>
        <time>2021-03-27T10:21:27.467Z</time>
      </trkpt>
      <trkpt lat="45.99451" lon="3.43781">
        <ele>293.34936523438</ele>
        <time>2021-03-27T10:21:30.094Z</time>
      </trkpt>
      <trkpt lat="45.99473" lon="3.43751">
        <ele>294</ele>
        <time>2021-03-27T10:21:32.727Z</time>
      </trkpt>
      <trkpt lat="45.99476" lon="3.43747">
        <ele>294.05627441406</ele>
        <time>2021-03-27T10:21:35.361Z</time>
      </trkpt>
      <trkpt lat="45.99477" lon="3.43746">
        <ele>294.08148193359</ele>
        <time>2021-03-27T10:21:37.995Z</time>
      </trkpt>
      <trkpt lat="45.9948" lon="3.43746">
        <ele>294.08868408203</ele>
        <time>2021-03-27T10:21:40.630Z</time>
      </trkpt>
      <trkpt lat="45.99486" lon="3.43748">
        <ele>294.01669311523</ele>
        <time>2021-03-27T10:21:43.266Z</time>
      </trkpt>
      <trkpt lat="45.99499" lon="3.43752">
        <ele>294.47274780273</ele>
        <time>2021-03-27T10:21:45.905Z</time>
      </trkpt>
      <trkpt lat="45.99517" lon="3.4376">
        <ele>295.12057495117</ele>
        <time>2021-03-27T10:21:48.547Z</time>
      </trkpt>
      <trkpt lat="45.9954" lon="3.43768">
        <ele>295.95553588867</ele>
        <time>2021-03-27T10:21:51.194Z</time>
      </trkpt>
      <trkpt lat="45.99551" lon="3.43771">
        <ele>296.34423828125</ele>
        <time>2021-03-27T10:21:53.843Z</time>
      </trkpt>
      <trkpt lat="45.99581" lon="3.43782">
        <ele>297</ele>
        <time>2021-03-27T10:21:56.498Z</time>
      </trkpt>
      <trkpt lat="45.99598" lon="3.43787">
        <ele>297</ele>
        <time>2021-03-27T10:21:59.157Z</time>
      </trkpt>
      <trkpt lat="45.99627" lon="3.43797">
        <ele>297</ele>
        <time>2021-03-27T10:22:01.822Z</time>
      </trkpt>
      <trkpt lat="45.99715" lon="3.43825">
        <ele>294.47766113281</ele>
        <time>2021-03-27T10:22:04.505Z</time>
      </trkpt>
      <trkpt lat="45.99764" lon="3.43842">
        <ele>294.75143432617</ele>
        <time>2021-03-27T10:22:07.198Z</time>
      </trkpt>
      <trkpt lat="45.99803" lon="3.43854">
        <ele>293.59707641602</ele>
        <time>2021-03-27T10:22:09.899Z</time>
      </trkpt>
      <trkpt lat="45.99851" lon="3.43869">
        <ele>293.64392089844</ele>
        <time>2021-03-27T10:22:12.610Z</time>
      </trkpt>
      <trkpt lat="45.99895" lon="3.43884">
        <ele>292.29321289062</ele>
        <time>2021-03-27T10:22:15.330Z</time>
      </trkpt>
      <trkpt lat="45.99901" lon="3.43886">
        <ele>292.0556640625</ele>
        <time>2021-03-27T10:22:18.051Z</time>
      </trkpt>
      <trkpt lat="45.99906" lon="3.43886">
        <ele>292.03567504883</ele>
        <time>2021-03-27T10:22:20.773Z</time>
      </trkpt>
      <trkpt lat="45.99911" lon="3.43886">
        <ele>292.06088256836</ele>
        <time>2021-03-27T10:22:23.496Z</time>
      </trkpt>
      <trkpt lat="45.99916" lon="3.43884">
        <ele>292.12564086914</ele>
        <time>2021-03-27T10:22:26.220Z</time>
      </trkpt>
      <trkpt lat="45.99918" lon="3.43891">
        <ele>292</ele>
        <time>2021-03-27T10:22:28.945Z</time>
      </trkpt>
      <trkpt lat="45.99921" lon="3.43904">
        <ele>292</ele>
        <time>2021-03-27T10:22:31.672Z</time>
      </trkpt>
      <trkpt lat="45.99925" lon="3.43919">
        <ele>292</ele>
        <time>2021-03-27T10:22:34.401Z</time>
      </trkpt>
      <trkpt lat="45.99926" lon="3.43925">
        <ele>292</ele>
        <time>2021-03-27T10:22:37.131Z</time>
      </trkpt>
      <trkpt lat="45.9993" lon="3.43932">
        <ele>292</ele>
        <time>2021-03-27T10:22:39.862Z</time>
      </trkpt>
      <trkpt lat="45.99934" lon="3.43941">
        <ele>291.87161254883</ele>
        <time>2021-03-27T10:22:42.595Z</time>
      </trkpt>
      <trkpt lat="45.99939" lon="3.4395">
        <ele>291.69165039062</ele>
        <time>2021-03-27T10:22:45.330Z</time>
      </trkpt>
      <trkpt lat="45.99943" lon="3.43957">
        <ele>291.55130004883</ele>
        <time>2021-03-27T10:22:48.066Z</time>
      </trkpt>
      <trkpt lat="45.99951" lon="3.43966">
        <ele>291.27777099609</ele>
        <time>2021-03-27T10:22:50.804Z</time>
      </trkpt>
      <trkpt lat="45.99958" lon="3.43974">
        <ele>290.99114990234</ele>
        <time>2021-03-27T10:22:53.544Z</time>
      </trkpt>
      <trkpt lat="45.99966" lon="3.43982">
        <ele>290.17056274414</ele>
        <time>2021-03-27T10:22:56.286Z</time>
      </trkpt>
      <trkpt lat="45.99973" lon="3.43989">
        <ele>289.37158203125</ele>
        <time>2021-03-27T10:22:59.029Z</time>
      </trkpt>
      <trkpt lat="45.99982" lon="3.43993">
        <ele>288.4873046875</ele>
        <time>2021-03-27T10:23:01.774Z</time>
      </trkpt>
      <trkpt lat="45.9999" lon="3.43996">
        <ele>286</ele>
        <time>2021-03-27T10:23:04.521Z</time>
      </trkpt>
      <trkpt lat="46.00003" lon="3.44001">
        <ele>285.53344726562</ele>
        <time>2021-03-27T10:23:07.270Z</time>
      </trkpt>
      <trkpt lat="46.00024" lon="3.44004">
        <ele>285.78524780273</ele>
        <time>2021-03-27T10:23:10.024Z</time>
      </trkpt>
      <trkpt lat="46.0006" lon="3.4401">
        <ele>285.59451293945</ele>
        <time>2021-03-27T10:23:12.785Z</time>
      </trkpt>
      <trkpt lat="46.0009" lon="3.44014">
        <ele>284.67919921875</ele>
        <time>2021-03-27T10:23:15.552Z</time>
      </trkpt>
      <trkpt lat="46.00109" lon="3.44018">
        <ele>284.29940795898</ele>
        <time>2021-03-27T10:23:18.323Z</time>
      </trkpt>
      <trkpt lat="46.00145" lon="3.44024">
        <ele>283.19454956055</ele>
        <time>2021-03-27T10:23:21.101Z</time>
      </trkpt>
      <trkpt lat="46.00169" lon="3.44027">
        <ele>283.02810668945</ele>
        <time>2021-03-27T10:23:23.884Z</time>
      </trkpt>
      <trkpt lat="46.00197" lon="3.4403">
        <ele>283.12887573242</ele>
        <time>2021-03-27T10:23:26.673Z</time>
      </trkpt>
      <trkpt lat="46.0021" lon="3.44029">
        <ele>283.09289550781</ele>
        <time>2021-03-27T10:23:29.464Z</time>
      </trkpt>
      <trkpt lat="46.00218" lon="3.44026">
        <ele>283.33129882812</ele>
        <time>2021-03-27T10:23:32.257Z</time>
      </trkpt>
      <trkpt lat="46.00222" lon="3.44023">
        <ele>283.38818359375</ele>
        <time>2021-03-27T10:23:35.051Z</time>
      </trkpt>
      <trkpt lat="46.00229" lon="3.44023">
        <ele>283.62573242188</ele>
        <time>2021-03-27T10:23:37.846Z</time>
      </trkpt>
      <trkpt lat="46.00233" lon="3.44022">
        <ele>283.72512817383</ele>
        <time>2021-03-27T10:23:40.642Z</time>
      </trkpt>
      <trkpt lat="46.00238" lon="3.44022">
        <ele>283.58694458008</ele>
        <time>2021-03-27T10:23:43.439Z</time>
      </trkpt>
      <trkpt lat="46.00242" lon="3.44022">
        <ele>283.34222412109</ele>
        <time>2021-03-27T10:23:46.237Z</time>
      </trkpt>
      <trkpt lat="46.00242" lon="3.44025">
        <ele>283.46459960938</ele>
        <time>2021-03-27T10:23:49.035Z</time>
      </trkpt>
      <trkpt lat="46.00243" lon="3.44027">
        <ele>283.57977294922</ele>
        <time>2021-03-27T10:23:51.833Z</time>
      </trkpt>
      <trkpt lat="46.00246" lon="3.44039">
        <ele>284</ele>
        <time>2021-03-27T10:23:54.633Z</time>
      </trkpt>
      <trkpt lat="46.0025" lon="3.44063">
        <ele>284</ele>
        <time>2021-03-27T10:23:57.436Z</time>
      </trkpt>
      <trkpt lat="46.00253" lon="3.44082">
        <ele>284</ele>
        <time>2021-03-27T10:24:00.242Z</time>
      </trkpt>
      <trkpt lat="46.00257" lon="3.44112">
        <ele>283.64044189453</ele>
        <time>2021-03-27T10:24:03.052Z</time>
      </trkpt>
      <trkpt lat="46.00261" lon="3.44145">
        <ele>283</ele>
        <time>2021-03-27T10:24:05.867Z</time>
      </trkpt>
      <trkpt lat="46.00264" lon="3.44157">
        <ele>283</ele>
        <time>2021-03-27T10:24:08.684Z</time>
      </trkpt>
      <trkpt lat="46.00269" lon="3.44179">
        <ele>283</ele>
        <time>2021-03-27T10:24:11.504Z</time>
      </trkpt>
      <trkpt lat="46.00274" lon="3.44199">
        <ele>283.21478271484</ele>
        <time>2021-03-27T10:24:14.327Z</time>
      </trkpt>
      <trkpt lat="46.00277" lon="3.44214">
        <ele>283.47988891602</ele>
        <time>2021-03-27T10:24:17.152Z</time>
      </trkpt>
      <trkpt lat="46.00279" lon="3.44224">
        <ele>283.54467773438</ele>
        <time>2021-03-27T10:24:19.979Z</time>
      </trkpt>
      <trkpt lat="46.0028" lon="3.44232">
        <ele>283.57345581055</ele>
        <time>2021-03-27T10:24:22.807Z</time>
      </trkpt>
      <trkpt lat="46.00281" lon="3.44244">
        <ele>283.61303710938</ele>
        <time>2021-03-27T10:24:25.637Z</time>
      </trkpt>
      <trkpt lat="46.00281" lon="3.44256">
        <ele>283.62744140625</ele>
        <time>2021-03-27T10:24:28.468Z</time>
      </trkpt>
      <trkpt lat="46.00282" lon="3.44273">
        <ele>283.64184570312</ele>
        <time>2021-03-27T10:24:31.302Z</time>
      </trkpt>
      <trkpt lat="46.00283" lon="3.44328">
        <ele>282.13528442383</ele>
        <time>2021-03-27T10:24:34.143Z</time>
      </trkpt>
      <trkpt lat="46.00285" lon="3.44381">
        <ele>281</ele>
        <time>2021-03-27T10:24:36.992Z</time>
      </trkpt>
      <trkpt lat="46.00287" lon="3.44416">
        <ele>280.14639282227</ele>
        <time>2021-03-27T10:24:39.846Z</time>
      </trkpt>
      <trkpt lat="46.00288" lon="3.44429">
        <ele>279.61734008789</ele>
        <time>2021-03-27T10:24:42.701Z</time>
      </trkpt>
      <trkpt lat="46.0029" lon="3.44442">
        <ele>279.12786865234</ele>
        <time>2021-03-27T10:24:45.558Z</time>
      </trkpt>
      <trkpt lat="46.00291" lon="3.44454">
        <ele>278.60601806641</ele>
        <time>2021-03-27T10:24:48.417Z</time>
      </trkpt>
      <trkpt lat="46.00301" lon="3.44492">
        <ele>276.92526245117</ele>
        <time>2021-03-27T10:24:51.281Z</time>
      </trkpt>
      <trkpt lat="46.00303" lon="3.44502">
        <ele>276.48260498047</ele>
        <time>2021-03-27T10:24:54.147Z</time>
      </trkpt>
      <trkpt lat="46.00304" lon="3.44507">
        <ele>276.23068237305</ele>
        <time>2021-03-27T10:24:57.014Z</time>
      </trkpt>
      <trkpt lat="46.0032" lon="3.44567">
        <ele>273.98333740234</ele>
        <time>2021-03-27T10:24:59.890Z</time>
      </trkpt>
      <trkpt lat="46.00333" lon="3.44622">
        <ele>273.94323730469</ele>
        <time>2021-03-27T10:25:02.774Z</time>
      </trkpt>
      <trkpt lat="46.00349" lon="3.44691">
        <ele>272.01776123047</ele>
        <time>2021-03-27T10:25:05.668Z</time>
      </trkpt>
      <trkpt lat="46.00357" lon="3.44723">
        <ele>270.73965454102</ele>
        <time>2021-03-27T10:25:08.567Z</time>
      </trkpt>
      <trkpt lat="46.0036" lon="3.44736">
        <ele>271</ele>
        <time>2021-03-27T10:25:11.468Z</time>
      </trkpt>
      <trkpt lat="46.00363" lon="3.44755">
        <ele>271.43606567383</ele>
        <time>2021-03-27T10:25:14.371Z</time>
      </trkpt>
      <trkpt lat="46.00364" lon="3.44766">
        <ele>272.22494506836</ele>
        <time>2021-03-27T10:25:17.276Z</time>
      </trkpt>
      <trkpt lat="46.00364" lon="3.44777">
        <ele>272.60382080078</ele>
        <time>2021-03-27T10:25:20.182Z</time>
      </trkpt>
      <trkpt lat="46.00361" lon="3.44839">
        <ele>272.00610351562</ele>
        <time>2021-03-27T10:25:23.097Z</time>
      </trkpt>
      <trkpt lat="46.0036" lon="3.44854">
        <ele>271.6201171875</ele>
        <time>2021-03-27T10:25:26.014Z</time>
      </trkpt>
      <trkpt lat="46.00359" lon="3.44864">
        <ele>271.14144897461</ele>
        <time>2021-03-27T10:25:28.933Z</time>
      </trkpt>
      <trkpt lat="46.00358" lon="3.44869">
        <ele>270.81756591797</ele>
        <time>2021-03-27T10:25:31.852Z</time>
      </trkpt>
      <trkpt lat="46.0034" lon="3.44914">
        <ele>270.25274658203</ele>
        <time>2021-03-27T10:25:34.778Z</time>
      </trkpt>
      <trkpt lat="46.00325" lon="3.44956">
        <ele>270.79977416992</ele>
        <time>2021-03-27T10:25:37.711Z</time>
      </trkpt>
      <trkpt lat="46.00294" lon="3.45038">
        <ele>269.58239746094</ele>
        <time>2021-03-27T10:25:40.657Z</time>
      </trkpt>
      <trkpt lat="46.00287" lon="3.45057">
        <ele>269.45062255859</ele>
        <time>2021-03-27T10:25:43.606Z</time>
      </trkpt>
      <trkpt lat="46.00283" lon="3.45069">
        <ele>270.13803100586</ele>
        <time>2021-03-27T10:25:46.557Z</time>
      </trkpt>
      <trkpt lat="46.0028" lon="3.45082">
        <ele>271.23156738281</ele>
        <time>2021-03-27T10:25:49.510Z</time>
      </trkpt>
      <trkpt lat="46.00277" lon="3.45099">
        <ele>271.75103759766</ele>
        <time>2021-03-27T10:25:52.465Z</time>
      </trkpt>
      <trkpt lat="46.00275" lon="3.45109">
        <ele>272.38806152344</ele>
        <time>2021-03-27T10:25:55.422Z</time>
      </trkpt>
      <trkpt lat="46.00272" lon="3.45128">
        <ele>272.82904052734</ele>
        <time>2021-03-27T10:25:58.381Z</time>
      </trkpt>
      <trkpt lat="46.0027" lon="3.45142">
        <ele>273.10256958008</ele>
        <time>2021-03-27T10:26:01.342Z</time>
      </trkpt>
      <trkpt lat="46.0027" lon="3.45153">
        <ele>273.20333862305</ele>
        <time>2021-03-27T10:26:04.305Z</time>
      </trkpt>
      <trkpt lat="46.00269" lon="3.45164">
        <ele>273.26092529297</ele>
        <time>2021-03-27T10:26:07.270Z</time>
      </trkpt>
      <trkpt lat="46.00269" lon="3.45182">
        <ele>272.85272216797</ele>
        <time>2021-03-27T10:26:10.237Z</time>
      </trkpt>
      <trkpt lat="46.00271" lon="3.45201">
        <ele>271.99615478516</ele>
        <time>2021-03-27T10:26:13.207Z</time>
      </trkpt>
      <trkpt lat="46.00273" lon="3.45217">
        <ele>271.15399169922</ele>
        <time>2021-03-27T10:26:16.179Z</time>
      </trkpt>
      <trkpt lat="46.00277" lon="3.45252">
        <ele>269.04022216797</ele>
        <time>2021-03-27T10:26:19.156Z</time>
      </trkpt>
      <trkpt lat="46.0028" lon="3.45276">
        <ele>268.85308837891</ele>
        <time>2021-03-27T10:26:22.136Z</time>
      </trkpt>
      <trkpt lat="46.00285" lon="3.45323">
        <ele>268.23937988281</ele>
        <time>2021-03-27T10:26:25.123Z</time>
      </trkpt>
      <trkpt lat="46.00291" lon="3.45364">
        <ele>268.15219116211</ele>
        <time>2021-03-27T10:26:28.116Z</time>
      </trkpt>
      <trkpt lat="46.00298" lon="3.45408">
        <ele>269</ele>
        <time>2021-03-27T10:26:31.115Z</time>
      </trkpt>
      <trkpt lat="46.00301" lon="3.45425">
        <ele>269</ele>
        <time>2021-03-27T10:26:34.116Z</time>
      </trkpt>
      <trkpt lat="46.00301" lon="3.4543">
        <ele>269.18203735352</ele>
        <time>2021-03-27T10:26:37.118Z</time>
      </trkpt>
      <trkpt lat="46.003" lon="3.45437">
        <ele>269.49514770508</ele>
        <time>2021-03-27T10:26:40.121Z</time>
      </trkpt>
      <trkpt lat="46.00298" lon="3.45443">
        <ele>269.76867675781</ele>
        <time>2021-03-27T10:26:43.125Z</time>
      </trkpt>
      <trkpt lat="46.00296" lon="3.45446">
        <ele>269.85430908203</ele>
        <time>2021-03-27T10:26:46.130Z</time>
      </trkpt>
      <trkpt lat="46.00293" lon="3.4545">
        <ele>269.76531982422</ele>
        <time>2021-03-27T10:26:49.135Z</time>
      </trkpt>
      <trkpt lat="46.00288" lon="3.45453">
        <ele>269.6357421875</ele>
        <time>2021-03-27T10:26:52.142Z</time>
      </trkpt>
      <trkpt lat="46.00279" lon="3.45458">
        <ele>269.47332763672</ele>
        <time>2021-03-27T10:26:55.151Z</time>
      </trkpt>
      <trkpt lat="46.00242" lon="3.45471">
        <ele>269.99871826172</ele>
        <time>2021-03-27T10:26:58.167Z</time>
      </trkpt>
      <trkpt lat="46.00216" lon="3.45479">
        <ele>271.01550292969</ele>
        <time>2021-03-27T10:27:01.188Z</time>
      </trkpt>
      <trkpt lat="46.00205" lon="3.45485">
        <ele>271.63452148438</ele>
        <time>2021-03-27T10:27:04.212Z</time>
      </trkpt>
      <trkpt lat="46.002" lon="3.45489">
        <ele>271.95843505859</ele>
        <time>2021-03-27T10:27:07.237Z</time>
      </trkpt>
      <trkpt lat="46.00195" lon="3.45496">
        <ele>272</ele>
        <time>2021-03-27T10:27:10.263Z</time>
      </trkpt>
      <trkpt lat="46.00193" lon="3.45503">
        <ele>272</ele>
        <time>2021-03-27T10:27:13.290Z</time>
      </trkpt>
      <trkpt lat="46.00178" lon="3.45586">
        <ele>269.88809204102</ele>
        <time>2021-03-27T10:27:16.329Z</time>
      </trkpt>
      <trkpt lat="46.00173" lon="3.45611">
        <ele>270</ele>
        <time>2021-03-27T10:27:19.372Z</time>
      </trkpt>
      <trkpt lat="46.00172" lon="3.45626">
        <ele>270</ele>
        <time>2021-03-27T10:27:22.417Z</time>
      </trkpt>
      <trkpt lat="46.00172" lon="3.45649">
        <ele>270</ele>
        <time>2021-03-27T10:27:25.465Z</time>
      </trkpt>
      <trkpt lat="46.00171" lon="3.4568">
        <ele>269.66494750977</ele>
        <time>2021-03-27T10:27:28.518Z</time>
      </trkpt>
      <trkpt lat="46.0017" lon="3.4576">
        <ele>270.60375976562</ele>
        <time>2021-03-27T10:27:31.582Z</time>
      </trkpt>
      <trkpt lat="46.00168" lon="3.45805">
        <ele>270.99606323242</ele>
        <time>2021-03-27T10:27:34.652Z</time>
      </trkpt>
      <trkpt lat="46.00167" lon="3.45832">
        <ele>269.99554443359</ele>
        <time>2021-03-27T10:27:37.726Z</time>
      </trkpt>
      <trkpt lat="46.00166" lon="3.45841">
        <ele>269.67163085938</ele>
        <time>2021-03-27T10:27:40.801Z</time>
      </trkpt>
      <trkpt lat="46.00164" lon="3.45866">
        <ele>269.18832397461</ele>
        <time>2021-03-27T10:27:43.880Z</time>
      </trkpt>
      <trkpt lat="46.00162" lon="3.4588">
        <ele>268.5859375</ele>
        <time>2021-03-27T10:27:46.961Z</time>
      </trkpt>
      <trkpt lat="46.00158" lon="3.45908">
        <ele>268.09201049805</ele>
        <time>2021-03-27T10:27:50.046Z</time>
      </trkpt>
      <trkpt lat="46.00157" lon="3.45916">
        <ele>267.82928466797</ele>
        <time>2021-03-27T10:27:53.132Z</time>
      </trkpt>
      <trkpt lat="46.00157" lon="3.45919">
        <ele>267.75729370117</ele>
        <time>2021-03-27T10:27:56.218Z</time>
      </trkpt>
      <trkpt lat="46.00156" lon="3.45928">
        <ele>267.80020141602</ele>
        <time>2021-03-27T10:27:59.305Z</time>
      </trkpt>
      <trkpt lat="46.00155" lon="3.45941">
        <ele>267.83618164062</ele>
        <time>2021-03-27T10:28:02.394Z</time>
      </trkpt>
      <trkpt lat="46.0016" lon="3.45982">
        <ele>266.61862182617</ele>
        <time>2021-03-27T10:28:05.489Z</time>
      </trkpt>
      <trkpt lat="46.00169" lon="3.46046">
        <ele>265.89743041992</ele>
        <time>2021-03-27T10:28:08.593Z</time>
      </trkpt>
      <trkpt lat="46.00171" lon="3.46062">
        <ele>265.66494750977</ele>
        <time>2021-03-27T10:28:11.699Z</time>
      </trkpt>
      <trkpt lat="46.00164" lon="3.46062">
        <ele>265.41302490234</ele>
        <time>2021-03-27T10:28:14.807Z</time>
      </trkpt>
      <trkpt lat="46.00148" lon="3.46064">
        <ele>265.32534790039</ele>
        <time>2021-03-27T10:28:17.918Z</time>
      </trkpt>
      <trkpt lat="46.00103" lon="3.46068">
        <ele>265</ele>
        <time>2021-03-27T10:28:21.038Z</time>
      </trkpt>
      <trkpt lat="46.00052" lon="3.46074">
        <ele>268.28610229492</ele>
        <time>2021-03-27T10:28:24.168Z</time>
      </trkpt>
      <trkpt lat="46.00037" lon="3.46077">
        <ele>269</ele>
        <time>2021-03-27T10:28:27.301Z</time>
      </trkpt>
      <trkpt lat="46.00033" lon="3.46078">
        <ele>268.83673095703</ele>
        <time>2021-03-27T10:28:30.435Z</time>
      </trkpt>
      <trkpt lat="46.00025" lon="3.4608">
        <ele>268.49481201172</ele>
        <time>2021-03-27T10:28:33.571Z</time>
      </trkpt>
      <trkpt lat="46.00025" lon="3.4608">
        <ele>268.46603393555</ele>
        <time>2021-03-27T10:28:36.707Z</time>
      </trkpt>
      <trkpt lat="46.00026" lon="3.46086">
        <ele>268.28607177734</ele>
        <time>2021-03-27T10:28:39.844Z</time>
      </trkpt>
      <trkpt lat="46.00028" lon="3.46092">
        <ele>268.15292358398</ele>
        <time>2021-03-27T10:28:42.982Z</time>
      </trkpt>
      <trkpt lat="46.00031" lon="3.46099">
        <ele>268.02334594727</ele>
        <time>2021-03-27T10:28:46.121Z</time>
      </trkpt>
      <trkpt lat="46.00037" lon="3.46105">
        <ele>268</ele>
        <time>2021-03-27T10:28:49.261Z</time>
      </trkpt>
      <trkpt lat="46.00042" lon="3.46111">
        <ele>267.95071411133</ele>
        <time>2021-03-27T10:28:52.402Z</time>
      </trkpt>
      <trkpt lat="46.00048" lon="3.46118">
        <ele>267.72039794922</ele>
        <time>2021-03-27T10:28:55.545Z</time>
      </trkpt>
      <trkpt lat="46.00053" lon="3.46123">
        <ele>267.54403686523</ele>
        <time>2021-03-27T10:28:58.689Z</time>
      </trkpt>
      <trkpt lat="46.00061" lon="3.46128">
        <ele>267.35330200195</ele>
        <time>2021-03-27T10:29:01.835Z</time>
      </trkpt>
      <trkpt lat="46.00072" lon="3.46134">
        <ele>266.99465942383</ele>
        <time>2021-03-27T10:29:04.983Z</time>
      </trkpt>
      <trkpt lat="46.00115" lon="3.46154">
        <ele>265.63150024414</ele>
        <time>2021-03-27T10:29:08.140Z</time>
      </trkpt>
      <trkpt lat="46.00157" lon="3.46175">
        <ele>267.3310546875</ele>
        <time>2021-03-27T10:29:11.306Z</time>
      </trkpt>
      <trkpt lat="46.00177" lon="3.46186">
        <ele>267.73773193359</ele>
        <time>2021-03-27T10:29:14.477Z</time>
      </trkpt>
      <trkpt lat="46.00189" lon="3.46194">
        <ele>268.01126098633</ele>
        <time>2021-03-27T10:29:17.650Z</time>
      </trkpt>
      <trkpt lat="46.00211" lon="3.46209">
        <ele>268.49694824219</ele>
        <time>2021-03-27T10:29:20.828Z</time>
      </trkpt>
      <trkpt lat="46.00226" lon="3.46222">
        <ele>268.39617919922</ele>
        <time>2021-03-27T10:29:24.010Z</time>
      </trkpt>
      <trkpt lat="46.0024" lon="3.46234">
        <ele>268.22271728516</ele>
        <time>2021-03-27T10:29:27.195Z</time>
      </trkpt>
      <trkpt lat="46.00258" lon="3.46253">
        <ele>267.45822143555</ele>
        <time>2021-03-27T10:29:30.384Z</time>
      </trkpt>
      <trkpt lat="46.00265" lon="3.46263">
        <ele>266.94839477539</ele>
        <time>2021-03-27T10:29:33.575Z</time>
      </trkpt>
      <trkpt lat="46.00272" lon="3.46272">
        <ele>266.72525024414</ele>
        <time>2021-03-27T10:29:36.768Z</time>
      </trkpt>
      <trkpt lat="46.00303" lon="3.46315">
        <ele>266</ele>
        <time>2021-03-27T10:29:39.970Z</time>
      </trkpt>
      <trkpt lat="46.00312" lon="3.4633">
        <ele>266.18435668945</ele>
        <time>2021-03-27T10:29:43.175Z</time>
      </trkpt>
      <trkpt lat="46.00358" lon="3.46413">
        <ele>268.51239013672</ele>
        <time>2021-03-27T10:29:46.394Z</time>
      </trkpt>
      <trkpt lat="46.00385" lon="3.4646">
        <ele>268.41180419922</ele>
        <time>2021-03-27T10:29:49.622Z</time>
      </trkpt>
      <trkpt lat="46.00395" lon="3.46477">
        <ele>267.79278564453</ele>
        <time>2021-03-27T10:29:52.853Z</time>
      </trkpt>
      <trkpt lat="46.004" lon="3.46483">
        <ele>267.56964111328</ele>
        <time>2021-03-27T10:29:56.085Z</time>
      </trkpt>
      <trkpt lat="46.00405" lon="3.46488">
        <ele>267.48709106445</ele>
        <time>2021-03-27T10:29:59.318Z</time>
      </trkpt>
      <trkpt lat="46.00411" lon="3.46489">
        <ele>267.64184570312</ele>
        <time>2021-03-27T10:30:02.553Z</time>
      </trkpt>
      <trkpt lat="46.00416" lon="3.46489">
        <ele>267.81820678711</ele>
        <time>2021-03-27T10:30:05.789Z</time>
      </trkpt>
      <trkpt lat="46.00435" lon="3.4649">
        <ele>268</ele>
        <time>2021-03-27T10:30:09.029Z</time>
      </trkpt>
      <trkpt lat="46.00455" lon="3.46493">
        <ele>268</ele>
        <time>2021-03-27T10:30:12.272Z</time>
      </trkpt>
      <trkpt lat="46.00476" lon="3.46499">
        <ele>268</ele>
        <time>2021-03-27T10:30:15.520Z</time>
      </trkpt>
      <trkpt lat="46.00496" lon="3.46505">
        <ele>267.6598815918</ele>
        <time>2021-03-27T10:30:18.772Z</time>
      </trkpt>
      <trkpt lat="46.00506" lon="3.4651">
        <ele>267.28201293945</ele>
        <time>2021-03-27T10:30:22.026Z</time>
      </trkpt>
      <trkpt lat="46.00535" lon="3.46522">
        <ele>267</ele>
        <time>2021-03-27T10:30:25.286Z</time>
      </trkpt>
      <trkpt lat="46.00561" lon="3.46532">
        <ele>267</ele>
        <time>2021-03-27T10:30:28.551Z</time>
      </trkpt>
      <trkpt lat="46.00587" lon="3.46541">
        <ele>266.89538574219</ele>
        <time>2021-03-27T10:30:31.822Z</time>
      </trkpt>
      <trkpt lat="46.00608" lon="3.4655">
        <ele>266.82730102539</ele>
        <time>2021-03-27T10:30:35.097Z</time>
      </trkpt>
      <trkpt lat="46.00618" lon="3.46557">
        <ele>267</ele>
        <time>2021-03-27T10:30:38.374Z</time>
      </trkpt>
      <trkpt lat="46.0064" lon="3.46572">
        <ele>267</ele>
        <time>2021-03-27T10:30:41.656Z</time>
      </trkpt>
      <trkpt lat="46.00644" lon="3.46574">
        <ele>267</ele>
        <time>2021-03-27T10:30:44.939Z</time>
      </trkpt>
      <trkpt lat="46.00673" lon="3.46595">
        <ele>265.99017333984</ele>
        <time>2021-03-27T10:30:48.229Z</time>
      </trkpt>
      <trkpt lat="46.00689" lon="3.46608">
        <ele>265.59255981445</ele>
        <time>2021-03-27T10:30:51.522Z</time>
      </trkpt>
      <trkpt lat="46.00697" lon="3.46616">
        <ele>265.41510009766</ele>
        <time>2021-03-27T10:30:54.817Z</time>
      </trkpt>
      <trkpt lat="46.00701" lon="3.46621">
        <ele>265.2819519043</ele>
        <time>2021-03-27T10:30:58.113Z</time>
      </trkpt>
      <trkpt lat="46.00706" lon="3.46629">
        <ele>265.09478759766</ele>
        <time>2021-03-27T10:31:01.411Z</time>
      </trkpt>
      <trkpt lat="46.00712" lon="3.46639">
        <ele>265</ele>
        <time>2021-03-27T10:31:04.711Z</time>
      </trkpt>
      <trkpt lat="46.00722" lon="3.46655">
        <ele>265.27917480469</ele>
        <time>2021-03-27T10:31:08.014Z</time>
      </trkpt>
      <trkpt lat="46.00731" lon="3.46671">
        <ele>265.5793762207</ele>
        <time>2021-03-27T10:31:11.319Z</time>
      </trkpt>
      <trkpt lat="46.00741" lon="3.46689">
        <ele>265.63626098633</ele>
        <time>2021-03-27T10:31:14.628Z</time>
      </trkpt>
      <trkpt lat="46.00747" lon="3.46697">
        <ele>265.4833984375</ele>
        <time>2021-03-27T10:31:17.938Z</time>
      </trkpt>
      <trkpt lat="46.0075" lon="3.46704">
        <ele>265.15948486328</ele>
        <time>2021-03-27T10:31:21.249Z</time>
      </trkpt>
      <trkpt lat="46.00753" lon="3.46712">
        <ele>264.80651855469</ele>
        <time>2021-03-27T10:31:24.562Z</time>
      </trkpt>
      <trkpt lat="46.00755" lon="3.46721">
        <ele>264.6337890625</ele>
        <time>2021-03-27T10:31:27.876Z</time>
      </trkpt>
      <trkpt lat="46.00767" lon="3.46757">
        <ele>264</ele>
        <time>2021-03-27T10:31:31.196Z</time>
      </trkpt>
      <trkpt lat="46.00778" lon="3.46792">
        <ele>263.49990844727</ele>
        <time>2021-03-27T10:31:34.521Z</time>
      </trkpt>
      <trkpt lat="46.00782" lon="3.46803">
        <ele>263.37396240234</ele>
        <time>2021-03-27T10:31:37.848Z</time>
      </trkpt>
      <trkpt lat="46.00784" lon="3.46808">
        <ele>263.28396606445</ele>
        <time>2021-03-27T10:31:41.176Z</time>
      </trkpt>
      <trkpt lat="46.00787" lon="3.46811">
        <ele>263.19039916992</ele>
        <time>2021-03-27T10:31:44.504Z</time>
      </trkpt>
      <trkpt lat="46.00793" lon="3.46816">
        <ele>262.96725463867</ele>
        <time>2021-03-27T10:31:47.834Z</time>
      </trkpt>
      <trkpt lat="46.00798" lon="3.46817">
        <ele>262.79452514648</ele>
        <time>2021-03-27T10:31:51.165Z</time>
      </trkpt>
      <trkpt lat="46.00807" lon="3.46817">
        <ele>262.56338500977</ele>
        <time>2021-03-27T10:31:54.497Z</time>
      </trkpt>
      <trkpt lat="46.00867" lon="3.4682">
        <ele>264.43518066406</ele>
        <time>2021-03-27T10:31:57.842Z</time>
      </trkpt>
      <trkpt lat="46.00935" lon="3.46825">
        <ele>266.29498291016</ele>
        <time>2021-03-27T10:32:01.200Z</time>
      </trkpt>
      <trkpt lat="46.00963" lon="3.46824">
        <ele>265.11822509766</ele>
        <time>2021-03-27T10:32:04.564Z</time>
      </trkpt>
      <trkpt lat="46.0097" lon="3.46824">
        <ele>264.5927734375</ele>
        <time>2021-03-27T10:32:07.929Z</time>
      </trkpt>
      <trkpt lat="46.00969" lon="3.46774">
        <ele>263.4563293457</ele>
        <time>2021-03-27T10:32:11.301Z</time>
      </trkpt>
      <trkpt lat="46.00967" lon="3.46668">
        <ele>266.21728515625</ele>
        <time>2021-03-27T10:32:14.688Z</time>
      </trkpt>
      <trkpt lat="46.00967" lon="3.46629">
        <ele>266</ele>
        <time>2021-03-27T10:32:18.080Z</time>
      </trkpt>
      <trkpt lat="46.00967" lon="3.46586">
        <ele>264.99404907227</ele>
        <time>2021-03-27T10:32:21.478Z</time>
      </trkpt>
      <trkpt lat="46.00966" lon="3.46497">
        <ele>265.7301940918</ele>
        <time>2021-03-27T10:32:24.889Z</time>
      </trkpt>
      <trkpt lat="46.00966" lon="3.46399">
        <ele>265</ele>
        <time>2021-03-27T10:32:28.313Z</time>
      </trkpt>
      <trkpt lat="46.00968" lon="3.46312">
        <ele>265</ele>
        <time>2021-03-27T10:32:31.749Z</time>
      </trkpt>
      <trkpt lat="46.00968" lon="3.46309">
        <ele>265</ele>
        <time>2021-03-27T10:32:35.186Z</time>
      </trkpt>
      <trkpt lat="46.00969" lon="3.46305">
        <ele>265</ele>
        <time>2021-03-27T10:32:38.624Z</time>
      </trkpt>
      <trkpt lat="46.00971" lon="3.46298">
        <ele>264.76501464844</ele>
        <time>2021-03-27T10:32:42.063Z</time>
      </trkpt>
      <trkpt lat="46.00976" lon="3.46284">
        <ele>264.2575378418</ele>
        <time>2021-03-27T10:32:45.504Z</time>
      </trkpt>
      <trkpt lat="46.00979" lon="3.46275">
        <ele>264</ele>
        <time>2021-03-27T10:32:48.946Z</time>
      </trkpt>
      <trkpt lat="46.00982" lon="3.46269">
        <ele>264</ele>
        <time>2021-03-27T10:32:52.389Z</time>
      </trkpt>
      <trkpt lat="46.00985" lon="3.46263">
        <ele>264</ele>
        <time>2021-03-27T10:32:55.833Z</time>
      </trkpt>
      <trkpt lat="46.0099" lon="3.46256">
        <ele>264</ele>
        <time>2021-03-27T10:32:59.279Z</time>
      </trkpt>
      <trkpt lat="46.00996" lon="3.46249">
        <ele>263.67718505859</ele>
        <time>2021-03-27T10:33:02.726Z</time>
      </trkpt>
      <trkpt lat="46.01002" lon="3.46243">
        <ele>263.44534301758</ele>
        <time>2021-03-27T10:33:06.175Z</time>
      </trkpt>
      <trkpt lat="46.01009" lon="3.46237">
        <ele>263.42678833008</ele>
        <time>2021-03-27T10:33:09.625Z</time>
      </trkpt>
      <trkpt lat="46.01018" lon="3.46231">
        <ele>263.66070556641</ele>
        <time>2021-03-27T10:33:13.077Z</time>
      </trkpt>
      <trkpt lat="46.0103" lon="3.46223">
        <ele>263.44842529297</ele>
        <time>2021-03-27T10:33:16.532Z</time>
      </trkpt>
      <trkpt lat="46.01068" lon="3.462">
        <ele>264</ele>
        <time>2021-03-27T10:33:19.995Z</time>
      </trkpt>
      <trkpt lat="46.01089" lon="3.46186">
        <ele>264.94805908203</ele>
        <time>2021-03-27T10:33:23.463Z</time>
      </trkpt>
      <trkpt lat="46.01106" lon="3.46177">
        <ele>264.70959472656</ele>
        <time>2021-03-27T10:33:26.934Z</time>
      </trkpt>
      <trkpt lat="46.01125" lon="3.46166">
        <ele>264.97128295898</ele>
        <time>2021-03-27T10:33:30.409Z</time>
      </trkpt>
      <trkpt lat="46.01144" lon="3.46157">
        <ele>265.32397460938</ele>
        <time>2021-03-27T10:33:33.888Z</time>
      </trkpt>
      <trkpt lat="46.01155" lon="3.4615">
        <ele>265</ele>
        <time>2021-03-27T10:33:37.370Z</time>
      </trkpt>
      <trkpt lat="46.01199" lon="3.46129">
        <ele>265.64108276367</ele>
        <time>2021-03-27T10:33:40.861Z</time>
      </trkpt>
      <trkpt lat="46.01216" lon="3.4612">
        <ele>265.09509277344</ele>
        <time>2021-03-27T10:33:44.356Z</time>
      </trkpt>
      <trkpt lat="46.01237" lon="3.4611">
        <ele>265</ele>
        <time>2021-03-27T10:33:47.855Z</time>
      </trkpt>
      <trkpt lat="46.01257" lon="3.46098">
        <ele>264.42218017578</ele>
        <time>2021-03-27T10:33:51.359Z</time>
      </trkpt>
      <trkpt lat="46.01269" lon="3.46091">
        <ele>264.68133544922</ele>
        <time>2021-03-27T10:33:54.865Z</time>
      </trkpt>
      <trkpt lat="46.01279" lon="3.46084">
        <ele>264.45452880859</ele>
        <time>2021-03-27T10:33:58.373Z</time>
      </trkpt>
      <trkpt lat="46.01296" lon="3.46073">
        <ele>264.32913208008</ele>
        <time>2021-03-27T10:34:01.885Z</time>
      </trkpt>
      <trkpt lat="46.01318" lon="3.46056">
        <ele>264.05450439453</ele>
        <time>2021-03-27T10:34:05.402Z</time>
      </trkpt>
      <trkpt lat="46.01332" lon="3.46044">
        <ele>264</ele>
        <time>2021-03-27T10:34:08.922Z</time>
      </trkpt>
      <trkpt lat="46.01356" lon="3.46025">
        <ele>263</ele>
        <time>2021-03-27T10:34:12.448Z</time>
      </trkpt>
      <trkpt lat="46.0136" lon="3.46021">
        <ele>263</ele>
        <time>2021-03-27T10:34:15.975Z</time>
      </trkpt>
      <trkpt lat="46.01383" lon="3.46002">
        <ele>263</ele>
        <time>2021-03-27T10:34:19.507Z</time>
      </trkpt>
      <trkpt lat="46.01401" lon="3.45986">
        <ele>263.45306396484</ele>
        <time>2021-03-27T10:34:23.043Z</time>
      </trkpt>
      <trkpt lat="46.01416" lon="3.45972">
        <ele>264</ele>
        <time>2021-03-27T10:34:26.583Z</time>
      </trkpt>
      <trkpt lat="46.01429" lon="3.4596">
        <ele>264</ele>
        <time>2021-03-27T10:34:30.126Z</time>
      </trkpt>
      <trkpt lat="46.01431" lon="3.45958">
        <ele>264</ele>
        <time>2021-03-27T10:34:33.670Z</time>
      </trkpt>
      <trkpt lat="46.01438" lon="3.45977">
        <ele>264</ele>
        <time>2021-03-27T10:34:37.217Z</time>
      </trkpt>
      <trkpt lat="46.01466" lon="3.46069">
        <ele>264</ele>
        <time>2021-03-27T10:34:40.778Z</time>
      </trkpt>
      <trkpt lat="46.01497" lon="3.46171">
        <ele>264.35888671875</ele>
        <time>2021-03-27T10:34:44.354Z</time>
      </trkpt>
      <trkpt lat="46.01526" lon="3.46271">
        <ele>264.57220458984</ele>
        <time>2021-03-27T10:34:47.945Z</time>
      </trkpt>
      <trkpt lat="46.01548" lon="3.46344">
        <ele>264</ele>
        <time>2021-03-27T10:34:51.547Z</time>
      </trkpt>
      <trkpt lat="46.01553" lon="3.46357">
        <ele>264</ele>
        <time>2021-03-27T10:34:55.151Z</time>
      </trkpt>
      <trkpt lat="46.01552" lon="3.46357">
        <ele>264</ele>
        <time>2021-03-27T10:34:58.755Z</time>
      </trkpt>
      <trkpt lat="46.01554" lon="3.46359">
        <ele>264</ele>
        <time>2021-03-27T10:35:02.360Z</time>
      </trkpt>
      <trkpt lat="46.01557" lon="3.46362">
        <ele>264</ele>
        <time>2021-03-27T10:35:05.966Z</time>
      </trkpt>
      <trkpt lat="46.01562" lon="3.46363">
        <ele>264</ele>
        <time>2021-03-27T10:35:09.573Z</time>
      </trkpt>
      <trkpt lat="46.01614" lon="3.4637">
        <ele>264.59133911133</ele>
        <time>2021-03-27T10:35:13.190Z</time>
      </trkpt>
      <trkpt lat="46.01636" lon="3.46372">
        <ele>265.38311767578</ele>
        <time>2021-03-27T10:35:16.812Z</time>
      </trkpt>
      <trkpt lat="46.01682" lon="3.46379">
        <ele>264.96496582031</ele>
        <time>2021-03-27T10:35:20.443Z</time>
      </trkpt>
      <trkpt lat="46.0174" lon="3.46389">
        <ele>264</ele>
        <time>2021-03-27T10:35:24.086Z</time>
      </trkpt>
      <trkpt lat="46.01777" lon="3.46393">
        <ele>263.80154418945</ele>
        <time>2021-03-27T10:35:27.736Z</time>
      </trkpt>
      <trkpt lat="46.01801" lon="3.46394">
        <ele>263.77276611328</ele>
        <time>2021-03-27T10:35:31.391Z</time>
      </trkpt>
      <trkpt lat="46.0183" lon="3.46393">
        <ele>264.15591430664</ele>
        <time>2021-03-27T10:35:35.052Z</time>
      </trkpt>
      <trkpt lat="46.01836" lon="3.46393">
        <ele>264.41864013672</ele>
        <time>2021-03-27T10:35:38.714Z</time>
      </trkpt>
      <trkpt lat="46.01844" lon="3.46392">
        <ele>264.73895263672</ele>
        <time>2021-03-27T10:35:42.377Z</time>
      </trkpt>
      <trkpt lat="46.01845" lon="3.46392">
        <ele>264.76055908203</ele>
        <time>2021-03-27T10:35:46.041Z</time>
      </trkpt>
      <trkpt lat="46.01854" lon="3.46391">
        <ele>264.88070678711</ele>
        <time>2021-03-27T10:35:49.706Z</time>
      </trkpt>
      <trkpt lat="46.01861" lon="3.46392">
        <ele>264.85192871094</ele>
        <time>2021-03-27T10:35:53.373Z</time>
      </trkpt>
      <trkpt lat="46.01866" lon="3.46395">
        <ele>264.74395751953</ele>
        <time>2021-03-27T10:35:57.041Z</time>
      </trkpt>
      <trkpt lat="46.01871" lon="3.464">
        <ele>264.58200073242</ele>
        <time>2021-03-27T10:36:00.710Z</time>
      </trkpt>
      <trkpt lat="46.01875" lon="3.46404">
        <ele>264.42724609375</ele>
        <time>2021-03-27T10:36:04.380Z</time>
      </trkpt>
      <trkpt lat="46.0188" lon="3.46407">
        <ele>264.29769897461</ele>
        <time>2021-03-27T10:36:08.051Z</time>
      </trkpt>
      <trkpt lat="46.01883" lon="3.46409">
        <ele>264.24371337891</ele>
        <time>2021-03-27T10:36:11.723Z</time>
      </trkpt>
      <trkpt lat="46.01886" lon="3.46408">
        <ele>264.26889038086</ele>
        <time>2021-03-27T10:36:15.395Z</time>
      </trkpt>
      <trkpt lat="46.01889" lon="3.46406">
        <ele>264.34448242188</ele>
        <time>2021-03-27T10:36:19.068Z</time>
      </trkpt>
      <trkpt lat="46.01892" lon="3.46403">
        <ele>264.40704345703</ele>
        <time>2021-03-27T10:36:22.742Z</time>
      </trkpt>
      <trkpt lat="46.01896" lon="3.46398">
        <ele>264.27029418945</ele>
        <time>2021-03-27T10:36:26.417Z</time>
      </trkpt>
      <trkpt lat="46.01899" lon="3.46394">
        <ele>264.14071655273</ele>
        <time>2021-03-27T10:36:30.093Z</time>
      </trkpt>
      <trkpt lat="46.01904" lon="3.46392">
        <ele>264</ele>
        <time>2021-03-27T10:36:33.770Z</time>
      </trkpt>
      <trkpt lat="46.01907" lon="3.46391">
        <ele>263.96130371094</ele>
        <time>2021-03-27T10:36:37.447Z</time>
      </trkpt>
      <trkpt lat="46.01912" lon="3.46391">
        <ele>263.79934692383</ele>
        <time>2021-03-27T10:36:41.125Z</time>
      </trkpt>
      <trkpt lat="46.01944" lon="3.46402">
        <ele>263.0615234375</ele>
        <time>2021-03-27T10:36:44.810Z</time>
      </trkpt>
      <trkpt lat="46.01953" lon="3.46406">
        <ele>263</ele>
        <time>2021-03-27T10:36:48.497Z</time>
      </trkpt>
      <trkpt lat="46.01963" lon="3.46408">
        <ele>263.14105224609</ele>
        <time>2021-03-27T10:36:52.186Z</time>
      </trkpt>
      <trkpt lat="46.01973" lon="3.46408">
        <ele>263.49014282227</ele>
        <time>2021-03-27T10:36:55.877Z</time>
      </trkpt>
      <trkpt lat="46.01993" lon="3.46409">
        <ele>263.96984863281</ele>
        <time>2021-03-27T10:36:59.572Z</time>
      </trkpt>
      <trkpt lat="46.02022" lon="3.46412">
        <ele>265.27883911133</ele>
        <time>2021-03-27T10:37:03.273Z</time>
      </trkpt>
      <trkpt lat="46.02032" lon="3.46414">
        <ele>265.6135559082</ele>
        <time>2021-03-27T10:37:06.976Z</time>
      </trkpt>
      <trkpt lat="46.02037" lon="3.46416">
        <ele>265.79708862305</ele>
        <time>2021-03-27T10:37:10.680Z</time>
      </trkpt>
      <trkpt lat="46.0204" lon="3.46418">
        <ele>265.85006713867</ele>
        <time>2021-03-27T10:37:14.384Z</time>
      </trkpt>
      <trkpt lat="46.02045" lon="3.46423">
        <ele>265.62963867188</ele>
        <time>2021-03-27T10:37:18.090Z</time>
      </trkpt>
      <trkpt lat="46.0205" lon="3.46426">
        <ele>265.3669128418</ele>
        <time>2021-03-27T10:37:21.797Z</time>
      </trkpt>
      <trkpt lat="46.02053" lon="3.46427">
        <ele>265.21212768555</ele>
        <time>2021-03-27T10:37:25.504Z</time>
      </trkpt>
      <trkpt lat="46.02056" lon="3.46428">
        <ele>265.07177734375</ele>
        <time>2021-03-27T10:37:29.212Z</time>
      </trkpt>
      <trkpt lat="46.0206" lon="3.46427">
        <ele>264.95660400391</ele>
        <time>2021-03-27T10:37:32.921Z</time>
      </trkpt>
      <trkpt lat="46.02064" lon="3.46426">
        <ele>264.84503173828</ele>
        <time>2021-03-27T10:37:36.630Z</time>
      </trkpt>
      <trkpt lat="46.02074" lon="3.46423">
        <ele>264.73983764648</ele>
        <time>2021-03-27T10:37:40.342Z</time>
      </trkpt>
      <trkpt lat="46.02093" lon="3.46416">
        <ele>265</ele>
        <time>2021-03-27T10:37:44.057Z</time>
      </trkpt>
      <trkpt lat="46.02111" lon="3.46407">
        <ele>265</ele>
        <time>2021-03-27T10:37:47.776Z</time>
      </trkpt>
      <trkpt lat="46.02125" lon="3.46401">
        <ele>265.50662231445</ele>
        <time>2021-03-27T10:37:51.498Z</time>
      </trkpt>
      <trkpt lat="46.02129" lon="3.46401">
        <ele>265.51361083984</ele>
        <time>2021-03-27T10:37:55.221Z</time>
      </trkpt>
      <trkpt lat="46.02132" lon="3.46401">
        <ele>265.52081298828</ele>
        <time>2021-03-27T10:37:58.945Z</time>
      </trkpt>
      <trkpt lat="46.02134" lon="3.46401">
        <ele>265.52801513672</ele>
        <time>2021-03-27T10:38:02.669Z</time>
      </trkpt>
      <trkpt lat="46.02143" lon="3.46398">
        <ele>265.63958740234</ele>
        <time>2021-03-27T10:38:06.395Z</time>
      </trkpt>
      <trkpt lat="46.02155" lon="3.46393">
        <ele>265.77920532227</ele>
        <time>2021-03-27T10:38:10.123Z</time>
      </trkpt>
      <trkpt lat="46.02164" lon="3.46388">
        <ele>265.63577270508</ele>
        <time>2021-03-27T10:38:13.853Z</time>
      </trkpt>
      <trkpt lat="46.02168" lon="3.46387">
        <ele>265.49182128906</ele>
        <time>2021-03-27T10:38:17.584Z</time>
      </trkpt>
      <trkpt lat="46.02172" lon="3.46387">
        <ele>265.33703613281</ele>
        <time>2021-03-27T10:38:21.316Z</time>
      </trkpt>
      <trkpt lat="46.02175" lon="3.46388">
        <ele>265.20697021484</ele>
        <time>2021-03-27T10:38:25.049Z</time>
      </trkpt>
      <trkpt lat="46.02178" lon="3.4639">
        <ele>265.01983642578</ele>
        <time>2021-03-27T10:38:28.782Z</time>
      </trkpt>
      <trkpt lat="46.02182" lon="3.46394">
        <ele>264.76916503906</ele>
        <time>2021-03-27T10:38:32.516Z</time>
      </trkpt>
      <trkpt lat="46.02186" lon="3.46403">
        <ele>264.44885253906</ele>
        <time>2021-03-27T10:38:36.252Z</time>
      </trkpt>
      <trkpt lat="46.02238" lon="3.4655">
        <ele>263.15832519531</ele>
        <time>2021-03-27T10:38:40.011Z</time>
      </trkpt>
      <trkpt lat="46.02267" lon="3.46633">
        <ele>264</ele>
        <time>2021-03-27T10:38:43.783Z</time>
      </trkpt>
      <trkpt lat="46.02271" lon="3.46641">
        <ele>264</ele>
        <time>2021-03-27T10:38:47.556Z</time>
      </trkpt>
      <trkpt lat="46.02274" lon="3.46645">
        <ele>264</ele>
        <time>2021-03-27T10:38:51.330Z</time>
      </trkpt>
      <trkpt lat="46.02276" lon="3.46646">
        <ele>264</ele>
        <time>2021-03-27T10:38:55.104Z</time>
      </trkpt>
      <trkpt lat="46.02279" lon="3.46648">
        <ele>264</ele>
        <time>2021-03-27T10:38:58.879Z</time>
      </trkpt>
      <trkpt lat="46.02283" lon="3.46648">
        <ele>264</ele>
        <time>2021-03-27T10:39:02.655Z</time>
      </trkpt>
      <trkpt lat="46.02288" lon="3.46648">
        <ele>264</ele>
        <time>2021-03-27T10:39:06.432Z</time>
      </trkpt>
      <trkpt lat="46.02301" lon="3.46644">
        <ele>264</ele>
        <time>2021-03-27T10:39:10.211Z</time>
      </trkpt>
      <trkpt lat="46.02365" lon="3.46624">
        <ele>263.39819335938</ele>
        <time>2021-03-27T10:39:14.003Z</time>
      </trkpt>
      <trkpt lat="46.02433" lon="3.46606">
        <ele>263</ele>
        <time>2021-03-27T10:39:17.809Z</time>
      </trkpt>
      <trkpt lat="46.02524" lon="3.4658">
        <ele>263.92858886719</ele>
        <time>2021-03-27T10:39:21.634Z</time>
      </trkpt>
      <trkpt lat="46.0262" lon="3.46553">
        <ele>262.2063293457</ele>
        <time>2021-03-27T10:39:25.478Z</time>
      </trkpt>
      <trkpt lat="46.02669" lon="3.46539">
        <ele>262.44219970703</ele>
        <time>2021-03-27T10:39:29.332Z</time>
      </trkpt>
      <trkpt lat="46.02677" lon="3.46534">
        <ele>262.25863647461</ele>
        <time>2021-03-27T10:39:33.188Z</time>
      </trkpt>
      <trkpt lat="46.02677" lon="3.46536">
        <ele>262.31262207031</ele>
        <time>2021-03-27T10:39:37.044Z</time>
      </trkpt>
      <trkpt lat="46.02677" lon="3.46534">
        <ele>262.25863647461</ele>
        <time>2021-03-27T10:39:40.900Z</time>
      </trkpt>
      <trkpt lat="46.02663" lon="3.46487">
        <ele>261.55993652344</ele>
        <time>2021-03-27T10:39:44.764Z</time>
      </trkpt>
      <trkpt lat="46.02621" lon="3.46341">
        <ele>262.68023681641</ele>
        <time>2021-03-27T10:39:48.650Z</time>
      </trkpt>
      <trkpt lat="46.02613" lon="3.46313">
        <ele>263</ele>
        <time>2021-03-27T10:39:52.540Z</time>
      </trkpt>
      <trkpt lat="46.02602" lon="3.46279">
        <ele>263.92599487305</ele>
        <time>2021-03-27T10:39:56.435Z</time>
      </trkpt>
      <trkpt lat="46.02595" lon="3.46262">
        <ele>263.57543945312</ele>
        <time>2021-03-27T10:40:00.333Z</time>
      </trkpt>
      <trkpt lat="46.02587" lon="3.4624">
        <ele>263.40478515625</ele>
        <time>2021-03-27T10:40:04.234Z</time>
      </trkpt>
      <trkpt lat="46.02568" lon="3.46192">
        <ele>264.07061767578</ele>
        <time>2021-03-27T10:40:08.143Z</time>
      </trkpt>
      <trkpt lat="46.02545" lon="3.46133">
        <ele>264.73583984375</ele>
        <time>2021-03-27T10:40:12.061Z</time>
      </trkpt>
      <trkpt lat="46.02514" lon="3.46056">
        <ele>263</ele>
        <time>2021-03-27T10:40:15.992Z</time>
      </trkpt>
      <trkpt lat="46.02479" lon="3.45964">
        <ele>262.71548461914</ele>
        <time>2021-03-27T10:40:19.937Z</time>
      </trkpt>
      <trkpt lat="46.02463" lon="3.45926">
        <ele>262.15762329102</ele>
        <time>2021-03-27T10:40:23.888Z</time>
      </trkpt>
      <trkpt lat="46.0246" lon="3.45918">
        <ele>262.01727294922</ele>
        <time>2021-03-27T10:40:27.841Z</time>
      </trkpt>
      <trkpt lat="46.02452" lon="3.45899">
        <ele>261.64324951172</ele>
        <time>2021-03-27T10:40:31.797Z</time>
      </trkpt>
      <trkpt lat="46.02428" lon="3.45838">
        <ele>262.10922241211</ele>
        <time>2021-03-27T10:40:35.763Z</time>
      </trkpt>
      <trkpt lat="46.02419" lon="3.45814">
        <ele>262.45111083984</ele>
        <time>2021-03-27T10:40:39.732Z</time>
      </trkpt>
      <trkpt lat="46.02412" lon="3.45798">
        <ele>262.68505859375</ele>
        <time>2021-03-27T10:40:43.704Z</time>
      </trkpt>
      <trkpt lat="46.02408" lon="3.45787">
        <ele>262.8542175293</ele>
        <time>2021-03-27T10:40:47.678Z</time>
      </trkpt>
      <trkpt lat="46.02402" lon="3.45777">
        <ele>263</ele>
        <time>2021-03-27T10:40:51.654Z</time>
      </trkpt>
      <trkpt lat="46.02391" lon="3.4576">
        <ele>263</ele>
        <time>2021-03-27T10:40:55.633Z</time>
      </trkpt>
      <trkpt lat="46.02386" lon="3.45753">
        <ele>263</ele>
        <time>2021-03-27T10:40:59.613Z</time>
      </trkpt>
      <trkpt lat="46.02376" lon="3.45739">
        <ele>263.00228881836</ele>
        <time>2021-03-27T10:41:03.596Z</time>
      </trkpt>
      <trkpt lat="46.02341" lon="3.45687">
        <ele>264.26193237305</ele>
        <time>2021-03-27T10:41:07.589Z</time>
      </trkpt>
      <trkpt lat="46.02334" lon="3.45676">
        <ele>264.49948120117</ele>
        <time>2021-03-27T10:41:11.584Z</time>
      </trkpt>
      <trkpt lat="46.0233" lon="3.45668">
        <ele>264.64343261719</ele>
        <time>2021-03-27T10:41:15.581Z</time>
      </trkpt>
      <trkpt lat="46.02329" lon="3.45662">
        <ele>264.69741821289</ele>
        <time>2021-03-27T10:41:19.578Z</time>
      </trkpt>
      <trkpt lat="46.02327" lon="3.45656">
        <ele>264.75140380859</ele>
        <time>2021-03-27T10:41:23.576Z</time>
      </trkpt>
      <trkpt lat="46.02326" lon="3.45649">
        <ele>264.77658081055</ele>
        <time>2021-03-27T10:41:27.575Z</time>
      </trkpt>
      <trkpt lat="46.02326" lon="3.45641">
        <ele>264.77658081055</ele>
        <time>2021-03-27T10:41:31.575Z</time>
      </trkpt>
      <trkpt lat="46.02326" lon="3.45634">
        <ele>264.91253662109</ele>
        <time>2021-03-27T10:41:35.576Z</time>
      </trkpt>
      <trkpt lat="46.02327" lon="3.45628">
        <ele>265.08889770508</ele>
        <time>2021-03-27T10:41:39.578Z</time>
      </trkpt>
      <trkpt lat="46.02329" lon="3.45622">
        <ele>265.22204589844</ele>
        <time>2021-03-27T10:41:43.581Z</time>
      </trkpt>
      <trkpt lat="46.02332" lon="3.45617">
        <ele>265.52435302734</ele>
        <time>2021-03-27T10:41:47.585Z</time>
      </trkpt>
      <trkpt lat="46.0234" lon="3.45605">
        <ele>266.36651611328</ele>
        <time>2021-03-27T10:41:51.591Z</time>
      </trkpt>
      <trkpt lat="46.02379" lon="3.45545">
        <ele>266.86911010742</ele>
        <time>2021-03-27T10:41:55.609Z</time>
      </trkpt>
      <trkpt lat="46.02395" lon="3.45518">
        <ele>267</ele>
        <time>2021-03-27T10:41:59.632Z</time>
      </trkpt>
      <trkpt lat="46.02402" lon="3.45508">
        <ele>267</ele>
        <time>2021-03-27T10:42:03.657Z</time>
      </trkpt>
      <trkpt lat="46.02405" lon="3.45502">
        <ele>266.95498657227</ele>
        <time>2021-03-27T10:42:07.683Z</time>
      </trkpt>
      <trkpt lat="46.02409" lon="3.45492">
        <ele>266.57168579102</ele>
        <time>2021-03-27T10:42:11.710Z</time>
      </trkpt>
      <trkpt lat="46.02404" lon="3.45487">
        <ele>266.53930664062</ele>
        <time>2021-03-27T10:42:15.739Z</time>
      </trkpt>
      <trkpt lat="46.02402" lon="3.45484">
        <ele>266.46914672852</ele>
        <time>2021-03-27T10:42:19.768Z</time>
      </trkpt>
      <trkpt lat="46.02371" lon="3.45447">
        <ele>265.83575439453</ele>
        <time>2021-03-27T10:42:23.805Z</time>
      </trkpt>
      <trkpt lat="46.02355" lon="3.45428">
        <ele>265.26351928711</ele>
        <time>2021-03-27T10:42:27.846Z</time>
      </trkpt>
      <trkpt lat="46.0235" lon="3.45423">
        <ele>265.09075927734</ele>
        <time>2021-03-27T10:42:31.889Z</time>
      </trkpt>
      <trkpt lat="46.02345" lon="3.45412">
        <ele>265</ele>
        <time>2021-03-27T10:42:35.933Z</time>
      </trkpt>
      <trkpt lat="46.02341" lon="3.4541">
        <ele>265</ele>
        <time>2021-03-27T10:42:39.978Z</time>
      </trkpt>
      <trkpt lat="46.02339" lon="3.45407">
        <ele>265</ele>
        <time>2021-03-27T10:42:44.024Z</time>
      </trkpt>
      <trkpt lat="46.02329" lon="3.45397">
        <ele>265</ele>
        <time>2021-03-27T10:42:48.072Z</time>
      </trkpt>
      <trkpt lat="46.02263" lon="3.45319">
        <ele>265.53439331055</ele>
        <time>2021-03-27T10:42:52.137Z</time>
      </trkpt>
      <trkpt lat="46.02211" lon="3.45259">
        <ele>265.91903686523</ele>
        <time>2021-03-27T10:42:56.216Z</time>
      </trkpt>
      <trkpt lat="46.02183" lon="3.45227">
        <ele>266</ele>
        <time>2021-03-27T10:43:00.302Z</time>
      </trkpt>
      <trkpt lat="46.0218" lon="3.45223">
        <ele>266.03833007812</ele>
        <time>2021-03-27T10:43:04.389Z</time>
      </trkpt>
      <trkpt lat="46.02178" lon="3.45219">
        <ele>266.1067199707</ele>
        <time>2021-03-27T10:43:08.476Z</time>
      </trkpt>
      <trkpt lat="46.02177" lon="3.45216">
        <ele>266.14630126953</ele>
        <time>2021-03-27T10:43:12.564Z</time>
      </trkpt>
      <trkpt lat="46.02177" lon="3.45212">
        <ele>266.15350341797</ele>
        <time>2021-03-27T10:43:16.652Z</time>
      </trkpt>
      <trkpt lat="46.02177" lon="3.45207">
        <ele>266.14630126953</ele>
        <time>2021-03-27T10:43:20.741Z</time>
      </trkpt>
      <trkpt lat="46.02178" lon="3.45201">
        <ele>266.12469482422</ele>
        <time>2021-03-27T10:43:24.831Z</time>
      </trkpt>
      <trkpt lat="46.02179" lon="3.45192">
        <ele>266.06353759766</ele>
        <time>2021-03-27T10:43:28.922Z</time>
      </trkpt>
      <trkpt lat="46.02184" lon="3.45168">
        <ele>265.90008544922</ele>
        <time>2021-03-27T10:43:33.017Z</time>
      </trkpt>
      <trkpt lat="46.0219" lon="3.45144">
        <ele>266</ele>
        <time>2021-03-27T10:43:37.115Z</time>
      </trkpt>
      <trkpt lat="46.02195" lon="3.45122">
        <ele>266.5520324707</ele>
        <time>2021-03-27T10:43:41.216Z</time>
      </trkpt>
      <trkpt lat="46.02195" lon="3.45115">
        <ele>266.80395507812</ele>
        <time>2021-03-27T10:43:45.318Z</time>
      </trkpt>
      <trkpt lat="46.02194" lon="3.45109">
        <ele>267.04150390625</ele>
        <time>2021-03-27T10:43:49.421Z</time>
      </trkpt>
      <trkpt lat="46.02194" lon="3.45102">
        <ele>267.28982543945</ele>
        <time>2021-03-27T10:43:53.525Z</time>
      </trkpt>
      <trkpt lat="46.02195" lon="3.45097">
        <ele>267.47698974609</ele>
        <time>2021-03-27T10:43:57.630Z</time>
      </trkpt>
      <trkpt lat="46.02198" lon="3.4509">
        <ele>267.39410400391</ele>
        <time>2021-03-27T10:44:01.736Z</time>
      </trkpt>
      <trkpt lat="46.02201" lon="3.45084">
        <ele>267.28253173828</ele>
        <time>2021-03-27T10:44:05.843Z</time>
      </trkpt>
      <trkpt lat="46.02205" lon="3.45077">
        <ele>267.32034301758</ele>
        <time>2021-03-27T10:44:09.951Z</time>
      </trkpt>
      <trkpt lat="46.02208" lon="3.45069">
        <ele>267.08282470703</ele>
        <time>2021-03-27T10:44:14.061Z</time>
      </trkpt>
      <trkpt lat="46.0221" lon="3.45061">
        <ele>267</ele>
        <time>2021-03-27T10:44:18.172Z</time>
      </trkpt>
      <trkpt lat="46.02211" lon="3.45052">
        <ele>267</ele>
        <time>2021-03-27T10:44:22.284Z</time>
      </trkpt>
      <trkpt lat="46.02212" lon="3.45045">
        <ele>267</ele>
        <time>2021-03-27T10:44:26.397Z</time>
      </trkpt>
      <trkpt lat="46.02211" lon="3.45036">
        <ele>267</ele>
        <time>2021-03-27T10:44:30.511Z</time>
      </trkpt>
      <trkpt lat="46.0221" lon="3.45023">
        <ele>266.9658203125</ele>
        <time>2021-03-27T10:44:34.627Z</time>
      </trkpt>
      <trkpt lat="46.02209" lon="3.44988">
        <ele>267.03244018555</ele>
        <time>2021-03-27T10:44:38.748Z</time>
      </trkpt>
      <trkpt lat="46.02209" lon="3.4498">
        <ele>267.01083374023</ele>
        <time>2021-03-27T10:44:42.870Z</time>
      </trkpt>
      <trkpt lat="46.0221" lon="3.44972">
        <ele>266.95864868164</ele>
        <time>2021-03-27T10:44:46.993Z</time>
      </trkpt>
      <trkpt lat="46.02208" lon="3.44973">
        <ele>267.09722900391</ele>
        <time>2021-03-27T10:44:51.117Z</time>
      </trkpt>
      <trkpt lat="46.02198" lon="3.44977">
        <ele>267.82421875</ele>
        <time>2021-03-27T10:44:55.243Z</time>
      </trkpt>
      <trkpt lat="46.02184" lon="3.44981">
        <ele>268.83193969727</ele>
        <time>2021-03-27T10:44:59.372Z</time>
      </trkpt>
      <trkpt lat="46.02171" lon="3.44983">
        <ele>269</ele>
        <time>2021-03-27T10:45:03.503Z</time>
      </trkpt>
      <trkpt lat="46.02168" lon="3.44984">
        <ele>269</ele>
        <time>2021-03-27T10:45:07.635Z</time>
      </trkpt>
      <trkpt lat="46.02161" lon="3.44985">
        <ele>269.25747680664</ele>
        <time>2021-03-27T10:45:11.768Z</time>
      </trkpt>
      <trkpt lat="46.02156" lon="3.44946">
        <ele>268.11373901367</ele>
        <time>2021-03-27T10:45:15.907Z</time>
      </trkpt>
      <trkpt lat="46.02151" lon="3.44915">
        <ele>267.07287597656</ele>
        <time>2021-03-27T10:45:20.050Z</time>
      </trkpt>
      <trkpt lat="46.02136" lon="3.44816">
        <ele>265.61828613281</ele>
        <time>2021-03-27T10:45:24.207Z</time>
      </trkpt>
      <trkpt lat="46.02121" lon="3.44712">
        <ele>266.63333129883</ele>
        <time>2021-03-27T10:45:28.379Z</time>
      </trkpt>
      <trkpt lat="46.021" lon="3.44578">
        <ele>266.93551635742</ele>
        <time>2021-03-27T10:45:32.570Z</time>
      </trkpt>
      <trkpt lat="46.02088" lon="3.44502">
        <ele>268.92846679688</ele>
        <time>2021-03-27T10:45:36.772Z</time>
      </trkpt>
      <trkpt lat="46.02084" lon="3.44483">
        <ele>270.07885742188</ele>
        <time>2021-03-27T10:45:40.977Z</time>
      </trkpt>
      <trkpt lat="46.02083" lon="3.44479">
        <ele>270.49633789062</ele>
        <time>2021-03-27T10:45:45.183Z</time>
      </trkpt>
      <trkpt lat="46.0208" lon="3.44469">
        <ele>271.46038818359</ele>
        <time>2021-03-27T10:45:49.390Z</time>
      </trkpt>
      <trkpt lat="46.02077" lon="3.44463">
        <ele>272.26657104492</ele>
        <time>2021-03-27T10:45:53.598Z</time>
      </trkpt>
      <trkpt lat="46.02073" lon="3.44455">
        <ele>273.5046081543</ele>
        <time>2021-03-27T10:45:57.808Z</time>
      </trkpt>
      <trkpt lat="46.02068" lon="3.44448">
        <ele>274.62390136719</ele>
        <time>2021-03-27T10:46:02.019Z</time>
      </trkpt>
      <trkpt lat="46.02066" lon="3.44447">
        <ele>274.85784912109</ele>
        <time>2021-03-27T10:46:06.230Z</time>
      </trkpt>
      <trkpt lat="46.02057" lon="3.44437">
        <ele>276.73657226562</ele>
        <time>2021-03-27T10:46:10.443Z</time>
      </trkpt>
      <trkpt lat="46.02049" lon="3.4443">
        <ele>278.28411865234</ele>
        <time>2021-03-27T10:46:14.658Z</time>
      </trkpt>
      <trkpt lat="46.0203" lon="3.44413">
        <ele>281.74862670898</ele>
        <time>2021-03-27T10:46:18.878Z</time>
      </trkpt>
      <trkpt lat="46.02019" lon="3.44402">
        <ele>283.78564453125</ele>
        <time>2021-03-27T10:46:23.101Z</time>
      </trkpt>
      <trkpt lat="46.02013" lon="3.44394">
        <ele>285.0110168457</ele>
        <time>2021-03-27T10:46:27.325Z</time>
      </trkpt>
      <trkpt lat="46.02001" lon="3.44377">
        <ele>287.42956542969</ele>
        <time>2021-03-27T10:46:31.553Z</time>
      </trkpt>
      <trkpt lat="46.01974" lon="3.44335">
        <ele>294.81512451172</ele>
        <time>2021-03-27T10:46:35.789Z</time>
      </trkpt>
      <trkpt lat="46.01944" lon="3.44287">
        <ele>298.66101074219</ele>
        <time>2021-03-27T10:46:40.033Z</time>
      </trkpt>
      <trkpt lat="46.01912" lon="3.44235">
        <ele>299.10064697266</ele>
        <time>2021-03-27T10:46:44.287Z</time>
      </trkpt>
      <trkpt lat="46.01896" lon="3.44207">
        <ele>299.23059082031</ele>
        <time>2021-03-27T10:46:48.546Z</time>
      </trkpt>
      <trkpt lat="46.01882" lon="3.44179">
        <ele>299.75604248047</ele>
        <time>2021-03-27T10:46:52.810Z</time>
      </trkpt>
      <trkpt lat="46.01871" lon="3.44147">
        <ele>300.65307617188</ele>
        <time>2021-03-27T10:46:57.079Z</time>
      </trkpt>
      <trkpt lat="46.01866" lon="3.4413">
        <ele>301</ele>
        <time>2021-03-27T10:47:01.351Z</time>
      </trkpt>
      <trkpt lat="46.01863" lon="3.44111">
        <ele>301</ele>
        <time>2021-03-27T10:47:05.625Z</time>
      </trkpt>
      <trkpt lat="46.01862" lon="3.44096">
        <ele>301.48675537109</ele>
        <time>2021-03-27T10:47:09.901Z</time>
      </trkpt>
      <trkpt lat="46.01863" lon="3.44079">
        <ele>301.46875</ele>
        <time>2021-03-27T10:47:14.180Z</time>
      </trkpt>
      <trkpt lat="46.01864" lon="3.44064">
        <ele>301.6474609375</ele>
        <time>2021-03-27T10:47:18.461Z</time>
      </trkpt>
      <trkpt lat="46.01867" lon="3.44036">
        <ele>302.31039428711</ele>
        <time>2021-03-27T10:47:22.746Z</time>
      </trkpt>
      <trkpt lat="46.0187" lon="3.44014">
        <ele>302.43975830078</ele>
        <time>2021-03-27T10:47:27.034Z</time>
      </trkpt>
      <trkpt lat="46.01874" lon="3.43982">
        <ele>303</ele>
        <time>2021-03-27T10:47:31.326Z</time>
      </trkpt>
      <trkpt lat="46.0188" lon="3.43929">
        <ele>302.14666748047</ele>
        <time>2021-03-27T10:47:35.626Z</time>
      </trkpt>
      <trkpt lat="46.01888" lon="3.43862">
        <ele>303.80459594727</ele>
        <time>2021-03-27T10:47:39.935Z</time>
      </trkpt>
      <trkpt lat="46.01896" lon="3.43797">
        <ele>304.75131225586</ele>
        <time>2021-03-27T10:47:44.254Z</time>
      </trkpt>
      <trkpt lat="46.01903" lon="3.43735">
        <ele>305.47375488281</ele>
        <time>2021-03-27T10:47:48.581Z</time>
      </trkpt>
      <trkpt lat="46.01911" lon="3.43674">
        <ele>307.39239501953</ele>
        <time>2021-03-27T10:47:52.917Z</time>
      </trkpt>
      <trkpt lat="46.01912" lon="3.43663">
        <ele>307.74151611328</ele>
        <time>2021-03-27T10:47:57.255Z</time>
      </trkpt>
      <trkpt lat="46.01914" lon="3.43649">
        <ele>308.21298217773</ele>
        <time>2021-03-27T10:48:01.595Z</time>
      </trkpt>
      <trkpt lat="46.01916" lon="3.43626">
        <ele>308.5505065918</ele>
        <time>2021-03-27T10:48:05.938Z</time>
      </trkpt>
      <trkpt lat="46.01918" lon="3.43605">
        <ele>307.8225402832</ele>
        <time>2021-03-27T10:48:10.284Z</time>
      </trkpt>
      <trkpt lat="46.01918" lon="3.43604">
        <ele>307.76495361328</ele>
        <time>2021-03-27T10:48:14.630Z</time>
      </trkpt>
      <trkpt lat="46.01919" lon="3.4358">
        <ele>307.50552368164</ele>
        <time>2021-03-27T10:48:18.979Z</time>
      </trkpt>
      <trkpt lat="46.01919" lon="3.43568">
        <ele>307.87783813477</ele>
        <time>2021-03-27T10:48:23.330Z</time>
      </trkpt>
      <trkpt lat="46.01919" lon="3.4358">
        <ele>307.50552368164</ele>
        <time>2021-03-27T10:48:27.683Z</time>
      </trkpt>
      <trkpt lat="46.01912" lon="3.43575">
        <ele>307.92660522461</ele>
        <time>2021-03-27T10:48:32.037Z</time>
      </trkpt>
      <trkpt lat="46.01902" lon="3.43572">
        <ele>308.42364501953</ele>
        <time>2021-03-27T10:48:36.393Z</time>
      </trkpt>
      <trkpt lat="46.01891" lon="3.43569">
        <ele>309.38098144531</ele>
        <time>2021-03-27T10:48:40.751Z</time>
      </trkpt>
      <trkpt lat="46.01876" lon="3.43567">
        <ele>310.5002746582</ele>
        <time>2021-03-27T10:48:45.112Z</time>
      </trkpt>
      <trkpt lat="46.01868" lon="3.43566">
        <ele>311.07611083984</ele>
        <time>2021-03-27T10:48:49.475Z</time>
      </trkpt>
      <trkpt lat="46.01851" lon="3.43566">
        <ele>311.98040771484</ele>
        <time>2021-03-27T10:48:53.841Z</time>
      </trkpt>
      <trkpt lat="46.01834" lon="3.43568">
        <ele>312.52026367188</ele>
        <time>2021-03-27T10:48:58.211Z</time>
      </trkpt>
      <trkpt lat="46.01814" lon="3.43571">
        <ele>312.78823852539</ele>
        <time>2021-03-27T10:49:02.585Z</time>
      </trkpt>
      <trkpt lat="46.01795" lon="3.43576">
        <ele>313.10507202148</ele>
        <time>2021-03-27T10:49:06.963Z</time>
      </trkpt>
      <trkpt lat="46.01775" lon="3.43585">
        <ele>313.51895141602</ele>
        <time>2021-03-27T10:49:11.345Z</time>
      </trkpt>
      <trkpt lat="46.01754" lon="3.43595">
        <ele>313.05352783203</ele>
        <time>2021-03-27T10:49:15.731Z</time>
      </trkpt>
      <trkpt lat="46.01734" lon="3.43606">
        <ele>313.23513793945</ele>
        <time>2021-03-27T10:49:20.122Z</time>
      </trkpt>
      <trkpt lat="46.01701" lon="3.43624">
        <ele>313.20767211914</ele>
        <time>2021-03-27T10:49:24.520Z</time>
      </trkpt>
      <trkpt lat="46.0167" lon="3.43646">
        <ele>313.08810424805</ele>
        <time>2021-03-27T10:49:28.925Z</time>
      </trkpt>
      <trkpt lat="46.01624" lon="3.43685">
        <ele>310.18292236328</ele>
        <time>2021-03-27T10:49:33.340Z</time>
      </trkpt>
      <trkpt lat="46.01587" lon="3.43715">
        <ele>309.61599731445</ele>
        <time>2021-03-27T10:49:37.764Z</time>
      </trkpt>
      <trkpt lat="46.01544" lon="3.4375">
        <ele>309.1201171875</ele>
        <time>2021-03-27T10:49:42.198Z</time>
      </trkpt>
      <trkpt lat="46.01523" lon="3.43768">
        <ele>308.994140625</ele>
        <time>2021-03-27T10:49:46.637Z</time>
      </trkpt>
      <trkpt lat="46.01493" lon="3.43792">
        <ele>310.15533447266</ele>
        <time>2021-03-27T10:49:51.082Z</time>
      </trkpt>
      <trkpt lat="46.01468" lon="3.43812">
        <ele>311.55892944336</ele>
        <time>2021-03-27T10:49:55.533Z</time>
      </trkpt>
      <trkpt lat="46.01447" lon="3.43827">
        <ele>312.63143920898</ele>
        <time>2021-03-27T10:49:59.989Z</time>
      </trkpt>
      <trkpt lat="46.01434" lon="3.43836">
        <ele>313.30084228516</ele>
        <time>2021-03-27T10:50:04.448Z</time>
      </trkpt>
      <trkpt lat="46.01343" lon="3.43897">
        <ele>314</ele>
        <time>2021-03-27T10:50:08.927Z</time>
      </trkpt>
      <trkpt lat="46.01317" lon="3.43913">
        <ele>312.07974243164</ele>
        <time>2021-03-27T10:50:13.411Z</time>
      </trkpt>
      <trkpt lat="46.01295" lon="3.43928">
        <ele>310.64181518555</ele>
        <time>2021-03-27T10:50:17.900Z</time>
      </trkpt>
      <trkpt lat="46.01274" lon="3.4394">
        <ele>310.74108886719</ele>
        <time>2021-03-27T10:50:22.394Z</time>
      </trkpt>
      <trkpt lat="46.01265" lon="3.43947">
        <ele>311</ele>
        <time>2021-03-27T10:50:26.890Z</time>
      </trkpt>
      <trkpt lat="46.01257" lon="3.43951">
        <ele>311</ele>
        <time>2021-03-27T10:50:31.388Z</time>
      </trkpt>
      <trkpt lat="46.01232" lon="3.43969">
        <ele>310.85034179688</ele>
        <time>2021-03-27T10:50:35.891Z</time>
      </trkpt>
      <trkpt lat="46.01206" lon="3.43991">
        <ele>310.62548828125</ele>
        <time>2021-03-27T10:50:40.400Z</time>
      </trkpt>
      <trkpt lat="46.01185" lon="3.44009">
        <ele>309.68353271484</ele>
        <time>2021-03-27T10:50:44.914Z</time>
      </trkpt>
      <trkpt lat="46.01169" lon="3.44024">
        <ele>309.03930664062</ele>
        <time>2021-03-27T10:50:49.432Z</time>
      </trkpt>
      <trkpt lat="46.01147" lon="3.44045">
        <ele>308.68673706055</ele>
        <time>2021-03-27T10:50:53.955Z</time>
      </trkpt>
      <trkpt lat="46.01117" lon="3.44076">
        <ele>309</ele>
        <time>2021-03-27T10:50:58.486Z</time>
      </trkpt>
      <trkpt lat="46.01097" lon="3.44098">
        <ele>308.97369384766</ele>
        <time>2021-03-27T10:51:03.022Z</time>
      </trkpt>
      <trkpt lat="46.01067" lon="3.44127">
        <ele>307.89398193359</ele>
        <time>2021-03-27T10:51:07.565Z</time>
      </trkpt>
      <trkpt lat="46.01056" lon="3.44138">
        <ele>308</ele>
        <time>2021-03-27T10:51:12.111Z</time>
      </trkpt>
      <trkpt lat="46.01051" lon="3.44141">
        <ele>308</ele>
        <time>2021-03-27T10:51:16.658Z</time>
      </trkpt>
      <trkpt lat="46.01047" lon="3.44142">
        <ele>308</ele>
        <time>2021-03-27T10:51:21.205Z</time>
      </trkpt>
      <trkpt lat="46.01043" lon="3.44143">
        <ele>308</ele>
        <time>2021-03-27T10:51:25.753Z</time>
      </trkpt>
      <trkpt lat="46.01037" lon="3.44143">
        <ele>307.8323059082</ele>
        <time>2021-03-27T10:51:30.302Z</time>
      </trkpt>
      <trkpt lat="46.01033" lon="3.44142">
        <ele>307.66674804688</ele>
        <time>2021-03-27T10:51:34.852Z</time>
      </trkpt>
      <trkpt lat="46.01028" lon="3.44139">
        <ele>307.50479125977</ele>
        <time>2021-03-27T10:51:39.403Z</time>
      </trkpt>
      <trkpt lat="46.01027" lon="3.44132">
        <ele>307.25427246094</ele>
        <time>2021-03-27T10:51:43.955Z</time>
      </trkpt>
      <trkpt lat="46.01027" lon="3.44131">
        <ele>307.20388793945</ele>
        <time>2021-03-27T10:51:48.508Z</time>
      </trkpt>
      <trkpt lat="46.01026" lon="3.44126">
        <ele>307.01312255859</ele>
        <time>2021-03-27T10:51:53.061Z</time>
      </trkpt>
      <trkpt lat="46.01025" lon="3.44122">
        <ele>306.82238769531</ele>
        <time>2021-03-27T10:51:57.615Z</time>
      </trkpt>
      <trkpt lat="46.0102" lon="3.44102">
        <ele>305.96221923828</ele>
        <time>2021-03-27T10:52:02.172Z</time>
      </trkpt>
      <trkpt lat="46.01015" lon="3.44076">
        <ele>304.6237487793</ele>
        <time>2021-03-27T10:52:06.733Z</time>
      </trkpt>
      <trkpt lat="46.01008" lon="3.44053">
        <ele>303</ele>
        <time>2021-03-27T10:52:11.297Z</time>
      </trkpt>
      <trkpt lat="46.01005" lon="3.44046">
        <ele>303</ele>
        <time>2021-03-27T10:52:15.862Z</time>
      </trkpt>
      <trkpt lat="46.01002" lon="3.44039">
        <ele>303</ele>
        <time>2021-03-27T10:52:20.428Z</time>
      </trkpt>
      <trkpt lat="46.00999" lon="3.44034">
        <ele>303</ele>
        <time>2021-03-27T10:52:24.995Z</time>
      </trkpt>
      <trkpt lat="46.00996" lon="3.44028">
        <ele>303</ele>
        <time>2021-03-27T10:52:29.563Z</time>
      </trkpt>
      <trkpt lat="46.00991" lon="3.44022">
        <ele>303</ele>
        <time>2021-03-27T10:52:34.133Z</time>
      </trkpt>
      <trkpt lat="46.00983" lon="3.44013">
        <ele>302.88882446289</ele>
        <time>2021-03-27T10:52:38.705Z</time>
      </trkpt>
      <trkpt lat="46.00963" lon="3.43992">
        <ele>302.15823364258</ele>
        <time>2021-03-27T10:52:43.282Z</time>
      </trkpt>
      <trkpt lat="46.00961" lon="3.4399">
        <ele>302.06826782227</ele>
        <time>2021-03-27T10:52:47.859Z</time>
      </trkpt>
      <trkpt lat="46.00955" lon="3.43985">
        <ele>302</ele>
        <time>2021-03-27T10:52:52.437Z</time>
      </trkpt>
      <trkpt lat="46.00941" lon="3.4397">
        <ele>302</ele>
        <time>2021-03-27T10:52:57.019Z</time>
      </trkpt>
      <trkpt lat="46.00921" lon="3.43949">
        <ele>301.64666748047</ele>
        <time>2021-03-27T10:53:01.606Z</time>
      </trkpt>
      <trkpt lat="46.0091" lon="3.43936">
        <ele>301.50134277344</ele>
        <time>2021-03-27T10:53:06.196Z</time>
      </trkpt>
      <trkpt lat="46.009" lon="3.43922">
        <ele>301.55416870117</ele>
        <time>2021-03-27T10:53:10.788Z</time>
      </trkpt>
      <trkpt lat="46.00886" lon="3.439">
        <ele>300.79559326172</ele>
        <time>2021-03-27T10:53:15.385Z</time>
      </trkpt>
      <trkpt lat="46.00878" lon="3.43885">
        <ele>300.09548950195</ele>
        <time>2021-03-27T10:53:19.984Z</time>
      </trkpt>
      <trkpt lat="46.00864" lon="3.43859">
        <ele>299.60983276367</ele>
        <time>2021-03-27T10:53:24.588Z</time>
      </trkpt>
      <trkpt lat="46.00855" lon="3.43846">
        <ele>299.73580932617</ele>
        <time>2021-03-27T10:53:29.195Z</time>
      </trkpt>
      <trkpt lat="46.00842" lon="3.43832">
        <ele>299.80776977539</ele>
        <time>2021-03-27T10:53:33.805Z</time>
      </trkpt>
      <trkpt lat="46.0083" lon="3.43819">
        <ele>299.83657836914</ele>
        <time>2021-03-27T10:53:38.418Z</time>
      </trkpt>
      <trkpt lat="46.0081" lon="3.43801">
        <ele>300.11282348633</ele>
        <time>2021-03-27T10:53:43.035Z</time>
      </trkpt>
      <trkpt lat="46.00804" lon="3.43795">
        <ele>300.32876586914</ele>
        <time>2021-03-27T10:53:47.654Z</time>
      </trkpt>
      <trkpt lat="46.00806" lon="3.43789">
        <ele>300.52670288086</ele>
        <time>2021-03-27T10:53:52.274Z</time>
      </trkpt>
      <trkpt lat="46.00809" lon="3.43781">
        <ele>300.81823730469</ele>
        <time>2021-03-27T10:53:56.895Z</time>
      </trkpt>
      <trkpt lat="46.00811" lon="3.43772">
        <ele>301.13494873047</ele>
        <time>2021-03-27T10:54:01.517Z</time>
      </trkpt>
      <trkpt lat="46.00816" lon="3.43746">
        <ele>302.92037963867</ele>
        <time>2021-03-27T10:54:06.143Z</time>
      </trkpt>
      <trkpt lat="46.00823" lon="3.43699">
        <ele>305.82125854492</ele>
        <time>2021-03-27T10:54:10.776Z</time>
      </trkpt>
      <trkpt lat="46.00829" lon="3.43669">
        <ele>309.83923339844</ele>
        <time>2021-03-27T10:54:15.413Z</time>
      </trkpt>
      <trkpt lat="46.00834" lon="3.43628">
        <ele>314.22116088867</ele>
        <time>2021-03-27T10:54:20.056Z</time>
      </trkpt>
      <trkpt lat="46.00837" lon="3.43612">
        <ele>315.68594360352</ele>
        <time>2021-03-27T10:54:24.701Z</time>
      </trkpt>
      <trkpt lat="46.00844" lon="3.43577">
        <ele>318.88186645508</ele>
        <time>2021-03-27T10:54:29.351Z</time>
      </trkpt>
      <trkpt lat="46.0086" lon="3.43523">
        <ele>323.03857421875</ele>
        <time>2021-03-27T10:54:34.009Z</time>
      </trkpt>
      <trkpt lat="46.00878" lon="3.43469">
        <ele>325.22729492188</ele>
        <time>2021-03-27T10:54:38.676Z</time>
      </trkpt>
      <trkpt lat="46.00881" lon="3.43461">
        <ele>325.73834228516</ele>
        <time>2021-03-27T10:54:43.344Z</time>
      </trkpt>
      <trkpt lat="46.00882" lon="3.43458">
        <ele>325.89669799805</ele>
        <time>2021-03-27T10:54:48.012Z</time>
      </trkpt>
      <trkpt lat="46.00884" lon="3.43451">
        <ele>326.33853149414</ele>
        <time>2021-03-27T10:54:52.682Z</time>
      </trkpt>
      <trkpt lat="46.00904" lon="3.43403">
        <ele>330.4992980957</ele>
        <time>2021-03-27T10:54:57.359Z</time>
      </trkpt>
      <trkpt lat="46.00914" lon="3.43378">
        <ele>332.80337524414</ele>
        <time>2021-03-27T10:55:02.040Z</time>
      </trkpt>
      <trkpt lat="46.00921" lon="3.43352">
        <ele>333.40670776367</ele>
        <time>2021-03-27T10:55:06.725Z</time>
      </trkpt>
      <trkpt lat="46.00926" lon="3.43328">
        <ele>334.47979736328</ele>
        <time>2021-03-27T10:55:11.414Z</time>
      </trkpt>
      <trkpt lat="46.00928" lon="3.43314">
        <ele>334.13562011719</ele>
        <time>2021-03-27T10:55:16.105Z</time>
      </trkpt>
      <trkpt lat="46.00928" lon="3.43302">
        <ele>333.80435180664</ele>
        <time>2021-03-27T10:55:20.797Z</time>
      </trkpt>
      <trkpt lat="46.00928" lon="3.43294">
        <ele>333.80435180664</ele>
        <time>2021-03-27T10:55:25.491Z</time>
      </trkpt>
      <trkpt lat="46.00927" lon="3.43285">
        <ele>333.72518920898</ele>
        <time>2021-03-27T10:55:30.186Z</time>
      </trkpt>
      <trkpt lat="46.00925" lon="3.43276">
        <ele>333.59561157227</ele>
        <time>2021-03-27T10:55:34.882Z</time>
      </trkpt>
      <trkpt lat="46.00925" lon="3.43276">
        <ele>333.58444213867</ele>
        <time>2021-03-27T10:55:39.578Z</time>
      </trkpt>
      <trkpt lat="46.00922" lon="3.43263">
        <ele>333.06951904297</ele>
        <time>2021-03-27T10:55:44.276Z</time>
      </trkpt>
      <trkpt lat="46.00921" lon="3.43252">
        <ele>332.98315429688</ele>
        <time>2021-03-27T10:55:48.976Z</time>
      </trkpt>
      <trkpt lat="46.00921" lon="3.43251">
        <ele>332.98315429688</ele>
        <time>2021-03-27T10:55:53.676Z</time>
      </trkpt>
      <trkpt lat="46.00921" lon="3.43242">
        <ele>332.98315429688</ele>
        <time>2021-03-27T10:55:58.377Z</time>
      </trkpt>
      <trkpt lat="46.00922" lon="3.4323">
        <ele>333.08032226562</ele>
        <time>2021-03-27T10:56:03.080Z</time>
      </trkpt>
      <trkpt lat="46.00923" lon="3.43223">
        <ele>333.14511108398</ele>
        <time>2021-03-27T10:56:07.784Z</time>
      </trkpt>
      <trkpt lat="46.00926" lon="3.43208">
        <ele>333.74691772461</ele>
        <time>2021-03-27T10:56:12.490Z</time>
      </trkpt>
      <trkpt lat="46.0093" lon="3.43189">
        <ele>334.94409179688</ele>
        <time>2021-03-27T10:56:17.199Z</time>
      </trkpt>
      <trkpt lat="46.00934" lon="3.43175">
        <ele>335.09652709961</ele>
        <time>2021-03-27T10:56:21.910Z</time>
      </trkpt>
      <trkpt lat="46.00935" lon="3.43168">
        <ele>335.13250732422</ele>
        <time>2021-03-27T10:56:26.622Z</time>
      </trkpt>
      <trkpt lat="46.00935" lon="3.43161">
        <ele>335.02569580078</ele>
        <time>2021-03-27T10:56:31.335Z</time>
      </trkpt>
      <trkpt lat="46.00934" lon="3.43154">
        <ele>334.71255493164</ele>
        <time>2021-03-27T10:56:36.049Z</time>
      </trkpt>
      <trkpt lat="46.00932" lon="3.43145">
        <ele>334.32028198242</ele>
        <time>2021-03-27T10:56:40.764Z</time>
      </trkpt>
      <trkpt lat="46.0093" lon="3.43137">
        <ele>333.91653442383</ele>
        <time>2021-03-27T10:56:45.480Z</time>
      </trkpt>
      <trkpt lat="46.00925" lon="3.43126">
        <ele>333.57403564453</ele>
        <time>2021-03-27T10:56:50.198Z</time>
      </trkpt>
      <trkpt lat="46.00904" lon="3.4309">
        <ele>332.78936767578</ele>
        <time>2021-03-27T10:56:54.922Z</time>
      </trkpt>
      <trkpt lat="46.00884" lon="3.43055">
        <ele>332.60580444336</ele>
        <time>2021-03-27T10:56:59.653Z</time>
      </trkpt>
      <trkpt lat="46.0087" lon="3.43023">
        <ele>331.7209777832</ele>
        <time>2021-03-27T10:57:04.389Z</time>
      </trkpt>
      <trkpt lat="46.00866" lon="3.43014">
        <ele>331.75335693359</ele>
        <time>2021-03-27T10:57:09.126Z</time>
      </trkpt>
      <trkpt lat="46.00863" lon="3.43005">
        <ele>331.86853027344</ele>
        <time>2021-03-27T10:57:13.865Z</time>
      </trkpt>
      <trkpt lat="46.00861" lon="3.42997">
        <ele>332.05767822266</ele>
        <time>2021-03-27T10:57:18.605Z</time>
      </trkpt>
      <trkpt lat="46.00859" lon="3.42987">
        <ele>332.61193847656</ele>
        <time>2021-03-27T10:57:23.347Z</time>
      </trkpt>
      <trkpt lat="46.00858" lon="3.42979">
        <ele>333.09420776367</ele>
        <time>2021-03-27T10:57:28.090Z</time>
      </trkpt>
      <trkpt lat="46.00857" lon="3.42964">
        <ele>333.71539306641</ele>
        <time>2021-03-27T10:57:32.835Z</time>
      </trkpt>
      <trkpt lat="46.00858" lon="3.42953">
        <ele>333.72256469727</ele>
        <time>2021-03-27T10:57:37.581Z</time>
      </trkpt>
      <trkpt lat="46.00858" lon="3.42942">
        <ele>333.7297668457</ele>
        <time>2021-03-27T10:57:42.329Z</time>
      </trkpt>
      <trkpt lat="46.0086" lon="3.42907">
        <ele>332.89709472656</ele>
        <time>2021-03-27T10:57:47.082Z</time>
      </trkpt>
      <trkpt lat="46.00862" lon="3.42892">
        <ele>331.92175292969</ele>
        <time>2021-03-27T10:57:51.837Z</time>
      </trkpt>
      <trkpt lat="46.00864" lon="3.42882">
        <ele>331.2487487793</ele>
        <time>2021-03-27T10:57:56.593Z</time>
      </trkpt>
      <trkpt lat="46.00865" lon="3.42875">
        <ele>330.80966186523</ele>
        <time>2021-03-27T10:58:01.350Z</time>
      </trkpt>
      <trkpt lat="46.00868" lon="3.42869">
        <ele>330.46417236328</ele>
        <time>2021-03-27T10:58:06.108Z</time>
      </trkpt>
      <trkpt lat="46.00876" lon="3.42856">
        <ele>329.91812133789</ele>
        <time>2021-03-27T10:58:10.869Z</time>
      </trkpt>
      <trkpt lat="46.0088" lon="3.4285">
        <ele>329.84613037109</ele>
        <time>2021-03-27T10:58:15.631Z</time>
      </trkpt>
      <trkpt lat="46.00885" lon="3.42845">
        <ele>329.81015014648</ele>
        <time>2021-03-27T10:58:20.394Z</time>
      </trkpt>
      <trkpt lat="46.00896" lon="3.42831">
        <ele>328.95373535156</ele>
        <time>2021-03-27T10:58:25.160Z</time>
      </trkpt>
      <trkpt lat="46.00917" lon="3.42809">
        <ele>328.88726806641</ele>
        <time>2021-03-27T10:58:29.931Z</time>
      </trkpt>
      <trkpt lat="46.00928" lon="3.42798">
        <ele>328.45538330078</ele>
        <time>2021-03-27T10:58:34.705Z</time>
      </trkpt>
      <trkpt lat="46.00936" lon="3.42788">
        <ele>328.24600219727</ele>
        <time>2021-03-27T10:58:39.481Z</time>
      </trkpt>
      <trkpt lat="46.00942" lon="3.4278">
        <ele>328.13082885742</ele>
        <time>2021-03-27T10:58:44.259Z</time>
      </trkpt>
      <trkpt lat="46.00947" lon="3.42772">
        <ele>328.04702758789</ele>
        <time>2021-03-27T10:58:49.038Z</time>
      </trkpt>
      <trkpt lat="46.00952" lon="3.42762">
        <ele>327.80346679688</ele>
        <time>2021-03-27T10:58:53.819Z</time>
      </trkpt>
      <trkpt lat="46.00961" lon="3.42741">
        <ele>327.1653137207</ele>
        <time>2021-03-27T10:58:58.603Z</time>
      </trkpt>
      <trkpt lat="46.00965" lon="3.42729">
        <ele>327.46041870117</ele>
        <time>2021-03-27T10:59:03.389Z</time>
      </trkpt>
      <trkpt lat="46.00972" lon="3.42705">
        <ele>326.96429443359</ele>
        <time>2021-03-27T10:59:08.179Z</time>
      </trkpt>
      <trkpt lat="46.0098" lon="3.42676">
        <ele>327.55453491211</ele>
        <time>2021-03-27T10:59:12.973Z</time>
      </trkpt>
      <trkpt lat="46.00994" lon="3.4263">
        <ele>327.26672363281</ele>
        <time>2021-03-27T10:59:17.774Z</time>
      </trkpt>
      <trkpt lat="46.01012" lon="3.42565">
        <ele>326.90734863281</ele>
        <time>2021-03-27T10:59:22.585Z</time>
      </trkpt>
      <trkpt lat="46.01029" lon="3.42499">
        <ele>326.48739624023</ele>
        <time>2021-03-27T10:59:27.406Z</time>
      </trkpt>
      <trkpt lat="46.01043" lon="3.42445">
        <ele>328.89367675781</ele>
        <time>2021-03-27T10:59:32.235Z</time>
      </trkpt>
      <trkpt lat="46.0105" lon="3.42415">
        <ele>330.30017089844</ele>
        <time>2021-03-27T10:59:37.068Z</time>
      </trkpt>
      <trkpt lat="46.01056" lon="3.4239">
        <ele>330.03219604492</ele>
        <time>2021-03-27T10:59:41.905Z</time>
      </trkpt>
      <trkpt lat="46.01062" lon="3.42362">
        <ele>329.28289794922</ele>
        <time>2021-03-27T10:59:46.746Z</time>
      </trkpt>
      <trkpt lat="46.01066" lon="3.42342">
        <ele>328.51470947266</ele>
        <time>2021-03-27T10:59:51.590Z</time>
      </trkpt>
      <trkpt lat="46.01068" lon="3.42337">
        <ele>328.2555847168</ele>
        <time>2021-03-27T10:59:56.435Z</time>
      </trkpt>
      <trkpt lat="46.0107" lon="3.42331">
        <ele>328.02703857422</ele>
        <time>2021-03-27T11:00:01.281Z</time>
      </trkpt>
      <trkpt lat="46.01073" lon="3.42328">
        <ele>327.89733886719</ele>
        <time>2021-03-27T11:00:06.127Z</time>
      </trkpt>
      <trkpt lat="46.01078" lon="3.42325">
        <ele>327.81454467773</ele>
        <time>2021-03-27T11:00:10.974Z</time>
      </trkpt>
      <trkpt lat="46.01086" lon="3.42322">
        <ele>327.89013671875</ele>
        <time>2021-03-27T11:00:15.823Z</time>
      </trkpt>
      <trkpt lat="46.01101" lon="3.42317">
        <ele>327.99200439453</ele>
        <time>2021-03-27T11:00:20.675Z</time>
      </trkpt>
      <trkpt lat="46.01122" lon="3.42312">
        <ele>327.58892822266</ele>
        <time>2021-03-27T11:00:25.531Z</time>
      </trkpt>
      <trkpt lat="46.01133" lon="3.42306">
        <ele>327.64239501953</ele>
        <time>2021-03-27T11:00:30.390Z</time>
      </trkpt>
      <trkpt lat="46.01139" lon="3.42302">
        <ele>327.97055053711</ele>
        <time>2021-03-27T11:00:35.250Z</time>
      </trkpt>
      <trkpt lat="46.01136" lon="3.42298">
        <ele>327.74020385742</ele>
        <time>2021-03-27T11:00:40.111Z</time>
      </trkpt>
      <trkpt lat="46.01129" lon="3.42289">
        <ele>327.23635864258</ele>
        <time>2021-03-27T11:00:44.974Z</time>
      </trkpt>
      <trkpt lat="46.01119" lon="3.42277">
        <ele>326.53094482422</ele>
        <time>2021-03-27T11:00:49.839Z</time>
      </trkpt>
      <trkpt lat="46.01109" lon="3.42266">
        <ele>325.16818237305</ele>
        <time>2021-03-27T11:00:54.707Z</time>
      </trkpt>
      <trkpt lat="46.011" lon="3.42256">
        <ele>323.72137451172</ele>
        <time>2021-03-27T11:00:59.577Z</time>
      </trkpt>
      <trkpt lat="46.0109" lon="3.42248">
        <ele>322.50491333008</ele>
        <time>2021-03-27T11:01:04.449Z</time>
      </trkpt>
      <trkpt lat="46.01083" lon="3.42244">
        <ele>321.48831176758</ele>
        <time>2021-03-27T11:01:09.323Z</time>
      </trkpt>
      <trkpt lat="46.01076" lon="3.42241">
        <ele>320.66412353516</ele>
        <time>2021-03-27T11:01:14.198Z</time>
      </trkpt>
      <trkpt lat="46.01069" lon="3.42239">
        <ele>319.88870239258</ele>
        <time>2021-03-27T11:01:19.075Z</time>
      </trkpt>
      <trkpt lat="46.01062" lon="3.42239">
        <ele>319.21929931641</ele>
        <time>2021-03-27T11:01:23.953Z</time>
      </trkpt>
      <trkpt lat="46.01053" lon="3.42241">
        <ele>318.75854492188</ele>
        <time>2021-03-27T11:01:28.833Z</time>
      </trkpt>
      <trkpt lat="46.0104" lon="3.42243">
        <ele>318.11938476562</ele>
        <time>2021-03-27T11:01:33.716Z</time>
      </trkpt>
      <trkpt lat="46.01022" lon="3.42248">
        <ele>316.82012939453</ele>
        <time>2021-03-27T11:01:38.602Z</time>
      </trkpt>
      <trkpt lat="46.01009" lon="3.42251">
        <ele>316.1901550293</ele>
        <time>2021-03-27T11:01:43.491Z</time>
      </trkpt>
      <trkpt lat="46.01002" lon="3.42254">
        <ele>316.25134277344</ele>
        <time>2021-03-27T11:01:48.381Z</time>
      </trkpt>
      <trkpt lat="46.00992" lon="3.42259">
        <ele>316.20666503906</ele>
        <time>2021-03-27T11:01:53.274Z</time>
      </trkpt>
      <trkpt lat="46.00977" lon="3.42267">
        <ele>316.05712890625</ele>
        <time>2021-03-27T11:01:58.170Z</time>
      </trkpt>
      <trkpt lat="46.00966" lon="3.42273">
        <ele>316.72653198242</ele>
        <time>2021-03-27T11:02:03.068Z</time>
      </trkpt>
      <trkpt lat="46.00946" lon="3.42286">
        <ele>316.78866577148</ele>
        <time>2021-03-27T11:02:07.971Z</time>
      </trkpt>
      <trkpt lat="46.00928" lon="3.42298">
        <ele>316.21575927734</ele>
        <time>2021-03-27T11:02:12.877Z</time>
      </trkpt>
      <trkpt lat="46.00916" lon="3.42305">
        <ele>315.517578125</ele>
        <time>2021-03-27T11:02:17.786Z</time>
      </trkpt>
      <trkpt lat="46.0091" lon="3.42309">
        <ele>315.16125488281</ele>
        <time>2021-03-27T11:02:22.696Z</time>
      </trkpt>
      <trkpt lat="46.00903" lon="3.42313">
        <ele>314.70059204102</ele>
        <time>2021-03-27T11:02:27.608Z</time>
      </trkpt>
      <trkpt lat="46.00891" lon="3.42319">
        <ele>313.81164550781</ele>
        <time>2021-03-27T11:02:32.522Z</time>
      </trkpt>
      <trkpt lat="46.00883" lon="3.42323">
        <ele>313.63632202148</ele>
        <time>2021-03-27T11:02:37.438Z</time>
      </trkpt>
      <trkpt lat="46.00872" lon="3.42327">
        <ele>313.43646240234</ele>
        <time>2021-03-27T11:02:42.356Z</time>
      </trkpt>
      <trkpt lat="46.00863" lon="3.42329">
        <ele>313.32489013672</ele>
        <time>2021-03-27T11:02:47.276Z</time>
      </trkpt>
      <trkpt lat="46.00856" lon="3.4233">
        <ele>313.11254882812</ele>
        <time>2021-03-27T11:02:52.198Z</time>
      </trkpt>
      <trkpt lat="46.0085" lon="3.42329">
        <ele>312.83544921875</ele>
        <time>2021-03-27T11:02:57.121Z</time>
      </trkpt>
      <trkpt lat="46.00846" lon="3.42326">
        <ele>312.47055053711</ele>
        <time>2021-03-27T11:03:02.045Z</time>
      </trkpt>
      <trkpt lat="46.00843" lon="3.42323">
        <ele>312.13583374023</ele>
        <time>2021-03-27T11:03:06.969Z</time>
      </trkpt>
      <trkpt lat="46.0084" lon="3.42318">
        <ele>311.60678100586</ele>
        <time>2021-03-27T11:03:11.894Z</time>
      </trkpt>
      <trkpt lat="46.00838" lon="3.42312">
        <ele>310.95895385742</ele>
        <time>2021-03-27T11:03:16.820Z</time>
      </trkpt>
      <trkpt lat="46.00837" lon="3.42307">
        <ele>310.42990112305</ele>
        <time>2021-03-27T11:03:21.747Z</time>
      </trkpt>
      <trkpt lat="46.00837" lon="3.42303">
        <ele>309.99935913086</ele>
        <time>2021-03-27T11:03:26.674Z</time>
      </trkpt>
      <trkpt lat="46.00837" lon="3.42298">
        <ele>309.79418945312</ele>
        <time>2021-03-27T11:03:31.602Z</time>
      </trkpt>
      <trkpt lat="46.00838" lon="3.42288">
        <ele>309.44149780273</ele>
        <time>2021-03-27T11:03:36.532Z</time>
      </trkpt>
      <trkpt lat="46.00841" lon="3.42265">
        <ele>308.72134399414</ele>
        <time>2021-03-27T11:03:41.465Z</time>
      </trkpt>
      <trkpt lat="46.00844" lon="3.42246">
        <ele>307.24194335938</ele>
        <time>2021-03-27T11:03:46.401Z</time>
      </trkpt>
      <trkpt lat="46.00846" lon="3.42228">
        <ele>306.39669799805</ele>
        <time>2021-03-27T11:03:51.339Z</time>
      </trkpt>
      <trkpt lat="46.00848" lon="3.42211">
        <ele>306.68826293945</ele>
        <time>2021-03-27T11:03:56.280Z</time>
      </trkpt>
      <trkpt lat="46.00849" lon="3.42196">
        <ele>307.71035766602</ele>
        <time>2021-03-27T11:04:01.223Z</time>
      </trkpt>
      <trkpt lat="46.0085" lon="3.42122">
        <ele>315.98150634766</ele>
        <time>2021-03-27T11:04:06.176Z</time>
      </trkpt>
      <trkpt lat="46.0085" lon="3.4208">
        <ele>315.76205444336</ele>
        <time>2021-03-27T11:04:11.135Z</time>
      </trkpt>
      <trkpt lat="46.00851" lon="3.42063">
        <ele>315.10342407227</ele>
        <time>2021-03-27T11:04:16.096Z</time>
      </trkpt>
      <trkpt lat="46.00852" lon="3.42044">
        <ele>314.51458740234</ele>
        <time>2021-03-27T11:04:21.060Z</time>
      </trkpt>
      <trkpt lat="46.00855" lon="3.41996">
        <ele>315.4172668457</ele>
        <time>2021-03-27T11:04:26.031Z</time>
      </trkpt>
      <trkpt lat="46.00857" lon="3.41969">
        <ele>317.02490234375</ele>
        <time>2021-03-27T11:04:31.005Z</time>
      </trkpt>
      <trkpt lat="46.00857" lon="3.41949">
        <ele>317.66390991211</ele>
        <time>2021-03-27T11:04:35.982Z</time>
      </trkpt>
      <trkpt lat="46.00856" lon="3.41937">
        <ele>317.87289428711</ele>
        <time>2021-03-27T11:04:40.961Z</time>
      </trkpt>
      <trkpt lat="46.00855" lon="3.41929">
        <ele>318.19680786133</ele>
        <time>2021-03-27T11:04:45.941Z</time>
      </trkpt>
      <trkpt lat="46.00854" lon="3.41922">
        <ele>318.4919128418</ele>
        <time>2021-03-27T11:04:50.922Z</time>
      </trkpt>
      <trkpt lat="46.00852" lon="3.41915">
        <ele>318.69491577148</ele>
        <time>2021-03-27T11:04:55.904Z</time>
      </trkpt>
      <trkpt lat="46.00849" lon="3.41908">
        <ele>318.9108581543</ele>
        <time>2021-03-27T11:05:00.887Z</time>
      </trkpt>
      <trkpt lat="46.00848" lon="3.41907">
        <ele>318.95404052734</ele>
        <time>2021-03-27T11:05:05.870Z</time>
      </trkpt>
      <trkpt lat="46.00845" lon="3.41902">
        <ele>319.09219360352</ele>
        <time>2021-03-27T11:05:10.854Z</time>
      </trkpt>
      <trkpt lat="46.00837" lon="3.41893">
        <ele>319.36572265625</ele>
        <time>2021-03-27T11:05:15.840Z</time>
      </trkpt>
      <trkpt lat="46.00825" lon="3.4188">
        <ele>320.0544128418</ele>
        <time>2021-03-27T11:05:20.829Z</time>
      </trkpt>
      <trkpt lat="46.00817" lon="3.41871">
        <ele>320.45922851562</ele>
        <time>2021-03-27T11:05:25.820Z</time>
      </trkpt>
      <trkpt lat="46.00811" lon="3.41866">
        <ele>320.43402099609</ele>
        <time>2021-03-27T11:05:30.813Z</time>
      </trkpt>
      <trkpt lat="46.00804" lon="3.4186">
        <ele>320.39083862305</ele>
        <time>2021-03-27T11:05:35.807Z</time>
      </trkpt>
      <trkpt lat="46.00795" lon="3.41854">
        <ele>320.11911010742</ele>
        <time>2021-03-27T11:05:40.803Z</time>
      </trkpt>
      <trkpt lat="46.00782" lon="3.41845">
        <ele>320.35235595703</ele>
        <time>2021-03-27T11:05:45.802Z</time>
      </trkpt>
      <trkpt lat="46.0077" lon="3.41837">
        <ele>320.79144287109</ele>
        <time>2021-03-27T11:05:50.804Z</time>
      </trkpt>
      <trkpt lat="46.00762" lon="3.41832">
        <ele>321.13711547852</ele>
        <time>2021-03-27T11:05:55.808Z</time>
      </trkpt>
      <trkpt lat="46.00756" lon="3.41827">
        <ele>321.60498046875</ele>
        <time>2021-03-27T11:06:00.813Z</time>
      </trkpt>
      <trkpt lat="46.00749" lon="3.41821">
        <ele>322.0944519043</ele>
        <time>2021-03-27T11:06:05.820Z</time>
      </trkpt>
      <trkpt lat="46.00734" lon="3.41808">
        <ele>323.09066772461</ele>
        <time>2021-03-27T11:06:10.830Z</time>
      </trkpt>
      <trkpt lat="46.00726" lon="3.418">
        <ele>323.36779785156</ele>
        <time>2021-03-27T11:06:15.842Z</time>
      </trkpt>
      <trkpt lat="46.00716" lon="3.41789">
        <ele>323.71688842773</ele>
        <time>2021-03-27T11:06:20.857Z</time>
      </trkpt>
      <trkpt lat="46.007" lon="3.41773">
        <ele>324.29275512695</ele>
        <time>2021-03-27T11:06:25.876Z</time>
      </trkpt>
      <trkpt lat="46.00679" lon="3.41749">
        <ele>325.14025878906</ele>
        <time>2021-03-27T11:06:30.900Z</time>
      </trkpt>
      <trkpt lat="46.00661" lon="3.41731">
        <ele>327.01922607422</ele>
        <time>2021-03-27T11:06:35.928Z</time>
      </trkpt>
      <trkpt lat="46.0064" lon="3.41705">
        <ele>328.98922729492</ele>
        <time>2021-03-27T11:06:40.962Z</time>
      </trkpt>
      <trkpt lat="46.00633" lon="3.41696">
        <ele>329.57583618164</ele>
        <time>2021-03-27T11:06:45.998Z</time>
      </trkpt>
      <trkpt lat="46.00629" lon="3.4169">
        <ele>329.85522460938</ele>
        <time>2021-03-27T11:06:51.035Z</time>
      </trkpt>
      <trkpt lat="46.0062" lon="3.41673">
        <ele>330</ele>
        <time>2021-03-27T11:06:56.075Z</time>
      </trkpt>
      <trkpt lat="46.00627" lon="3.41673">
        <ele>329.95239257812</ele>
        <time>2021-03-27T11:07:01.116Z</time>
      </trkpt>
      <trkpt lat="46.00628" lon="3.41673">
        <ele>329.88403320312</ele>
        <time>2021-03-27T11:07:06.158Z</time>
      </trkpt>
      <trkpt lat="46.00631" lon="3.41672">
        <ele>329.77606201172</ele>
        <time>2021-03-27T11:07:11.200Z</time>
      </trkpt>
      <trkpt lat="46.00634" lon="3.41669">
        <ele>329.81832885742</ele>
        <time>2021-03-27T11:07:16.243Z</time>
      </trkpt>
      <trkpt lat="46.00638" lon="3.41665">
        <ele>329.99105834961</ele>
        <time>2021-03-27T11:07:21.287Z</time>
      </trkpt>
      <trkpt lat="46.00647" lon="3.41645">
        <ele>330.68927001953</ele>
        <time>2021-03-27T11:07:26.334Z</time>
      </trkpt>
      <trkpt lat="46.00667" lon="3.41599">
        <ele>331</ele>
        <time>2021-03-27T11:07:31.389Z</time>
      </trkpt>
      <trkpt lat="46.00691" lon="3.41545">
        <ele>330.30627441406</ele>
        <time>2021-03-27T11:07:36.453Z</time>
      </trkpt>
      <trkpt lat="46.0072" lon="3.41478">
        <ele>332.39199829102</ele>
        <time>2021-03-27T11:07:41.528Z</time>
      </trkpt>
      <trkpt lat="46.00747" lon="3.41417">
        <ele>336.79718017578</ele>
        <time>2021-03-27T11:07:46.613Z</time>
      </trkpt>
      <trkpt lat="46.00766" lon="3.41375">
        <ele>338.78814697266</ele>
        <time>2021-03-27T11:07:51.705Z</time>
      </trkpt>
      <trkpt lat="46.00775" lon="3.41352">
        <ele>339.45013427734</ele>
        <time>2021-03-27T11:07:56.800Z</time>
      </trkpt>
      <trkpt lat="46.0078" lon="3.41341">
        <ele>339.32699584961</ele>
        <time>2021-03-27T11:08:01.897Z</time>
      </trkpt>
      <trkpt lat="46.00783" lon="3.41333">
        <ele>339.00308227539</ele>
        <time>2021-03-27T11:08:06.995Z</time>
      </trkpt>
      <trkpt lat="46.00784" lon="3.41328">
        <ele>338.71783447266</ele>
        <time>2021-03-27T11:08:12.094Z</time>
      </trkpt>
      <trkpt lat="46.00786" lon="3.41323">
        <ele>338.47204589844</ele>
        <time>2021-03-27T11:08:17.194Z</time>
      </trkpt>
      <trkpt lat="46.00789" lon="3.41315">
        <ele>338.68078613281</ele>
        <time>2021-03-27T11:08:22.295Z</time>
      </trkpt>
      <trkpt lat="46.00792" lon="3.41303">
        <ele>338.99749755859</ele>
        <time>2021-03-27T11:08:27.398Z</time>
      </trkpt>
      <trkpt lat="46.00794" lon="3.4129">
        <ele>339</ele>
        <time>2021-03-27T11:08:32.503Z</time>
      </trkpt>
      <trkpt lat="46.00798" lon="3.41271">
        <ele>339.35140991211</ele>
        <time>2021-03-27T11:08:37.611Z</time>
      </trkpt>
      <trkpt lat="46.008" lon="3.41254">
        <ele>340.05322265625</ele>
        <time>2021-03-27T11:08:42.721Z</time>
      </trkpt>
      <trkpt lat="46.00803" lon="3.41234">
        <ele>340.88101196289</ele>
        <time>2021-03-27T11:08:47.834Z</time>
      </trkpt>
      <trkpt lat="46.00808" lon="3.41198">
        <ele>341.63980102539</ele>
        <time>2021-03-27T11:08:52.952Z</time>
      </trkpt>
      <trkpt lat="46.0081" lon="3.41186">
        <ele>341.33743286133</ele>
        <time>2021-03-27T11:08:58.072Z</time>
      </trkpt>
      <trkpt lat="46.00812" lon="3.41176">
        <ele>341.27264404297</ele>
        <time>2021-03-27T11:09:03.193Z</time>
      </trkpt>
      <trkpt lat="46.00813" lon="3.41172">
        <ele>341.22946166992</ele>
        <time>2021-03-27T11:09:08.315Z</time>
      </trkpt>
      <trkpt lat="46.00816" lon="3.41166">
        <ele>341.14309692383</ele>
        <time>2021-03-27T11:09:13.438Z</time>
      </trkpt>
      <trkpt lat="46.00819" lon="3.41158">
        <ele>341.02072143555</ele>
        <time>2021-03-27T11:09:18.562Z</time>
      </trkpt>
      <trkpt lat="46.00824" lon="3.41147">
        <ele>341</ele>
        <time>2021-03-27T11:09:23.688Z</time>
      </trkpt>
      <trkpt lat="46.00828" lon="3.41136">
        <ele>340.37924194336</ele>
        <time>2021-03-27T11:09:28.816Z</time>
      </trkpt>
      <trkpt lat="46.00831" lon="3.41127">
        <ele>340.15609741211</ele>
        <time>2021-03-27T11:09:33.945Z</time>
      </trkpt>
      <trkpt lat="46.00833" lon="3.4112">
        <ele>340.01934814453</ele>
        <time>2021-03-27T11:09:39.075Z</time>
      </trkpt>
      <trkpt lat="46.00835" lon="3.4111">
        <ele>339.88256835938</ele>
        <time>2021-03-27T11:09:44.207Z</time>
      </trkpt>
      <trkpt lat="46.00836" lon="3.41099">
        <ele>339.81060791016</ele>
        <time>2021-03-27T11:09:49.340Z</time>
      </trkpt>
      <trkpt lat="46.00837" lon="3.41084">
        <ele>339.78179931641</ele>
        <time>2021-03-27T11:09:54.475Z</time>
      </trkpt>
      <trkpt lat="46.00836" lon="3.41073">
        <ele>339.82498168945</ele>
        <time>2021-03-27T11:09:59.612Z</time>
      </trkpt>
      <trkpt lat="46.00835" lon="3.41061">
        <ele>340.15951538086</ele>
        <time>2021-03-27T11:10:04.750Z</time>
      </trkpt>
      <trkpt lat="46.00834" lon="3.41056">
        <ele>340.37545776367</ele>
        <time>2021-03-27T11:10:09.889Z</time>
      </trkpt>
      <trkpt lat="46.00833" lon="3.41054">
        <ele>340.49063110352</ele>
        <time>2021-03-27T11:10:15.029Z</time>
      </trkpt>
      <trkpt lat="46.0083" lon="3.41039">
        <ele>341.13125610352</ele>
        <time>2021-03-27T11:10:20.171Z</time>
      </trkpt>
      <trkpt lat="46.00828" lon="3.41029">
        <ele>341.59191894531</ele>
        <time>2021-03-27T11:10:25.314Z</time>
      </trkpt>
      <trkpt lat="46.00822" lon="3.41012">
        <ele>341.93435668945</ele>
        <time>2021-03-27T11:10:30.460Z</time>
      </trkpt>
      <trkpt lat="46.00807" lon="3.40976">
        <ele>342.78817749023</ele>
        <time>2021-03-27T11:10:35.612Z</time>
      </trkpt>
      <trkpt lat="46.00799" lon="3.40955">
        <ele>343.53677368164</ele>
        <time>2021-03-27T11:10:40.767Z</time>
      </trkpt>
      <trkpt lat="46.00794" lon="3.40946">
        <ele>343.87149047852</ele>
        <time>2021-03-27T11:10:45.924Z</time>
      </trkpt>
      <trkpt lat="46.00789" lon="3.40937">
        <ele>344.06976318359</ele>
        <time>2021-03-27T11:10:51.082Z</time>
      </trkpt>
      <trkpt lat="46.00783" lon="3.40929">
        <ele>344.14535522461</ele>
        <time>2021-03-27T11:10:56.242Z</time>
      </trkpt>
      <trkpt lat="46.00772" lon="3.40915">
        <ele>344.23892211914</ele>
        <time>2021-03-27T11:11:01.405Z</time>
      </trkpt>
      <trkpt lat="46.00761" lon="3.40902">
        <ele>344</ele>
        <time>2021-03-27T11:11:06.571Z</time>
      </trkpt>
      <trkpt lat="46.00756" lon="3.40897">
        <ele>344</ele>
        <time>2021-03-27T11:11:11.738Z</time>
      </trkpt>
      <trkpt lat="46.0076" lon="3.40886">
        <ele>344</ele>
        <time>2021-03-27T11:11:16.906Z</time>
      </trkpt>
      <trkpt lat="46.00761" lon="3.40883">
        <ele>344.02349853516</ele>
        <time>2021-03-27T11:11:22.075Z</time>
      </trkpt>
      <trkpt lat="46.0077" lon="3.4085">
        <ele>345.453125</ele>
        <time>2021-03-27T11:11:27.249Z</time>
      </trkpt>
      <trkpt lat="46.00784" lon="3.40799">
        <ele>348.16967773438</ele>
        <time>2021-03-27T11:11:32.431Z</time>
      </trkpt>
      <trkpt lat="46.00807" lon="3.40713">
        <ele>349.88442993164</ele>
        <time>2021-03-27T11:11:37.625Z</time>
      </trkpt>
      <trkpt lat="46.0082" lon="3.40667">
        <ele>350.12057495117</ele>
        <time>2021-03-27T11:11:42.826Z</time>
      </trkpt>
      <trkpt lat="46.0084" lon="3.4059">
        <ele>351</ele>
        <time>2021-03-27T11:11:48.039Z</time>
      </trkpt>
      <trkpt lat="46.00857" lon="3.4053">
        <ele>354.30844116211</ele>
        <time>2021-03-27T11:11:53.261Z</time>
      </trkpt>
      <trkpt lat="46.00867" lon="3.40492">
        <ele>355.38479614258</ele>
        <time>2021-03-27T11:11:58.488Z</time>
      </trkpt>
      <trkpt lat="46.00869" lon="3.40484">
        <ele>355.52154541016</ele>
        <time>2021-03-27T11:12:03.717Z</time>
      </trkpt>
      <trkpt lat="46.00869" lon="3.4048">
        <ele>355.54315185547</ele>
        <time>2021-03-27T11:12:08.946Z</time>
      </trkpt>
      <trkpt lat="46.00869" lon="3.40471">
        <ele>355.55755615234</ele>
        <time>2021-03-27T11:12:14.176Z</time>
      </trkpt>
      <trkpt lat="46.00872" lon="3.40466">
        <ele>355.76885986328</ele>
        <time>2021-03-27T11:12:19.407Z</time>
      </trkpt>
      <trkpt lat="46.00876" lon="3.40461">
        <ele>355.74197387695</ele>
        <time>2021-03-27T11:12:24.639Z</time>
      </trkpt>
      <trkpt lat="46.00877" lon="3.40459">
        <ele>355.75277709961</ele>
        <time>2021-03-27T11:12:29.872Z</time>
      </trkpt>
      <trkpt lat="46.00883" lon="3.40449">
        <ele>355.83709716797</ele>
        <time>2021-03-27T11:12:35.106Z</time>
      </trkpt>
      <trkpt lat="46.00894" lon="3.40429">
        <ele>357.06796264648</ele>
        <time>2021-03-27T11:12:40.344Z</time>
      </trkpt>
      <trkpt lat="46.00905" lon="3.40408">
        <ele>358.2448425293</ele>
        <time>2021-03-27T11:12:45.586Z</time>
      </trkpt>
      <trkpt lat="46.00914" lon="3.4039">
        <ele>358.92910766602</ele>
        <time>2021-03-27T11:12:50.831Z</time>
      </trkpt>
      <trkpt lat="46.0093" lon="3.40352">
        <ele>359.96337890625</ele>
        <time>2021-03-27T11:12:56.082Z</time>
      </trkpt>
      <trkpt lat="46.00951" lon="3.40297">
        <ele>361.70687866211</ele>
        <time>2021-03-27T11:13:01.342Z</time>
      </trkpt>
      <trkpt lat="46.00962" lon="3.40266">
        <ele>363.42733764648</ele>
        <time>2021-03-27T11:13:06.607Z</time>
      </trkpt>
      <trkpt lat="46.00966" lon="3.40253">
        <ele>364.0715637207</ele>
        <time>2021-03-27T11:13:11.874Z</time>
      </trkpt>
      <trkpt lat="46.00969" lon="3.40242">
        <ele>364.98870849609</ele>
        <time>2021-03-27T11:13:17.142Z</time>
      </trkpt>
      <trkpt lat="46.00972" lon="3.40225">
        <ele>366.84939575195</ele>
        <time>2021-03-27T11:13:22.413Z</time>
      </trkpt>
      <trkpt lat="46.00979" lon="3.40189">
        <ele>370.31533813477</ele>
        <time>2021-03-27T11:13:27.689Z</time>
      </trkpt>
      <trkpt lat="46.00983" lon="3.40165">
        <ele>372.07052612305</ele>
        <time>2021-03-27T11:13:32.968Z</time>
      </trkpt>
      <trkpt lat="46.00985" lon="3.40141">
        <ele>373.73684692383</ele>
        <time>2021-03-27T11:13:38.251Z</time>
      </trkpt>
      <trkpt lat="46.00987" lon="3.40116">
        <ele>374.69598388672</ele>
        <time>2021-03-27T11:13:43.537Z</time>
      </trkpt>
      <trkpt lat="46.00989" lon="3.40091">
        <ele>375.54895019531</ele>
        <time>2021-03-27T11:13:48.827Z</time>
      </trkpt>
      <trkpt lat="46.00991" lon="3.40066">
        <ele>375.66809082031</ele>
        <time>2021-03-27T11:13:54.120Z</time>
      </trkpt>
      <trkpt lat="46.00993" lon="3.40042">
        <ele>375.94497680664</ele>
        <time>2021-03-27T11:13:59.417Z</time>
      </trkpt>
      <trkpt lat="46.00995" lon="3.40017">
        <ele>376.40524291992</ele>
        <time>2021-03-27T11:14:04.717Z</time>
      </trkpt>
      <trkpt lat="46.00997" lon="3.39993">
        <ele>376.84353637695</ele>
        <time>2021-03-27T11:14:10.021Z</time>
      </trkpt>
      <trkpt lat="46.01" lon="3.39968">
        <ele>377.07559204102</ele>
        <time>2021-03-27T11:14:15.328Z</time>
      </trkpt>
      <trkpt lat="46.01003" lon="3.39944">
        <ele>377.68740844727</ele>
        <time>2021-03-27T11:14:20.638Z</time>
      </trkpt>
      <trkpt lat="46.01008" lon="3.39921">
        <ele>377.96185302734</ele>
        <time>2021-03-27T11:14:25.952Z</time>
      </trkpt>
      <trkpt lat="46.01014" lon="3.399">
        <ele>378.51251220703</ele>
        <time>2021-03-27T11:14:31.269Z</time>
      </trkpt>
      <trkpt lat="46.0102" lon="3.39878">
        <ele>378.88586425781</ele>
        <time>2021-03-27T11:14:36.589Z</time>
      </trkpt>
      <trkpt lat="46.01026" lon="3.39858">
        <ele>378.76617431641</ele>
        <time>2021-03-27T11:14:41.912Z</time>
      </trkpt>
      <trkpt lat="46.01033" lon="3.39838">
        <ele>379.09854125977</ele>
        <time>2021-03-27T11:14:47.238Z</time>
      </trkpt>
      <trkpt lat="46.0104" lon="3.39819">
        <ele>379.58407592773</ele>
        <time>2021-03-27T11:14:52.567Z</time>
      </trkpt>
      <trkpt lat="46.01046" lon="3.398">
        <ele>379.66180419922</ele>
        <time>2021-03-27T11:14:57.899Z</time>
      </trkpt>
      <trkpt lat="46.01053" lon="3.39782">
        <ele>379.73303222656</ele>
        <time>2021-03-27T11:15:03.234Z</time>
      </trkpt>
      <trkpt lat="46.01059" lon="3.39764">
        <ele>380.53918457031</ele>
        <time>2021-03-27T11:15:08.572Z</time>
      </trkpt>
      <trkpt lat="46.01066" lon="3.39747">
        <ele>381.31106567383</ele>
        <time>2021-03-27T11:15:13.913Z</time>
      </trkpt>
      <trkpt lat="46.01072" lon="3.3973">
        <ele>382.11752319336</ele>
        <time>2021-03-27T11:15:19.256Z</time>
      </trkpt>
      <trkpt lat="46.01078" lon="3.39715">
        <ele>382.11953735352</ele>
        <time>2021-03-27T11:15:24.602Z</time>
      </trkpt>
      <trkpt lat="46.01088" lon="3.3969">
        <ele>381.67163085938</ele>
        <time>2021-03-27T11:15:29.952Z</time>
      </trkpt>
      <trkpt lat="46.01096" lon="3.39668">
        <ele>381.0885925293</ele>
        <time>2021-03-27T11:15:35.305Z</time>
      </trkpt>
      <trkpt lat="46.01103" lon="3.39652">
        <ele>381.04888916016</ele>
        <time>2021-03-27T11:15:40.661Z</time>
      </trkpt>
      <trkpt lat="46.01109" lon="3.39638">
        <ele>381.1064453125</ele>
        <time>2021-03-27T11:15:46.019Z</time>
      </trkpt>
      <trkpt lat="46.01118" lon="3.39622">
        <ele>380.541015625</ele>
        <time>2021-03-27T11:15:51.380Z</time>
      </trkpt>
      <trkpt lat="46.01131" lon="3.396">
        <ele>379.4079284668</ele>
        <time>2021-03-27T11:15:56.745Z</time>
      </trkpt>
      <trkpt lat="46.01141" lon="3.39586">
        <ele>378.33901977539</ele>
        <time>2021-03-27T11:16:02.113Z</time>
      </trkpt>
      <trkpt lat="46.01149" lon="3.39575">
        <ele>377.22549438477</ele>
        <time>2021-03-27T11:16:07.483Z</time>
      </trkpt>
      <trkpt lat="46.01158" lon="3.39565">
        <ele>376.11694335938</ele>
        <time>2021-03-27T11:16:12.855Z</time>
      </trkpt>
      <trkpt lat="46.01165" lon="3.39558">
        <ele>375.56457519531</ele>
        <time>2021-03-27T11:16:18.229Z</time>
      </trkpt>
      <trkpt lat="46.01175" lon="3.3955">
        <ele>375.31820678711</ele>
        <time>2021-03-27T11:16:23.605Z</time>
      </trkpt>
      <trkpt lat="46.01186" lon="3.39543">
        <ele>376.08453369141</ele>
        <time>2021-03-27T11:16:28.984Z</time>
      </trkpt>
      <trkpt lat="46.01197" lon="3.39537">
        <ele>377.1432800293</ele>
        <time>2021-03-27T11:16:34.365Z</time>
      </trkpt>
      <trkpt lat="46.01193" lon="3.39533">
        <ele>377.13610839844</ele>
        <time>2021-03-27T11:16:39.747Z</time>
      </trkpt>
      <trkpt lat="46.01191" lon="3.39532">
        <ele>377.10009765625</ele>
        <time>2021-03-27T11:16:45.130Z</time>
      </trkpt>
      <trkpt lat="46.01188" lon="3.39531">
        <ele>377.03890991211</ele>
        <time>2021-03-27T11:16:50.513Z</time>
      </trkpt>
      <trkpt lat="46.01187" lon="3.3953">
        <ele>377.01373291016</ele>
        <time>2021-03-27T11:16:55.897Z</time>
      </trkpt>
      <trkpt lat="46.01181" lon="3.39529">
        <ele>376.72512817383</ele>
        <time>2021-03-27T11:17:01.282Z</time>
      </trkpt>
      <trkpt lat="46.01154" lon="3.39522">
        <ele>377.22808837891</ele>
        <time>2021-03-27T11:17:06.672Z</time>
      </trkpt>
      <trkpt lat="46.01105" lon="3.39507">
        <ele>381.00299072266</ele>
        <time>2021-03-27T11:17:12.072Z</time>
      </trkpt>
      <trkpt lat="46.01083" lon="3.39499">
        <ele>381.85482788086</ele>
        <time>2021-03-27T11:17:17.477Z</time>
      </trkpt>
      <trkpt lat="46.01065" lon="3.39489">
        <ele>382.90515136719</ele>
        <time>2021-03-27T11:17:22.886Z</time>
      </trkpt>
      <trkpt lat="46.0102" lon="3.3946">
        <ele>386.11416625977</ele>
        <time>2021-03-27T11:17:28.304Z</time>
      </trkpt>
      <trkpt lat="46.00992" lon="3.39436">
        <ele>387</ele>
        <time>2021-03-27T11:17:33.729Z</time>
      </trkpt>
      <trkpt lat="46.00966" lon="3.3941">
        <ele>387.13772583008</ele>
        <time>2021-03-27T11:17:39.160Z</time>
      </trkpt>
      <trkpt lat="46.00938" lon="3.39381">
        <ele>386.7200012207</ele>
        <time>2021-03-27T11:17:44.598Z</time>
      </trkpt>
      <trkpt lat="46.00903" lon="3.39331">
        <ele>387.96536254883</ele>
        <time>2021-03-27T11:17:50.046Z</time>
      </trkpt>
      <trkpt lat="46.00877" lon="3.39292">
        <ele>386.11178588867</ele>
        <time>2021-03-27T11:17:55.502Z</time>
      </trkpt>
      <trkpt lat="46.00859" lon="3.39269">
        <ele>384.34832763672</ele>
        <time>2021-03-27T11:18:00.963Z</time>
      </trkpt>
      <trkpt lat="46.00861" lon="3.39266">
        <ele>384.31234741211</ele>
        <time>2021-03-27T11:18:06.424Z</time>
      </trkpt>
      <trkpt lat="46.00863" lon="3.39261">
        <ele>384.15399169922</ele>
        <time>2021-03-27T11:18:11.886Z</time>
      </trkpt>
      <trkpt lat="46.00866" lon="3.39255">
        <ele>383.88046264648</ele>
        <time>2021-03-27T11:18:17.349Z</time>
      </trkpt>
      <trkpt lat="46.00872" lon="3.39238">
        <ele>383.02581787109</ele>
        <time>2021-03-27T11:18:22.815Z</time>
      </trkpt>
      <trkpt lat="46.00884" lon="3.39205">
        <ele>381.84173583984</ele>
        <time>2021-03-27T11:18:28.286Z</time>
      </trkpt>
      <trkpt lat="46.00894" lon="3.39174">
        <ele>381.41500854492</ele>
        <time>2021-03-27T11:18:33.762Z</time>
      </trkpt>
      <trkpt lat="46.00905" lon="3.39141">
        <ele>382.24008178711</ele>
        <time>2021-03-27T11:18:39.243Z</time>
      </trkpt>
      <trkpt lat="46.00912" lon="3.3912">
        <ele>382.33941650391</ele>
        <time>2021-03-27T11:18:44.727Z</time>
      </trkpt>
      <trkpt lat="46.00917" lon="3.39107">
        <ele>382.88528442383</ele>
        <time>2021-03-27T11:18:50.213Z</time>
      </trkpt>
      <trkpt lat="46.00921" lon="3.39097">
        <ele>383.16128540039</ele>
        <time>2021-03-27T11:18:55.701Z</time>
      </trkpt>
      <trkpt lat="46.00926" lon="3.39085">
        <ele>384.09701538086</ele>
        <time>2021-03-27T11:19:01.191Z</time>
      </trkpt>
      <trkpt lat="46.00931" lon="3.39075">
        <ele>384.56549072266</ele>
        <time>2021-03-27T11:19:06.682Z</time>
      </trkpt>
      <trkpt lat="46.00939" lon="3.39056">
        <ele>384.00164794922</ele>
        <time>2021-03-27T11:19:12.176Z</time>
      </trkpt>
      <trkpt lat="46.00956" lon="3.39019">
        <ele>383.27047729492</ele>
        <time>2021-03-27T11:19:17.677Z</time>
      </trkpt>
      <trkpt lat="46.00968" lon="3.38989">
        <ele>382.75741577148</ele>
        <time>2021-03-27T11:19:23.182Z</time>
      </trkpt>
      <trkpt lat="46.00974" lon="3.38978">
        <ele>382.93017578125</ele>
        <time>2021-03-27T11:19:28.689Z</time>
      </trkpt>
      <trkpt lat="46.00978" lon="3.38972">
        <ele>383.1533203125</ele>
        <time>2021-03-27T11:19:34.197Z</time>
      </trkpt>
      <trkpt lat="46.00984" lon="3.38965">
        <ele>383.49990844727</ele>
        <time>2021-03-27T11:19:39.707Z</time>
      </trkpt>
      <trkpt lat="46.00991" lon="3.38957">
        <ele>383.47109985352</ele>
        <time>2021-03-27T11:19:45.219Z</time>
      </trkpt>
      <trkpt lat="46.01002" lon="3.38947">
        <ele>383.18374633789</ele>
        <time>2021-03-27T11:19:50.733Z</time>
      </trkpt>
      <trkpt lat="46.0101" lon="3.3894">
        <ele>382.73745727539</ele>
        <time>2021-03-27T11:19:56.249Z</time>
      </trkpt>
      <trkpt lat="46.01022" lon="3.38932">
        <ele>382.57281494141</ele>
        <time>2021-03-27T11:20:01.768Z</time>
      </trkpt>
      <trkpt lat="46.01037" lon="3.38924">
        <ele>382.27362060547</ele>
        <time>2021-03-27T11:20:07.290Z</time>
      </trkpt>
      <trkpt lat="46.01045" lon="3.3892">
        <ele>381.90869140625</ele>
        <time>2021-03-27T11:20:12.814Z</time>
      </trkpt>
      <trkpt lat="46.01051" lon="3.38918">
        <ele>381.66394042969</ele>
        <time>2021-03-27T11:20:18.339Z</time>
      </trkpt>
      <trkpt lat="46.01056" lon="3.38917">
        <ele>381.54876708984</ele>
        <time>2021-03-27T11:20:23.865Z</time>
      </trkpt>
      <trkpt lat="46.01063" lon="3.38918">
        <ele>381.59197998047</ele>
        <time>2021-03-27T11:20:29.392Z</time>
      </trkpt>
      <trkpt lat="46.01074" lon="3.38919">
        <ele>381.60800170898</ele>
        <time>2021-03-27T11:20:34.922Z</time>
      </trkpt>
      <trkpt lat="46.0109" lon="3.3892">
        <ele>381.71389770508</ele>
        <time>2021-03-27T11:20:40.455Z</time>
      </trkpt>
      <trkpt lat="46.011" lon="3.38921">
        <ele>381.87115478516</ele>
        <time>2021-03-27T11:20:45.990Z</time>
      </trkpt>
      <trkpt lat="46.01108" lon="3.38921">
        <ele>382.11947631836</ele>
        <time>2021-03-27T11:20:51.526Z</time>
      </trkpt>
      <trkpt lat="46.01112" lon="3.3892">
        <ele>382.18426513672</ele>
        <time>2021-03-27T11:20:57.063Z</time>
      </trkpt>
      <trkpt lat="46.01118" lon="3.38917">
        <ele>382.07629394531</ele>
        <time>2021-03-27T11:21:02.602Z</time>
      </trkpt>
      <trkpt lat="46.01121" lon="3.38914">
        <ele>381.85314941406</ele>
        <time>2021-03-27T11:21:08.141Z</time>
      </trkpt>
      <trkpt lat="46.01124" lon="3.3891">
        <ele>381.3903503418</ele>
        <time>2021-03-27T11:21:13.681Z</time>
      </trkpt>
      <trkpt lat="46.01127" lon="3.38904">
        <ele>380.30041503906</ele>
        <time>2021-03-27T11:21:19.222Z</time>
      </trkpt>
      <trkpt lat="46.0113" lon="3.38895">
        <ele>378.54052734375</ele>
        <time>2021-03-27T11:21:24.764Z</time>
      </trkpt>
      <trkpt lat="46.01132" lon="3.38888">
        <ele>377.20169067383</ele>
        <time>2021-03-27T11:21:30.308Z</time>
      </trkpt>
      <trkpt lat="46.01136" lon="3.38883">
        <ele>376.03561401367</ele>
        <time>2021-03-27T11:21:35.853Z</time>
      </trkpt>
      <trkpt lat="46.01139" lon="3.38879">
        <ele>375.3122253418</ele>
        <time>2021-03-27T11:21:41.398Z</time>
      </trkpt>
      <trkpt lat="46.01142" lon="3.38877">
        <ele>374.88034057617</ele>
        <time>2021-03-27T11:21:46.944Z</time>
      </trkpt>
      <trkpt lat="46.01146" lon="3.38877">
        <ele>374.66799926758</ele>
        <time>2021-03-27T11:21:52.491Z</time>
      </trkpt>
      <trkpt lat="46.01152" lon="3.38878">
        <ele>374.55282592773</ele>
        <time>2021-03-27T11:21:58.039Z</time>
      </trkpt>
      <trkpt lat="46.01157" lon="3.38879">
        <ele>374.599609375</ele>
        <time>2021-03-27T11:22:03.588Z</time>
      </trkpt>
      <trkpt lat="46.01162" lon="3.38882">
        <ele>374.93072509766</ele>
        <time>2021-03-27T11:22:09.138Z</time>
      </trkpt>
      <trkpt lat="46.0117" lon="3.38886">
        <ele>375.35540771484</ele>
        <time>2021-03-27T11:22:14.690Z</time>
      </trkpt>
      <trkpt lat="46.0118" lon="3.38892">
        <ele>375.91333007812</ele>
        <time>2021-03-27T11:22:20.244Z</time>
      </trkpt>
      <trkpt lat="46.0119" lon="3.38899">
        <ele>376.8567199707</ele>
        <time>2021-03-27T11:22:25.800Z</time>
      </trkpt>
      <trkpt lat="46.01201" lon="3.38907">
        <ele>378.05160522461</ele>
        <time>2021-03-27T11:22:31.359Z</time>
      </trkpt>
      <trkpt lat="46.01207" lon="3.3891">
        <ele>378.52722167969</ele>
        <time>2021-03-27T11:22:36.919Z</time>
      </trkpt>
      <trkpt lat="46.0121" lon="3.38911">
        <ele>378.79452514648</ele>
        <time>2021-03-27T11:22:42.480Z</time>
      </trkpt>
      <trkpt lat="46.01215" lon="3.38911">
        <ele>379.14721679688</ele>
        <time>2021-03-27T11:22:48.042Z</time>
      </trkpt>
      <trkpt lat="46.0122" lon="3.3891">
        <ele>379.43511962891</ele>
        <time>2021-03-27T11:22:53.605Z</time>
      </trkpt>
      <trkpt lat="46.01226" lon="3.38908">
        <ele>379.60787963867</ele>
        <time>2021-03-27T11:22:59.169Z</time>
      </trkpt>
      <trkpt lat="46.01232" lon="3.38904">
        <ele>379.85009765625</ele>
        <time>2021-03-27T11:23:04.734Z</time>
      </trkpt>
      <trkpt lat="46.01238" lon="3.389">
        <ele>380.1416015625</ele>
        <time>2021-03-27T11:23:10.300Z</time>
      </trkpt>
      <trkpt lat="46.01242" lon="3.38896">
        <ele>380.267578125</ele>
        <time>2021-03-27T11:23:15.867Z</time>
      </trkpt>
      <trkpt lat="46.01245" lon="3.3889">
        <ele>380.22796630859</ele>
        <time>2021-03-27T11:23:21.436Z</time>
      </trkpt>
      <trkpt lat="46.01254" lon="3.38875">
        <ele>380.12719726562</ele>
        <time>2021-03-27T11:23:27.007Z</time>
      </trkpt>
      <trkpt lat="46.01258" lon="3.38868">
        <ele>380.05163574219</ele>
        <time>2021-03-27T11:23:32.580Z</time>
      </trkpt>
      <trkpt lat="46.01266" lon="3.38856">
        <ele>379.99044799805</ele>
        <time>2021-03-27T11:23:38.155Z</time>
      </trkpt>
      <trkpt lat="46.01272" lon="3.38845">
        <ele>379.95806884766</ele>
        <time>2021-03-27T11:23:43.732Z</time>
      </trkpt>
      <trkpt lat="46.01282" lon="3.38833">
        <ele>380.70620727539</ele>
        <time>2021-03-27T11:23:49.311Z</time>
      </trkpt>
      <trkpt lat="46.01289" lon="3.38821">
        <ele>381.28204345703</ele>
        <time>2021-03-27T11:23:54.893Z</time>
      </trkpt>
      <trkpt lat="46.01296" lon="3.38809">
        <ele>381.51089477539</ele>
        <time>2021-03-27T11:24:00.477Z</time>
      </trkpt>
      <trkpt lat="46.01301" lon="3.38798">
        <ele>382.11416625977</ele>
        <time>2021-03-27T11:24:06.063Z</time>
      </trkpt>
      <trkpt lat="46.0131" lon="3.38778">
        <ele>383.75531005859</ele>
        <time>2021-03-27T11:24:11.652Z</time>
      </trkpt>
      <trkpt lat="46.01316" lon="3.38761">
        <ele>384.5989074707</ele>
        <time>2021-03-27T11:24:17.244Z</time>
      </trkpt>
      <trkpt lat="46.01329" lon="3.38722">
        <ele>384.68273925781</ele>
        <time>2021-03-27T11:24:22.842Z</time>
      </trkpt>
      <trkpt lat="46.01337" lon="3.38697">
        <ele>384.04287719727</ele>
        <time>2021-03-27T11:24:28.443Z</time>
      </trkpt>
      <trkpt lat="46.01344" lon="3.38678">
        <ele>383.3916015625</ele>
        <time>2021-03-27T11:24:34.047Z</time>
      </trkpt>
      <trkpt lat="46.01353" lon="3.38657">
        <ele>383.11807250977</ele>
        <time>2021-03-27T11:24:39.655Z</time>
      </trkpt>
      <trkpt lat="46.01366" lon="3.38627">
        <ele>383.9326171875</ele>
        <time>2021-03-27T11:24:45.268Z</time>
      </trkpt>
      <trkpt lat="46.01371" lon="3.38613">
        <ele>383.19863891602</ele>
        <time>2021-03-27T11:24:50.883Z</time>
      </trkpt>
      <trkpt lat="46.01376" lon="3.38599">
        <ele>383.06631469727</ele>
        <time>2021-03-27T11:24:56.500Z</time>
      </trkpt>
      <trkpt lat="46.01382" lon="3.3858">
        <ele>383.67007446289</ele>
        <time>2021-03-27T11:25:02.120Z</time>
      </trkpt>
      <trkpt lat="46.01388" lon="3.38559">
        <ele>383.03991699219</ele>
        <time>2021-03-27T11:25:07.743Z</time>
      </trkpt>
      <trkpt lat="46.01394" lon="3.38542">
        <ele>383.26647949219</ele>
        <time>2021-03-27T11:25:13.369Z</time>
      </trkpt>
      <trkpt lat="46.01398" lon="3.38535">
        <ele>383.14770507812</ele>
        <time>2021-03-27T11:25:18.996Z</time>
      </trkpt>
      <trkpt lat="46.01403" lon="3.38527">
        <ele>383.12969970703</ele>
        <time>2021-03-27T11:25:24.625Z</time>
      </trkpt>
      <trkpt lat="46.01409" lon="3.38519">
        <ele>382.84106445312</ele>
        <time>2021-03-27T11:25:30.255Z</time>
      </trkpt>
      <trkpt lat="46.01415" lon="3.38514">
        <ele>382.67910766602</ele>
        <time>2021-03-27T11:25:35.887Z</time>
      </trkpt>
      <trkpt lat="46.0142" lon="3.3851">
        <ele>382.45834350586</ele>
        <time>2021-03-27T11:25:41.520Z</time>
      </trkpt>
      <trkpt lat="46.01425" lon="3.38507">
        <ele>382.24600219727</ele>
        <time>2021-03-27T11:25:47.154Z</time>
      </trkpt>
      <trkpt lat="46.01431" lon="3.38505">
        <ele>382.17764282227</ele>
        <time>2021-03-27T11:25:52.789Z</time>
      </trkpt>
      <trkpt lat="46.01439" lon="3.38504">
        <ele>382.0608215332</ele>
        <time>2021-03-27T11:25:58.426Z</time>
      </trkpt>
      <trkpt lat="46.01446" lon="3.38504">
        <ele>382.56466674805</ele>
        <time>2021-03-27T11:26:04.064Z</time>
      </trkpt>
      <trkpt lat="46.01452" lon="3.38504">
        <ele>382.98934936523</ele>
        <time>2021-03-27T11:26:09.703Z</time>
      </trkpt>
      <trkpt lat="46.01456" lon="3.38504">
        <ele>383.3420715332</ele>
        <time>2021-03-27T11:26:15.343Z</time>
      </trkpt>
      <trkpt lat="46.01465" lon="3.38501">
        <ele>383.36178588867</ele>
        <time>2021-03-27T11:26:20.985Z</time>
      </trkpt>
      <trkpt lat="46.01469" lon="3.38499">
        <ele>383.4733581543</ele>
        <time>2021-03-27T11:26:26.628Z</time>
      </trkpt>
      <trkpt lat="46.01474" lon="3.38497">
        <ele>383.56332397461</ele>
        <time>2021-03-27T11:26:32.272Z</time>
      </trkpt>
      <trkpt lat="46.01483" lon="3.38492">
        <ele>383.5407409668</ele>
        <time>2021-03-27T11:26:37.918Z</time>
      </trkpt>
      <trkpt lat="46.01497" lon="3.38481">
        <ele>383.80444335938</ele>
        <time>2021-03-27T11:26:43.567Z</time>
      </trkpt>
      <trkpt lat="46.01503" lon="3.38474">
        <ele>384.21447753906</ele>
        <time>2021-03-27T11:26:49.218Z</time>
      </trkpt>
      <trkpt lat="46.01506" lon="3.3847">
        <ele>384.39440917969</ele>
        <time>2021-03-27T11:26:54.869Z</time>
      </trkpt>
      <trkpt lat="46.01508" lon="3.38466">
        <ele>384.51678466797</ele>
        <time>2021-03-27T11:27:00.521Z</time>
      </trkpt>
      <trkpt lat="46.01509" lon="3.3846">
        <ele>384.61755371094</ele>
        <time>2021-03-27T11:27:06.174Z</time>
      </trkpt>
      <trkpt lat="46.01509" lon="3.38455">
        <ele>384.64633178711</ele>
        <time>2021-03-27T11:27:11.828Z</time>
      </trkpt>
      <trkpt lat="46.01509" lon="3.38449">
        <ele>384.63195800781</ele>
        <time>2021-03-27T11:27:17.482Z</time>
      </trkpt>
      <trkpt lat="46.01508" lon="3.38443">
        <ele>384.54556274414</ele>
        <time>2021-03-27T11:27:23.137Z</time>
      </trkpt>
      <trkpt lat="46.01505" lon="3.38435">
        <ele>384.10525512695</ele>
        <time>2021-03-27T11:27:28.794Z</time>
      </trkpt>
      <trkpt lat="46.01502" lon="3.38426">
        <ele>383.64895629883</ele>
        <time>2021-03-27T11:27:34.452Z</time>
      </trkpt>
      <trkpt lat="46.01501" lon="3.38421">
        <ele>383.5517578125</ele>
        <time>2021-03-27T11:27:40.111Z</time>
      </trkpt>
      <trkpt lat="46.01501" lon="3.38414">
        <ele>383.51937866211</ele>
        <time>2021-03-27T11:27:45.771Z</time>
      </trkpt>
      <trkpt lat="46.01501" lon="3.38409">
        <ele>383.35925292969</ele>
        <time>2021-03-27T11:27:51.431Z</time>
      </trkpt>
      <trkpt lat="46.01502" lon="3.38403">
        <ele>383.24768066406</ele>
        <time>2021-03-27T11:27:57.092Z</time>
      </trkpt>
      <trkpt lat="46.01503" lon="3.38397">
        <ele>383.20809936523</ele>
        <time>2021-03-27T11:28:02.754Z</time>
      </trkpt>
      <trkpt lat="46.01506" lon="3.3839">
        <ele>383.24047851562</ele>
        <time>2021-03-27T11:28:08.417Z</time>
      </trkpt>
      <trkpt lat="46.01509" lon="3.38383">
        <ele>383.29577636719</ele>
        <time>2021-03-27T11:28:14.081Z</time>
      </trkpt>
      <trkpt lat="46.01518" lon="3.38369">
        <ele>383.67645263672</ele>
        <time>2021-03-27T11:28:19.748Z</time>
      </trkpt>
      <trkpt lat="46.01538" lon="3.38343">
        <ele>382.23529052734</ele>
        <time>2021-03-27T11:28:25.420Z</time>
      </trkpt>
      <trkpt lat="46.01552" lon="3.38323">
        <ele>380.82421875</ele>
        <time>2021-03-27T11:28:31.096Z</time>
      </trkpt>
      <trkpt lat="46.0156" lon="3.3831">
        <ele>380.57260131836</ele>
        <time>2021-03-27T11:28:36.775Z</time>
      </trkpt>
      <trkpt lat="46.01563" lon="3.38304">
        <ele>380.5617980957</ele>
        <time>2021-03-27T11:28:42.455Z</time>
      </trkpt>
      <trkpt lat="46.01566" lon="3.38297">
        <ele>380.54821777344</ele>
        <time>2021-03-27T11:28:48.136Z</time>
      </trkpt>
      <trkpt lat="46.01568" lon="3.3829">
        <ele>380.78576660156</ele>
        <time>2021-03-27T11:28:53.818Z</time>
      </trkpt>
      <trkpt lat="46.0157" lon="3.3828">
        <ele>381.01553344727</ele>
        <time>2021-03-27T11:28:59.501Z</time>
      </trkpt>
      <trkpt lat="46.01577" lon="3.38246">
        <ele>381.78857421875</ele>
        <time>2021-03-27T11:29:05.189Z</time>
      </trkpt>
      <trkpt lat="46.01582" lon="3.38225">
        <ele>381.71539306641</ele>
        <time>2021-03-27T11:29:10.880Z</time>
      </trkpt>
      <trkpt lat="46.01587" lon="3.38203">
        <ele>382.27752685547</ele>
        <time>2021-03-27T11:29:16.575Z</time>
      </trkpt>
      <trkpt lat="46.01591" lon="3.38189">
        <ele>382.21273803711</ele>
        <time>2021-03-27T11:29:22.272Z</time>
      </trkpt>
      <trkpt lat="46.01586" lon="3.38191">
        <ele>381.68728637695</ele>
        <time>2021-03-27T11:29:27.970Z</time>
      </trkpt>
      <trkpt lat="46.01591" lon="3.38189">
        <ele>382.21273803711</ele>
        <time>2021-03-27T11:29:33.669Z</time>
      </trkpt>
      <trkpt lat="46.01609" lon="3.38185">
        <ele>382.98559570312</ele>
        <time>2021-03-27T11:29:39.372Z</time>
      </trkpt>
      <trkpt lat="46.01636" lon="3.38181">
        <ele>383.64495849609</ele>
        <time>2021-03-27T11:29:45.080Z</time>
      </trkpt>
      <trkpt lat="46.01679" lon="3.38175">
        <ele>381.50552368164</ele>
        <time>2021-03-27T11:29:50.797Z</time>
      </trkpt>
      <trkpt lat="46.01715" lon="3.38171">
        <ele>380.06234741211</ele>
        <time>2021-03-27T11:29:56.521Z</time>
      </trkpt>
      <trkpt lat="46.01736" lon="3.38169">
        <ele>379.22018432617</ele>
        <time>2021-03-27T11:30:02.249Z</time>
      </trkpt>
      <trkpt lat="46.01752" lon="3.38166">
        <ele>378.55435180664</ele>
        <time>2021-03-27T11:30:07.980Z</time>
      </trkpt>
      <trkpt lat="46.01769" lon="3.38162">
        <ele>377.77337646484</ele>
        <time>2021-03-27T11:30:13.715Z</time>
      </trkpt>
      <trkpt lat="46.01775" lon="3.38166">
        <ele>377.78491210938</ele>
        <time>2021-03-27T11:30:19.451Z</time>
      </trkpt>
      <trkpt lat="46.01769" lon="3.38162">
        <ele>377.77337646484</ele>
        <time>2021-03-27T11:30:25.189Z</time>
      </trkpt>
      <trkpt lat="46.01769" lon="3.38145">
        <ele>377.18313598633</ele>
        <time>2021-03-27T11:30:30.929Z</time>
      </trkpt>
      <trkpt lat="46.0177" lon="3.38106">
        <ele>376.85931396484</ele>
        <time>2021-03-27T11:30:36.674Z</time>
      </trkpt>
      <trkpt lat="46.01771" lon="3.38082">
        <ele>377.705078125</ele>
        <time>2021-03-27T11:30:42.423Z</time>
      </trkpt>
      <trkpt lat="46.01773" lon="3.38057">
        <ele>377.82501220703</ele>
        <time>2021-03-27T11:30:48.175Z</time>
      </trkpt>
      <trkpt lat="46.01775" lon="3.3804">
        <ele>378</ele>
        <time>2021-03-27T11:30:53.930Z</time>
      </trkpt>
      <trkpt lat="46.01778" lon="3.38011">
        <ele>378.98141479492</ele>
        <time>2021-03-27T11:30:59.689Z</time>
      </trkpt>
      <trkpt lat="46.01782" lon="3.37976">
        <ele>381.41131591797</ele>
        <time>2021-03-27T11:31:05.453Z</time>
      </trkpt>
      <trkpt lat="46.01786" lon="3.37942">
        <ele>384.0901184082</ele>
        <time>2021-03-27T11:31:11.221Z</time>
      </trkpt>
      <trkpt lat="46.01788" lon="3.37925">
        <ele>385.14364624023</ele>
        <time>2021-03-27T11:31:16.992Z</time>
      </trkpt>
      <trkpt lat="46.01785" lon="3.37927">
        <ele>384.66857910156</ele>
        <time>2021-03-27T11:31:22.764Z</time>
      </trkpt>
      <trkpt lat="46.01773" lon="3.37933">
        <ele>382.83767700195</ele>
        <time>2021-03-27T11:31:28.538Z</time>
      </trkpt>
      <trkpt lat="46.01764" lon="3.37939">
        <ele>381.1376953125</ele>
        <time>2021-03-27T11:31:34.314Z</time>
      </trkpt>
      <trkpt lat="46.01759" lon="3.37941">
        <ele>380.78091430664</ele>
        <time>2021-03-27T11:31:40.091Z</time>
      </trkpt>
      <trkpt lat="46.01755" lon="3.37942">
        <ele>380.62976074219</ele>
        <time>2021-03-27T11:31:45.869Z</time>
      </trkpt>
      <trkpt lat="46.01749" lon="3.37943">
        <ele>380.38864135742</ele>
        <time>2021-03-27T11:31:51.648Z</time>
      </trkpt>
      <trkpt lat="46.01745" lon="3.37942">
        <ele>380.24468994141</ele>
        <time>2021-03-27T11:31:57.428Z</time>
      </trkpt>
      <trkpt lat="46.01738" lon="3.3794">
        <ele>380.09710693359</ele>
        <time>2021-03-27T11:32:03.209Z</time>
      </trkpt>
      <trkpt lat="46.01713" lon="3.37924">
        <ele>382.07620239258</ele>
        <time>2021-03-27T11:32:08.996Z</time>
      </trkpt>
      <trkpt lat="46.01673" lon="3.379">
        <ele>385.48983764648</ele>
        <time>2021-03-27T11:32:14.791Z</time>
      </trkpt>
      <trkpt lat="46.01655" lon="3.37889">
        <ele>385.8821105957</ele>
        <time>2021-03-27T11:32:20.590Z</time>
      </trkpt>
      <trkpt lat="46.01642" lon="3.3788">
        <ele>386.15954589844</ele>
        <time>2021-03-27T11:32:26.392Z</time>
      </trkpt>
      <trkpt lat="46.01636" lon="3.37877">
        <ele>386.26391601562</ele>
        <time>2021-03-27T11:32:32.196Z</time>
      </trkpt>
      <trkpt lat="46.01627" lon="3.37874">
        <ele>386.3323059082</ele>
        <time>2021-03-27T11:32:38.001Z</time>
      </trkpt>
      <trkpt lat="46.01618" lon="3.37872">
        <ele>385.96682739258</ele>
        <time>2021-03-27T11:32:43.808Z</time>
      </trkpt>
      <trkpt lat="46.01604" lon="3.37869">
        <ele>385.37768554688</ele>
        <time>2021-03-27T11:32:49.618Z</time>
      </trkpt>
      <trkpt lat="46.01576" lon="3.37866">
        <ele>384.654296875</ele>
        <time>2021-03-27T11:32:55.434Z</time>
      </trkpt>
      <trkpt lat="46.01556" lon="3.37864">
        <ele>384.08203125</ele>
        <time>2021-03-27T11:33:01.254Z</time>
      </trkpt>
      <trkpt lat="46.0153" lon="3.37859">
        <ele>383.50979614258</ele>
        <time>2021-03-27T11:33:07.079Z</time>
      </trkpt>
      <trkpt lat="46.01502" lon="3.37853">
        <ele>383.07934570312</ele>
        <time>2021-03-27T11:33:12.910Z</time>
      </trkpt>
      <trkpt lat="46.01482" lon="3.37848">
        <ele>383.37023925781</ele>
        <time>2021-03-27T11:33:18.745Z</time>
      </trkpt>
      <trkpt lat="46.01469" lon="3.37844">
        <ele>384.63751220703</ele>
        <time>2021-03-27T11:33:24.582Z</time>
      </trkpt>
      <trkpt lat="46.01461" lon="3.3784">
        <ele>385.40411376953</ele>
        <time>2021-03-27T11:33:30.421Z</time>
      </trkpt>
      <trkpt lat="46.01451" lon="3.37834">
        <ele>386.40310668945</ele>
        <time>2021-03-27T11:33:36.262Z</time>
      </trkpt>
      <trkpt lat="46.0144" lon="3.37825">
        <ele>387.49166870117</ele>
        <time>2021-03-27T11:33:42.106Z</time>
      </trkpt>
      <trkpt lat="46.01428" lon="3.37814">
        <ele>388.52047729492</ele>
        <time>2021-03-27T11:33:47.953Z</time>
      </trkpt>
      <trkpt lat="46.0142" lon="3.37807">
        <ele>388.6608581543</ele>
        <time>2021-03-27T11:33:53.801Z</time>
      </trkpt>
      <trkpt lat="46.01408" lon="3.37798">
        <ele>388.47598266602</ele>
        <time>2021-03-27T11:33:59.652Z</time>
      </trkpt>
      <trkpt lat="46.01396" lon="3.37792">
        <ele>387.63125610352</ele>
        <time>2021-03-27T11:34:05.506Z</time>
      </trkpt>
      <trkpt lat="46.01378" lon="3.37781">
        <ele>386.04409790039</ele>
        <time>2021-03-27T11:34:11.364Z</time>
      </trkpt>
      <trkpt lat="46.01361" lon="3.37771">
        <ele>386</ele>
        <time>2021-03-27T11:34:17.225Z</time>
      </trkpt>
      <trkpt lat="46.01351" lon="3.37764">
        <ele>386</ele>
        <time>2021-03-27T11:34:23.088Z</time>
      </trkpt>
      <trkpt lat="46.01347" lon="3.3776">
        <ele>385.98199462891</ele>
        <time>2021-03-27T11:34:28.952Z</time>
      </trkpt>
      <trkpt lat="46.01343" lon="3.37754">
        <ele>385.82363891602</ele>
        <time>2021-03-27T11:34:34.818Z</time>
      </trkpt>
      <trkpt lat="46.01334" lon="3.37739">
        <ele>385.51412963867</ele>
        <time>2021-03-27T11:34:40.686Z</time>
      </trkpt>
      <trkpt lat="46.0132" lon="3.37706">
        <ele>384.96600341797</ele>
        <time>2021-03-27T11:34:46.560Z</time>
      </trkpt>
      <trkpt lat="46.0131" lon="3.37686">
        <ele>384.15716552734</ele>
        <time>2021-03-27T11:34:52.437Z</time>
      </trkpt>
      <trkpt lat="46.01305" lon="3.37675">
        <ele>383.97723388672</ele>
        <time>2021-03-27T11:34:58.316Z</time>
      </trkpt>
      <trkpt lat="46.01302" lon="3.3767">
        <ele>383.84405517578</ele>
        <time>2021-03-27T11:35:04.196Z</time>
      </trkpt>
      <trkpt lat="46.01298" lon="3.37664">
        <ele>383.61734008789</ele>
        <time>2021-03-27T11:35:10.077Z</time>
      </trkpt>
      <trkpt lat="46.01291" lon="3.37656">
        <ele>383.39459228516</ele>
        <time>2021-03-27T11:35:15.960Z</time>
      </trkpt>
      <trkpt lat="46.01283" lon="3.37647">
        <ele>382.84036254883</ele>
        <time>2021-03-27T11:35:21.845Z</time>
      </trkpt>
      <trkpt lat="46.01278" lon="3.37642">
        <ele>382.55242919922</ele>
        <time>2021-03-27T11:35:27.731Z</time>
      </trkpt>
      <trkpt lat="46.01278" lon="3.37642">
        <ele>382.53085327148</ele>
        <time>2021-03-27T11:35:33.617Z</time>
      </trkpt>
      <trkpt lat="46.01274" lon="3.37639">
        <ele>382.14935302734</ele>
        <time>2021-03-27T11:35:39.504Z</time>
      </trkpt>
      <trkpt lat="46.0127" lon="3.37646">
        <ele>380.85052490234</ele>
        <time>2021-03-27T11:35:45.392Z</time>
      </trkpt>
      <trkpt lat="46.01265" lon="3.37651">
        <ele>379.46850585938</ele>
        <time>2021-03-27T11:35:51.281Z</time>
      </trkpt>
      <trkpt lat="46.01261" lon="3.37655">
        <ele>378.52871704102</ele>
        <time>2021-03-27T11:35:57.172Z</time>
      </trkpt>
      <trkpt lat="46.01254" lon="3.37659">
        <ele>377.38424682617</ele>
        <time>2021-03-27T11:36:03.064Z</time>
      </trkpt>
      <trkpt lat="46.01246" lon="3.37661">
        <ele>376.27215576172</ele>
        <time>2021-03-27T11:36:08.958Z</time>
      </trkpt>
      <trkpt lat="46.0124" lon="3.37662">
        <ele>375.57034301758</ele>
        <time>2021-03-27T11:36:14.853Z</time>
      </trkpt>
      <trkpt lat="46.01226" lon="3.37662">
        <ele>374.72158813477</ele>
        <time>2021-03-27T11:36:20.751Z</time>
      </trkpt>
      <trkpt lat="46.01207" lon="3.37661">
        <ele>374.20690917969</ele>
        <time>2021-03-27T11:36:26.652Z</time>
      </trkpt>
      <trkpt lat="46.01187" lon="3.37659">
        <ele>372.3835144043</ele>
        <time>2021-03-27T11:36:32.557Z</time>
      </trkpt>
      <trkpt lat="46.01166" lon="3.37657">
        <ele>371.53323364258</ele>
        <time>2021-03-27T11:36:38.467Z</time>
      </trkpt>
      <trkpt lat="46.01144" lon="3.37656">
        <ele>370.99478149414</ele>
        <time>2021-03-27T11:36:44.381Z</time>
      </trkpt>
      <trkpt lat="46.01124" lon="3.37656">
        <ele>369.57376098633</ele>
        <time>2021-03-27T11:36:50.299Z</time>
      </trkpt>
      <trkpt lat="46.01107" lon="3.37657">
        <ele>369.57562255859</ele>
        <time>2021-03-27T11:36:56.220Z</time>
      </trkpt>
      <trkpt lat="46.01092" lon="3.37657">
        <ele>369.94161987305</ele>
        <time>2021-03-27T11:37:02.145Z</time>
      </trkpt>
      <trkpt lat="46.01084" lon="3.37656">
        <ele>370.31555175781</ele>
        <time>2021-03-27T11:37:08.071Z</time>
      </trkpt>
      <trkpt lat="46.01077" lon="3.37654">
        <ele>370.70422363281</ele>
        <time>2021-03-27T11:37:13.998Z</time>
      </trkpt>
      <trkpt lat="46.01063" lon="3.37649">
        <ele>371.05923461914</ele>
        <time>2021-03-27T11:37:19.928Z</time>
      </trkpt>
      <trkpt lat="46.01036" lon="3.37639">
        <ele>370.39196777344</ele>
        <time>2021-03-27T11:37:25.864Z</time>
      </trkpt>
      <trkpt lat="46.01007" lon="3.37629">
        <ele>369.93316650391</ele>
        <time>2021-03-27T11:37:31.806Z</time>
      </trkpt>
      <trkpt lat="46.0098" lon="3.37618">
        <ele>368.13006591797</ele>
        <time>2021-03-27T11:37:37.754Z</time>
      </trkpt>
      <trkpt lat="46.00959" lon="3.3761">
        <ele>366.84521484375</ele>
        <time>2021-03-27T11:37:43.706Z</time>
      </trkpt>
      <trkpt lat="46.00948" lon="3.37605">
        <ele>365.29849243164</ele>
        <time>2021-03-27T11:37:49.660Z</time>
      </trkpt>
      <trkpt lat="46.00942" lon="3.37603">
        <ele>364.35556030273</ele>
        <time>2021-03-27T11:37:55.615Z</time>
      </trkpt>
      <trkpt lat="46.00937" lon="3.37603">
        <ele>363.43060302734</ele>
        <time>2021-03-27T11:38:01.571Z</time>
      </trkpt>
      <trkpt lat="46.00932" lon="3.37603">
        <ele>362.63522338867</ele>
        <time>2021-03-27T11:38:07.528Z</time>
      </trkpt>
      <trkpt lat="46.00927" lon="3.37605">
        <ele>361.49966430664</ele>
        <time>2021-03-27T11:38:13.487Z</time>
      </trkpt>
      <trkpt lat="46.00911" lon="3.37611">
        <ele>359.0739440918</ele>
        <time>2021-03-27T11:38:19.449Z</time>
      </trkpt>
      <trkpt lat="46.00883" lon="3.37624">
        <ele>355.57965087891</ele>
        <time>2021-03-27T11:38:25.417Z</time>
      </trkpt>
      <trkpt lat="46.00857" lon="3.37635">
        <ele>353.04266357422</ele>
        <time>2021-03-27T11:38:31.390Z</time>
      </trkpt>
      <trkpt lat="46.00824" lon="3.37651">
        <ele>348.03424072266</ele>
        <time>2021-03-27T11:38:37.370Z</time>
      </trkpt>
      <trkpt lat="46.00791" lon="3.37665">
        <ele>344.05252075195</ele>
        <time>2021-03-27T11:38:43.357Z</time>
      </trkpt>
      <trkpt lat="46.00768" lon="3.37675">
        <ele>344.15097045898</ele>
        <time>2021-03-27T11:38:49.349Z</time>
      </trkpt>
      <trkpt lat="46.00737" lon="3.37689">
        <ele>342.16510009766</ele>
        <time>2021-03-27T11:38:55.347Z</time>
      </trkpt>
      <trkpt lat="46.00719" lon="3.37697">
        <ele>341.36227416992</ele>
        <time>2021-03-27T11:39:01.349Z</time>
      </trkpt>
      <trkpt lat="46.00704" lon="3.37703">
        <ele>340.8440246582</ele>
        <time>2021-03-27T11:39:07.354Z</time>
      </trkpt>
      <trkpt lat="46.00705" lon="3.37695">
        <ele>340.85842895508</ele>
        <time>2021-03-27T11:39:13.360Z</time>
      </trkpt>
      <trkpt lat="46.00704" lon="3.37703">
        <ele>340.8440246582</ele>
        <time>2021-03-27T11:39:19.367Z</time>
      </trkpt>
      <trkpt lat="46.00703" lon="3.37724">
        <ele>340.79724121094</ele>
        <time>2021-03-27T11:39:25.377Z</time>
      </trkpt>
      <trkpt lat="46.00702" lon="3.37751">
        <ele>340.60998535156</ele>
        <time>2021-03-27T11:39:31.391Z</time>
      </trkpt>
      <trkpt lat="46.00702" lon="3.37777">
        <ele>339.67065429688</ele>
        <time>2021-03-27T11:39:37.409Z</time>
      </trkpt>
      <trkpt lat="46.00703" lon="3.37789">
        <ele>339.2639465332</ele>
        <time>2021-03-27T11:39:43.428Z</time>
      </trkpt>
      <trkpt lat="46.00704" lon="3.37798">
        <ele>338.98324584961</ele>
        <time>2021-03-27T11:39:49.449Z</time>
      </trkpt>
      <trkpt lat="46.00705" lon="3.37805">
        <ele>338.77450561523</ele>
        <time>2021-03-27T11:39:55.471Z</time>
      </trkpt>
      <trkpt lat="46.00708" lon="3.37812">
        <ele>338.60894775391</ele>
        <time>2021-03-27T11:40:01.494Z</time>
      </trkpt>
      <trkpt lat="46.00711" lon="3.37819">
        <ele>338.48297119141</ele>
        <time>2021-03-27T11:40:07.518Z</time>
      </trkpt>
      <trkpt lat="46.00715" lon="3.37826">
        <ele>338.36419677734</ele>
        <time>2021-03-27T11:40:13.543Z</time>
      </trkpt>
      <trkpt lat="46.00718" lon="3.37832">
        <ele>338.35147094727</ele>
        <time>2021-03-27T11:40:19.569Z</time>
      </trkpt>
      <trkpt lat="46.00715" lon="3.37846">
        <ele>337.88790893555</ele>
        <time>2021-03-27T11:40:25.597Z</time>
      </trkpt>
      <trkpt lat="46.00712" lon="3.37861">
        <ele>337.16091918945</ele>
        <time>2021-03-27T11:40:31.627Z</time>
      </trkpt>
      <trkpt lat="46.00709" lon="3.37878">
        <ele>335.59194946289</ele>
        <time>2021-03-27T11:40:37.660Z</time>
      </trkpt>
      <trkpt lat="46.00705" lon="3.3791">
        <ele>334.99914550781</ele>
        <time>2021-03-27T11:40:43.697Z</time>
      </trkpt>
      <trkpt lat="46.00697" lon="3.37973">
        <ele>334.58489990234</ele>
        <time>2021-03-27T11:40:49.743Z</time>
      </trkpt>
      <trkpt lat="46.00691" lon="3.3802">
        <ele>333.53637695312</ele>
        <time>2021-03-27T11:40:55.796Z</time>
      </trkpt>
      <trkpt lat="46.00687" lon="3.3805">
        <ele>332.31631469727</ele>
        <time>2021-03-27T11:41:01.853Z</time>
      </trkpt>
      <trkpt lat="46.00684" lon="3.38071">
        <ele>332.11343383789</ele>
        <time>2021-03-27T11:41:07.913Z</time>
      </trkpt>
      <trkpt lat="46.00681" lon="3.38085">
        <ele>332</ele>
        <time>2021-03-27T11:41:13.975Z</time>
      </trkpt>
      <trkpt lat="46.00679" lon="3.38097">
        <ele>332</ele>
        <time>2021-03-27T11:41:20.039Z</time>
      </trkpt>
      <trkpt lat="46.00675" lon="3.38107">
        <ele>332</ele>
        <time>2021-03-27T11:41:26.105Z</time>
      </trkpt>
      <trkpt lat="46.00667" lon="3.3813">
        <ele>331.19052124023</ele>
        <time>2021-03-27T11:41:32.174Z</time>
      </trkpt>
      <trkpt lat="46.00656" lon="3.38159">
        <ele>330.29211425781</ele>
        <time>2021-03-27T11:41:38.248Z</time>
      </trkpt>
      <trkpt lat="46.00647" lon="3.38179">
        <ele>329.77099609375</ele>
        <time>2021-03-27T11:41:44.325Z</time>
      </trkpt>
      <trkpt lat="46.00639" lon="3.38196">
        <ele>329.50106811523</ele>
        <time>2021-03-27T11:41:50.405Z</time>
      </trkpt>
      <trkpt lat="46.00634" lon="3.3821">
        <ele>329.2995300293</ele>
        <time>2021-03-27T11:41:56.487Z</time>
      </trkpt>
      <trkpt lat="46.00628" lon="3.38227">
        <ele>329</ele>
        <time>2021-03-27T11:42:02.572Z</time>
      </trkpt>
      <trkpt lat="46.00621" lon="3.38249">
        <ele>329.09588623047</ele>
        <time>2021-03-27T11:42:08.660Z</time>
      </trkpt>
      <trkpt lat="46.00613" lon="3.38277">
        <ele>329.47973632812</ele>
        <time>2021-03-27T11:42:14.752Z</time>
      </trkpt>
      <trkpt lat="46.00607" lon="3.38298">
        <ele>329</ele>
        <time>2021-03-27T11:42:20.848Z</time>
      </trkpt>
      <trkpt lat="46.00604" lon="3.38307">
        <ele>328.82751464844</ele>
        <time>2021-03-27T11:42:26.945Z</time>
      </trkpt>
      <trkpt lat="46.006" lon="3.38315">
        <ele>328.54678344727</ele>
        <time>2021-03-27T11:42:33.043Z</time>
      </trkpt>
      <trkpt lat="46.00598" lon="3.38321">
        <ele>328.32723999023</ele>
        <time>2021-03-27T11:42:39.142Z</time>
      </trkpt>
      <trkpt lat="46.00595" lon="3.38326">
        <ele>327.96072387695</ele>
        <time>2021-03-27T11:42:45.242Z</time>
      </trkpt>
      <trkpt lat="46.00591" lon="3.38331">
        <ele>327.75888061523</ele>
        <time>2021-03-27T11:42:51.343Z</time>
      </trkpt>
      <trkpt lat="46.00584" lon="3.38339">
        <ele>327.2190246582</ele>
        <time>2021-03-27T11:42:57.446Z</time>
      </trkpt>
      <trkpt lat="46.00573" lon="3.38351">
        <ele>327</ele>
        <time>2021-03-27T11:43:03.552Z</time>
      </trkpt>
      <trkpt lat="46.00568" lon="3.38357">
        <ele>326.93499755859</ele>
        <time>2021-03-27T11:43:09.659Z</time>
      </trkpt>
      <trkpt lat="46.00564" lon="3.38362">
        <ele>326.79461669922</ele>
        <time>2021-03-27T11:43:15.767Z</time>
      </trkpt>
      <trkpt lat="46.00562" lon="3.38366">
        <ele>326.71905517578</ele>
        <time>2021-03-27T11:43:21.876Z</time>
      </trkpt>
      <trkpt lat="46.00559" lon="3.38371">
        <ele>326.61828613281</ele>
        <time>2021-03-27T11:43:27.986Z</time>
      </trkpt>
      <trkpt lat="46.00557" lon="3.38377">
        <ele>326.69900512695</ele>
        <time>2021-03-27T11:43:34.097Z</time>
      </trkpt>
      <trkpt lat="46.00555" lon="3.38389">
        <ele>327.10208129883</ele>
        <time>2021-03-27T11:43:40.209Z</time>
      </trkpt>
      <trkpt lat="46.00552" lon="3.38428">
        <ele>328.53448486328</ele>
        <time>2021-03-27T11:43:46.327Z</time>
      </trkpt>
      <trkpt lat="46.00547" lon="3.3848">
        <ele>329.18280029297</ele>
        <time>2021-03-27T11:43:52.452Z</time>
      </trkpt>
      <trkpt lat="46.00541" lon="3.38535">
        <ele>329.38900756836</ele>
        <time>2021-03-27T11:43:58.585Z</time>
      </trkpt>
      <trkpt lat="46.00538" lon="3.38564">
        <ele>330.40393066406</ele>
        <time>2021-03-27T11:44:04.722Z</time>
      </trkpt>
      <trkpt lat="46.00537" lon="3.38585">
        <ele>331.18490600586</ele>
        <time>2021-03-27T11:44:10.862Z</time>
      </trkpt>
      <trkpt lat="46.00536" lon="3.38595">
        <ele>331.54840087891</ele>
        <time>2021-03-27T11:44:17.003Z</time>
      </trkpt>
      <trkpt lat="46.00535" lon="3.38602">
        <ele>331.78955078125</ele>
        <time>2021-03-27T11:44:23.145Z</time>
      </trkpt>
      <trkpt lat="46.00533" lon="3.38609">
        <ele>332.02346801758</ele>
        <time>2021-03-27T11:44:29.288Z</time>
      </trkpt>
      <trkpt lat="46.0053" lon="3.38615">
        <ele>332.23941040039</ele>
        <time>2021-03-27T11:44:35.432Z</time>
      </trkpt>
      <trkpt lat="46.00526" lon="3.38619">
        <ele>332.39416503906</ele>
        <time>2021-03-27T11:44:41.578Z</time>
      </trkpt>
      <trkpt lat="46.00519" lon="3.38624">
        <ele>332.16787719727</ele>
        <time>2021-03-27T11:44:47.725Z</time>
      </trkpt>
      <trkpt lat="46.00529" lon="3.38631">
        <ele>332.53857421875</ele>
        <time>2021-03-27T11:44:53.874Z</time>
      </trkpt>
      <trkpt lat="46.00519" lon="3.38624">
        <ele>332.16787719727</ele>
        <time>2021-03-27T11:45:00.026Z</time>
      </trkpt>
      <trkpt lat="46.00509" lon="3.38618">
        <ele>331.82595825195</ele>
        <time>2021-03-27T11:45:06.180Z</time>
      </trkpt>
      <trkpt lat="46.005" lon="3.38612">
        <ele>331.48767089844</ele>
        <time>2021-03-27T11:45:12.336Z</time>
      </trkpt>
      <trkpt lat="46.00491" lon="3.38607">
        <ele>331.17095947266</ele>
        <time>2021-03-27T11:45:18.494Z</time>
      </trkpt>
      <trkpt lat="46.00482" lon="3.38603">
        <ele>330.82904052734</ele>
        <time>2021-03-27T11:45:24.654Z</time>
      </trkpt>
      <trkpt lat="46.00473" lon="3.38599">
        <ele>330.68157958984</ele>
        <time>2021-03-27T11:45:30.815Z</time>
      </trkpt>
      <trkpt lat="46.00462" lon="3.38596">
        <ele>330.57720947266</ele>
        <time>2021-03-27T11:45:36.979Z</time>
      </trkpt>
      <trkpt lat="46.00454" lon="3.38595">
        <ele>330.52322387695</ele>
        <time>2021-03-27T11:45:43.144Z</time>
      </trkpt>
      <trkpt lat="46.00445" lon="3.38593">
        <ele>330.47283935547</ele>
        <time>2021-03-27T11:45:49.311Z</time>
      </trkpt>
      <trkpt lat="46.00438" lon="3.38594">
        <ele>330.49084472656</ele>
        <time>2021-03-27T11:45:55.480Z</time>
      </trkpt>
      <trkpt lat="46.00426" lon="3.38596">
        <ele>330.73840332031</ele>
        <time>2021-03-27T11:46:01.651Z</time>
      </trkpt>
      <trkpt lat="46.00421" lon="3.38598">
        <ele>331</ele>
        <time>2021-03-27T11:46:07.823Z</time>
      </trkpt>
      <trkpt lat="46.00414" lon="3.38601">
        <ele>331</ele>
        <time>2021-03-27T11:46:13.996Z</time>
      </trkpt>
      <trkpt lat="46.00406" lon="3.38606">
        <ele>331</ele>
        <time>2021-03-27T11:46:20.171Z</time>
      </trkpt>
      <trkpt lat="46.00401" lon="3.3861">
        <ele>330.86517333984</ele>
        <time>2021-03-27T11:46:26.347Z</time>
      </trkpt>
      <trkpt lat="46.00396" lon="3.38616">
        <ele>330.48727416992</ele>
        <time>2021-03-27T11:46:32.525Z</time>
      </trkpt>
      <trkpt lat="46.00391" lon="3.38622">
        <ele>330.08059692383</ele>
        <time>2021-03-27T11:46:38.704Z</time>
      </trkpt>
      <trkpt lat="46.00387" lon="3.38629">
        <ele>330</ele>
        <time>2021-03-27T11:46:44.884Z</time>
      </trkpt>
      <trkpt lat="46.00382" lon="3.38638">
        <ele>330</ele>
        <time>2021-03-27T11:46:51.066Z</time>
      </trkpt>
      <trkpt lat="46.00377" lon="3.38647">
        <ele>330</ele>
        <time>2021-03-27T11:46:57.249Z</time>
      </trkpt>
      <trkpt lat="46.00373" lon="3.38658">
        <ele>329.90612792969</ele>
        <time>2021-03-27T11:47:03.434Z</time>
      </trkpt>
      <trkpt lat="46.00368" lon="3.38669">
        <ele>329.54690551758</ele>
        <time>2021-03-27T11:47:09.621Z</time>
      </trkpt>
      <trkpt lat="46.00365" lon="3.38676">
        <ele>329.19421386719</ele>
        <time>2021-03-27T11:47:15.809Z</time>
      </trkpt>
      <trkpt lat="46.0036" lon="3.38683">
        <ele>329</ele>
        <time>2021-03-27T11:47:21.999Z</time>
      </trkpt>
      <trkpt lat="46.00354" lon="3.38689">
        <ele>329</ele>
        <time>2021-03-27T11:47:28.190Z</time>
      </trkpt>
      <trkpt lat="46.0035" lon="3.38694">
        <ele>328.99572753906</ele>
        <time>2021-03-27T11:47:34.382Z</time>
      </trkpt>
      <trkpt lat="46.00344" lon="3.38697">
        <ele>328.56304931641</ele>
        <time>2021-03-27T11:47:40.575Z</time>
      </trkpt>
      <trkpt lat="46.00335" lon="3.38701">
        <ele>327.73526000977</ele>
        <time>2021-03-27T11:47:46.770Z</time>
      </trkpt>
      <trkpt lat="46.00319" lon="3.38708">
        <ele>327</ele>
        <time>2021-03-27T11:47:52.968Z</time>
      </trkpt>
      <trkpt lat="46.00307" lon="3.38713">
        <ele>327</ele>
        <time>2021-03-27T11:47:59.169Z</time>
      </trkpt>
      <trkpt lat="46.00293" lon="3.38722">
        <ele>326.90963745117</ele>
        <time>2021-03-27T11:48:05.373Z</time>
      </trkpt>
      <trkpt lat="46.00273" lon="3.38736">
        <ele>326.39138793945</ele>
        <time>2021-03-27T11:48:11.582Z</time>
      </trkpt>
      <trkpt lat="46.00245" lon="3.38754">
        <ele>325.7399597168</ele>
        <time>2021-03-27T11:48:17.797Z</time>
      </trkpt>
      <trkpt lat="46.00227" lon="3.38766">
        <ele>324.01293945312</ele>
        <time>2021-03-27T11:48:24.016Z</time>
      </trkpt>
      <trkpt lat="46.00211" lon="3.38776">
        <ele>322.11267089844</ele>
        <time>2021-03-27T11:48:30.238Z</time>
      </trkpt>
      <trkpt lat="46.00198" lon="3.38784">
        <ele>321.67825317383</ele>
        <time>2021-03-27T11:48:36.463Z</time>
      </trkpt>
      <trkpt lat="46.00185" lon="3.38791">
        <ele>321.41552734375</ele>
        <time>2021-03-27T11:48:42.691Z</time>
      </trkpt>
      <trkpt lat="46.00177" lon="3.38794">
        <ele>321.29678344727</ele>
        <time>2021-03-27T11:48:48.920Z</time>
      </trkpt>
      <trkpt lat="46.0017" lon="3.38798">
        <ele>321.1780090332</ele>
        <time>2021-03-27T11:48:55.151Z</time>
      </trkpt>
      <trkpt lat="46.00162" lon="3.38799">
        <ele>321.12042236328</ele>
        <time>2021-03-27T11:49:01.383Z</time>
      </trkpt>
      <trkpt lat="46.00152" lon="3.38801">
        <ele>321.09970092773</ele>
        <time>2021-03-27T11:49:07.617Z</time>
      </trkpt>
      <trkpt lat="46.0014" lon="3.38802">
        <ele>321.0680847168</ele>
        <time>2021-03-27T11:49:13.854Z</time>
      </trkpt>
      <trkpt lat="46.00126" lon="3.38802">
        <ele>321.0680847168</ele>
        <time>2021-03-27T11:49:20.094Z</time>
      </trkpt>
      <trkpt lat="46.00112" lon="3.38801">
        <ele>321.0700378418</ele>
        <time>2021-03-27T11:49:26.336Z</time>
      </trkpt>
      <trkpt lat="46.00099" lon="3.38799">
        <ele>321.14202880859</ele>
        <time>2021-03-27T11:49:32.581Z</time>
      </trkpt>
      <trkpt lat="46.00089" lon="3.38796">
        <ele>321.1633605957</ele>
        <time>2021-03-27T11:49:38.828Z</time>
      </trkpt>
      <trkpt lat="46.0008" lon="3.38793">
        <ele>321.05178833008</ele>
        <time>2021-03-27T11:49:45.077Z</time>
      </trkpt>
      <trkpt lat="46.00067" lon="3.38788">
        <ele>320.96182250977</ele>
        <time>2021-03-27T11:49:51.329Z</time>
      </trkpt>
      <trkpt lat="46.00054" lon="3.38781">
        <ele>320.97259521484</ele>
        <time>2021-03-27T11:49:57.583Z</time>
      </trkpt>
      <trkpt lat="46.00045" lon="3.38776">
        <ele>321.04458618164</ele>
        <time>2021-03-27T11:50:03.839Z</time>
      </trkpt>
      <trkpt lat="46.00038" lon="3.38771">
        <ele>321.01000976562</ele>
        <time>2021-03-27T11:50:10.097Z</time>
      </trkpt>
      <trkpt lat="46.00033" lon="3.38767">
        <ele>320.98843383789</ele>
        <time>2021-03-27T11:50:16.356Z</time>
      </trkpt>
      <trkpt lat="46.00027" lon="3.38761">
        <ele>320.97763061523</ele>
        <time>2021-03-27T11:50:22.617Z</time>
      </trkpt>
      <trkpt lat="46.0002" lon="3.38752">
        <ele>321.02801513672</ele>
        <time>2021-03-27T11:50:28.879Z</time>
      </trkpt>
      <trkpt lat="46.00012" lon="3.3874">
        <ele>321.15759277344</ele>
        <time>2021-03-27T11:50:35.144Z</time>
      </trkpt>
      <trkpt lat="46.00002" lon="3.38725">
        <ele>321.34112548828</ele>
        <time>2021-03-27T11:50:41.412Z</time>
      </trkpt>
      <trkpt lat="45.99995" lon="3.38715">
        <ele>322</ele>
        <time>2021-03-27T11:50:47.682Z</time>
      </trkpt>
      <trkpt lat="45.99988" lon="3.38706">
        <ele>322</ele>
        <time>2021-03-27T11:50:53.953Z</time>
      </trkpt>
      <trkpt lat="45.99978" lon="3.38696">
        <ele>322.38473510742</ele>
        <time>2021-03-27T11:51:00.227Z</time>
      </trkpt>
      <trkpt lat="45.99973" lon="3.38692">
        <ele>322.51071166992</ele>
        <time>2021-03-27T11:51:06.502Z</time>
      </trkpt>
      <trkpt lat="45.99969" lon="3.3869">
        <ele>322.47109985352</ele>
        <time>2021-03-27T11:51:12.778Z</time>
      </trkpt>
      <trkpt lat="45.99966" lon="3.3869">
        <ele>322.39553833008</ele>
        <time>2021-03-27T11:51:19.055Z</time>
      </trkpt>
      <trkpt lat="45.9996" lon="3.3869">
        <ele>322.12921142578</ele>
        <time>2021-03-27T11:51:25.333Z</time>
      </trkpt>
      <trkpt lat="45.9996" lon="3.38694">
        <ele>321.90246582031</ele>
        <time>2021-03-27T11:51:31.611Z</time>
      </trkpt>
      <trkpt lat="45.9996" lon="3.38701">
        <ele>321.34103393555</ele>
        <time>2021-03-27T11:51:37.890Z</time>
      </trkpt>
      <trkpt lat="45.9996" lon="3.38694">
        <ele>321.90246582031</ele>
        <time>2021-03-27T11:51:44.170Z</time>
      </trkpt>
      <trkpt lat="45.9996" lon="3.3869">
        <ele>322.12921142578</ele>
        <time>2021-03-27T11:51:50.451Z</time>
      </trkpt>
      <trkpt lat="45.9996" lon="3.38688">
        <ele>322.26596069336</ele>
        <time>2021-03-27T11:51:56.732Z</time>
      </trkpt>
      <trkpt lat="45.99958" lon="3.38682">
        <ele>322.70272827148</ele>
        <time>2021-03-27T11:52:03.014Z</time>
      </trkpt>
      <trkpt lat="45.99956" lon="3.38678">
        <ele>323.0446472168</ele>
        <time>2021-03-27T11:52:09.297Z</time>
      </trkpt>
      <trkpt lat="45.99952" lon="3.38674">
        <ele>323.47653198242</ele>
        <time>2021-03-27T11:52:15.581Z</time>
      </trkpt>
      <trkpt lat="45.99925" lon="3.38651">
        <ele>325</ele>
        <time>2021-03-27T11:52:21.871Z</time>
      </trkpt>
      <trkpt lat="45.99911" lon="3.3864">
        <ele>325</ele>
        <time>2021-03-27T11:52:28.164Z</time>
      </trkpt>
      <trkpt lat="45.99881" lon="3.38617">
        <ele>326.45687866211</ele>
        <time>2021-03-27T11:52:34.464Z</time>
      </trkpt>
      <trkpt lat="45.9987" lon="3.38608">
        <ele>327.15869140625</ele>
        <time>2021-03-27T11:52:40.766Z</time>
      </trkpt>
      <trkpt lat="45.99849" lon="3.3859">
        <ele>328.56228637695</ele>
        <time>2021-03-27T11:52:47.073Z</time>
      </trkpt>
      <trkpt lat="45.99839" lon="3.38582">
        <ele>329.22451782227</ele>
        <time>2021-03-27T11:52:53.383Z</time>
      </trkpt>
      <trkpt lat="45.99833" lon="3.38577">
        <ele>329.50659179688</ele>
        <time>2021-03-27T11:52:59.694Z</time>
      </trkpt>
      <trkpt lat="45.99814" lon="3.38561">
        <ele>330.20120239258</ele>
        <time>2021-03-27T11:53:06.010Z</time>
      </trkpt>
      <trkpt lat="45.99798" lon="3.38549">
        <ele>330.90936279297</ele>
        <time>2021-03-27T11:53:12.329Z</time>
      </trkpt>
      <trkpt lat="45.99786" lon="3.38541">
        <ele>331.21133422852</ele>
        <time>2021-03-27T11:53:18.651Z</time>
      </trkpt>
      <trkpt lat="45.99777" lon="3.38536">
        <ele>331.04217529297</ele>
        <time>2021-03-27T11:53:24.975Z</time>
      </trkpt>
      <trkpt lat="45.99766" lon="3.38532">
        <ele>330.82263183594</ele>
        <time>2021-03-27T11:53:31.301Z</time>
      </trkpt>
      <trkpt lat="45.99761" lon="3.3853">
        <ele>330.80892944336</ele>
        <time>2021-03-27T11:53:37.628Z</time>
      </trkpt>
      <trkpt lat="45.99755" lon="3.38528">
        <ele>330.88092041016</ele>
        <time>2021-03-27T11:53:43.956Z</time>
      </trkpt>
      <trkpt lat="45.99741" lon="3.38523">
        <ele>331.12173461914</ele>
        <time>2021-03-27T11:53:50.287Z</time>
      </trkpt>
      <trkpt lat="45.99724" lon="3.38517">
        <ele>331.73510742188</ele>
        <time>2021-03-27T11:53:56.622Z</time>
      </trkpt>
      <trkpt lat="45.99706" lon="3.38509">
        <ele>332.67083740234</ele>
        <time>2021-03-27T11:54:02.960Z</time>
      </trkpt>
      <trkpt lat="45.99689" lon="3.38499">
        <ele>333.62457275391</ele>
        <time>2021-03-27T11:54:09.302Z</time>
      </trkpt>
      <trkpt lat="45.99662" lon="3.38481">
        <ele>334</ele>
        <time>2021-03-27T11:54:15.650Z</time>
      </trkpt>
      <trkpt lat="45.99645" lon="3.38468">
        <ele>333.43298339844</ele>
        <time>2021-03-27T11:54:22.002Z</time>
      </trkpt>
      <trkpt lat="45.99623" lon="3.38449">
        <ele>331.9462890625</ele>
        <time>2021-03-27T11:54:28.359Z</time>
      </trkpt>
      <trkpt lat="45.99595" lon="3.38422">
        <ele>330.85556030273</ele>
        <time>2021-03-27T11:54:34.723Z</time>
      </trkpt>
      <trkpt lat="45.99579" lon="3.38405">
        <ele>329.70388793945</ele>
        <time>2021-03-27T11:54:41.091Z</time>
      </trkpt>
      <trkpt lat="45.99573" lon="3.38398">
        <ele>329.25042724609</ele>
        <time>2021-03-27T11:54:47.460Z</time>
      </trkpt>
      <trkpt lat="45.99558" lon="3.38377">
        <ele>328.1491394043</ele>
        <time>2021-03-27T11:54:53.834Z</time>
      </trkpt>
      <trkpt lat="45.99552" lon="3.38368">
        <ele>327.74450683594</ele>
        <time>2021-03-27T11:55:00.209Z</time>
      </trkpt>
      <trkpt lat="45.99543" lon="3.38354">
        <ele>327.03829956055</ele>
        <time>2021-03-27T11:55:06.587Z</time>
      </trkpt>
      <trkpt lat="45.99539" lon="3.38349">
        <ele>326.92315673828</ele>
        <time>2021-03-27T11:55:12.966Z</time>
      </trkpt>
      <trkpt lat="45.99526" lon="3.38326">
        <ele>326.43008422852</ele>
        <time>2021-03-27T11:55:19.349Z</time>
      </trkpt>
      <trkpt lat="45.9951" lon="3.38297">
        <ele>325.65243530273</ele>
        <time>2021-03-27T11:55:25.737Z</time>
      </trkpt>
      <trkpt lat="45.99499" lon="3.38277">
        <ele>324.52954101562</ele>
        <time>2021-03-27T11:55:32.129Z</time>
      </trkpt>
      <trkpt lat="45.99494" lon="3.3827">
        <ele>324.13366699219</ele>
        <time>2021-03-27T11:55:38.522Z</time>
      </trkpt>
      <trkpt lat="45.99486" lon="3.38256">
        <ele>323.2724609375</ele>
        <time>2021-03-27T11:55:44.918Z</time>
      </trkpt>
      <trkpt lat="45.99481" lon="3.38259">
        <ele>322.92333984375</ele>
        <time>2021-03-27T11:55:51.315Z</time>
      </trkpt>
      <trkpt lat="45.99476" lon="3.38263">
        <ele>322.5598449707</ele>
        <time>2021-03-27T11:55:57.713Z</time>
      </trkpt>
      <trkpt lat="45.99481" lon="3.38259">
        <ele>322.92333984375</ele>
        <time>2021-03-27T11:56:04.112Z</time>
      </trkpt>
      <trkpt lat="45.99486" lon="3.38256">
        <ele>323.2724609375</ele>
        <time>2021-03-27T11:56:10.512Z</time>
      </trkpt>
      <trkpt lat="45.9949" lon="3.38252">
        <ele>323.3346862793</ele>
        <time>2021-03-27T11:56:16.913Z</time>
      </trkpt>
      <trkpt lat="45.99501" lon="3.38244">
        <ele>323.83001708984</ele>
        <time>2021-03-27T11:56:23.316Z</time>
      </trkpt>
      <trkpt lat="45.9951" lon="3.38238">
        <ele>323.98788452148</ele>
        <time>2021-03-27T11:56:29.721Z</time>
      </trkpt>
      <trkpt lat="45.9952" lon="3.38233">
        <ele>324.2038269043</ele>
        <time>2021-03-27T11:56:36.129Z</time>
      </trkpt>
      <trkpt lat="45.9953" lon="3.38228">
        <ele>324.76531982422</ele>
        <time>2021-03-27T11:56:42.539Z</time>
      </trkpt>
      <trkpt lat="45.99537" lon="3.38226">
        <ele>325.5426940918</ele>
        <time>2021-03-27T11:56:48.950Z</time>
      </trkpt>
      <trkpt lat="45.99547" lon="3.38224">
        <ele>326.34600830078</ele>
        <time>2021-03-27T11:56:55.363Z</time>
      </trkpt>
      <trkpt lat="45.99563" lon="3.3822">
        <ele>326.83187866211</ele>
        <time>2021-03-27T11:57:01.779Z</time>
      </trkpt>
      <trkpt lat="45.99588" lon="3.38217">
        <ele>326.85238647461</ele>
        <time>2021-03-27T11:57:08.200Z</time>
      </trkpt>
      <trkpt lat="45.99612" lon="3.38214">
        <ele>327.70849609375</ele>
        <time>2021-03-27T11:57:14.626Z</time>
      </trkpt>
      <trkpt lat="45.99639" lon="3.3821">
        <ele>329.79620361328</ele>
        <time>2021-03-27T11:57:21.058Z</time>
      </trkpt>
      <trkpt lat="45.99643" lon="3.38209">
        <ele>330.25326538086</ele>
        <time>2021-03-27T11:57:27.491Z</time>
      </trkpt>
      <trkpt lat="45.99641" lon="3.38203">
        <ele>329.54067993164</ele>
        <time>2021-03-27T11:57:33.924Z</time>
      </trkpt>
      <trkpt lat="45.9964" lon="3.38201">
        <ele>329.28872680664</ele>
        <time>2021-03-27T11:57:40.358Z</time>
      </trkpt>
      <trkpt lat="45.99638" lon="3.38198">
        <ele>328.93603515625</ele>
        <time>2021-03-27T11:57:46.792Z</time>
      </trkpt>
      <trkpt lat="45.99636" lon="3.38192">
        <ele>328.21984863281</ele>
        <time>2021-03-27T11:57:53.227Z</time>
      </trkpt>
      <trkpt lat="45.99631" lon="3.38181">
        <ele>326.59436035156</ele>
        <time>2021-03-27T11:57:59.664Z</time>
      </trkpt>
      <trkpt lat="45.99626" lon="3.38168">
        <ele>324.53210449219</ele>
        <time>2021-03-27T11:58:06.103Z</time>
      </trkpt>
      <trkpt lat="45.99609" lon="3.38132">
        <ele>318.82086181641</ele>
        <time>2021-03-27T11:58:12.548Z</time>
      </trkpt>
      <trkpt lat="45.99591" lon="3.38093">
        <ele>311.1188659668</ele>
        <time>2021-03-27T11:58:19.000Z</time>
      </trkpt>
      <trkpt lat="45.9958" lon="3.38072">
        <ele>307.57189941406</ele>
        <time>2021-03-27T11:58:25.455Z</time>
      </trkpt>
      <trkpt lat="45.99569" lon="3.38049">
        <ele>305.12371826172</ele>
        <time>2021-03-27T11:58:31.914Z</time>
      </trkpt>
      <trkpt lat="45.99564" lon="3.38038">
        <ele>305.53039550781</ele>
        <time>2021-03-27T11:58:38.375Z</time>
      </trkpt>
      <trkpt lat="45.99561" lon="3.38031">
        <ele>305.77514648438</ele>
        <time>2021-03-27T11:58:44.837Z</time>
      </trkpt>
      <trkpt lat="45.9956" lon="3.38026">
        <ele>305.96228027344</ele>
        <time>2021-03-27T11:58:51.300Z</time>
      </trkpt>
      <trkpt lat="45.99556" lon="3.38006">
        <ele>307.12551879883</ele>
        <time>2021-03-27T11:58:57.766Z</time>
      </trkpt>
      <trkpt lat="45.99549" lon="3.37966">
        <ele>308.96752929688</ele>
        <time>2021-03-27T11:59:04.238Z</time>
      </trkpt>
      <trkpt lat="45.99539" lon="3.37913">
        <ele>313.13876342773</ele>
        <time>2021-03-27T11:59:10.717Z</time>
      </trkpt>
      <trkpt lat="45.99527" lon="3.37857">
        <ele>316.560546875</ele>
        <time>2021-03-27T11:59:17.205Z</time>
      </trkpt>
      <trkpt lat="45.99518" lon="3.37812">
        <ele>318.32583618164</ele>
        <time>2021-03-27T11:59:23.699Z</time>
      </trkpt>
      <trkpt lat="45.99509" lon="3.37762">
        <ele>320.60580444336</ele>
        <time>2021-03-27T11:59:30.200Z</time>
      </trkpt>
      <trkpt lat="45.99501" lon="3.37722">
        <ele>322.35131835938</ele>
        <time>2021-03-27T11:59:36.707Z</time>
      </trkpt>
      <trkpt lat="45.99488" lon="3.37653">
        <ele>323.91955566406</ele>
        <time>2021-03-27T11:59:43.224Z</time>
      </trkpt>
      <trkpt lat="45.99483" lon="3.37624">
        <ele>324.53695678711</ele>
        <time>2021-03-27T11:59:49.745Z</time>
      </trkpt>
      <trkpt lat="45.9948" lon="3.376">
        <ele>325.22906494141</ele>
        <time>2021-03-27T11:59:56.270Z</time>
      </trkpt>
      <trkpt lat="45.99481" lon="3.37601">
        <ele>325.18588256836</ele>
        <time>2021-03-27T12:00:02.795Z</time>
      </trkpt>
      <trkpt lat="45.9948" lon="3.376">
        <ele>325.22906494141</ele>
        <time>2021-03-27T12:00:09.320Z</time>
      </trkpt>
      <trkpt lat="45.99456" lon="3.37581">
        <ele>326</ele>
        <time>2021-03-27T12:00:15.851Z</time>
      </trkpt>
      <trkpt lat="45.99446" lon="3.37573">
        <ele>325.74862670898</ele>
        <time>2021-03-27T12:00:22.384Z</time>
      </trkpt>
      <trkpt lat="45.99441" lon="3.37569">
        <ele>325.59027099609</ele>
        <time>2021-03-27T12:00:28.918Z</time>
      </trkpt>
      <trkpt lat="45.99437" lon="3.37563">
        <ele>325.40673828125</ele>
        <time>2021-03-27T12:00:35.453Z</time>
      </trkpt>
      <trkpt lat="45.99433" lon="3.37557">
        <ele>325.18359375</ele>
        <time>2021-03-27T12:00:41.989Z</time>
      </trkpt>
      <trkpt lat="45.99431" lon="3.37554">
        <ele>325.06121826172</ele>
        <time>2021-03-27T12:00:48.526Z</time>
      </trkpt>
      <trkpt lat="45.99424" lon="3.3754">
        <ele>324.72714233398</ele>
        <time>2021-03-27T12:00:55.065Z</time>
      </trkpt>
      <trkpt lat="45.99418" lon="3.37526">
        <ele>324.61557006836</ele>
        <time>2021-03-27T12:01:01.607Z</time>
      </trkpt>
      <trkpt lat="45.99414" lon="3.37517">
        <ele>324.26239013672</ele>
        <time>2021-03-27T12:01:08.150Z</time>
      </trkpt>
      <trkpt lat="45.99411" lon="3.37511">
        <ele>323.90606689453</ele>
        <time>2021-03-27T12:01:14.694Z</time>
      </trkpt>
      <trkpt lat="45.99407" lon="3.37505">
        <ele>323.49578857422</ele>
        <time>2021-03-27T12:01:21.239Z</time>
      </trkpt>
      <trkpt lat="45.99395" lon="3.37487">
        <ele>322.48187255859</ele>
        <time>2021-03-27T12:01:27.788Z</time>
      </trkpt>
      <trkpt lat="45.99382" lon="3.3747">
        <ele>321.71170043945</ele>
        <time>2021-03-27T12:01:34.340Z</time>
      </trkpt>
      <trkpt lat="45.99374" lon="3.37457">
        <ele>320.85720825195</ele>
        <time>2021-03-27T12:01:40.895Z</time>
      </trkpt>
      <trkpt lat="45.99368" lon="3.37447">
        <ele>320.24179077148</ele>
        <time>2021-03-27T12:01:47.451Z</time>
      </trkpt>
      <trkpt lat="45.99364" lon="3.37438">
        <ele>319.77749633789</ele>
        <time>2021-03-27T12:01:54.009Z</time>
      </trkpt>
      <trkpt lat="45.99359" lon="3.37428">
        <ele>319.30242919922</ele>
        <time>2021-03-27T12:02:00.569Z</time>
      </trkpt>
      <trkpt lat="45.99354" lon="3.37415">
        <ele>318.59939575195</ele>
        <time>2021-03-27T12:02:07.131Z</time>
      </trkpt>
      <trkpt lat="45.99347" lon="3.37393">
        <ele>317.26416015625</ele>
        <time>2021-03-27T12:02:13.696Z</time>
      </trkpt>
      <trkpt lat="45.99344" lon="3.37385">
        <ele>316.7453918457</ele>
        <time>2021-03-27T12:02:20.262Z</time>
      </trkpt>
      <trkpt lat="45.99339" lon="3.37376">
        <ele>316.3801574707</ele>
        <time>2021-03-27T12:02:26.830Z</time>
      </trkpt>
      <trkpt lat="45.99334" lon="3.3737">
        <ele>315.96987915039</ele>
        <time>2021-03-27T12:02:33.399Z</time>
      </trkpt>
      <trkpt lat="45.99329" lon="3.37366">
        <ele>315.63516235352</ele>
        <time>2021-03-27T12:02:39.969Z</time>
      </trkpt>
      <trkpt lat="45.99322" lon="3.37363">
        <ele>315.21942138672</ele>
        <time>2021-03-27T12:02:46.541Z</time>
      </trkpt>
      <trkpt lat="45.99317" lon="3.37362">
        <ele>314.72451782227</ele>
        <time>2021-03-27T12:02:53.114Z</time>
      </trkpt>
      <trkpt lat="45.99295" lon="3.37361">
        <ele>312.39236450195</ele>
        <time>2021-03-27T12:02:59.691Z</time>
      </trkpt>
      <trkpt lat="45.99242" lon="3.3736">
        <ele>306.59799194336</ele>
        <time>2021-03-27T12:03:06.279Z</time>
      </trkpt>
      <trkpt lat="45.99201" lon="3.3736">
        <ele>302.744140625</ele>
        <time>2021-03-27T12:03:12.875Z</time>
      </trkpt>
      <trkpt lat="45.99157" lon="3.37358">
        <ele>300.2995300293</ele>
        <time>2021-03-27T12:03:19.480Z</time>
      </trkpt>
      <trkpt lat="45.99125" lon="3.37358">
        <ele>298.02496337891</ele>
        <time>2021-03-27T12:03:26.091Z</time>
      </trkpt>
      <trkpt lat="45.99125" lon="3.3735">
        <ele>298.03936767578</ele>
        <time>2021-03-27T12:03:32.703Z</time>
      </trkpt>
      <trkpt lat="45.99125" lon="3.37358">
        <ele>298.02496337891</ele>
        <time>2021-03-27T12:03:39.317Z</time>
      </trkpt>
      <trkpt lat="45.99123" lon="3.37397">
        <ele>297.94769287109</ele>
        <time>2021-03-27T12:03:45.936Z</time>
      </trkpt>
      <trkpt lat="45.99114" lon="3.37397">
        <ele>297.5950012207</ele>
        <time>2021-03-27T12:03:52.557Z</time>
      </trkpt>
      <trkpt lat="45.99069" lon="3.374">
        <ele>296.47467041016</ele>
        <time>2021-03-27T12:03:59.187Z</time>
      </trkpt>
      <trkpt lat="45.99007" lon="3.37404">
        <ele>297.39813232422</ele>
        <time>2021-03-27T12:04:05.829Z</time>
      </trkpt>
      <trkpt lat="45.98998" lon="3.37404">
        <ele>297.8955078125</ele>
        <time>2021-03-27T12:04:12.473Z</time>
      </trkpt>
      <trkpt lat="45.98971" lon="3.37406">
        <ele>299.05276489258</ele>
        <time>2021-03-27T12:04:19.122Z</time>
      </trkpt>
      <trkpt lat="45.98949" lon="3.37407">
        <ele>300.31814575195</ele>
        <time>2021-03-27T12:04:25.776Z</time>
      </trkpt>
      <trkpt lat="45.9894" lon="3.37407">
        <ele>300.63845825195</ele>
        <time>2021-03-27T12:04:32.432Z</time>
      </trkpt>
      <trkpt lat="45.98937" lon="3.37407">
        <ele>300.74282836914</ele>
        <time>2021-03-27T12:04:39.088Z</time>
      </trkpt>
      <trkpt lat="45.98935" lon="3.37395">
        <ele>300.84719848633</ele>
        <time>2021-03-27T12:04:45.746Z</time>
      </trkpt>
      <trkpt lat="45.98928" lon="3.37365">
        <ele>301.08474731445</ele>
        <time>2021-03-27T12:04:52.408Z</time>
      </trkpt>
      <trkpt lat="45.98924" lon="3.37342">
        <ele>301.23590087891</ele>
        <time>2021-03-27T12:04:59.074Z</time>
      </trkpt>
      <trkpt lat="45.98922" lon="3.37332">
        <ele>301.28628540039</ele>
        <time>2021-03-27T12:05:05.741Z</time>
      </trkpt>
      <trkpt lat="45.98922" lon="3.37331">
        <ele>301.29708862305</ele>
        <time>2021-03-27T12:05:12.408Z</time>
      </trkpt>
      <trkpt lat="45.98922" lon="3.3732">
        <ele>301.6301574707</ele>
        <time>2021-03-27T12:05:19.077Z</time>
      </trkpt>
      <trkpt lat="45.98921" lon="3.37309">
        <ele>301.63735961914</ele>
        <time>2021-03-27T12:05:25.747Z</time>
      </trkpt>
      <trkpt lat="45.98922" lon="3.37299">
        <ele>301.68521118164</ele>
        <time>2021-03-27T12:05:32.419Z</time>
      </trkpt>
      <trkpt lat="45.98924" lon="3.37282">
        <ele>302.14227294922</ele>
        <time>2021-03-27T12:05:39.093Z</time>
      </trkpt>
      <trkpt lat="45.98926" lon="3.37268">
        <ele>302.37423706055</ele>
        <time>2021-03-27T12:05:45.769Z</time>
      </trkpt>
      <trkpt lat="45.9893" lon="3.37248">
        <ele>302.94485473633</ele>
        <time>2021-03-27T12:05:52.448Z</time>
      </trkpt>
      <trkpt lat="45.98934" lon="3.37233">
        <ele>302.70162963867</ele>
        <time>2021-03-27T12:05:59.129Z</time>
      </trkpt>
      <trkpt lat="45.98938" lon="3.37223">
        <ele>302.56192016602</ele>
        <time>2021-03-27T12:06:05.812Z</time>
      </trkpt>
      <trkpt lat="45.98943" lon="3.37211">
        <ele>302.5412902832</ele>
        <time>2021-03-27T12:06:12.497Z</time>
      </trkpt>
      <trkpt lat="45.98945" lon="3.37202">
        <ele>302.45492553711</ele>
        <time>2021-03-27T12:06:19.183Z</time>
      </trkpt>
      <trkpt lat="45.98953" lon="3.37173">
        <ele>301.73342895508</ele>
        <time>2021-03-27T12:06:25.874Z</time>
      </trkpt>
      <trkpt lat="45.98957" lon="3.37157">
        <ele>300.84805297852</ele>
        <time>2021-03-27T12:06:32.567Z</time>
      </trkpt>
      <trkpt lat="45.98959" lon="3.37147">
        <ele>300.35861206055</ele>
        <time>2021-03-27T12:06:39.261Z</time>
      </trkpt>
      <trkpt lat="45.9896" lon="3.37139">
        <ele>299.99151611328</ele>
        <time>2021-03-27T12:06:45.956Z</time>
      </trkpt>
      <trkpt lat="45.9896" lon="3.37127">
        <ele>300.22515869141</ele>
        <time>2021-03-27T12:06:52.653Z</time>
      </trkpt>
      <trkpt lat="45.9896" lon="3.37117">
        <ele>300.58868408203</ele>
        <time>2021-03-27T12:06:59.352Z</time>
      </trkpt>
      <trkpt lat="45.98959" lon="3.371">
        <ele>300.98345947266</ele>
        <time>2021-03-27T12:07:06.053Z</time>
      </trkpt>
      <trkpt lat="45.98957" lon="3.3709">
        <ele>301.02304077148</ele>
        <time>2021-03-27T12:07:12.755Z</time>
      </trkpt>
      <trkpt lat="45.98957" lon="3.37079">
        <ele>301.07504272461</ele>
        <time>2021-03-27T12:07:19.459Z</time>
      </trkpt>
      <trkpt lat="45.98954" lon="3.37046">
        <ele>301.28359985352</ele>
        <time>2021-03-27T12:07:26.167Z</time>
      </trkpt>
      <trkpt lat="45.98951" lon="3.37">
        <ele>302.40557861328</ele>
        <time>2021-03-27T12:07:32.882Z</time>
      </trkpt>
      <trkpt lat="45.98948" lon="3.36968">
        <ele>303.75161743164</ele>
        <time>2021-03-27T12:07:39.601Z</time>
      </trkpt>
      <trkpt lat="45.98944" lon="3.36937">
        <ele>304.53750610352</ele>
        <time>2021-03-27T12:07:46.325Z</time>
      </trkpt>
      <trkpt lat="45.98941" lon="3.36916">
        <ele>305.11614990234</ele>
        <time>2021-03-27T12:07:53.052Z</time>
      </trkpt>
      <trkpt lat="45.98937" lon="3.36894">
        <ele>306.17425537109</ele>
        <time>2021-03-27T12:07:59.782Z</time>
      </trkpt>
      <trkpt lat="45.98933" lon="3.3687">
        <ele>306.09924316406</ele>
        <time>2021-03-27T12:08:06.515Z</time>
      </trkpt>
      <trkpt lat="45.98927" lon="3.36838">
        <ele>306.34060668945</ele>
        <time>2021-03-27T12:08:13.253Z</time>
      </trkpt>
      <trkpt lat="45.98922" lon="3.36814">
        <ele>306.88046264648</ele>
        <time>2021-03-27T12:08:19.995Z</time>
      </trkpt>
      <trkpt lat="45.9892" lon="3.36805">
        <ele>307.06399536133</ele>
        <time>2021-03-27T12:08:26.738Z</time>
      </trkpt>
      <trkpt lat="45.9892" lon="3.36799">
        <ele>307.27239990234</ele>
        <time>2021-03-27T12:08:33.482Z</time>
      </trkpt>
      <trkpt lat="45.98919" lon="3.36792">
        <ele>307.59271240234</ele>
        <time>2021-03-27T12:08:40.227Z</time>
      </trkpt>
      <trkpt lat="45.98919" lon="3.36791">
        <ele>307.64309692383</ele>
        <time>2021-03-27T12:08:46.972Z</time>
      </trkpt>
      <trkpt lat="45.98918" lon="3.36782">
        <ele>307.9921875</ele>
        <time>2021-03-27T12:08:53.718Z</time>
      </trkpt>
      <trkpt lat="45.98919" lon="3.36762">
        <ele>308.67602539062</ele>
        <time>2021-03-27T12:09:00.467Z</time>
      </trkpt>
      <trkpt lat="45.9892" lon="3.36732">
        <ele>309.13958740234</ele>
        <time>2021-03-27T12:09:07.220Z</time>
      </trkpt>
      <trkpt lat="45.9892" lon="3.36706">
        <ele>308.70935058594</ele>
        <time>2021-03-27T12:09:13.977Z</time>
      </trkpt>
      <trkpt lat="45.9892" lon="3.36692">
        <ele>308.73092651367</ele>
        <time>2021-03-27T12:09:20.736Z</time>
      </trkpt>
      <trkpt lat="45.98919" lon="3.36672">
        <ele>308.39065551758</ele>
        <time>2021-03-27T12:09:27.498Z</time>
      </trkpt>
      <trkpt lat="45.98918" lon="3.36646">
        <ele>308.45904541016</ele>
        <time>2021-03-27T12:09:34.263Z</time>
      </trkpt>
      <trkpt lat="45.98915" lon="3.36623">
        <ele>308.0891418457</ele>
        <time>2021-03-27T12:09:41.031Z</time>
      </trkpt>
      <trkpt lat="45.98914" lon="3.36606">
        <ele>307.54931640625</ele>
        <time>2021-03-27T12:09:47.802Z</time>
      </trkpt>
      <trkpt lat="45.98913" lon="3.36596">
        <ele>307.18218994141</ele>
        <time>2021-03-27T12:09:54.574Z</time>
      </trkpt>
      <trkpt lat="45.98913" lon="3.36582">
        <ele>307</ele>
        <time>2021-03-27T12:10:01.348Z</time>
      </trkpt>
      <trkpt lat="45.98914" lon="3.36552">
        <ele>306.58575439453</ele>
        <time>2021-03-27T12:10:08.126Z</time>
      </trkpt>
      <trkpt lat="45.98914" lon="3.36536">
        <ele>307.16159057617</ele>
        <time>2021-03-27T12:10:14.906Z</time>
      </trkpt>
      <trkpt lat="45.98912" lon="3.36522">
        <ele>307.81069946289</ele>
        <time>2021-03-27T12:10:21.689Z</time>
      </trkpt>
      <trkpt lat="45.9891" lon="3.3651">
        <ele>308.72125244141</ele>
        <time>2021-03-27T12:10:28.473Z</time>
      </trkpt>
      <trkpt lat="45.98908" lon="3.36501">
        <ele>309.50942993164</ele>
        <time>2021-03-27T12:10:35.259Z</time>
      </trkpt>
      <trkpt lat="45.98901" lon="3.36485">
        <ele>310.35562133789</ele>
        <time>2021-03-27T12:10:42.047Z</time>
      </trkpt>
      <trkpt lat="45.98916" lon="3.36474">
        <ele>310.31021118164</ele>
        <time>2021-03-27T12:10:48.838Z</time>
      </trkpt>
      <trkpt lat="45.98926" lon="3.36467">
        <ele>310.15313720703</ele>
        <time>2021-03-27T12:10:55.632Z</time>
      </trkpt>
      <trkpt lat="45.98932" lon="3.36463">
        <ele>309.86553955078</ele>
        <time>2021-03-27T12:11:02.427Z</time>
      </trkpt>
      <trkpt lat="45.98936" lon="3.36458">
        <ele>309.34729003906</ele>
        <time>2021-03-27T12:11:09.223Z</time>
      </trkpt>
      <trkpt lat="45.9894" lon="3.36454">
        <ele>308.94778442383</ele>
        <time>2021-03-27T12:11:16.020Z</time>
      </trkpt>
      <trkpt lat="45.98944" lon="3.3645">
        <ele>308.53750610352</ele>
        <time>2021-03-27T12:11:22.818Z</time>
      </trkpt>
      <trkpt lat="45.98946" lon="3.36446">
        <ele>308.25677490234</ele>
        <time>2021-03-27T12:11:29.617Z</time>
      </trkpt>
      <trkpt lat="45.9895" lon="3.3644">
        <ele>307.92208862305</ele>
        <time>2021-03-27T12:11:36.417Z</time>
      </trkpt>
      <trkpt lat="45.98953" lon="3.36433">
        <ele>307.58737182617</ele>
        <time>2021-03-27T12:11:43.218Z</time>
      </trkpt>
      <trkpt lat="45.98957" lon="3.36415">
        <ele>307.07992553711</ele>
        <time>2021-03-27T12:11:50.022Z</time>
      </trkpt>
      <trkpt lat="45.98962" lon="3.3639">
        <ele>307.55331420898</ele>
        <time>2021-03-27T12:11:56.829Z</time>
      </trkpt>
      <trkpt lat="45.98964" lon="3.36377">
        <ele>307.58541870117</ele>
        <time>2021-03-27T12:12:03.638Z</time>
      </trkpt>
      <trkpt lat="45.98964" lon="3.36374">
        <ele>307.57821655273</ele>
        <time>2021-03-27T12:12:10.447Z</time>
      </trkpt>
      <trkpt lat="45.98965" lon="3.36346">
        <ele>307.06274414062</ele>
        <time>2021-03-27T12:12:17.260Z</time>
      </trkpt>
      <trkpt lat="45.98967" lon="3.3631">
        <ele>306.64114379883</ele>
        <time>2021-03-27T12:12:24.078Z</time>
      </trkpt>
      <trkpt lat="45.98968" lon="3.36272">
        <ele>306.29748535156</ele>
        <time>2021-03-27T12:12:30.902Z</time>
      </trkpt>
      <trkpt lat="45.98968" lon="3.36236">
        <ele>306.99713134766</ele>
        <time>2021-03-27T12:12:37.731Z</time>
      </trkpt>
      <trkpt lat="45.98968" lon="3.36215">
        <ele>307.31188964844</ele>
        <time>2021-03-27T12:12:44.563Z</time>
      </trkpt>
      <trkpt lat="45.98967" lon="3.362">
        <ele>307.34786987305</ele>
        <time>2021-03-27T12:12:51.397Z</time>
      </trkpt>
      <trkpt lat="45.98966" lon="3.36182">
        <ele>307.14599609375</ele>
        <time>2021-03-27T12:12:58.233Z</time>
      </trkpt>
      <trkpt lat="45.98964" lon="3.3616">
        <ele>306.37811279297</ele>
        <time>2021-03-27T12:13:05.072Z</time>
      </trkpt>
      <trkpt lat="45.98959" lon="3.36113">
        <ele>306.07583618164</ele>
        <time>2021-03-27T12:13:11.918Z</time>
      </trkpt>
      <trkpt lat="45.98956" lon="3.36086">
        <ele>305.37475585938</ele>
        <time>2021-03-27T12:13:18.768Z</time>
      </trkpt>
      <trkpt lat="45.98953" lon="3.36061">
        <ele>304.6513671875</ele>
        <time>2021-03-27T12:13:25.621Z</time>
      </trkpt>
      <trkpt lat="45.98949" lon="3.36029">
        <ele>304.32174682617</ele>
        <time>2021-03-27T12:13:32.479Z</time>
      </trkpt>
      <trkpt lat="45.98945" lon="3.36008">
        <ele>303.42428588867</ele>
        <time>2021-03-27T12:13:39.340Z</time>
      </trkpt>
      <trkpt lat="45.98941" lon="3.3599">
        <ele>303</ele>
        <time>2021-03-27T12:13:46.204Z</time>
      </trkpt>
      <trkpt lat="45.98938" lon="3.35974">
        <ele>302.90386962891</ele>
        <time>2021-03-27T12:13:53.070Z</time>
      </trkpt>
      <trkpt lat="45.98935" lon="3.35956">
        <ele>302.82202148438</ele>
        <time>2021-03-27T12:13:59.938Z</time>
      </trkpt>
      <trkpt lat="45.98934" lon="3.35944">
        <ele>302.85800170898</ele>
        <time>2021-03-27T12:14:06.808Z</time>
      </trkpt>
      <trkpt lat="45.98933" lon="3.35929">
        <ele>302.48226928711</ele>
        <time>2021-03-27T12:14:13.680Z</time>
      </trkpt>
      <trkpt lat="45.98932" lon="3.35921">
        <ele>302.22314453125</ele>
        <time>2021-03-27T12:14:20.553Z</time>
      </trkpt>
      <trkpt lat="45.98929" lon="3.35907">
        <ele>302.06872558594</ele>
        <time>2021-03-27T12:14:27.428Z</time>
      </trkpt>
      <trkpt lat="45.98927" lon="3.359">
        <ele>302.21987915039</ele>
        <time>2021-03-27T12:14:34.305Z</time>
      </trkpt>
      <trkpt lat="45.98925" lon="3.35892">
        <ele>302.38543701172</ele>
        <time>2021-03-27T12:14:41.183Z</time>
      </trkpt>
      <trkpt lat="45.98915" lon="3.3586">
        <ele>303.11242675781</ele>
        <time>2021-03-27T12:14:48.066Z</time>
      </trkpt>
      <trkpt lat="45.98901" lon="3.35814">
        <ele>303.56237792969</ele>
        <time>2021-03-27T12:14:54.956Z</time>
      </trkpt>
      <trkpt lat="45.98883" lon="3.35755">
        <ele>303.70941162109</ele>
        <time>2021-03-27T12:15:01.855Z</time>
      </trkpt>
      <trkpt lat="45.9887" lon="3.35711">
        <ele>303.91821289062</ele>
        <time>2021-03-27T12:15:08.760Z</time>
      </trkpt>
      <trkpt lat="45.98857" lon="3.35665">
        <ele>303.65081787109</ele>
        <time>2021-03-27T12:15:15.672Z</time>
      </trkpt>
      <trkpt lat="45.98848" lon="3.35631">
        <ele>303.97473144531</ele>
        <time>2021-03-27T12:15:22.589Z</time>
      </trkpt>
      <trkpt lat="45.98841" lon="3.35607">
        <ele>304.20867919922</ele>
        <time>2021-03-27T12:15:29.510Z</time>
      </trkpt>
      <trkpt lat="45.98837" lon="3.35593">
        <ele>304.15893554688</ele>
        <time>2021-03-27T12:15:36.433Z</time>
      </trkpt>
      <trkpt lat="45.98835" lon="3.35585">
        <ele>304.36047363281</ele>
        <time>2021-03-27T12:15:43.357Z</time>
      </trkpt>
      <trkpt lat="45.9883" lon="3.35567">
        <ele>304.84274291992</ele>
        <time>2021-03-27T12:15:50.284Z</time>
      </trkpt>
      <trkpt lat="45.98816" lon="3.35519">
        <ele>305</ele>
        <time>2021-03-27T12:15:57.218Z</time>
      </trkpt>
      <trkpt lat="45.98804" lon="3.35478">
        <ele>304.44171142578</ele>
        <time>2021-03-27T12:16:04.158Z</time>
      </trkpt>
      <trkpt lat="45.98793" lon="3.35447">
        <ele>304.04580688477</ele>
        <time>2021-03-27T12:16:11.103Z</time>
      </trkpt>
      <trkpt lat="45.98778" lon="3.3541">
        <ele>303.0905456543</ele>
        <time>2021-03-27T12:16:18.054Z</time>
      </trkpt>
      <trkpt lat="45.98751" lon="3.35342">
        <ele>305.55584716797</ele>
        <time>2021-03-27T12:16:25.016Z</time>
      </trkpt>
      <trkpt lat="45.98733" lon="3.35301">
        <ele>305.060546875</ele>
        <time>2021-03-27T12:16:31.985Z</time>
      </trkpt>
      <trkpt lat="45.98725" lon="3.35282">
        <ele>304.67184448242</ele>
        <time>2021-03-27T12:16:38.957Z</time>
      </trkpt>
      <trkpt lat="45.98723" lon="3.35276">
        <ele>304.53509521484</ele>
        <time>2021-03-27T12:16:45.930Z</time>
      </trkpt>
      <trkpt lat="45.98722" lon="3.3527">
        <ele>304.50588989258</ele>
        <time>2021-03-27T12:16:52.904Z</time>
      </trkpt>
      <trkpt lat="45.98722" lon="3.35266">
        <ele>304.51309204102</ele>
        <time>2021-03-27T12:16:59.878Z</time>
      </trkpt>
      <trkpt lat="45.98722" lon="3.3525">
        <ele>304.14123535156</ele>
        <time>2021-03-27T12:17:06.854Z</time>
      </trkpt>
      <trkpt lat="45.98723" lon="3.35219">
        <ele>303.97183227539</ele>
        <time>2021-03-27T12:17:13.835Z</time>
      </trkpt>
      <trkpt lat="45.98723" lon="3.35207">
        <ele>304</ele>
        <time>2021-03-27T12:17:20.817Z</time>
      </trkpt>
      <trkpt lat="45.98722" lon="3.35196">
        <ele>304</ele>
        <time>2021-03-27T12:17:27.801Z</time>
      </trkpt>
      <trkpt lat="45.98721" lon="3.35178">
        <ele>304</ele>
        <time>2021-03-27T12:17:34.788Z</time>
      </trkpt>
      <trkpt lat="45.98719" lon="3.35142">
        <ele>304.41134643555</ele>
        <time>2021-03-27T12:17:41.780Z</time>
      </trkpt>
      <trkpt lat="45.98717" lon="3.35109">
        <ele>304.59866333008</ele>
        <time>2021-03-27T12:17:48.776Z</time>
      </trkpt>
      <trkpt lat="45.98715" lon="3.35076">
        <ele>304.2421875</ele>
        <time>2021-03-27T12:17:55.777Z</time>
      </trkpt>
      <trkpt lat="45.98717" lon="3.35076">
        <ele>304.30697631836</ele>
        <time>2021-03-27T12:18:02.778Z</time>
      </trkpt>
      <trkpt lat="45.98715" lon="3.35076">
        <ele>304.2421875</ele>
        <time>2021-03-27T12:18:09.780Z</time>
      </trkpt>
      <trkpt lat="45.98714" lon="3.35064">
        <ele>304.22058105469</ele>
        <time>2021-03-27T12:18:16.783Z</time>
      </trkpt>
      <trkpt lat="45.98715" lon="3.35054">
        <ele>304.2421875</ele>
        <time>2021-03-27T12:18:23.788Z</time>
      </trkpt>
      <trkpt lat="45.98718" lon="3.35008">
        <ele>305.34295654297</ele>
        <time>2021-03-27T12:18:30.799Z</time>
      </trkpt>
      <trkpt lat="45.98721" lon="3.34966">
        <ele>305.48330688477</ele>
        <time>2021-03-27T12:18:37.816Z</time>
      </trkpt>
      <trkpt lat="45.98726" lon="3.34922">
        <ele>305.33554077148</ele>
        <time>2021-03-27T12:18:44.839Z</time>
      </trkpt>
      <trkpt lat="45.98729" lon="3.34892">
        <ele>305.23236083984</ele>
        <time>2021-03-27T12:18:51.866Z</time>
      </trkpt>
      <trkpt lat="45.9873" lon="3.34884">
        <ele>305.21075439453</ele>
        <time>2021-03-27T12:18:58.895Z</time>
      </trkpt>
      <trkpt lat="45.9873" lon="3.3488">
        <ele>305.19998168945</ele>
        <time>2021-03-27T12:19:05.924Z</time>
      </trkpt>
      <trkpt lat="45.9873" lon="3.34878">
        <ele>305.19277954102</ele>
        <time>2021-03-27T12:19:12.953Z</time>
      </trkpt>
      <trkpt lat="45.98728" lon="3.34874">
        <ele>305.26834106445</ele>
        <time>2021-03-27T12:19:19.983Z</time>
      </trkpt>
      <trkpt lat="45.98727" lon="3.34873">
        <ele>305.32232666016</ele>
        <time>2021-03-27T12:19:27.013Z</time>
      </trkpt>
      <trkpt lat="45.98725" lon="3.34872">
        <ele>305.37271118164</ele>
        <time>2021-03-27T12:19:34.044Z</time>
      </trkpt>
      <trkpt lat="45.98721" lon="3.34872">
        <ele>305.54547119141</ele>
        <time>2021-03-27T12:19:41.076Z</time>
      </trkpt>
      <trkpt lat="45.98717" lon="3.34872">
        <ele>305.68942260742</ele>
        <time>2021-03-27T12:19:48.108Z</time>
      </trkpt>
      <trkpt lat="45.98712" lon="3.34873">
        <ele>305.85498046875</ele>
        <time>2021-03-27T12:19:55.141Z</time>
      </trkpt>
      <trkpt lat="45.98685" lon="3.34874">
        <ele>305.55447387695</ele>
        <time>2021-03-27T12:20:02.180Z</time>
      </trkpt>
      <trkpt lat="45.98652" lon="3.34875">
        <ele>306.3991394043</ele>
        <time>2021-03-27T12:20:09.225Z</time>
      </trkpt>
      <trkpt lat="45.98631" lon="3.34876">
        <ele>308.62692260742</ele>
        <time>2021-03-27T12:20:16.275Z</time>
      </trkpt>
      <trkpt lat="45.98625" lon="3.34876">
        <ele>309.31433105469</ele>
        <time>2021-03-27T12:20:23.326Z</time>
      </trkpt>
      <trkpt lat="45.98609" lon="3.34876">
        <ele>310.72906494141</ele>
        <time>2021-03-27T12:20:30.380Z</time>
      </trkpt>
      <trkpt lat="45.98587" lon="3.34874">
        <ele>313.09359741211</ele>
        <time>2021-03-27T12:20:37.438Z</time>
      </trkpt>
      <trkpt lat="45.98572" lon="3.34873">
        <ele>314.25473022461</ele>
        <time>2021-03-27T12:20:44.499Z</time>
      </trkpt>
      <trkpt lat="45.98553" lon="3.3487">
        <ele>316.21948242188</ele>
        <time>2021-03-27T12:20:51.564Z</time>
      </trkpt>
      <trkpt lat="45.98539" lon="3.34868">
        <ele>317.19424438477</ele>
        <time>2021-03-27T12:20:58.632Z</time>
      </trkpt>
      <trkpt lat="45.98528" lon="3.34866">
        <ele>317.32382202148</ele>
        <time>2021-03-27T12:21:05.702Z</time>
      </trkpt>
      <trkpt lat="45.98505" lon="3.34862">
        <ele>317.8310546875</ele>
        <time>2021-03-27T12:21:12.777Z</time>
      </trkpt>
      <trkpt lat="45.98481" lon="3.34857">
        <ele>318.3483581543</ele>
        <time>2021-03-27T12:21:19.857Z</time>
      </trkpt>
      <trkpt lat="45.98461" lon="3.34853">
        <ele>319.93911743164</ele>
        <time>2021-03-27T12:21:26.941Z</time>
      </trkpt>
      <trkpt lat="45.98446" lon="3.34851">
        <ele>320.64086914062</ele>
        <time>2021-03-27T12:21:34.028Z</time>
      </trkpt>
      <trkpt lat="45.98428" lon="3.34849">
        <ele>321.36068725586</ele>
        <time>2021-03-27T12:21:41.118Z</time>
      </trkpt>
      <trkpt lat="45.9841" lon="3.34848">
        <ele>321.64825439453</ele>
        <time>2021-03-27T12:21:48.212Z</time>
      </trkpt>
      <trkpt lat="45.98384" lon="3.34848">
        <ele>321.98742675781</ele>
        <time>2021-03-27T12:21:55.311Z</time>
      </trkpt>
      <trkpt lat="45.98355" lon="3.34849">
        <ele>322.60504150391</ele>
        <time>2021-03-27T12:22:02.416Z</time>
      </trkpt>
      <trkpt lat="45.98327" lon="3.34849">
        <ele>321.5950012207</ele>
        <time>2021-03-27T12:22:09.527Z</time>
      </trkpt>
      <trkpt lat="45.98316" lon="3.34848">
        <ele>321.33853149414</ele>
        <time>2021-03-27T12:22:16.640Z</time>
      </trkpt>
      <trkpt lat="45.98311" lon="3.34847">
        <ele>321.37451171875</ele>
        <time>2021-03-27T12:22:23.754Z</time>
      </trkpt>
      <trkpt lat="45.98304" lon="3.34845">
        <ele>321.35766601562</ele>
        <time>2021-03-27T12:22:30.869Z</time>
      </trkpt>
      <trkpt lat="45.98297" lon="3.34842">
        <ele>321.25689697266</ele>
        <time>2021-03-27T12:22:37.986Z</time>
      </trkpt>
      <trkpt lat="45.98299" lon="3.34837">
        <ele>321.71640014648</ele>
        <time>2021-03-27T12:22:45.104Z</time>
      </trkpt>
      <trkpt lat="45.98299" lon="3.34837">
        <ele>321.73080444336</ele>
        <time>2021-03-27T12:22:52.222Z</time>
      </trkpt>
      <trkpt lat="45.98303" lon="3.3483">
        <ele>321.986328125</ele>
        <time>2021-03-27T12:22:59.341Z</time>
      </trkpt>
      <trkpt lat="45.98304" lon="3.34829">
        <ele>322.00793457031</ele>
        <time>2021-03-27T12:23:06.460Z</time>
      </trkpt>
      <trkpt lat="45.98308" lon="3.34821">
        <ele>322.28866577148</ele>
        <time>2021-03-27T12:23:13.581Z</time>
      </trkpt>
      <trkpt lat="45.98312" lon="3.34815">
        <ele>322.76901245117</ele>
        <time>2021-03-27T12:23:20.703Z</time>
      </trkpt>
      <trkpt lat="45.98335" lon="3.34792">
        <ele>324.93432617188</ele>
        <time>2021-03-27T12:23:27.830Z</time>
      </trkpt>
      <trkpt lat="45.98349" lon="3.34778">
        <ele>325.85061645508</ele>
        <time>2021-03-27T12:23:34.961Z</time>
      </trkpt>
      <trkpt lat="45.98353" lon="3.34773">
        <ele>326.02697753906</ele>
        <time>2021-03-27T12:23:42.093Z</time>
      </trkpt>
      <trkpt lat="45.98359" lon="3.34766">
        <ele>326.26089477539</ele>
        <time>2021-03-27T12:23:49.226Z</time>
      </trkpt>
      <trkpt lat="45.98364" lon="3.34759">
        <ele>326.51284790039</ele>
        <time>2021-03-27T12:23:56.361Z</time>
      </trkpt>
      <trkpt lat="45.9837" lon="3.34751">
        <ele>326.80795288086</ele>
        <time>2021-03-27T12:24:03.497Z</time>
      </trkpt>
      <trkpt lat="45.98375" lon="3.34742">
        <ele>327</ele>
        <time>2021-03-27T12:24:10.635Z</time>
      </trkpt>
      <trkpt lat="45.98385" lon="3.34721">
        <ele>327</ele>
        <time>2021-03-27T12:24:17.777Z</time>
      </trkpt>
      <trkpt lat="45.98404" lon="3.34676">
        <ele>327.89419555664</ele>
        <time>2021-03-27T12:24:24.926Z</time>
      </trkpt>
      <trkpt lat="45.98424" lon="3.34625">
        <ele>326.57000732422</ele>
        <time>2021-03-27T12:24:32.083Z</time>
      </trkpt>
      <trkpt lat="45.98439" lon="3.34588">
        <ele>326.05157470703</ele>
        <time>2021-03-27T12:24:39.246Z</time>
      </trkpt>
      <trkpt lat="45.98447" lon="3.34567">
        <ele>325.13381958008</ele>
        <time>2021-03-27T12:24:46.412Z</time>
      </trkpt>
      <trkpt lat="45.98452" lon="3.34553">
        <ele>324.59396362305</ele>
        <time>2021-03-27T12:24:53.580Z</time>
      </trkpt>
      <trkpt lat="45.98456" lon="3.34543">
        <ele>324.16564941406</ele>
        <time>2021-03-27T12:25:00.750Z</time>
      </trkpt>
      <trkpt lat="45.98457" lon="3.34535">
        <ele>324.05047607422</ele>
        <time>2021-03-27T12:25:07.921Z</time>
      </trkpt>
      <trkpt lat="45.98458" lon="3.34525">
        <ele>323.9928894043</ele>
        <time>2021-03-27T12:25:15.094Z</time>
      </trkpt>
      <trkpt lat="45.98461" lon="3.3449">
        <ele>321.48937988281</ele>
        <time>2021-03-27T12:25:22.272Z</time>
      </trkpt>
      <trkpt lat="45.98462" lon="3.34466">
        <ele>319.63919067383</ele>
        <time>2021-03-27T12:25:29.453Z</time>
      </trkpt>
      <trkpt lat="45.98462" lon="3.3445">
        <ele>317.86126708984</ele>
        <time>2021-03-27T12:25:36.636Z</time>
      </trkpt>
      <trkpt lat="45.98463" lon="3.34432">
        <ele>316.40087890625</ele>
        <time>2021-03-27T12:25:43.822Z</time>
      </trkpt>
      <trkpt lat="45.98464" lon="3.34419">
        <ele>315.48672485352</ele>
        <time>2021-03-27T12:25:51.009Z</time>
      </trkpt>
      <trkpt lat="45.98465" lon="3.34408">
        <ele>314.71655273438</ele>
        <time>2021-03-27T12:25:58.198Z</time>
      </trkpt>
      <trkpt lat="45.98465" lon="3.34399">
        <ele>314.05432128906</ele>
        <time>2021-03-27T12:26:05.388Z</time>
      </trkpt>
      <trkpt lat="45.98467" lon="3.34389">
        <ele>313.29135131836</ele>
        <time>2021-03-27T12:26:12.580Z</time>
      </trkpt>
      <trkpt lat="45.9847" lon="3.34378">
        <ele>312.5139465332</ele>
        <time>2021-03-27T12:26:19.773Z</time>
      </trkpt>
      <trkpt lat="45.98474" lon="3.34364">
        <ele>311.52783203125</ele>
        <time>2021-03-27T12:26:26.968Z</time>
      </trkpt>
      <trkpt lat="45.98479" lon="3.34352">
        <ele>310.81045532227</ele>
        <time>2021-03-27T12:26:34.165Z</time>
      </trkpt>
      <trkpt lat="45.98481" lon="3.34348">
        <ele>310.69888305664</ele>
        <time>2021-03-27T12:26:41.363Z</time>
      </trkpt>
      <trkpt lat="45.98492" lon="3.34329">
        <ele>309.78784179688</ele>
        <time>2021-03-27T12:26:48.564Z</time>
      </trkpt>
      <trkpt lat="45.9851" lon="3.34306">
        <ele>308.31945800781</ele>
        <time>2021-03-27T12:26:55.770Z</time>
      </trkpt>
      <trkpt lat="45.9852" lon="3.34292">
        <ele>308</ele>
        <time>2021-03-27T12:27:02.979Z</time>
      </trkpt>
      <trkpt lat="45.98526" lon="3.34284">
        <ele>308</ele>
        <time>2021-03-27T12:27:10.190Z</time>
      </trkpt>
      <trkpt lat="45.9853" lon="3.34277">
        <ele>308</ele>
        <time>2021-03-27T12:27:17.402Z</time>
      </trkpt>
      <trkpt lat="45.98533" lon="3.3427">
        <ele>308.13354492188</ele>
        <time>2021-03-27T12:27:24.615Z</time>
      </trkpt>
      <trkpt lat="45.98538" lon="3.34259">
        <ele>308.11364746094</ele>
        <time>2021-03-27T12:27:31.830Z</time>
      </trkpt>
      <trkpt lat="45.98541" lon="3.34252">
        <ele>308.02728271484</ele>
        <time>2021-03-27T12:27:39.046Z</time>
      </trkpt>
      <trkpt lat="45.98556" lon="3.34201">
        <ele>307.46221923828</ele>
        <time>2021-03-27T12:27:46.270Z</time>
      </trkpt>
      <trkpt lat="45.98573" lon="3.34142">
        <ele>307</ele>
        <time>2021-03-27T12:27:53.503Z</time>
      </trkpt>
      <trkpt lat="45.98582" lon="3.34109">
        <ele>307.93151855469</ele>
        <time>2021-03-27T12:28:00.741Z</time>
      </trkpt>
      <trkpt lat="45.98589" lon="3.34088">
        <ele>308.28176879883</ele>
        <time>2021-03-27T12:28:07.982Z</time>
      </trkpt>
      <trkpt lat="45.98592" lon="3.34079">
        <ele>308.18817138672</ele>
        <time>2021-03-27T12:28:15.224Z</time>
      </trkpt>
      <trkpt lat="45.98599" lon="3.34059">
        <ele>308.79476928711</ele>
        <time>2021-03-27T12:28:22.469Z</time>
      </trkpt>
      <trkpt lat="45.9861" lon="3.34031">
        <ele>309</ele>
        <time>2021-03-27T12:28:29.719Z</time>
      </trkpt>
      <trkpt lat="45.98615" lon="3.34019">
        <ele>309</ele>
        <time>2021-03-27T12:28:36.971Z</time>
      </trkpt>
      <trkpt lat="45.98609" lon="3.34017">
        <ele>309</ele>
        <time>2021-03-27T12:28:44.224Z</time>
      </trkpt>
      <trkpt lat="45.98609" lon="3.34017">
        <ele>309</ele>
        <time>2021-03-27T12:28:51.477Z</time>
      </trkpt>
      <trkpt lat="45.98601" lon="3.34015">
        <ele>309</ele>
        <time>2021-03-27T12:28:58.732Z</time>
      </trkpt>
      <trkpt lat="45.98588" lon="3.34011">
        <ele>309</ele>
        <time>2021-03-27T12:29:05.989Z</time>
      </trkpt>
      <trkpt lat="45.9857" lon="3.34007">
        <ele>309</ele>
        <time>2021-03-27T12:29:13.250Z</time>
      </trkpt>
      <trkpt lat="45.98535" lon="3.34">
        <ele>308.83285522461</ele>
        <time>2021-03-27T12:29:20.518Z</time>
      </trkpt>
      <trkpt lat="45.98503" lon="3.33995">
        <ele>309.76098632812</ele>
        <time>2021-03-27T12:29:27.793Z</time>
      </trkpt>
      <trkpt lat="45.98468" lon="3.33988">
        <ele>311</ele>
        <time>2021-03-27T12:29:35.075Z</time>
      </trkpt>
      <trkpt lat="45.98437" lon="3.33983">
        <ele>310.5481262207</ele>
        <time>2021-03-27T12:29:42.363Z</time>
      </trkpt>
      <trkpt lat="45.98429" lon="3.33981">
        <ele>310.50549316406</ele>
        <time>2021-03-27T12:29:49.653Z</time>
      </trkpt>
      <trkpt lat="45.98419" lon="3.33978">
        <ele>310.75024414062</ele>
        <time>2021-03-27T12:29:56.945Z</time>
      </trkpt>
      <trkpt lat="45.98412" lon="3.33974">
        <ele>310.85821533203</ele>
        <time>2021-03-27T12:30:04.238Z</time>
      </trkpt>
      <trkpt lat="45.984" lon="3.33966">
        <ele>311.03094482422</ele>
        <time>2021-03-27T12:30:11.534Z</time>
      </trkpt>
      <trkpt lat="45.98354" lon="3.33938">
        <ele>310.92498779297</ele>
        <time>2021-03-27T12:30:18.840Z</time>
      </trkpt>
      <trkpt lat="45.98331" lon="3.33924">
        <ele>310.43911743164</ele>
        <time>2021-03-27T12:30:26.151Z</time>
      </trkpt>
      <trkpt lat="45.98311" lon="3.33913">
        <ele>309.71661376953</ele>
        <time>2021-03-27T12:30:33.466Z</time>
      </trkpt>
      <trkpt lat="45.98283" lon="3.33897">
        <ele>309</ele>
        <time>2021-03-27T12:30:40.787Z</time>
      </trkpt>
      <trkpt lat="45.98256" lon="3.33882">
        <ele>309.16516113281</ele>
        <time>2021-03-27T12:30:48.114Z</time>
      </trkpt>
      <trkpt lat="45.98233" lon="3.33869">
        <ele>309.45965576172</ele>
        <time>2021-03-27T12:30:55.446Z</time>
      </trkpt>
      <trkpt lat="45.98193" lon="3.33849">
        <ele>309.25207519531</ele>
        <time>2021-03-27T12:31:02.786Z</time>
      </trkpt>
      <trkpt lat="45.98153" lon="3.33828">
        <ele>309.96258544922</ele>
        <time>2021-03-27T12:31:10.135Z</time>
      </trkpt>
      <trkpt lat="45.98136" lon="3.3382">
        <ele>310.27416992188</ele>
        <time>2021-03-27T12:31:17.487Z</time>
      </trkpt>
      <trkpt lat="45.98124" lon="3.33815">
        <ele>310.51083374023</ele>
        <time>2021-03-27T12:31:24.842Z</time>
      </trkpt>
      <trkpt lat="45.98114" lon="3.33811">
        <ele>311.15145874023</ele>
        <time>2021-03-27T12:31:32.199Z</time>
      </trkpt>
      <trkpt lat="45.98102" lon="3.33807">
        <ele>311.8125</ele>
        <time>2021-03-27T12:31:39.558Z</time>
      </trkpt>
      <trkpt lat="45.98086" lon="3.338">
        <ele>312.35388183594</ele>
        <time>2021-03-27T12:31:46.921Z</time>
      </trkpt>
      <trkpt lat="45.98062" lon="3.33789">
        <ele>312.8073425293</ele>
        <time>2021-03-27T12:31:54.289Z</time>
      </trkpt>
      <trkpt lat="45.98037" lon="3.33776">
        <ele>313.13745117188</ele>
        <time>2021-03-27T12:32:01.662Z</time>
      </trkpt>
      <trkpt lat="45.98028" lon="3.33772">
        <ele>313.41918945312</ele>
        <time>2021-03-27T12:32:09.037Z</time>
      </trkpt>
      <trkpt lat="45.98019" lon="3.33769">
        <ele>313.65310668945</ele>
        <time>2021-03-27T12:32:16.414Z</time>
      </trkpt>
      <trkpt lat="45.98006" lon="3.33767">
        <ele>313.49597167969</ele>
        <time>2021-03-27T12:32:23.794Z</time>
      </trkpt>
      <trkpt lat="45.97989" lon="3.33765">
        <ele>312.8193359375</ele>
        <time>2021-03-27T12:32:31.177Z</time>
      </trkpt>
      <trkpt lat="45.97974" lon="3.33765">
        <ele>312.59878540039</ele>
        <time>2021-03-27T12:32:38.563Z</time>
      </trkpt>
      <trkpt lat="45.97964" lon="3.33766">
        <ele>312.22088623047</ele>
        <time>2021-03-27T12:32:45.951Z</time>
      </trkpt>
      <trkpt lat="45.97952" lon="3.33768">
        <ele>312.39352416992</ele>
        <time>2021-03-27T12:32:53.341Z</time>
      </trkpt>
      <trkpt lat="45.97943" lon="3.3377">
        <ele>312.63824462891</ele>
        <time>2021-03-27T12:33:00.733Z</time>
      </trkpt>
      <trkpt lat="45.97926" lon="3.33775">
        <ele>313.23123168945</ele>
        <time>2021-03-27T12:33:08.129Z</time>
      </trkpt>
      <trkpt lat="45.97899" lon="3.33783">
        <ele>314.66067504883</ele>
        <time>2021-03-27T12:33:15.530Z</time>
      </trkpt>
      <trkpt lat="45.97889" lon="3.33783">
        <ele>314.6354675293</ele>
        <time>2021-03-27T12:33:22.933Z</time>
      </trkpt>
      <trkpt lat="45.97882" lon="3.33782">
        <ele>314.73028564453</ele>
        <time>2021-03-27T12:33:30.338Z</time>
      </trkpt>
      <trkpt lat="45.97877" lon="3.33781">
        <ele>314.91024780273</ele>
        <time>2021-03-27T12:33:37.744Z</time>
      </trkpt>
      <trkpt lat="45.97864" lon="3.33775">
        <ele>314.61108398438</ele>
        <time>2021-03-27T12:33:45.152Z</time>
      </trkpt>
      <trkpt lat="45.97832" lon="3.33759">
        <ele>314.01263427734</ele>
        <time>2021-03-27T12:33:52.567Z</time>
      </trkpt>
      <trkpt lat="45.97798" lon="3.3374">
        <ele>314</ele>
        <time>2021-03-27T12:33:59.989Z</time>
      </trkpt>
      <trkpt lat="45.97776" lon="3.33726">
        <ele>314</ele>
        <time>2021-03-27T12:34:07.416Z</time>
      </trkpt>
      <trkpt lat="45.97758" lon="3.33711">
        <ele>314.04809570312</ele>
        <time>2021-03-27T12:34:14.847Z</time>
      </trkpt>
      <trkpt lat="45.97748" lon="3.33701">
        <ele>314.05529785156</ele>
        <time>2021-03-27T12:34:22.281Z</time>
      </trkpt>
      <trkpt lat="45.97742" lon="3.33692">
        <ele>314.13809204102</ele>
        <time>2021-03-27T12:34:29.717Z</time>
      </trkpt>
      <trkpt lat="45.97737" lon="3.33684">
        <ele>314.25326538086</ele>
        <time>2021-03-27T12:34:37.154Z</time>
      </trkpt>
      <trkpt lat="45.97732" lon="3.33675">
        <ele>314.54040527344</ele>
        <time>2021-03-27T12:34:44.593Z</time>
      </trkpt>
      <trkpt lat="45.97725" lon="3.33658">
        <ele>315</ele>
        <time>2021-03-27T12:34:52.034Z</time>
      </trkpt>
      <trkpt lat="45.97719" lon="3.33645">
        <ele>314.96936035156</ele>
        <time>2021-03-27T12:34:59.477Z</time>
      </trkpt>
      <trkpt lat="45.97713" lon="3.33634">
        <ele>314.82180786133</ele>
        <time>2021-03-27T12:35:06.923Z</time>
      </trkpt>
      <trkpt lat="45.97703" lon="3.33623">
        <ele>314.73544311523</ele>
        <time>2021-03-27T12:35:14.371Z</time>
      </trkpt>
      <trkpt lat="45.97695" lon="3.33614">
        <ele>314.72103881836</ele>
        <time>2021-03-27T12:35:21.821Z</time>
      </trkpt>
      <trkpt lat="45.97687" lon="3.33605">
        <ele>314.75912475586</ele>
        <time>2021-03-27T12:35:29.273Z</time>
      </trkpt>
      <trkpt lat="45.97662" lon="3.33578">
        <ele>315.60946655273</ele>
        <time>2021-03-27T12:35:36.731Z</time>
      </trkpt>
      <trkpt lat="45.97643" lon="3.33556">
        <ele>315.51229858398</ele>
        <time>2021-03-27T12:35:44.194Z</time>
      </trkpt>
      <trkpt lat="45.97634" lon="3.33544">
        <ele>315.41873168945</ele>
        <time>2021-03-27T12:35:51.660Z</time>
      </trkpt>
      <trkpt lat="45.97623" lon="3.33529">
        <ele>315.19787597656</ele>
        <time>2021-03-27T12:35:59.129Z</time>
      </trkpt>
      <trkpt lat="45.97598" lon="3.33493">
        <ele>315.09417724609</ele>
        <time>2021-03-27T12:36:06.605Z</time>
      </trkpt>
      <trkpt lat="45.97585" lon="3.33476">
        <ele>315.70959472656</ele>
        <time>2021-03-27T12:36:14.084Z</time>
      </trkpt>
      <trkpt lat="45.97578" lon="3.3347">
        <ele>315.92913818359</ele>
        <time>2021-03-27T12:36:21.565Z</time>
      </trkpt>
      <trkpt lat="45.97575" lon="3.33467">
        <ele>316</ele>
        <time>2021-03-27T12:36:29.047Z</time>
      </trkpt>
      <trkpt lat="45.9757" lon="3.33464">
        <ele>316</ele>
        <time>2021-03-27T12:36:36.530Z</time>
      </trkpt>
      <trkpt lat="45.97564" lon="3.33462">
        <ele>316.17510986328</ele>
        <time>2021-03-27T12:36:44.014Z</time>
      </trkpt>
      <trkpt lat="45.97557" lon="3.3346">
        <ele>316.40902709961</ele>
        <time>2021-03-27T12:36:51.499Z</time>
      </trkpt>
      <trkpt lat="45.97552" lon="3.33459">
        <ele>316.61419677734</ele>
        <time>2021-03-27T12:36:58.986Z</time>
      </trkpt>
      <trkpt lat="45.97547" lon="3.3346">
        <ele>316.77972412109</ele>
        <time>2021-03-27T12:37:06.473Z</time>
      </trkpt>
      <trkpt lat="45.97545" lon="3.33462">
        <ele>316.86251831055</ele>
        <time>2021-03-27T12:37:13.961Z</time>
      </trkpt>
      <trkpt lat="45.97544" lon="3.33462">
        <ele>316.88052368164</ele>
        <time>2021-03-27T12:37:21.449Z</time>
      </trkpt>
      <trkpt lat="45.9754" lon="3.33467">
        <ele>317</ele>
        <time>2021-03-27T12:37:28.938Z</time>
      </trkpt>
      <trkpt lat="45.97537" lon="3.33471">
        <ele>316.88595581055</ele>
        <time>2021-03-27T12:37:36.428Z</time>
      </trkpt>
      <trkpt lat="45.97534" lon="3.33476">
        <ele>316.716796875</ele>
        <time>2021-03-27T12:37:43.919Z</time>
      </trkpt>
      <trkpt lat="45.97529" lon="3.33489">
        <ele>316.44555664062</ele>
        <time>2021-03-27T12:37:51.412Z</time>
      </trkpt>
      <trkpt lat="45.97525" lon="3.33491">
        <ele>316.56433105469</ele>
        <time>2021-03-27T12:37:58.906Z</time>
      </trkpt>
      <trkpt lat="45.97522" lon="3.33491">
        <ele>316.69027709961</ele>
        <time>2021-03-27T12:38:06.400Z</time>
      </trkpt>
      <trkpt lat="45.97519" lon="3.3349">
        <ele>316.78387451172</ele>
        <time>2021-03-27T12:38:13.895Z</time>
      </trkpt>
      <trkpt lat="45.97514" lon="3.33486">
        <ele>316.98901367188</ele>
        <time>2021-03-27T12:38:21.391Z</time>
      </trkpt>
      <trkpt lat="45.97485" lon="3.33468">
        <ele>317</ele>
        <time>2021-03-27T12:38:28.893Z</time>
      </trkpt>
      <trkpt lat="45.97435" lon="3.33436">
        <ele>318</ele>
        <time>2021-03-27T12:38:36.406Z</time>
      </trkpt>
      <trkpt lat="45.97391" lon="3.33408">
        <ele>318</ele>
        <time>2021-03-27T12:38:43.929Z</time>
      </trkpt>
      <trkpt lat="45.9735" lon="3.33384">
        <ele>318.84548950195</ele>
        <time>2021-03-27T12:38:51.461Z</time>
      </trkpt>
      <trkpt lat="45.973" lon="3.33351">
        <ele>317.79885864258</ele>
        <time>2021-03-27T12:38:59.004Z</time>
      </trkpt>
      <trkpt lat="45.9729" lon="3.33344">
        <ele>317.59048461914</ele>
        <time>2021-03-27T12:39:06.549Z</time>
      </trkpt>
      <trkpt lat="45.97242" lon="3.33315">
        <ele>319.53497314453</ele>
        <time>2021-03-27T12:39:14.105Z</time>
      </trkpt>
      <trkpt lat="45.97215" lon="3.33299">
        <ele>320.73202514648</ele>
        <time>2021-03-27T12:39:21.666Z</time>
      </trkpt>
      <trkpt lat="45.97187" lon="3.3328">
        <ele>321</ele>
        <time>2021-03-27T12:39:29.234Z</time>
      </trkpt>
      <trkpt lat="45.9717" lon="3.3327">
        <ele>321.2532043457</ele>
        <time>2021-03-27T12:39:36.805Z</time>
      </trkpt>
      <trkpt lat="45.97163" lon="3.33267">
        <ele>321.39358520508</ele>
        <time>2021-03-27T12:39:44.378Z</time>
      </trkpt>
      <trkpt lat="45.97117" lon="3.33248">
        <ele>321</ele>
        <time>2021-03-27T12:39:51.960Z</time>
      </trkpt>
      <trkpt lat="45.97071" lon="3.33231">
        <ele>321</ele>
        <time>2021-03-27T12:39:59.552Z</time>
      </trkpt>
      <trkpt lat="45.97044" lon="3.33221">
        <ele>321.0100402832</ele>
        <time>2021-03-27T12:40:07.149Z</time>
      </trkpt>
      <trkpt lat="45.97025" lon="3.33215">
        <ele>322.20364379883</ele>
        <time>2021-03-27T12:40:14.750Z</time>
      </trkpt>
      <trkpt lat="45.97019" lon="3.33212">
        <ele>322.79748535156</ele>
        <time>2021-03-27T12:40:22.353Z</time>
      </trkpt>
      <trkpt lat="45.97014" lon="3.33208">
        <ele>323.32293701172</ele>
        <time>2021-03-27T12:40:29.957Z</time>
      </trkpt>
      <trkpt lat="45.96997" lon="3.33196">
        <ele>324.37542724609</ele>
        <time>2021-03-27T12:40:37.565Z</time>
      </trkpt>
      <trkpt lat="45.96949" lon="3.33163">
        <ele>326.67630004883</ele>
        <time>2021-03-27T12:40:45.183Z</time>
      </trkpt>
      <trkpt lat="45.96897" lon="3.33124">
        <ele>325.19482421875</ele>
        <time>2021-03-27T12:40:52.813Z</time>
      </trkpt>
      <trkpt lat="45.9687" lon="3.33105">
        <ele>326.18167114258</ele>
        <time>2021-03-27T12:41:00.449Z</time>
      </trkpt>
      <trkpt lat="45.96845" lon="3.33088">
        <ele>327.67013549805</ele>
        <time>2021-03-27T12:41:08.090Z</time>
      </trkpt>
      <trkpt lat="45.96834" lon="3.33081">
        <ele>327.93286132812</ele>
        <time>2021-03-27T12:41:15.734Z</time>
      </trkpt>
      <trkpt lat="45.96821" lon="3.33071">
        <ele>328.27835083008</ele>
        <time>2021-03-27T12:41:23.381Z</time>
      </trkpt>
      <trkpt lat="45.96781" lon="3.33045">
        <ele>329.21768188477</ele>
        <time>2021-03-27T12:41:31.037Z</time>
      </trkpt>
      <trkpt lat="45.96776" lon="3.33055">
        <ele>328.84341430664</ele>
        <time>2021-03-27T12:41:38.694Z</time>
      </trkpt>
      <trkpt lat="45.96768" lon="3.33073">
        <ele>328.19198608398</ele>
        <time>2021-03-27T12:41:46.354Z</time>
      </trkpt>
      <trkpt lat="45.96756" lon="3.33098">
        <ele>328.71109008789</ele>
        <time>2021-03-27T12:41:54.018Z</time>
      </trkpt>
      <trkpt lat="45.96747" lon="3.33118">
        <ele>328.73031616211</ele>
        <time>2021-03-27T12:42:01.686Z</time>
      </trkpt>
      <trkpt lat="45.96739" lon="3.33133">
        <ele>329.6005859375</ele>
        <time>2021-03-27T12:42:09.356Z</time>
      </trkpt>
      <trkpt lat="45.96729" lon="3.3315">
        <ele>330.64788818359</ele>
        <time>2021-03-27T12:42:17.030Z</time>
      </trkpt>
      <trkpt lat="45.96723" lon="3.3316">
        <ele>331.34970092773</ele>
        <time>2021-03-27T12:42:24.705Z</time>
      </trkpt>
      <trkpt lat="45.96712" lon="3.33175">
        <ele>332.9875793457</ele>
        <time>2021-03-27T12:42:32.383Z</time>
      </trkpt>
      <trkpt lat="45.96699" lon="3.33193">
        <ele>334.30285644531</ele>
        <time>2021-03-27T12:42:40.065Z</time>
      </trkpt>
      <trkpt lat="45.96684" lon="3.33214">
        <ele>334.83551025391</ele>
        <time>2021-03-27T12:42:47.751Z</time>
      </trkpt>
      <trkpt lat="45.96676" lon="3.33228">
        <ele>334.60992431641</ele>
        <time>2021-03-27T12:42:55.440Z</time>
      </trkpt>
      <trkpt lat="45.96669" lon="3.33245">
        <ele>334.02688598633</ele>
        <time>2021-03-27T12:43:03.131Z</time>
      </trkpt>
      <trkpt lat="45.96665" lon="3.33253">
        <ele>334</ele>
        <time>2021-03-27T12:43:10.824Z</time>
      </trkpt>
      <trkpt lat="45.96662" lon="3.33264">
        <ele>334</ele>
        <time>2021-03-27T12:43:18.519Z</time>
      </trkpt>
      <trkpt lat="45.96659" lon="3.33277">
        <ele>334</ele>
        <time>2021-03-27T12:43:26.215Z</time>
      </trkpt>
      <trkpt lat="45.96656" lon="3.33288">
        <ele>334.40710449219</ele>
        <time>2021-03-27T12:43:33.913Z</time>
      </trkpt>
      <trkpt lat="45.96652" lon="3.33302">
        <ele>335</ele>
        <time>2021-03-27T12:43:41.613Z</time>
      </trkpt>
      <trkpt lat="45.96649" lon="3.33313">
        <ele>335</ele>
        <time>2021-03-27T12:43:49.315Z</time>
      </trkpt>
      <trkpt lat="45.96644" lon="3.33328">
        <ele>335.24258422852</ele>
        <time>2021-03-27T12:43:57.019Z</time>
      </trkpt>
      <trkpt lat="45.96642" lon="3.33332">
        <ele>335.50170898438</ele>
        <time>2021-03-27T12:44:04.724Z</time>
      </trkpt>
      <trkpt lat="45.96637" lon="3.33341">
        <ele>335.95520019531</ele>
        <time>2021-03-27T12:44:12.430Z</time>
      </trkpt>
      <trkpt lat="45.96634" lon="3.33346">
        <ele>336.27551269531</ele>
        <time>2021-03-27T12:44:20.137Z</time>
      </trkpt>
      <trkpt lat="45.9663" lon="3.3335">
        <ele>336.55261230469</ele>
        <time>2021-03-27T12:44:27.845Z</time>
      </trkpt>
      <trkpt lat="45.96627" lon="3.33353">
        <ele>336.76495361328</ele>
        <time>2021-03-27T12:44:35.554Z</time>
      </trkpt>
      <trkpt lat="45.96623" lon="3.33356">
        <ele>337</ele>
        <time>2021-03-27T12:44:43.264Z</time>
      </trkpt>
      <trkpt lat="45.96618" lon="3.3336">
        <ele>337</ele>
        <time>2021-03-27T12:44:50.975Z</time>
      </trkpt>
      <trkpt lat="45.966" lon="3.3336">
        <ele>337</ele>
        <time>2021-03-27T12:44:58.690Z</time>
      </trkpt>
      <trkpt lat="45.96584" lon="3.3336">
        <ele>337</ele>
        <time>2021-03-27T12:45:06.408Z</time>
      </trkpt>
      <trkpt lat="45.96563" lon="3.3336">
        <ele>337.18670654297</ele>
        <time>2021-03-27T12:45:14.130Z</time>
      </trkpt>
      <trkpt lat="45.96549" lon="3.3336">
        <ele>337.71215820312</ele>
        <time>2021-03-27T12:45:21.855Z</time>
      </trkpt>
      <trkpt lat="45.96519" lon="3.3336">
        <ele>338.76666259766</ele>
        <time>2021-03-27T12:45:29.586Z</time>
      </trkpt>
      <trkpt lat="45.96515" lon="3.33367">
        <ele>338.92861938477</ele>
        <time>2021-03-27T12:45:37.318Z</time>
      </trkpt>
      <trkpt lat="45.96511" lon="3.33374">
        <ele>339.07977294922</ele>
        <time>2021-03-27T12:45:45.051Z</time>
      </trkpt>
      <trkpt lat="45.96497" lon="3.33399">
        <ele>339.05368041992</ele>
        <time>2021-03-27T12:45:52.789Z</time>
      </trkpt>
      <trkpt lat="45.96492" lon="3.33409">
        <ele>338.83413696289</ele>
        <time>2021-03-27T12:46:00.529Z</time>
      </trkpt>
      <trkpt lat="45.96491" lon="3.33413">
        <ele>338.79238891602</ele>
        <time>2021-03-27T12:46:08.269Z</time>
      </trkpt>
      <trkpt lat="45.96484" lon="3.33432">
        <ele>339.05871582031</ele>
        <time>2021-03-27T12:46:16.012Z</time>
      </trkpt>
      <trkpt lat="45.96481" lon="3.33439">
        <ele>339.04122924805</ele>
        <time>2021-03-27T12:46:23.756Z</time>
      </trkpt>
      <trkpt lat="45.96478" lon="3.33449">
        <ele>339</ele>
        <time>2021-03-27T12:46:31.502Z</time>
      </trkpt>
      <trkpt lat="45.96475" lon="3.33461">
        <ele>339</ele>
        <time>2021-03-27T12:46:39.250Z</time>
      </trkpt>
      <trkpt lat="45.96475" lon="3.33467">
        <ele>339</ele>
        <time>2021-03-27T12:46:46.998Z</time>
      </trkpt>
      <trkpt lat="45.96474" lon="3.33477">
        <ele>339</ele>
        <time>2021-03-27T12:46:54.748Z</time>
      </trkpt>
      <trkpt lat="45.96474" lon="3.33483">
        <ele>339</ele>
        <time>2021-03-27T12:47:02.499Z</time>
      </trkpt>
      <trkpt lat="45.96474" lon="3.33486">
        <ele>339</ele>
        <time>2021-03-27T12:47:10.250Z</time>
      </trkpt>
      <trkpt lat="45.96475" lon="3.33498">
        <ele>339</ele>
        <time>2021-03-27T12:47:18.003Z</time>
      </trkpt>
      <trkpt lat="45.96476" lon="3.33512">
        <ele>339</ele>
        <time>2021-03-27T12:47:25.758Z</time>
      </trkpt>
      <trkpt lat="45.96477" lon="3.33545">
        <ele>338.21548461914</ele>
        <time>2021-03-27T12:47:33.517Z</time>
      </trkpt>
      <trkpt lat="45.96477" lon="3.33598">
        <ele>336.61505126953</ele>
        <time>2021-03-27T12:47:41.284Z</time>
      </trkpt>
      <trkpt lat="45.96476" lon="3.33619">
        <ele>336.31784057617</ele>
        <time>2021-03-27T12:47:49.054Z</time>
      </trkpt>
      <trkpt lat="45.96475" lon="3.33632">
        <ele>336.65567016602</ele>
        <time>2021-03-27T12:47:56.826Z</time>
      </trkpt>
      <trkpt lat="45.96474" lon="3.33639">
        <ele>337.1435546875</ele>
        <time>2021-03-27T12:48:04.599Z</time>
      </trkpt>
      <trkpt lat="45.96473" lon="3.33645">
        <ele>337.66180419922</ele>
        <time>2021-03-27T12:48:12.372Z</time>
      </trkpt>
      <trkpt lat="45.96471" lon="3.33659">
        <ele>338.39233398438</ele>
        <time>2021-03-27T12:48:20.147Z</time>
      </trkpt>
      <trkpt lat="45.96465" lon="3.33686">
        <ele>339.5908203125</ele>
        <time>2021-03-27T12:48:27.926Z</time>
      </trkpt>
      <trkpt lat="45.96459" lon="3.33717">
        <ele>341.92602539062</ele>
        <time>2021-03-27T12:48:35.710Z</time>
      </trkpt>
      <trkpt lat="45.96458" lon="3.33723">
        <ele>342.20706176758</ele>
        <time>2021-03-27T12:48:43.495Z</time>
      </trkpt>
      <trkpt lat="45.96455" lon="3.33738">
        <ele>342.6389465332</ele>
        <time>2021-03-27T12:48:51.282Z</time>
      </trkpt>
      <trkpt lat="45.96447" lon="3.3377">
        <ele>344.74291992188</ele>
        <time>2021-03-27T12:48:59.074Z</time>
      </trkpt>
      <trkpt lat="45.96443" lon="3.33789">
        <ele>346.67660522461</ele>
        <time>2021-03-27T12:49:06.868Z</time>
      </trkpt>
      <trkpt lat="45.96441" lon="3.33801">
        <ele>348.01028442383</ele>
        <time>2021-03-27T12:49:14.664Z</time>
      </trkpt>
      <trkpt lat="45.9644" lon="3.33811">
        <ele>348.71569824219</ele>
        <time>2021-03-27T12:49:22.462Z</time>
      </trkpt>
      <trkpt lat="45.9644" lon="3.3382">
        <ele>349.65515136719</ele>
        <time>2021-03-27T12:49:30.261Z</time>
      </trkpt>
      <trkpt lat="45.96441" lon="3.33829">
        <ele>350.62481689453</ele>
        <time>2021-03-27T12:49:38.061Z</time>
      </trkpt>
      <trkpt lat="45.96442" lon="3.33841">
        <ele>351.42736816406</ele>
        <time>2021-03-27T12:49:45.863Z</time>
      </trkpt>
      <trkpt lat="45.96443" lon="3.33851">
        <ele>352.07879638672</ele>
        <time>2021-03-27T12:49:53.666Z</time>
      </trkpt>
      <trkpt lat="45.96446" lon="3.33865">
        <ele>353.32662963867</ele>
        <time>2021-03-27T12:50:01.471Z</time>
      </trkpt>
      <trkpt lat="45.9645" lon="3.33885">
        <ele>355.30920410156</ele>
        <time>2021-03-27T12:50:09.279Z</time>
      </trkpt>
      <trkpt lat="45.96453" lon="3.33906">
        <ele>358.1955871582</ele>
        <time>2021-03-27T12:50:17.090Z</time>
      </trkpt>
      <trkpt lat="45.96458" lon="3.33933">
        <ele>361.20074462891</ele>
        <time>2021-03-27T12:50:24.905Z</time>
      </trkpt>
      <trkpt lat="45.9646" lon="3.33939">
        <ele>361.82696533203</ele>
        <time>2021-03-27T12:50:32.721Z</time>
      </trkpt>
      <trkpt lat="45.96466" lon="3.33971">
        <ele>365.03366088867</ele>
        <time>2021-03-27T12:50:40.542Z</time>
      </trkpt>
      <trkpt lat="45.96472" lon="3.33998">
        <ele>367.84609985352</ele>
        <time>2021-03-27T12:50:48.366Z</time>
      </trkpt>
      <trkpt lat="45.9648" lon="3.3403">
        <ele>372.58920288086</ele>
        <time>2021-03-27T12:50:56.195Z</time>
      </trkpt>
      <trkpt lat="45.96486" lon="3.34057">
        <ele>376.9548034668</ele>
        <time>2021-03-27T12:51:04.028Z</time>
      </trkpt>
      <trkpt lat="45.96488" lon="3.34063">
        <ele>377.86175537109</ele>
        <time>2021-03-27T12:51:11.862Z</time>
      </trkpt>
      <trkpt lat="45.96498" lon="3.34105">
        <ele>386.71441650391</ele>
        <time>2021-03-27T12:51:19.702Z</time>
      </trkpt>
      <trkpt lat="45.96508" lon="3.34151">
        <ele>393.11206054688</ele>
        <time>2021-03-27T12:51:27.549Z</time>
      </trkpt>
      <trkpt lat="45.96511" lon="3.34168">
        <ele>394.96365356445</ele>
        <time>2021-03-27T12:51:35.398Z</time>
      </trkpt>
      <trkpt lat="45.96514" lon="3.34188">
        <ele>397.68389892578</ele>
        <time>2021-03-27T12:51:43.250Z</time>
      </trkpt>
      <trkpt lat="45.96516" lon="3.34211">
        <ele>400.01800537109</ele>
        <time>2021-03-27T12:51:51.105Z</time>
      </trkpt>
      <trkpt lat="45.96518" lon="3.34227">
        <ele>401.12155151367</ele>
        <time>2021-03-27T12:51:58.963Z</time>
      </trkpt>
      <trkpt lat="45.9652" lon="3.34237">
        <ele>401.44906616211</ele>
        <time>2021-03-27T12:52:06.822Z</time>
      </trkpt>
      <trkpt lat="45.96522" lon="3.3425">
        <ele>401.81976318359</ele>
        <time>2021-03-27T12:52:14.683Z</time>
      </trkpt>
      <trkpt lat="45.96525" lon="3.34264">
        <ele>402</ele>
        <time>2021-03-27T12:52:22.546Z</time>
      </trkpt>
      <trkpt lat="45.96528" lon="3.34274">
        <ele>401.98959350586</ele>
        <time>2021-03-27T12:52:30.411Z</time>
      </trkpt>
      <trkpt lat="45.96531" lon="3.34287">
        <ele>401.50372314453</ele>
        <time>2021-03-27T12:52:38.278Z</time>
      </trkpt>
      <trkpt lat="45.96534" lon="3.34296">
        <ele>401.17260742188</ele>
        <time>2021-03-27T12:52:46.146Z</time>
      </trkpt>
      <trkpt lat="45.96539" lon="3.34309">
        <ele>400.71194458008</ele>
        <time>2021-03-27T12:52:54.016Z</time>
      </trkpt>
      <trkpt lat="45.96545" lon="3.34322">
        <ele>400.37713623047</ele>
        <time>2021-03-27T12:53:01.888Z</time>
      </trkpt>
      <trkpt lat="45.9655" lon="3.34337">
        <ele>400.05685424805</ele>
        <time>2021-03-27T12:53:09.762Z</time>
      </trkpt>
      <trkpt lat="45.96555" lon="3.34354">
        <ele>400</ele>
        <time>2021-03-27T12:53:17.639Z</time>
      </trkpt>
      <trkpt lat="45.96561" lon="3.34372">
        <ele>400</ele>
        <time>2021-03-27T12:53:25.519Z</time>
      </trkpt>
      <trkpt lat="45.96571" lon="3.34409">
        <ele>400.18084716797</ele>
        <time>2021-03-27T12:53:33.404Z</time>
      </trkpt>
      <trkpt lat="45.96582" lon="3.34447">
        <ele>399.69635009766</ele>
        <time>2021-03-27T12:53:41.295Z</time>
      </trkpt>
      <trkpt lat="45.96587" lon="3.34467">
        <ele>399.39401245117</ele>
        <time>2021-03-27T12:53:49.189Z</time>
      </trkpt>
      <trkpt lat="45.96597" lon="3.34496">
        <ele>399.00436401367</ele>
        <time>2021-03-27T12:53:57.088Z</time>
      </trkpt>
      <trkpt lat="45.9661" lon="3.34533">
        <ele>398.49401855469</ele>
        <time>2021-03-27T12:54:04.992Z</time>
      </trkpt>
      <trkpt lat="45.96615" lon="3.34547">
        <ele>398.84649658203</ele>
        <time>2021-03-27T12:54:12.899Z</time>
      </trkpt>
      <trkpt lat="45.96617" lon="3.34555">
        <ele>399.13439941406</ele>
        <time>2021-03-27T12:54:20.807Z</time>
      </trkpt>
      <trkpt lat="45.96617" lon="3.34562">
        <ele>399.38632202148</ele>
        <time>2021-03-27T12:54:28.716Z</time>
      </trkpt>
      <trkpt lat="45.96618" lon="3.34567">
        <ele>399.56628417969</ele>
        <time>2021-03-27T12:54:36.625Z</time>
      </trkpt>
      <trkpt lat="45.96617" lon="3.34583">
        <ele>400.13491821289</ele>
        <time>2021-03-27T12:54:44.537Z</time>
      </trkpt>
      <trkpt lat="45.96616" lon="3.34596">
        <ele>400.6028137207</ele>
        <time>2021-03-27T12:54:52.450Z</time>
      </trkpt>
      <trkpt lat="45.96614" lon="3.34589">
        <ele>400.36526489258</ele>
        <time>2021-03-27T12:55:00.364Z</time>
      </trkpt>
      <trkpt lat="45.96612" lon="3.34584">
        <ele>400.1745300293</ele>
        <time>2021-03-27T12:55:08.279Z</time>
      </trkpt>
      <trkpt lat="45.9661" lon="3.3458">
        <ele>400.04135131836</ele>
        <time>2021-03-27T12:55:16.195Z</time>
      </trkpt>
      <trkpt lat="45.96606" lon="3.34583">
        <ele>400.13851928711</ele>
        <time>2021-03-27T12:55:24.112Z</time>
      </trkpt>
      <trkpt lat="45.9661" lon="3.3458">
        <ele>400.04135131836</ele>
        <time>2021-03-27T12:55:32.030Z</time>
      </trkpt>
      <trkpt lat="45.96609" lon="3.34578">
        <ele>399.96578979492</ele>
        <time>2021-03-27T12:55:39.948Z</time>
      </trkpt>
      <trkpt lat="45.96604" lon="3.34569">
        <ele>399.62747192383</ele>
        <time>2021-03-27T12:55:47.868Z</time>
      </trkpt>
      <trkpt lat="45.9659" lon="3.34543">
        <ele>398.47314453125</ele>
        <time>2021-03-27T12:55:55.792Z</time>
      </trkpt>
      <trkpt lat="45.96578" lon="3.3452">
        <ele>397.33514404297</ele>
        <time>2021-03-27T12:56:03.720Z</time>
      </trkpt>
      <trkpt lat="45.96568" lon="3.345">
        <ele>396.98739624023</ele>
        <time>2021-03-27T12:56:11.652Z</time>
      </trkpt>
      <trkpt lat="45.96561" lon="3.34488">
        <ele>396.49008178711</ele>
        <time>2021-03-27T12:56:19.586Z</time>
      </trkpt>
      <trkpt lat="45.96558" lon="3.34483">
        <ele>396.28494262695</ele>
        <time>2021-03-27T12:56:27.521Z</time>
      </trkpt>
      <trkpt lat="45.96551" lon="3.34476">
        <ele>395.76309204102</ele>
        <time>2021-03-27T12:56:35.458Z</time>
      </trkpt>
      <trkpt lat="45.96546" lon="3.34472">
        <ele>395.41036987305</ele>
        <time>2021-03-27T12:56:43.396Z</time>
      </trkpt>
      <trkpt lat="45.96537" lon="3.34466">
        <ele>394.61163330078</ele>
        <time>2021-03-27T12:56:51.336Z</time>
      </trkpt>
      <trkpt lat="45.96508" lon="3.34447">
        <ele>391.73962402344</ele>
        <time>2021-03-27T12:56:59.282Z</time>
      </trkpt>
      <trkpt lat="45.96475" lon="3.34424">
        <ele>389.61459350586</ele>
        <time>2021-03-27T12:57:07.236Z</time>
      </trkpt>
      <trkpt lat="45.96454" lon="3.34411">
        <ele>389.06140136719</ele>
        <time>2021-03-27T12:57:15.194Z</time>
      </trkpt>
      <trkpt lat="45.96444" lon="3.34406">
        <ele>389.39251708984</ele>
        <time>2021-03-27T12:57:23.154Z</time>
      </trkpt>
      <trkpt lat="45.96435" lon="3.34403">
        <ele>389.52206420898</ele>
        <time>2021-03-27T12:57:31.116Z</time>
      </trkpt>
      <trkpt lat="45.96429" lon="3.34402">
        <ele>389.49328613281</ele>
        <time>2021-03-27T12:57:39.079Z</time>
      </trkpt>
      <trkpt lat="45.96419" lon="3.344">
        <ele>389.39611816406</ele>
        <time>2021-03-27T12:57:47.044Z</time>
      </trkpt>
      <trkpt lat="45.96403" lon="3.344">
        <ele>388.35879516602</ele>
        <time>2021-03-27T12:57:55.013Z</time>
      </trkpt>
      <trkpt lat="45.96381" lon="3.34401">
        <ele>387.36096191406</ele>
        <time>2021-03-27T12:58:02.986Z</time>
      </trkpt>
      <trkpt lat="45.96367" lon="3.34402">
        <ele>386.06970214844</ele>
        <time>2021-03-27T12:58:10.962Z</time>
      </trkpt>
      <trkpt lat="45.9636" lon="3.34403">
        <ele>385.3229675293</ele>
        <time>2021-03-27T12:58:18.939Z</time>
      </trkpt>
      <trkpt lat="45.96355" lon="3.34405">
        <ele>384.73272705078</ele>
        <time>2021-03-27T12:58:26.917Z</time>
      </trkpt>
      <trkpt lat="45.96347" lon="3.34407">
        <ele>383.87615966797</ele>
        <time>2021-03-27T12:58:34.897Z</time>
      </trkpt>
      <trkpt lat="45.96336" lon="3.3441">
        <ele>382.22769165039</ele>
        <time>2021-03-27T12:58:42.879Z</time>
      </trkpt>
      <trkpt lat="45.96326" lon="3.34413">
        <ele>380.74041748047</ele>
        <time>2021-03-27T12:58:50.863Z</time>
      </trkpt>
      <trkpt lat="45.96315" lon="3.34413">
        <ele>379.74639892578</ele>
        <time>2021-03-27T12:58:58.849Z</time>
      </trkpt>
      <trkpt lat="45.96309" lon="3.34411">
        <ele>379.40896606445</ele>
        <time>2021-03-27T12:59:06.836Z</time>
      </trkpt>
      <trkpt lat="45.96301" lon="3.3441">
        <ele>379.0598449707</ele>
        <time>2021-03-27T12:59:14.825Z</time>
      </trkpt>
      <trkpt lat="45.96295" lon="3.34407">
        <ele>378.90509033203</ele>
        <time>2021-03-27T12:59:22.815Z</time>
      </trkpt>
      <trkpt lat="45.96289" lon="3.34404">
        <ele>378.61129760742</ele>
        <time>2021-03-27T12:59:30.806Z</time>
      </trkpt>
      <trkpt lat="45.96284" lon="3.344">
        <ele>377.72232055664</ele>
        <time>2021-03-27T12:59:38.799Z</time>
      </trkpt>
      <trkpt lat="45.96276" lon="3.34392">
        <ele>376.44110107422</ele>
        <time>2021-03-27T12:59:46.794Z</time>
      </trkpt>
      <trkpt lat="45.96263" lon="3.34378">
        <ele>374.24551391602</ele>
        <time>2021-03-27T12:59:54.792Z</time>
      </trkpt>
      <trkpt lat="45.96246" lon="3.34357">
        <ele>371.91677856445</ele>
        <time>2021-03-27T13:00:02.794Z</time>
      </trkpt>
      <trkpt lat="45.96234" lon="3.3434">
        <ele>369.79095458984</ele>
        <time>2021-03-27T13:00:10.800Z</time>
      </trkpt>
      <trkpt lat="45.96225" lon="3.34325">
        <ele>368.22537231445</ele>
        <time>2021-03-27T13:00:18.808Z</time>
      </trkpt>
      <trkpt lat="45.96218" lon="3.34312">
        <ele>366.96572875977</ele>
        <time>2021-03-27T13:00:26.819Z</time>
      </trkpt>
      <trkpt lat="45.96214" lon="3.34302">
        <ele>366.11996459961</ele>
        <time>2021-03-27T13:00:34.832Z</time>
      </trkpt>
      <trkpt lat="45.96209" lon="3.34291">
        <ele>364.96484375</ele>
        <time>2021-03-27T13:00:42.846Z</time>
      </trkpt>
      <trkpt lat="45.96208" lon="3.34288">
        <ele>364.61572265625</ele>
        <time>2021-03-27T13:00:50.861Z</time>
      </trkpt>
      <trkpt lat="45.96202" lon="3.34276">
        <ele>363.70980834961</ele>
        <time>2021-03-27T13:00:58.878Z</time>
      </trkpt>
      <trkpt lat="45.96197" lon="3.34266">
        <ele>363.26031494141</ele>
        <time>2021-03-27T13:01:06.896Z</time>
      </trkpt>
      <trkpt lat="45.96192" lon="3.34256">
        <ele>362.86444091797</ele>
        <time>2021-03-27T13:01:14.916Z</time>
      </trkpt>
      <trkpt lat="45.96178" lon="3.34235">
        <ele>361.89270019531</ele>
        <time>2021-03-27T13:01:22.940Z</time>
      </trkpt>
      <trkpt lat="45.96167" lon="3.34216">
        <ele>361.02752685547</ele>
        <time>2021-03-27T13:01:30.968Z</time>
      </trkpt>
      <trkpt lat="45.96164" lon="3.34209">
        <ele>360.58843994141</ele>
        <time>2021-03-27T13:01:38.997Z</time>
      </trkpt>
      <trkpt lat="45.96163" lon="3.34205">
        <ele>360.32571411133</ele>
        <time>2021-03-27T13:01:47.026Z</time>
      </trkpt>
      <trkpt lat="45.96163" lon="3.34203">
        <ele>360.22854614258</ele>
        <time>2021-03-27T13:01:55.056Z</time>
      </trkpt>
      <trkpt lat="45.96162" lon="3.342">
        <ele>360.0881652832</ele>
        <time>2021-03-27T13:02:03.086Z</time>
      </trkpt>
      <trkpt lat="45.96162" lon="3.34196">
        <ele>359.96221923828</ele>
        <time>2021-03-27T13:02:11.117Z</time>
      </trkpt>
      <trkpt lat="45.96162" lon="3.34195">
        <ele>359.90463256836</ele>
        <time>2021-03-27T13:02:19.148Z</time>
      </trkpt>
      <trkpt lat="45.96162" lon="3.34193">
        <ele>359.84344482422</ele>
        <time>2021-03-27T13:02:27.179Z</time>
      </trkpt>
      <trkpt lat="45.96161" lon="3.34199">
        <ele>359.9658203125</ele>
        <time>2021-03-27T13:02:35.211Z</time>
      </trkpt>
      <trkpt lat="45.96157" lon="3.34193">
        <ele>359.47274780273</ele>
        <time>2021-03-27T13:02:43.244Z</time>
      </trkpt>
      <trkpt lat="45.96152" lon="3.34188">
        <ele>358.9328918457</ele>
        <time>2021-03-27T13:02:51.278Z</time>
      </trkpt>
      <trkpt lat="45.9614" lon="3.34177">
        <ele>357.67324829102</ele>
        <time>2021-03-27T13:02:59.315Z</time>
      </trkpt>
      <trkpt lat="45.96122" lon="3.34161">
        <ele>355.91290283203</ele>
        <time>2021-03-27T13:03:07.357Z</time>
      </trkpt>
      <trkpt lat="45.96097" lon="3.34139">
        <ele>355.01315307617</ele>
        <time>2021-03-27T13:03:15.404Z</time>
      </trkpt>
      <trkpt lat="45.96081" lon="3.34125">
        <ele>355</ele>
        <time>2021-03-27T13:03:23.455Z</time>
      </trkpt>
      <trkpt lat="45.96073" lon="3.34118">
        <ele>355</ele>
        <time>2021-03-27T13:03:31.508Z</time>
      </trkpt>
      <trkpt lat="45.96066" lon="3.34113">
        <ele>355</ele>
        <time>2021-03-27T13:03:39.562Z</time>
      </trkpt>
      <trkpt lat="45.9606" lon="3.34109">
        <ele>355</ele>
        <time>2021-03-27T13:03:47.618Z</time>
      </trkpt>
      <trkpt lat="45.96058" lon="3.34108">
        <ele>355</ele>
        <time>2021-03-27T13:03:55.674Z</time>
      </trkpt>
      <trkpt lat="45.96054" lon="3.34104">
        <ele>355</ele>
        <time>2021-03-27T13:04:03.731Z</time>
      </trkpt>
      <trkpt lat="45.9604" lon="3.34094">
        <ele>355.03106689453</ele>
        <time>2021-03-27T13:04:11.791Z</time>
      </trkpt>
      <trkpt lat="45.96001" lon="3.3406">
        <ele>357.11532592773</ele>
        <time>2021-03-27T13:04:19.860Z</time>
      </trkpt>
      <trkpt lat="45.95984" lon="3.34042">
        <ele>358.3176574707</ele>
        <time>2021-03-27T13:04:27.934Z</time>
      </trkpt>
      <trkpt lat="45.95962" lon="3.34021">
        <ele>359</ele>
        <time>2021-03-27T13:04:36.013Z</time>
      </trkpt>
      <trkpt lat="45.95937" lon="3.33995">
        <ele>359.75802612305</ele>
        <time>2021-03-27T13:04:44.098Z</time>
      </trkpt>
      <trkpt lat="45.95906" lon="3.33963">
        <ele>362.65707397461</ele>
        <time>2021-03-27T13:04:52.191Z</time>
      </trkpt>
      <trkpt lat="45.95903" lon="3.33969">
        <ele>362.89352416992</ele>
        <time>2021-03-27T13:05:00.285Z</time>
      </trkpt>
      <trkpt lat="45.95901" lon="3.33971">
        <ele>362.90176391602</ele>
        <time>2021-03-27T13:05:08.379Z</time>
      </trkpt>
      <trkpt lat="45.95897" lon="3.33976">
        <ele>362.71459960938</ele>
        <time>2021-03-27T13:05:16.474Z</time>
      </trkpt>
      <trkpt lat="45.95893" lon="3.33981">
        <ele>362.53463745117</ele>
        <time>2021-03-27T13:05:24.570Z</time>
      </trkpt>
      <trkpt lat="45.95888" lon="3.33986">
        <ele>362.48715209961</ele>
        <time>2021-03-27T13:05:32.668Z</time>
      </trkpt>
      <trkpt lat="45.95882" lon="3.33992">
        <ele>362.70669555664</ele>
        <time>2021-03-27T13:05:40.767Z</time>
      </trkpt>
      <trkpt lat="45.95872" lon="3.34001">
        <ele>362.83801269531</ele>
        <time>2021-03-27T13:05:48.869Z</time>
      </trkpt>
      <trkpt lat="45.95858" lon="3.34014">
        <ele>362.10775756836</ele>
        <time>2021-03-27T13:05:56.974Z</time>
      </trkpt>
      <trkpt lat="45.95836" lon="3.34034">
        <ele>361.6735534668</ele>
        <time>2021-03-27T13:06:05.084Z</time>
      </trkpt>
      <trkpt lat="45.95822" lon="3.34048">
        <ele>361.16967773438</ele>
        <time>2021-03-27T13:06:13.197Z</time>
      </trkpt>
      <trkpt lat="45.95818" lon="3.34053">
        <ele>360.93743896484</ele>
        <time>2021-03-27T13:06:21.312Z</time>
      </trkpt>
      <trkpt lat="45.9581" lon="3.34064">
        <ele>360.09527587891</ele>
        <time>2021-03-27T13:06:29.429Z</time>
      </trkpt>
      <trkpt lat="45.95806" lon="3.34071">
        <ele>359.71737670898</ele>
        <time>2021-03-27T13:06:37.547Z</time>
      </trkpt>
      <trkpt lat="45.95801" lon="3.34081">
        <ele>359.11276245117</ele>
        <time>2021-03-27T13:06:45.667Z</time>
      </trkpt>
      <trkpt lat="45.95796" lon="3.34092">
        <ele>358.5837097168</ele>
        <time>2021-03-27T13:06:53.789Z</time>
      </trkpt>
      <trkpt lat="45.95791" lon="3.34104">
        <ele>358.06546020508</ele>
        <time>2021-03-27T13:07:01.912Z</time>
      </trkpt>
      <trkpt lat="45.95786" lon="3.34119">
        <ele>356.87789916992</ele>
        <time>2021-03-27T13:07:10.038Z</time>
      </trkpt>
      <trkpt lat="45.9578" lon="3.34135">
        <ele>356.26623535156</ele>
        <time>2021-03-27T13:07:18.166Z</time>
      </trkpt>
      <trkpt lat="45.95772" lon="3.34161">
        <ele>355.03088378906</ele>
        <time>2021-03-27T13:07:26.298Z</time>
      </trkpt>
      <trkpt lat="45.95761" lon="3.34193">
        <ele>352.82168579102</ele>
        <time>2021-03-27T13:07:34.435Z</time>
      </trkpt>
      <trkpt lat="45.95752" lon="3.3422">
        <ele>351.53686523438</ele>
        <time>2021-03-27T13:07:42.576Z</time>
      </trkpt>
      <trkpt lat="45.95747" lon="3.3423">
        <ele>350.97900390625</ele>
        <time>2021-03-27T13:07:50.719Z</time>
      </trkpt>
      <trkpt lat="45.95742" lon="3.34241">
        <ele>350.4211730957</ele>
        <time>2021-03-27T13:07:58.864Z</time>
      </trkpt>
      <trkpt lat="45.9574" lon="3.34245">
        <ele>350.22680664062</ele>
        <time>2021-03-27T13:08:07.010Z</time>
      </trkpt>
      <trkpt lat="45.95727" lon="3.34272">
        <ele>349.43692016602</ele>
        <time>2021-03-27T13:08:15.160Z</time>
      </trkpt>
      <trkpt lat="45.9571" lon="3.3431">
        <ele>348.08862304688</ele>
        <time>2021-03-27T13:08:23.317Z</time>
      </trkpt>
      <trkpt lat="45.95692" lon="3.34348">
        <ele>346.89602661133</ele>
        <time>2021-03-27T13:08:31.480Z</time>
      </trkpt>
      <trkpt lat="45.95674" lon="3.34385">
        <ele>345.78048706055</ele>
        <time>2021-03-27T13:08:39.649Z</time>
      </trkpt>
      <trkpt lat="45.9566" lon="3.34418">
        <ele>344.10336303711</ele>
        <time>2021-03-27T13:08:47.824Z</time>
      </trkpt>
      <trkpt lat="45.95645" lon="3.34451">
        <ele>342.00238037109</ele>
        <time>2021-03-27T13:08:56.004Z</time>
      </trkpt>
      <trkpt lat="45.95637" lon="3.34466">
        <ele>341.06509399414</ele>
        <time>2021-03-27T13:09:04.187Z</time>
      </trkpt>
      <trkpt lat="45.9563" lon="3.34482">
        <ele>340.48565673828</ele>
        <time>2021-03-27T13:09:12.372Z</time>
      </trkpt>
      <trkpt lat="45.95617" lon="3.3451">
        <ele>340.25485229492</ele>
        <time>2021-03-27T13:09:20.562Z</time>
      </trkpt>
      <trkpt lat="45.95611" lon="3.3452">
        <ele>340.47796630859</ele>
        <time>2021-03-27T13:09:28.754Z</time>
      </trkpt>
      <trkpt lat="45.95606" lon="3.34526">
        <ele>340.7522277832</ele>
        <time>2021-03-27T13:09:36.947Z</time>
      </trkpt>
      <trkpt lat="45.95602" lon="3.34529">
        <ele>340.99694824219</ele>
        <time>2021-03-27T13:09:45.141Z</time>
      </trkpt>
      <trkpt lat="45.95598" lon="3.34533">
        <ele>341</ele>
        <time>2021-03-27T13:09:53.336Z</time>
      </trkpt>
      <trkpt lat="45.9559" lon="3.34538">
        <ele>341</ele>
        <time>2021-03-27T13:10:01.533Z</time>
      </trkpt>
      <trkpt lat="45.95575" lon="3.34547">
        <ele>341</ele>
        <time>2021-03-27T13:10:09.733Z</time>
      </trkpt>
      <trkpt lat="45.95549" lon="3.34562">
        <ele>341</ele>
        <time>2021-03-27T13:10:17.939Z</time>
      </trkpt>
      <trkpt lat="45.95527" lon="3.34575">
        <ele>341.82409667969</ele>
        <time>2021-03-27T13:10:26.149Z</time>
      </trkpt>
      <trkpt lat="45.95521" lon="3.34579">
        <ele>342.38552856445</ele>
        <time>2021-03-27T13:10:34.361Z</time>
      </trkpt>
      <trkpt lat="45.95518" lon="3.3458">
        <ele>342.59970092773</ele>
        <time>2021-03-27T13:10:42.573Z</time>
      </trkpt>
      <trkpt lat="45.95512" lon="3.34585">
        <ele>343</ele>
        <time>2021-03-27T13:10:50.787Z</time>
      </trkpt>
      <trkpt lat="45.95506" lon="3.34591">
        <ele>343</ele>
        <time>2021-03-27T13:10:59.002Z</time>
      </trkpt>
      <trkpt lat="45.95501" lon="3.34595">
        <ele>343</ele>
        <time>2021-03-27T13:11:07.218Z</time>
      </trkpt>
      <trkpt lat="45.95494" lon="3.34603">
        <ele>343</ele>
        <time>2021-03-27T13:11:15.436Z</time>
      </trkpt>
      <trkpt lat="45.95484" lon="3.34614">
        <ele>343.23980712891</ele>
        <time>2021-03-27T13:11:23.657Z</time>
      </trkpt>
      <trkpt lat="45.95471" lon="3.34628">
        <ele>343.7724609375</ele>
        <time>2021-03-27T13:11:31.881Z</time>
      </trkpt>
      <trkpt lat="45.95444" lon="3.34657">
        <ele>344.27209472656</ele>
        <time>2021-03-27T13:11:40.112Z</time>
      </trkpt>
      <trkpt lat="45.95424" lon="3.34677">
        <ele>345.1865234375</ele>
        <time>2021-03-27T13:11:48.348Z</time>
      </trkpt>
      <trkpt lat="45.95412" lon="3.34689">
        <ele>345.63278198242</ele>
        <time>2021-03-27T13:11:56.587Z</time>
      </trkpt>
      <trkpt lat="45.95398" lon="3.34701">
        <ele>345.61465454102</ele>
        <time>2021-03-27T13:12:04.829Z</time>
      </trkpt>
      <trkpt lat="45.95392" lon="3.34706">
        <ele>345.42749023438</ele>
        <time>2021-03-27T13:12:13.072Z</time>
      </trkpt>
      <trkpt lat="45.95387" lon="3.3471">
        <ele>345.30154418945</ele>
        <time>2021-03-27T13:12:21.316Z</time>
      </trkpt>
      <trkpt lat="45.95381" lon="3.34713">
        <ele>345.18276977539</ele>
        <time>2021-03-27T13:12:29.562Z</time>
      </trkpt>
      <trkpt lat="45.95375" lon="3.34716">
        <ele>345.06039428711</ele>
        <time>2021-03-27T13:12:37.809Z</time>
      </trkpt>
      <trkpt lat="45.95369" lon="3.34719">
        <ele>345</ele>
        <time>2021-03-27T13:12:46.057Z</time>
      </trkpt>
      <trkpt lat="45.95352" lon="3.34728">
        <ele>345</ele>
        <time>2021-03-27T13:12:54.309Z</time>
      </trkpt>
      <trkpt lat="45.95332" lon="3.34738">
        <ele>344.74945068359</ele>
        <time>2021-03-27T13:13:02.565Z</time>
      </trkpt>
      <trkpt lat="45.95317" lon="3.34746">
        <ele>344.03024291992</ele>
        <time>2021-03-27T13:13:10.824Z</time>
      </trkpt>
      <trkpt lat="45.95322" lon="3.34748">
        <ele>344.13171386719</ele>
        <time>2021-03-27T13:13:19.084Z</time>
      </trkpt>
      <trkpt lat="45.95329" lon="3.34752">
        <ele>344.39083862305</ele>
        <time>2021-03-27T13:13:27.346Z</time>
      </trkpt>
      <trkpt lat="45.9533" lon="3.34753">
        <ele>344.43762207031</ele>
        <time>2021-03-27T13:13:35.608Z</time>
      </trkpt>
      <trkpt lat="45.95329" lon="3.34752">
        <ele>344.39083862305</ele>
        <time>2021-03-27T13:13:43.870Z</time>
      </trkpt>
      <trkpt lat="45.95322" lon="3.34748">
        <ele>344.13171386719</ele>
        <time>2021-03-27T13:13:52.134Z</time>
      </trkpt>
      <trkpt lat="45.95317" lon="3.34746">
        <ele>344.03024291992</ele>
        <time>2021-03-27T13:14:00.399Z</time>
      </trkpt>
      <trkpt lat="45.95315" lon="3.34745">
        <ele>344.07113647461</ele>
        <time>2021-03-27T13:14:08.664Z</time>
      </trkpt>
      <trkpt lat="45.95309" lon="3.34743">
        <ele>344.25109863281</ele>
        <time>2021-03-27T13:14:16.930Z</time>
      </trkpt>
      <trkpt lat="45.95304" lon="3.34742">
        <ele>344.40585327148</ele>
        <time>2021-03-27T13:14:25.197Z</time>
      </trkpt>
      <trkpt lat="45.95299" lon="3.34742">
        <ele>344.5498046875</ele>
        <time>2021-03-27T13:14:33.465Z</time>
      </trkpt>
      <trkpt lat="45.95292" lon="3.34741">
        <ele>344.77655029297</ele>
        <time>2021-03-27T13:14:41.735Z</time>
      </trkpt>
      <trkpt lat="45.95289" lon="3.34741">
        <ele>344.89169311523</ele>
        <time>2021-03-27T13:14:50.005Z</time>
      </trkpt>
      <trkpt lat="45.95258" lon="3.34742">
        <ele>345.04699707031</ele>
        <time>2021-03-27T13:14:58.282Z</time>
      </trkpt>
      <trkpt lat="45.95241" lon="3.3474">
        <ele>345.58325195312</ele>
        <time>2021-03-27T13:15:06.562Z</time>
      </trkpt>
      <trkpt lat="45.95237" lon="3.34739">
        <ele>345.66961669922</ele>
        <time>2021-03-27T13:15:14.843Z</time>
      </trkpt>
      <trkpt lat="45.95235" lon="3.34738">
        <ele>345.71279907227</ele>
        <time>2021-03-27T13:15:23.124Z</time>
      </trkpt>
      <trkpt lat="45.9523" lon="3.34745">
        <ele>346.27008056641</ele>
        <time>2021-03-27T13:15:31.407Z</time>
      </trkpt>
      <trkpt lat="45.95227" lon="3.34748">
        <ele>346.62637329102</ele>
        <time>2021-03-27T13:15:39.690Z</time>
      </trkpt>
      <trkpt lat="45.95224" lon="3.34751">
        <ele>346.96469116211</ele>
        <time>2021-03-27T13:15:47.974Z</time>
      </trkpt>
      <trkpt lat="45.9522" lon="3.34754">
        <ele>347.37857055664</ele>
        <time>2021-03-27T13:15:56.259Z</time>
      </trkpt>
      <trkpt lat="45.95206" lon="3.3476">
        <ele>348</ele>
        <time>2021-03-27T13:16:04.547Z</time>
      </trkpt>
      <trkpt lat="45.95192" lon="3.34766">
        <ele>348</ele>
        <time>2021-03-27T13:16:12.838Z</time>
      </trkpt>
      <trkpt lat="45.95186" lon="3.34769">
        <ele>348</ele>
        <time>2021-03-27T13:16:21.130Z</time>
      </trkpt>
      <trkpt lat="45.95179" lon="3.34772">
        <ele>347.99954223633</ele>
        <time>2021-03-27T13:16:29.424Z</time>
      </trkpt>
      <trkpt lat="45.95168" lon="3.34779">
        <ele>347.60363769531</ele>
        <time>2021-03-27T13:16:37.720Z</time>
      </trkpt>
      <trkpt lat="45.95136" lon="3.348">
        <ele>348.48434448242</ele>
        <time>2021-03-27T13:16:46.023Z</time>
      </trkpt>
      <trkpt lat="45.95094" lon="3.3483">
        <ele>349.93963623047</ele>
        <time>2021-03-27T13:16:54.336Z</time>
      </trkpt>
      <trkpt lat="45.9508" lon="3.34841">
        <ele>349.88388061523</ele>
        <time>2021-03-27T13:17:02.652Z</time>
      </trkpt>
      <trkpt lat="45.95074" lon="3.34847">
        <ele>350.31576538086</ele>
        <time>2021-03-27T13:17:10.969Z</time>
      </trkpt>
      <trkpt lat="45.95067" lon="3.34856">
        <ele>350.90600585938</ele>
        <time>2021-03-27T13:17:19.288Z</time>
      </trkpt>
      <trkpt lat="45.95056" lon="3.34867">
        <ele>351.37768554688</ele>
        <time>2021-03-27T13:17:27.610Z</time>
      </trkpt>
      <trkpt lat="45.95043" lon="3.34881">
        <ele>351.85995483398</ele>
        <time>2021-03-27T13:17:35.935Z</time>
      </trkpt>
      <trkpt lat="45.95036" lon="3.34889">
        <ele>352.15423583984</ele>
        <time>2021-03-27T13:17:44.262Z</time>
      </trkpt>
      <trkpt lat="45.95022" lon="3.34904">
        <ele>352.67608642578</ele>
        <time>2021-03-27T13:17:52.592Z</time>
      </trkpt>
      <trkpt lat="45.94997" lon="3.34933">
        <ele>354.67352294922</ele>
        <time>2021-03-27T13:18:00.929Z</time>
      </trkpt>
      <trkpt lat="45.9497" lon="3.34964">
        <ele>356.7919921875</ele>
        <time>2021-03-27T13:18:09.273Z</time>
      </trkpt>
      <trkpt lat="45.94955" lon="3.34983">
        <ele>358.24890136719</ele>
        <time>2021-03-27T13:18:17.621Z</time>
      </trkpt>
      <trkpt lat="45.94952" lon="3.34988">
        <ele>358.73837280273</ele>
        <time>2021-03-27T13:18:25.969Z</time>
      </trkpt>
      <trkpt lat="45.94951" lon="3.34989">
        <ele>358.85354614258</ele>
        <time>2021-03-27T13:18:34.318Z</time>
      </trkpt>
      <trkpt lat="45.94947" lon="3.3499">
        <ele>359.38619995117</ele>
        <time>2021-03-27T13:18:42.668Z</time>
      </trkpt>
      <trkpt lat="45.94946" lon="3.3499">
        <ele>359.64532470703</ele>
        <time>2021-03-27T13:18:51.018Z</time>
      </trkpt>
      <trkpt lat="45.94942" lon="3.3499">
        <ele>360.17797851562</ele>
        <time>2021-03-27T13:18:59.369Z</time>
      </trkpt>
      <trkpt lat="45.9494" lon="3.34991">
        <ele>360.50909423828</ele>
        <time>2021-03-27T13:19:07.720Z</time>
      </trkpt>
      <trkpt lat="45.94936" lon="3.34993">
        <ele>361.07052612305</ele>
        <time>2021-03-27T13:19:16.072Z</time>
      </trkpt>
      <trkpt lat="45.94931" lon="3.34996">
        <ele>361.77593994141</ele>
        <time>2021-03-27T13:19:24.425Z</time>
      </trkpt>
      <trkpt lat="45.94906" lon="3.35014">
        <ele>363.03366088867</ele>
        <time>2021-03-27T13:19:32.784Z</time>
      </trkpt>
      <trkpt lat="45.94879" lon="3.35033">
        <ele>363.48861694336</ele>
        <time>2021-03-27T13:19:41.149Z</time>
      </trkpt>
      <trkpt lat="45.94874" lon="3.35036">
        <ele>363.54260253906</ele>
        <time>2021-03-27T13:19:49.515Z</time>
      </trkpt>
      <trkpt lat="45.94871" lon="3.35039">
        <ele>363.37542724609</ele>
        <time>2021-03-27T13:19:57.881Z</time>
      </trkpt>
      <trkpt lat="45.94869" lon="3.3504">
        <ele>363.2350769043</ele>
        <time>2021-03-27T13:20:06.248Z</time>
      </trkpt>
      <trkpt lat="45.94866" lon="3.35025">
        <ele>363.67416381836</ele>
        <time>2021-03-27T13:20:14.617Z</time>
      </trkpt>
      <trkpt lat="45.94869" lon="3.3504">
        <ele>363.2350769043</ele>
        <time>2021-03-27T13:20:22.988Z</time>
      </trkpt>
      <trkpt lat="45.94867" lon="3.35042">
        <ele>363.09832763672</ele>
        <time>2021-03-27T13:20:31.360Z</time>
      </trkpt>
      <trkpt lat="45.94863" lon="3.35047">
        <ele>363</ele>
        <time>2021-03-27T13:20:39.733Z</time>
      </trkpt>
      <trkpt lat="45.94856" lon="3.35055">
        <ele>362.87777709961</ele>
        <time>2021-03-27T13:20:48.108Z</time>
      </trkpt>
      <trkpt lat="45.94833" lon="3.35082">
        <ele>363.56134033203</ele>
        <time>2021-03-27T13:20:56.489Z</time>
      </trkpt>
      <trkpt lat="45.94812" lon="3.35106">
        <ele>364.94689941406</ele>
        <time>2021-03-27T13:21:04.875Z</time>
      </trkpt>
      <trkpt lat="45.94787" lon="3.35137">
        <ele>366.13958740234</ele>
        <time>2021-03-27T13:21:13.268Z</time>
      </trkpt>
      <trkpt lat="45.94779" lon="3.35147">
        <ele>366.88098144531</ele>
        <time>2021-03-27T13:21:21.663Z</time>
      </trkpt>
      <trkpt lat="45.94772" lon="3.35156">
        <ele>367.09799194336</ele>
        <time>2021-03-27T13:21:30.060Z</time>
      </trkpt>
      <trkpt lat="45.94765" lon="3.35164">
        <ele>367.14120483398</ele>
        <time>2021-03-27T13:21:38.458Z</time>
      </trkpt>
      <trkpt lat="45.94753" lon="3.35177">
        <ele>368.04037475586</ele>
        <time>2021-03-27T13:21:46.859Z</time>
      </trkpt>
      <trkpt lat="45.94732" lon="3.352">
        <ele>369.11437988281</ele>
        <time>2021-03-27T13:21:55.266Z</time>
      </trkpt>
      <trkpt lat="45.94703" lon="3.35231">
        <ele>369.00735473633</ele>
        <time>2021-03-27T13:22:03.680Z</time>
      </trkpt>
      <trkpt lat="45.94699" lon="3.35236">
        <ele>368.75180053711</ele>
        <time>2021-03-27T13:22:12.095Z</time>
      </trkpt>
      <trkpt lat="45.94696" lon="3.35242">
        <ele>368.66543579102</ele>
        <time>2021-03-27T13:22:20.511Z</time>
      </trkpt>
      <trkpt lat="45.94694" lon="3.35247">
        <ele>368.61865234375</ele>
        <time>2021-03-27T13:22:28.928Z</time>
      </trkpt>
      <trkpt lat="45.94693" lon="3.35251">
        <ele>368.64743041992</ele>
        <time>2021-03-27T13:22:37.345Z</time>
      </trkpt>
      <trkpt lat="45.94692" lon="3.35254">
        <ele>368.67984008789</ele>
        <time>2021-03-27T13:22:45.763Z</time>
      </trkpt>
      <trkpt lat="45.94691" lon="3.35262">
        <ele>368.83819580078</ele>
        <time>2021-03-27T13:22:54.182Z</time>
      </trkpt>
      <trkpt lat="45.9469" lon="3.3526">
        <ele>368.73022460938</ele>
        <time>2021-03-27T13:23:02.601Z</time>
      </trkpt>
      <trkpt lat="45.94688" lon="3.35254">
        <ele>368.22274780273</ele>
        <time>2021-03-27T13:23:11.021Z</time>
      </trkpt>
      <trkpt lat="45.94684" lon="3.35248">
        <ele>367.66131591797</ele>
        <time>2021-03-27T13:23:19.442Z</time>
      </trkpt>
      <trkpt lat="45.94688" lon="3.35254">
        <ele>368.22274780273</ele>
        <time>2021-03-27T13:23:27.864Z</time>
      </trkpt>
      <trkpt lat="45.9469" lon="3.3526">
        <ele>368.73022460938</ele>
        <time>2021-03-27T13:23:36.287Z</time>
      </trkpt>
      <trkpt lat="45.94691" lon="3.35262">
        <ele>368.83819580078</ele>
        <time>2021-03-27T13:23:44.711Z</time>
      </trkpt>
      <trkpt lat="45.94694" lon="3.3527">
        <ele>369.43920898438</ele>
        <time>2021-03-27T13:23:53.136Z</time>
      </trkpt>
      <trkpt lat="45.94697" lon="3.35279">
        <ele>370.09423828125</ele>
        <time>2021-03-27T13:24:01.562Z</time>
      </trkpt>
      <trkpt lat="45.94697" lon="3.3528">
        <ele>370.16262817383</ele>
        <time>2021-03-27T13:24:09.988Z</time>
      </trkpt>
      <trkpt lat="45.94697" lon="3.35288">
        <ele>370.40734863281</ele>
        <time>2021-03-27T13:24:18.416Z</time>
      </trkpt>
      <trkpt lat="45.94696" lon="3.35294">
        <ele>370.53332519531</ele>
        <time>2021-03-27T13:24:26.845Z</time>
      </trkpt>
      <trkpt lat="45.94694" lon="3.35301">
        <ele>370.60528564453</ele>
        <time>2021-03-27T13:24:35.275Z</time>
      </trkpt>
      <trkpt lat="45.94691" lon="3.35311">
        <ele>370.98413085938</ele>
        <time>2021-03-27T13:24:43.706Z</time>
      </trkpt>
      <trkpt lat="45.94685" lon="3.35331">
        <ele>370.13916015625</ele>
        <time>2021-03-27T13:24:52.140Z</time>
      </trkpt>
      <trkpt lat="45.94681" lon="3.35338">
        <ele>370.16021728516</ele>
        <time>2021-03-27T13:25:00.575Z</time>
      </trkpt>
      <trkpt lat="45.94678" lon="3.35347">
        <ele>370.16366577148</ele>
        <time>2021-03-27T13:25:09.012Z</time>
      </trkpt>
      <trkpt lat="45.94674" lon="3.35352">
        <ele>370.28604125977</ele>
        <time>2021-03-27T13:25:17.450Z</time>
      </trkpt>
      <trkpt lat="45.94671" lon="3.35357">
        <ele>369.83764648438</ele>
        <time>2021-03-27T13:25:25.889Z</time>
      </trkpt>
      <trkpt lat="45.94667" lon="3.3536">
        <ele>369.41854858398</ele>
        <time>2021-03-27T13:25:34.328Z</time>
      </trkpt>
      <trkpt lat="45.94663" lon="3.35364">
        <ele>368.88949584961</ele>
        <time>2021-03-27T13:25:42.769Z</time>
      </trkpt>
      <trkpt lat="45.94648" lon="3.35371">
        <ele>367.27993774414</ele>
        <time>2021-03-27T13:25:51.213Z</time>
      </trkpt>
      <trkpt lat="45.94639" lon="3.35375">
        <ele>366.66241455078</ele>
        <time>2021-03-27T13:25:59.659Z</time>
      </trkpt>
      <trkpt lat="45.94629" lon="3.35381">
        <ele>365.56109619141</ele>
        <time>2021-03-27T13:26:08.107Z</time>
      </trkpt>
      <trkpt lat="45.94616" lon="3.35388">
        <ele>364.11538696289</ele>
        <time>2021-03-27T13:26:16.557Z</time>
      </trkpt>
      <trkpt lat="45.94603" lon="3.35396">
        <ele>362.28036499023</ele>
        <time>2021-03-27T13:26:25.010Z</time>
      </trkpt>
      <trkpt lat="45.94588" lon="3.35406">
        <ele>359.63214111328</ele>
        <time>2021-03-27T13:26:33.467Z</time>
      </trkpt>
      <trkpt lat="45.94579" lon="3.35412">
        <ele>358.19973754883</ele>
        <time>2021-03-27T13:26:41.926Z</time>
      </trkpt>
      <trkpt lat="45.94572" lon="3.35417">
        <ele>357.3210144043</ele>
        <time>2021-03-27T13:26:50.386Z</time>
      </trkpt>
      <trkpt lat="45.94567" lon="3.35419">
        <ele>356.45062255859</ele>
        <time>2021-03-27T13:26:58.847Z</time>
      </trkpt>
      <trkpt lat="45.94555" lon="3.35424">
        <ele>354.81307983398</ele>
        <time>2021-03-27T13:27:07.311Z</time>
      </trkpt>
      <trkpt lat="45.94534" lon="3.35431">
        <ele>352.24865722656</ele>
        <time>2021-03-27T13:27:15.779Z</time>
      </trkpt>
      <trkpt lat="45.94518" lon="3.35436">
        <ele>350.08404541016</ele>
        <time>2021-03-27T13:27:24.250Z</time>
      </trkpt>
      <trkpt lat="45.94511" lon="3.3544">
        <ele>348.7278137207</ele>
        <time>2021-03-27T13:27:32.723Z</time>
      </trkpt>
      <trkpt lat="45.94504" lon="3.35443">
        <ele>346.8059387207</ele>
        <time>2021-03-27T13:27:41.197Z</time>
      </trkpt>
      <trkpt lat="45.94496" lon="3.35449">
        <ele>344.57095336914</ele>
        <time>2021-03-27T13:27:49.673Z</time>
      </trkpt>
      <trkpt lat="45.94488" lon="3.35455">
        <ele>342.19561767578</ele>
        <time>2021-03-27T13:27:58.151Z</time>
      </trkpt>
      <trkpt lat="45.94479" lon="3.35461">
        <ele>339.70065307617</ele>
        <time>2021-03-27T13:28:06.631Z</time>
      </trkpt>
      <trkpt lat="45.9447" lon="3.35466">
        <ele>338.00869750977</ele>
        <time>2021-03-27T13:28:15.113Z</time>
      </trkpt>
      <trkpt lat="45.94454" lon="3.35475">
        <ele>335.65795898438</ele>
        <time>2021-03-27T13:28:23.598Z</time>
      </trkpt>
      <trkpt lat="45.94445" lon="3.3548">
        <ele>335.12890625</ele>
        <time>2021-03-27T13:28:32.085Z</time>
      </trkpt>
      <trkpt lat="45.94439" lon="3.35484">
        <ele>334.77621459961</ele>
        <time>2021-03-27T13:28:40.574Z</time>
      </trkpt>
      <trkpt lat="45.94434" lon="3.35488">
        <ele>334.45590209961</ele>
        <time>2021-03-27T13:28:49.064Z</time>
      </trkpt>
      <trkpt lat="45.94419" lon="3.35501">
        <ele>331.98449707031</ele>
        <time>2021-03-27T13:28:57.557Z</time>
      </trkpt>
      <trkpt lat="45.94405" lon="3.35512">
        <ele>329.22213745117</ele>
        <time>2021-03-27T13:29:06.053Z</time>
      </trkpt>
      <trkpt lat="45.94397" lon="3.35518">
        <ele>327.80706787109</ele>
        <time>2021-03-27T13:29:14.551Z</time>
      </trkpt>
      <trkpt lat="45.94394" lon="3.3552">
        <ele>327.35580444336</ele>
        <time>2021-03-27T13:29:23.050Z</time>
      </trkpt>
      <trkpt lat="45.94385" lon="3.35526">
        <ele>326.10900878906</ele>
        <time>2021-03-27T13:29:31.551Z</time>
      </trkpt>
      <trkpt lat="45.94372" lon="3.35535">
        <ele>324.40460205078</ele>
        <time>2021-03-27T13:29:40.055Z</time>
      </trkpt>
      <trkpt lat="45.94355" lon="3.35545">
        <ele>322.25961303711</ele>
        <time>2021-03-27T13:29:48.562Z</time>
      </trkpt>
      <trkpt lat="45.94342" lon="3.35552">
        <ele>320.71017456055</ele>
        <time>2021-03-27T13:29:57.072Z</time>
      </trkpt>
      <trkpt lat="45.94333" lon="3.35557">
        <ele>319.90399169922</ele>
        <time>2021-03-27T13:30:05.584Z</time>
      </trkpt>
      <trkpt lat="45.94325" lon="3.35562">
        <ele>319.12301635742</ele>
        <time>2021-03-27T13:30:14.098Z</time>
      </trkpt>
      <trkpt lat="45.94315" lon="3.35566">
        <ele>318.2844543457</ele>
        <time>2021-03-27T13:30:22.614Z</time>
      </trkpt>
      <trkpt lat="45.94306" lon="3.3557">
        <ele>317.49984741211</ele>
        <time>2021-03-27T13:30:31.132Z</time>
      </trkpt>
      <trkpt lat="45.94296" lon="3.35573">
        <ele>316.67208862305</ele>
        <time>2021-03-27T13:30:39.652Z</time>
      </trkpt>
      <trkpt lat="45.94287" lon="3.35576">
        <ele>315.87670898438</ele>
        <time>2021-03-27T13:30:48.174Z</time>
      </trkpt>
      <trkpt lat="45.94271" lon="3.3558">
        <ele>314.59085083008</ele>
        <time>2021-03-27T13:30:56.699Z</time>
      </trkpt>
      <trkpt lat="45.94246" lon="3.35587">
        <ele>313.13037109375</ele>
        <time>2021-03-27T13:31:05.229Z</time>
      </trkpt>
      <trkpt lat="45.94218" lon="3.35596">
        <ele>311.82754516602</ele>
        <time>2021-03-27T13:31:13.765Z</time>
      </trkpt>
      <trkpt lat="45.94207" lon="3.356">
        <ele>311.24374389648</ele>
        <time>2021-03-27T13:31:22.303Z</time>
      </trkpt>
      <trkpt lat="45.94194" lon="3.35605">
        <ele>310.19644165039</ele>
        <time>2021-03-27T13:31:30.844Z</time>
      </trkpt>
      <trkpt lat="45.94175" lon="3.35614">
        <ele>308.5817565918</ele>
        <time>2021-03-27T13:31:39.389Z</time>
      </trkpt>
      <trkpt lat="45.94164" lon="3.35621">
        <ele>308</ele>
        <time>2021-03-27T13:31:47.936Z</time>
      </trkpt>
      <trkpt lat="45.94156" lon="3.35624">
        <ele>308</ele>
        <time>2021-03-27T13:31:56.485Z</time>
      </trkpt>
      <trkpt lat="45.94148" lon="3.35628">
        <ele>307.78048706055</ele>
        <time>2021-03-27T13:32:05.035Z</time>
      </trkpt>
      <trkpt lat="45.94135" lon="3.35633">
        <ele>307.34680175781</ele>
        <time>2021-03-27T13:32:13.588Z</time>
      </trkpt>
      <trkpt lat="45.94126" lon="3.35636">
        <ele>307.0732421875</ele>
        <time>2021-03-27T13:32:22.143Z</time>
      </trkpt>
      <trkpt lat="45.94118" lon="3.35638">
        <ele>306.53109741211</ele>
        <time>2021-03-27T13:32:30.700Z</time>
      </trkpt>
      <trkpt lat="45.94103" lon="3.3564">
        <ele>305.32904052734</ele>
        <time>2021-03-27T13:32:39.260Z</time>
      </trkpt>
      <trkpt lat="45.94091" lon="3.35641">
        <ele>305</ele>
        <time>2021-03-27T13:32:47.822Z</time>
      </trkpt>
      <trkpt lat="45.94084" lon="3.35641">
        <ele>305</ele>
        <time>2021-03-27T13:32:56.386Z</time>
      </trkpt>
      <trkpt lat="45.94081" lon="3.35641">
        <ele>305</ele>
        <time>2021-03-27T13:33:04.950Z</time>
      </trkpt>
      <trkpt lat="45.94071" lon="3.35641">
        <ele>304.89587402344</ele>
        <time>2021-03-27T13:33:13.516Z</time>
      </trkpt>
      <trkpt lat="45.94067" lon="3.35641">
        <ele>304.78045654297</ele>
        <time>2021-03-27T13:33:22.083Z</time>
      </trkpt>
      <trkpt lat="45.94063" lon="3.35645">
        <ele>304.6257019043</ele>
        <time>2021-03-27T13:33:30.651Z</time>
      </trkpt>
      <trkpt lat="45.94058" lon="3.3565">
        <ele>304.46374511719</ele>
        <time>2021-03-27T13:33:39.220Z</time>
      </trkpt>
      <trkpt lat="45.94053" lon="3.35653">
        <ele>304.34136962891</ele>
        <time>2021-03-27T13:33:47.790Z</time>
      </trkpt>
      <trkpt lat="45.94048" lon="3.35656">
        <ele>304.25500488281</ele>
        <time>2021-03-27T13:33:56.361Z</time>
      </trkpt>
      <trkpt lat="45.94041" lon="3.35658">
        <ele>304.18661499023</ele>
        <time>2021-03-27T13:34:04.934Z</time>
      </trkpt>
      <trkpt lat="45.94039" lon="3.35658">
        <ele>304.16860961914</ele>
        <time>2021-03-27T13:34:13.507Z</time>
      </trkpt>
      <trkpt lat="45.94006" lon="3.35665">
        <ele>303.66036987305</ele>
        <time>2021-03-27T13:34:22.087Z</time>
      </trkpt>
      <trkpt lat="45.93957" lon="3.35675">
        <ele>302</ele>
        <time>2021-03-27T13:34:30.677Z</time>
      </trkpt>
      <trkpt lat="45.93927" lon="3.35681">
        <ele>302.92565917969</ele>
        <time>2021-03-27T13:34:39.273Z</time>
      </trkpt>
      <trkpt lat="45.93914" lon="3.35685">
        <ele>302.45419311523</ele>
        <time>2021-03-27T13:34:47.871Z</time>
      </trkpt>
      <trkpt lat="45.93905" lon="3.35688">
        <ele>302.14828491211</ele>
        <time>2021-03-27T13:34:56.471Z</time>
      </trkpt>
      <trkpt lat="45.93898" lon="3.3569">
        <ele>301.89889526367</ele>
        <time>2021-03-27T13:35:05.073Z</time>
      </trkpt>
      <trkpt lat="45.93898" lon="3.35691">
        <ele>301.87368774414</ele>
        <time>2021-03-27T13:35:13.675Z</time>
      </trkpt>
      <trkpt lat="45.93891" lon="3.35696">
        <ele>301.44900512695</ele>
        <time>2021-03-27T13:35:22.278Z</time>
      </trkpt>
      <trkpt lat="45.93884" lon="3.35701">
        <ele>301.01351928711</ele>
        <time>2021-03-27T13:35:30.883Z</time>
      </trkpt>
      <trkpt lat="45.93879" lon="3.35706">
        <ele>301</ele>
        <time>2021-03-27T13:35:39.489Z</time>
      </trkpt>
      <trkpt lat="45.93872" lon="3.35713">
        <ele>301</ele>
        <time>2021-03-27T13:35:48.097Z</time>
      </trkpt>
      <trkpt lat="45.93865" lon="3.3572">
        <ele>301</ele>
        <time>2021-03-27T13:35:56.706Z</time>
      </trkpt>
      <trkpt lat="45.9386" lon="3.35727">
        <ele>301</ele>
        <time>2021-03-27T13:36:05.317Z</time>
      </trkpt>
      <trkpt lat="45.93851" lon="3.3574">
        <ele>301</ele>
        <time>2021-03-27T13:36:13.930Z</time>
      </trkpt>
      <trkpt lat="45.93839" lon="3.35759">
        <ele>301</ele>
        <time>2021-03-27T13:36:22.547Z</time>
      </trkpt>
      <trkpt lat="45.93827" lon="3.3578">
        <ele>300.77062988281</ele>
        <time>2021-03-27T13:36:31.168Z</time>
      </trkpt>
      <trkpt lat="45.93815" lon="3.35799">
        <ele>300.08721923828</ele>
        <time>2021-03-27T13:36:39.792Z</time>
      </trkpt>
      <trkpt lat="45.93807" lon="3.3581">
        <ele>300.08047485352</ele>
        <time>2021-03-27T13:36:48.419Z</time>
      </trkpt>
      <trkpt lat="45.93797" lon="3.35821">
        <ele>300.02291870117</ele>
        <time>2021-03-27T13:36:57.048Z</time>
      </trkpt>
      <trkpt lat="45.93788" lon="3.35831">
        <ele>299.93515014648</ele>
        <time>2021-03-27T13:37:05.679Z</time>
      </trkpt>
      <trkpt lat="45.9378" lon="3.35838">
        <ele>299.68682861328</ele>
        <time>2021-03-27T13:37:14.312Z</time>
      </trkpt>
      <trkpt lat="45.93774" lon="3.35842">
        <ele>299.53567504883</ele>
        <time>2021-03-27T13:37:22.947Z</time>
      </trkpt>
      <trkpt lat="45.9376" lon="3.3585">
        <ele>299.16665649414</ele>
        <time>2021-03-27T13:37:31.585Z</time>
      </trkpt>
      <trkpt lat="45.93753" lon="3.35855">
        <ele>299</ele>
        <time>2021-03-27T13:37:40.224Z</time>
      </trkpt>
      <trkpt lat="45.93733" lon="3.35866">
        <ele>299.04919433594</ele>
        <time>2021-03-27T13:37:48.867Z</time>
      </trkpt>
      <trkpt lat="45.93709" lon="3.35879">
        <ele>299.21124267578</ele>
        <time>2021-03-27T13:37:57.516Z</time>
      </trkpt>
      <trkpt lat="45.93703" lon="3.35882">
        <ele>299.13970947266</ele>
        <time>2021-03-27T13:38:06.166Z</time>
      </trkpt>
      <trkpt lat="45.93687" lon="3.35888">
        <ele>299.69033813477</ele>
        <time>2021-03-27T13:38:14.819Z</time>
      </trkpt>
      <trkpt lat="45.93667" lon="3.35896">
        <ele>299.16046142578</ele>
        <time>2021-03-27T13:38:23.476Z</time>
      </trkpt>
      <trkpt lat="45.93658" lon="3.35899">
        <ele>299.26782226562</ele>
        <time>2021-03-27T13:38:32.135Z</time>
      </trkpt>
      <trkpt lat="45.93655" lon="3.359">
        <ele>299.39379882812</ele>
        <time>2021-03-27T13:38:40.795Z</time>
      </trkpt>
      <trkpt lat="45.9365" lon="3.35901">
        <ele>299.56256103516</ele>
        <time>2021-03-27T13:38:49.456Z</time>
      </trkpt>
      <trkpt lat="45.93647" lon="3.35901">
        <ele>299.58773803711</ele>
        <time>2021-03-27T13:38:58.117Z</time>
      </trkpt>
      <trkpt lat="45.93639" lon="3.35902">
        <ele>299.54974365234</ele>
        <time>2021-03-27T13:39:06.780Z</time>
      </trkpt>
      <trkpt lat="45.93629" lon="3.35903">
        <ele>299.20062255859</ele>
        <time>2021-03-27T13:39:15.445Z</time>
      </trkpt>
      <trkpt lat="45.93617" lon="3.35902">
        <ele>299</ele>
        <time>2021-03-27T13:39:24.112Z</time>
      </trkpt>
      <trkpt lat="45.93611" lon="3.35901">
        <ele>298.97225952148</ele>
        <time>2021-03-27T13:39:32.781Z</time>
      </trkpt>
      <trkpt lat="45.93599" lon="3.35899">
        <ele>298.60876464844</ele>
        <time>2021-03-27T13:39:41.452Z</time>
      </trkpt>
      <trkpt lat="45.93583" lon="3.35897">
        <ele>298.57421875</ele>
        <time>2021-03-27T13:39:50.126Z</time>
      </trkpt>
      <trkpt lat="45.93575" lon="3.35896">
        <ele>298.30895996094</ele>
        <time>2021-03-27T13:39:58.802Z</time>
      </trkpt>
      <trkpt lat="45.93569" lon="3.35896">
        <ele>297.89505004883</ele>
        <time>2021-03-27T13:40:07.479Z</time>
      </trkpt>
      <trkpt lat="45.93563" lon="3.35898">
        <ele>297.46154785156</ele>
        <time>2021-03-27T13:40:16.157Z</time>
      </trkpt>
      <trkpt lat="45.93556" lon="3.359">
        <ele>296.98287963867</ele>
        <time>2021-03-27T13:40:24.837Z</time>
      </trkpt>
      <trkpt lat="45.9355" lon="3.35903">
        <ele>296.45742797852</ele>
        <time>2021-03-27T13:40:33.518Z</time>
      </trkpt>
      <trkpt lat="45.93544" lon="3.35907">
        <ele>295.76641845703</ele>
        <time>2021-03-27T13:40:42.200Z</time>
      </trkpt>
      <trkpt lat="45.93537" lon="3.35912">
        <ele>295.01782226562</ele>
        <time>2021-03-27T13:40:50.884Z</time>
      </trkpt>
      <trkpt lat="45.93533" lon="3.35915">
        <ele>294.52474975586</ele>
        <time>2021-03-27T13:40:59.569Z</time>
      </trkpt>
      <trkpt lat="45.9353" lon="3.35918">
        <ele>294.07849121094</ele>
        <time>2021-03-27T13:41:08.254Z</time>
      </trkpt>
      <trkpt lat="45.93527" lon="3.35922">
        <ele>293.48825073242</ele>
        <time>2021-03-27T13:41:16.940Z</time>
      </trkpt>
      <trkpt lat="45.93523" lon="3.35928">
        <ele>292.80084228516</ele>
        <time>2021-03-27T13:41:25.627Z</time>
      </trkpt>
      <trkpt lat="45.93523" lon="3.35928">
        <ele>292.74685668945</ele>
        <time>2021-03-27T13:41:34.314Z</time>
      </trkpt>
      <trkpt lat="45.93518" lon="3.35937">
        <ele>291.58438110352</ele>
        <time>2021-03-27T13:41:43.003Z</time>
      </trkpt>
      <trkpt lat="45.93516" lon="3.35949">
        <ele>290.49963378906</ele>
        <time>2021-03-27T13:41:51.694Z</time>
      </trkpt>
      <trkpt lat="45.93515" lon="3.35962">
        <ele>289.56747436523</ele>
        <time>2021-03-27T13:42:00.387Z</time>
      </trkpt>
      <trkpt lat="45.93513" lon="3.35976">
        <ele>288.78198242188</ele>
        <time>2021-03-27T13:42:09.082Z</time>
      </trkpt>
      <trkpt lat="45.93513" lon="3.35991">
        <ele>288.21334838867</ele>
        <time>2021-03-27T13:42:17.779Z</time>
      </trkpt>
      <trkpt lat="45.93511" lon="3.36003">
        <ele>287.67770385742</ele>
        <time>2021-03-27T13:42:26.477Z</time>
      </trkpt>
      <trkpt lat="45.93509" lon="3.36012">
        <ele>287.20620727539</ele>
        <time>2021-03-27T13:42:35.177Z</time>
      </trkpt>
      <trkpt lat="45.93507" lon="3.3602">
        <ele>286.73114013672</ele>
        <time>2021-03-27T13:42:43.878Z</time>
      </trkpt>
      <trkpt lat="45.93503" lon="3.36031">
        <ele>286.07614135742</ele>
        <time>2021-03-27T13:42:52.581Z</time>
      </trkpt>
      <trkpt lat="45.93495" lon="3.3605">
        <ele>285.3671875</ele>
        <time>2021-03-27T13:43:01.287Z</time>
      </trkpt>
      <trkpt lat="45.93481" lon="3.36077">
        <ele>285</ele>
        <time>2021-03-27T13:43:09.997Z</time>
      </trkpt>
      <trkpt lat="45.93476" lon="3.36087">
        <ele>285</ele>
        <time>2021-03-27T13:43:18.709Z</time>
      </trkpt>
      <trkpt lat="45.93471" lon="3.36096">
        <ele>284.92642211914</ele>
        <time>2021-03-27T13:43:27.423Z</time>
      </trkpt>
      <trkpt lat="45.93467" lon="3.361">
        <ele>284.64929199219</ele>
        <time>2021-03-27T13:43:36.138Z</time>
      </trkpt>
      <trkpt lat="45.93464" lon="3.36104">
        <ele>284.39376831055</ele>
        <time>2021-03-27T13:43:44.854Z</time>
      </trkpt>
      <trkpt lat="45.9346" lon="3.36108">
        <ele>284.08065795898</ele>
        <time>2021-03-27T13:43:53.571Z</time>
      </trkpt>
      <trkpt lat="45.93452" lon="3.36112">
        <ele>283.49716186523</ele>
        <time>2021-03-27T13:44:02.289Z</time>
      </trkpt>
      <trkpt lat="45.93445" lon="3.36115">
        <ele>282.91052246094</ele>
        <time>2021-03-27T13:44:11.009Z</time>
      </trkpt>
      <trkpt lat="45.93424" lon="3.36119">
        <ele>282.17010498047</ele>
        <time>2021-03-27T13:44:19.733Z</time>
      </trkpt>
      <trkpt lat="45.9341" lon="3.36122">
        <ele>282.46206665039</ele>
        <time>2021-03-27T13:44:28.460Z</time>
      </trkpt>
      <trkpt lat="45.93404" lon="3.36124">
        <ele>282.41168212891</ele>
        <time>2021-03-27T13:44:37.188Z</time>
      </trkpt>
      <trkpt lat="45.93399" lon="3.36124">
        <ele>282.38287353516</ele>
        <time>2021-03-27T13:44:45.917Z</time>
      </trkpt>
      <trkpt lat="45.93387" lon="3.36126">
        <ele>282.49813842773</ele>
        <time>2021-03-27T13:44:54.648Z</time>
      </trkpt>
      <trkpt lat="45.93374" lon="3.36129">
        <ele>282.95523071289</ele>
        <time>2021-03-27T13:45:03.382Z</time>
      </trkpt>
      <trkpt lat="45.93363" lon="3.36131">
        <ele>283.50366210938</ele>
        <time>2021-03-27T13:45:12.118Z</time>
      </trkpt>
      <trkpt lat="45.93353" lon="3.36134">
        <ele>283.76998901367</ele>
        <time>2021-03-27T13:45:20.856Z</time>
      </trkpt>
      <trkpt lat="45.93352" lon="3.36134">
        <ele>283.80596923828</ele>
        <time>2021-03-27T13:45:29.595Z</time>
      </trkpt>
      <trkpt lat="45.93341" lon="3.36138">
        <ele>284.146484375</ele>
        <time>2021-03-27T13:45:38.336Z</time>
      </trkpt>
      <trkpt lat="45.93323" lon="3.36146">
        <ele>284.60189819336</ele>
        <time>2021-03-27T13:45:47.081Z</time>
      </trkpt>
      <trkpt lat="45.93306" lon="3.36154">
        <ele>284</ele>
        <time>2021-03-27T13:45:55.829Z</time>
      </trkpt>
      <trkpt lat="45.93303" lon="3.36155">
        <ele>284</ele>
        <time>2021-03-27T13:46:04.578Z</time>
      </trkpt>
      <trkpt lat="45.93286" lon="3.3616">
        <ele>283.8776550293</ele>
        <time>2021-03-27T13:46:13.330Z</time>
      </trkpt>
      <trkpt lat="45.93278" lon="3.36164">
        <ele>283.5573425293</ele>
        <time>2021-03-27T13:46:22.084Z</time>
      </trkpt>
      <trkpt lat="45.93271" lon="3.36166">
        <ele>283.32699584961</ele>
        <time>2021-03-27T13:46:30.839Z</time>
      </trkpt>
      <trkpt lat="45.93266" lon="3.36168">
        <ele>283.15786743164</ele>
        <time>2021-03-27T13:46:39.595Z</time>
      </trkpt>
      <trkpt lat="45.93263" lon="3.36171">
        <ele>283.04629516602</ele>
        <time>2021-03-27T13:46:48.352Z</time>
      </trkpt>
      <trkpt lat="45.93261" lon="3.36172">
        <ele>283</ele>
        <time>2021-03-27T13:46:57.109Z</time>
      </trkpt>
      <trkpt lat="45.93258" lon="3.36175">
        <ele>283</ele>
        <time>2021-03-27T13:47:05.867Z</time>
      </trkpt>
      <trkpt lat="45.93255" lon="3.36178">
        <ele>283</ele>
        <time>2021-03-27T13:47:14.626Z</time>
      </trkpt>
      <trkpt lat="45.93251" lon="3.36185">
        <ele>283.19448852539</ele>
        <time>2021-03-27T13:47:23.386Z</time>
      </trkpt>
      <trkpt lat="45.93245" lon="3.36195">
        <ele>283.5979309082</ele>
        <time>2021-03-27T13:47:32.148Z</time>
      </trkpt>
      <trkpt lat="45.93241" lon="3.36204">
        <ele>283.75628662109</ele>
        <time>2021-03-27T13:47:40.911Z</time>
      </trkpt>
      <trkpt lat="45.93239" lon="3.3621">
        <ele>283.84265136719</ele>
        <time>2021-03-27T13:47:49.675Z</time>
      </trkpt>
      <trkpt lat="45.93235" lon="3.36221">
        <ele>283.91705322266</ele>
        <time>2021-03-27T13:47:58.441Z</time>
      </trkpt>
      <trkpt lat="45.9323" lon="3.36232">
        <ele>283.49597167969</ele>
        <time>2021-03-27T13:48:07.209Z</time>
      </trkpt>
      <trkpt lat="45.93228" lon="3.36239">
        <ele>283.24761962891</ele>
        <time>2021-03-27T13:48:15.978Z</time>
      </trkpt>
      <trkpt lat="45.93226" lon="3.36244">
        <ele>283.30694580078</ele>
        <time>2021-03-27T13:48:24.748Z</time>
      </trkpt>
      <trkpt lat="45.93223" lon="3.36249">
        <ele>283.41131591797</ele>
        <time>2021-03-27T13:48:33.519Z</time>
      </trkpt>
      <trkpt lat="45.93222" lon="3.3625">
        <ele>283.44369506836</ele>
        <time>2021-03-27T13:48:42.290Z</time>
      </trkpt>
      <trkpt lat="45.93221" lon="3.36251">
        <ele>283.49047851562</ele>
        <time>2021-03-27T13:48:51.061Z</time>
      </trkpt>
      <trkpt lat="45.93216" lon="3.36255">
        <ele>283.65963745117</ele>
        <time>2021-03-27T13:48:59.833Z</time>
      </trkpt>
      <trkpt lat="45.93212" lon="3.36257">
        <ele>283.61779785156</ele>
        <time>2021-03-27T13:49:08.606Z</time>
      </trkpt>
      <trkpt lat="45.93208" lon="3.36259">
        <ele>283.54943847656</ele>
        <time>2021-03-27T13:49:17.380Z</time>
      </trkpt>
      <trkpt lat="45.93201" lon="3.36261">
        <ele>283.27435302734</ele>
        <time>2021-03-27T13:49:26.155Z</time>
      </trkpt>
      <trkpt lat="45.9319" lon="3.36262">
        <ele>283</ele>
        <time>2021-03-27T13:49:34.933Z</time>
      </trkpt>
      <trkpt lat="45.93181" lon="3.36262">
        <ele>283</ele>
        <time>2021-03-27T13:49:43.712Z</time>
      </trkpt>
      <trkpt lat="45.93176" lon="3.36262">
        <ele>282.90435791016</ele>
        <time>2021-03-27T13:49:52.492Z</time>
      </trkpt>
      <trkpt lat="45.93171" lon="3.36263">
        <ele>282.73880004883</ele>
        <time>2021-03-27T13:50:01.273Z</time>
      </trkpt>
      <trkpt lat="45.93166" lon="3.36265">
        <ele>282.66290283203</ele>
        <time>2021-03-27T13:50:10.056Z</time>
      </trkpt>
      <trkpt lat="45.93156" lon="3.36268">
        <ele>282.76727294922</ele>
        <time>2021-03-27T13:50:18.840Z</time>
      </trkpt>
      <trkpt lat="45.93134" lon="3.36278">
        <ele>282.37838745117</ele>
        <time>2021-03-27T13:50:27.629Z</time>
      </trkpt>
      <trkpt lat="45.93106" lon="3.36292">
        <ele>282.63464355469</ele>
        <time>2021-03-27T13:50:36.424Z</time>
      </trkpt>
      <trkpt lat="45.931" lon="3.36294">
        <ele>282.7102355957</ele>
        <time>2021-03-27T13:50:45.220Z</time>
      </trkpt>
      <trkpt lat="45.93093" lon="3.36297">
        <ele>282.908203125</ele>
        <time>2021-03-27T13:50:54.018Z</time>
      </trkpt>
      <trkpt lat="45.9309" lon="3.36298">
        <ele>283</ele>
        <time>2021-03-27T13:51:02.816Z</time>
      </trkpt>
      <trkpt lat="45.9309" lon="3.36298">
        <ele>283</ele>
        <time>2021-03-27T13:51:11.614Z</time>
      </trkpt>
      <trkpt lat="45.93055" lon="3.36315">
        <ele>283.48040771484</ele>
        <time>2021-03-27T13:51:20.420Z</time>
      </trkpt>
      <trkpt lat="45.9301" lon="3.36339">
        <ele>283.91201782227</ele>
        <time>2021-03-27T13:51:29.235Z</time>
      </trkpt>
      <trkpt lat="45.92939" lon="3.36377">
        <ele>282</ele>
        <time>2021-03-27T13:51:38.066Z</time>
      </trkpt>
      <trkpt lat="45.92882" lon="3.3641">
        <ele>283.576171875</ele>
        <time>2021-03-27T13:51:46.909Z</time>
      </trkpt>
      <trkpt lat="45.92777" lon="3.36472">
        <ele>283</ele>
        <time>2021-03-27T13:51:55.775Z</time>
      </trkpt>
      <trkpt lat="45.92737" lon="3.36497">
        <ele>284</ele>
        <time>2021-03-27T13:52:04.649Z</time>
      </trkpt>
      <trkpt lat="45.92717" lon="3.36511">
        <ele>284.52005004883</ele>
        <time>2021-03-27T13:52:13.528Z</time>
      </trkpt>
      <trkpt lat="45.92696" lon="3.36523">
        <ele>284.59188842773</ele>
        <time>2021-03-27T13:52:22.411Z</time>
      </trkpt>
      <trkpt lat="45.92688" lon="3.36517">
        <ele>284.08444213867</ele>
        <time>2021-03-27T13:52:31.296Z</time>
      </trkpt>
      <trkpt lat="45.92684" lon="3.36513">
        <ele>283.78570556641</ele>
        <time>2021-03-27T13:52:40.182Z</time>
      </trkpt>
      <trkpt lat="45.9268" lon="3.36506">
        <ele>283.38983154297</ele>
        <time>2021-03-27T13:52:49.069Z</time>
      </trkpt>
      <trkpt lat="45.92676" lon="3.365">
        <ele>283.2112121582</ele>
        <time>2021-03-27T13:52:57.958Z</time>
      </trkpt>
      <trkpt lat="45.9267" lon="3.36487">
        <ele>283.26586914062</ele>
        <time>2021-03-27T13:53:06.849Z</time>
      </trkpt>
      <trkpt lat="45.92652" lon="3.36447">
        <ele>283.15789794922</ele>
        <time>2021-03-27T13:53:15.746Z</time>
      </trkpt>
      <trkpt lat="45.92632" lon="3.36402">
        <ele>282.2893371582</ele>
        <time>2021-03-27T13:53:24.651Z</time>
      </trkpt>
      <trkpt lat="45.92629" lon="3.36395">
        <ele>282.13458251953</ele>
        <time>2021-03-27T13:53:33.557Z</time>
      </trkpt>
      <trkpt lat="45.92626" lon="3.36388">
        <ele>282</ele>
        <time>2021-03-27T13:53:42.464Z</time>
      </trkpt>
      <trkpt lat="45.92623" lon="3.36379">
        <ele>282</ele>
        <time>2021-03-27T13:53:51.372Z</time>
      </trkpt>
      <trkpt lat="45.92623" lon="3.36378">
        <ele>282</ele>
        <time>2021-03-27T13:54:00.281Z</time>
      </trkpt>
      <trkpt lat="45.92619" lon="3.36368">
        <ele>282.25534057617</ele>
        <time>2021-03-27T13:54:09.191Z</time>
      </trkpt>
      <trkpt lat="45.92615" lon="3.36352">
        <ele>282.78521728516</ele>
        <time>2021-03-27T13:54:18.104Z</time>
      </trkpt>
      <trkpt lat="45.92614" lon="3.36351">
        <ele>282.86798095703</ele>
        <time>2021-03-27T13:54:27.017Z</time>
      </trkpt>
      <trkpt lat="45.92608" lon="3.36327">
        <ele>283.66787719727</ele>
        <time>2021-03-27T13:54:35.933Z</time>
      </trkpt>
      <trkpt lat="45.92604" lon="3.36316">
        <ele>284.09976196289</ele>
        <time>2021-03-27T13:54:44.851Z</time>
      </trkpt>
      <trkpt lat="45.92601" lon="3.3631">
        <ele>284.33728027344</ele>
        <time>2021-03-27T13:54:53.770Z</time>
      </trkpt>
      <trkpt lat="45.92599" lon="3.36304">
        <ele>284.5964050293</ele>
        <time>2021-03-27T13:55:02.690Z</time>
      </trkpt>
      <trkpt lat="45.92596" lon="3.36298">
        <ele>284.69348144531</ele>
        <time>2021-03-27T13:55:11.611Z</time>
      </trkpt>
      <trkpt lat="45.92593" lon="3.36293">
        <ele>284.71731567383</ele>
        <time>2021-03-27T13:55:20.533Z</time>
      </trkpt>
      <trkpt lat="45.92591" lon="3.3629">
        <ele>284.77487182617</ele>
        <time>2021-03-27T13:55:29.456Z</time>
      </trkpt>
      <trkpt lat="45.92587" lon="3.36284">
        <ele>284.94763183594</ele>
        <time>2021-03-27T13:55:38.380Z</time>
      </trkpt>
      <trkpt lat="45.92584" lon="3.36281">
        <ele>285.05560302734</ele>
        <time>2021-03-27T13:55:47.304Z</time>
      </trkpt>
      <trkpt lat="45.9258" lon="3.36276">
        <ele>285.27874755859</ele>
        <time>2021-03-27T13:55:56.229Z</time>
      </trkpt>
      <trkpt lat="45.92576" lon="3.36272">
        <ele>285.49230957031</ele>
        <time>2021-03-27T13:56:05.155Z</time>
      </trkpt>
      <trkpt lat="45.92564" lon="3.36258">
        <ele>285.67309570312</ele>
        <time>2021-03-27T13:56:14.085Z</time>
      </trkpt>
      <trkpt lat="45.92547" lon="3.36241">
        <ele>285.8127746582</ele>
        <time>2021-03-27T13:56:23.019Z</time>
      </trkpt>
      <trkpt lat="45.92537" lon="3.36231">
        <ele>286.10821533203</ele>
        <time>2021-03-27T13:56:31.955Z</time>
      </trkpt>
      <trkpt lat="45.92526" lon="3.36223">
        <ele>286.28094482422</ele>
        <time>2021-03-27T13:56:40.894Z</time>
      </trkpt>
      <trkpt lat="45.92517" lon="3.36217">
        <ele>286.48968505859</ele>
        <time>2021-03-27T13:56:49.835Z</time>
      </trkpt>
      <trkpt lat="45.92501" lon="3.36207">
        <ele>286.16537475586</ele>
        <time>2021-03-27T13:56:58.779Z</time>
      </trkpt>
      <trkpt lat="45.92491" lon="3.36202">
        <ele>285.81988525391</ele>
        <time>2021-03-27T13:57:07.725Z</time>
      </trkpt>
      <trkpt lat="45.92485" lon="3.362">
        <ele>285.6399230957</ele>
        <time>2021-03-27T13:57:16.672Z</time>
      </trkpt>
      <trkpt lat="45.92479" lon="3.36198">
        <ele>285.52478027344</ele>
        <time>2021-03-27T13:57:25.621Z</time>
      </trkpt>
      <trkpt lat="45.9247" lon="3.36196">
        <ele>285.40960693359</ele>
        <time>2021-03-27T13:57:34.571Z</time>
      </trkpt>
      <trkpt lat="45.92463" lon="3.36196">
        <ele>285.37359619141</ele>
        <time>2021-03-27T13:57:43.523Z</time>
      </trkpt>
      <trkpt lat="45.92456" lon="3.36195">
        <ele>285.30883789062</ele>
        <time>2021-03-27T13:57:52.476Z</time>
      </trkpt>
      <trkpt lat="45.92448" lon="3.36195">
        <ele>285.33041381836</ele>
        <time>2021-03-27T13:58:01.431Z</time>
      </trkpt>
      <trkpt lat="45.92436" lon="3.36197">
        <ele>285.43118286133</ele>
        <time>2021-03-27T13:58:10.388Z</time>
      </trkpt>
      <trkpt lat="45.92422" lon="3.36199">
        <ele>285.34664916992</ele>
        <time>2021-03-27T13:58:19.348Z</time>
      </trkpt>
      <trkpt lat="45.9241" lon="3.362">
        <ele>285.01913452148</ele>
        <time>2021-03-27T13:58:28.311Z</time>
      </trkpt>
      <trkpt lat="45.924" lon="3.36202">
        <ele>284.8293762207</ele>
        <time>2021-03-27T13:58:37.276Z</time>
      </trkpt>
      <trkpt lat="45.9239" lon="3.36203">
        <ele>285.30084228516</ele>
        <time>2021-03-27T13:58:46.243Z</time>
      </trkpt>
      <trkpt lat="45.92342" lon="3.36204">
        <ele>284.86334228516</ele>
        <time>2021-03-27T13:58:55.219Z</time>
      </trkpt>
      <trkpt lat="45.92294" lon="3.36206">
        <ele>284.93942260742</ele>
        <time>2021-03-27T13:59:04.205Z</time>
      </trkpt>
      <trkpt lat="45.92257" lon="3.36207">
        <ele>286.18698120117</ele>
        <time>2021-03-27T13:59:13.198Z</time>
      </trkpt>
      <trkpt lat="45.92242" lon="3.36208">
        <ele>286.26617431641</ele>
        <time>2021-03-27T13:59:22.194Z</time>
      </trkpt>
      <trkpt lat="45.92231" lon="3.36209">
        <ele>286.41192626953</ele>
        <time>2021-03-27T13:59:31.192Z</time>
      </trkpt>
      <trkpt lat="45.92219" lon="3.3621">
        <ele>286.94458007812</ele>
        <time>2021-03-27T13:59:40.193Z</time>
      </trkpt>
      <trkpt lat="45.92207" lon="3.3621">
        <ele>287.38006591797</ele>
        <time>2021-03-27T13:59:49.196Z</time>
      </trkpt>
      <trkpt lat="45.92201" lon="3.36211">
        <ele>287.64639282227</ele>
        <time>2021-03-27T13:59:58.200Z</time>
      </trkpt>
      <trkpt lat="45.92192" lon="3.36213">
        <ele>288.16104125977</ele>
        <time>2021-03-27T14:00:07.206Z</time>
      </trkpt>
      <trkpt lat="45.92175" lon="3.3622">
        <ele>288.77111816406</ele>
        <time>2021-03-27T14:00:16.216Z</time>
      </trkpt>
      <trkpt lat="45.92169" lon="3.36223">
        <ele>288.35363769531</ele>
        <time>2021-03-27T14:00:25.227Z</time>
      </trkpt>
      <trkpt lat="45.92166" lon="3.36225">
        <ele>288.11611938477</ele>
        <time>2021-03-27T14:00:34.239Z</time>
      </trkpt>
      <trkpt lat="45.92162" lon="3.36229">
        <ele>287.83538818359</ele>
        <time>2021-03-27T14:00:43.252Z</time>
      </trkpt>
      <trkpt lat="45.92157" lon="3.36235">
        <ele>287.46829223633</ele>
        <time>2021-03-27T14:00:52.266Z</time>
      </trkpt>
      <trkpt lat="45.92149" lon="3.36246">
        <ele>286.859375</ele>
        <time>2021-03-27T14:01:01.282Z</time>
      </trkpt>
      <trkpt lat="45.92129" lon="3.3627">
        <ele>285.23361206055</ele>
        <time>2021-03-27T14:01:10.303Z</time>
      </trkpt>
      <trkpt lat="45.92113" lon="3.36288">
        <ele>285</ele>
        <time>2021-03-27T14:01:19.328Z</time>
      </trkpt>
      <trkpt lat="45.92107" lon="3.36294">
        <ele>285.26116943359</ele>
        <time>2021-03-27T14:01:28.355Z</time>
      </trkpt>
      <trkpt lat="45.92102" lon="3.36298">
        <ele>285.60308837891</ele>
        <time>2021-03-27T14:01:37.383Z</time>
      </trkpt>
      <trkpt lat="45.92096" lon="3.36301">
        <ele>285.90539550781</ele>
        <time>2021-03-27T14:01:46.412Z</time>
      </trkpt>
      <trkpt lat="45.9209" lon="3.36302">
        <ele>286.02334594727</ele>
        <time>2021-03-27T14:01:55.443Z</time>
      </trkpt>
      <trkpt lat="45.9208" lon="3.36305">
        <ele>286.10610961914</ele>
        <time>2021-03-27T14:02:04.476Z</time>
      </trkpt>
      <trkpt lat="45.9206" lon="3.36306">
        <ele>286.58428955078</ele>
        <time>2021-03-27T14:02:13.513Z</time>
      </trkpt>
      <trkpt lat="45.9205" lon="3.36307">
        <ele>286.98736572266</ele>
        <time>2021-03-27T14:02:22.552Z</time>
      </trkpt>
      <trkpt lat="45.9204" lon="3.36309">
        <ele>287.25366210938</ele>
        <time>2021-03-27T14:02:31.593Z</time>
      </trkpt>
      <trkpt lat="45.9201" lon="3.36317">
        <ele>287.09039306641</ele>
        <time>2021-03-27T14:02:40.640Z</time>
      </trkpt>
      <trkpt lat="45.91994" lon="3.36319">
        <ele>287.50534057617</ele>
        <time>2021-03-27T14:02:49.690Z</time>
      </trkpt>
      <trkpt lat="45.91971" lon="3.36321">
        <ele>288.07824707031</ele>
        <time>2021-03-27T14:02:58.745Z</time>
      </trkpt>
      <trkpt lat="45.91934" lon="3.36318">
        <ele>287.71115112305</ele>
        <time>2021-03-27T14:03:07.807Z</time>
      </trkpt>
      <trkpt lat="45.91921" lon="3.36316">
        <ele>287.49520874023</ele>
        <time>2021-03-27T14:03:16.872Z</time>
      </trkpt>
      <trkpt lat="45.91915" lon="3.36314">
        <ele>287.35485839844</ele>
        <time>2021-03-27T14:03:25.938Z</time>
      </trkpt>
      <trkpt lat="45.91909" lon="3.36313">
        <ele>287.09310913086</ele>
        <time>2021-03-27T14:03:35.005Z</time>
      </trkpt>
      <trkpt lat="45.91904" lon="3.3631">
        <ele>286.67919921875</ele>
        <time>2021-03-27T14:03:44.073Z</time>
      </trkpt>
      <trkpt lat="45.91896" lon="3.36306">
        <ele>286.09255981445</ele>
        <time>2021-03-27T14:03:53.143Z</time>
      </trkpt>
      <trkpt lat="45.91874" lon="3.36294">
        <ele>284.74481201172</ele>
        <time>2021-03-27T14:04:02.218Z</time>
      </trkpt>
      <trkpt lat="45.91841" lon="3.36275">
        <ele>285.12789916992</ele>
        <time>2021-03-27T14:04:11.300Z</time>
      </trkpt>
      <trkpt lat="45.91814" lon="3.36258">
        <ele>286.12841796875</ele>
        <time>2021-03-27T14:04:20.388Z</time>
      </trkpt>
      <trkpt lat="45.91816" lon="3.3625">
        <ele>286.03485107422</ele>
        <time>2021-03-27T14:04:29.477Z</time>
      </trkpt>
      <trkpt lat="45.91819" lon="3.36241">
        <ele>285.92327880859</ele>
        <time>2021-03-27T14:04:38.567Z</time>
      </trkpt>
      <trkpt lat="45.91821" lon="3.36234">
        <ele>285.86569213867</ele>
        <time>2021-03-27T14:04:47.658Z</time>
      </trkpt>
      <trkpt lat="45.91822" lon="3.36225">
        <ele>285.81890869141</ele>
        <time>2021-03-27T14:04:56.751Z</time>
      </trkpt>
      <trkpt lat="45.91823" lon="3.36215">
        <ele>285.79010009766</ele>
        <time>2021-03-27T14:05:05.845Z</time>
      </trkpt>
      <trkpt lat="45.91824" lon="3.362">
        <ele>285.76852416992</ele>
        <time>2021-03-27T14:05:14.941Z</time>
      </trkpt>
      <trkpt lat="45.91824" lon="3.36187">
        <ele>285.89123535156</ele>
        <time>2021-03-27T14:05:24.039Z</time>
      </trkpt>
      <trkpt lat="45.91824" lon="3.36176">
        <ele>286.25112915039</ele>
        <time>2021-03-27T14:05:33.138Z</time>
      </trkpt>
      <trkpt lat="45.91824" lon="3.36165">
        <ele>286.51544189453</ele>
        <time>2021-03-27T14:05:42.239Z</time>
      </trkpt>
      <trkpt lat="45.91823" lon="3.36155">
        <ele>286.57302856445</ele>
        <time>2021-03-27T14:05:51.341Z</time>
      </trkpt>
      <trkpt lat="45.91822" lon="3.36146">
        <ele>286.66659545898</ele>
        <time>2021-03-27T14:06:00.445Z</time>
      </trkpt>
      <trkpt lat="45.91821" lon="3.36137">
        <ele>286.74578857422</ele>
        <time>2021-03-27T14:06:09.550Z</time>
      </trkpt>
      <trkpt lat="45.9182" lon="3.3613">
        <ele>286.66162109375</ele>
        <time>2021-03-27T14:06:18.656Z</time>
      </trkpt>
      <trkpt lat="45.91818" lon="3.36124">
        <ele>286.55004882812</ele>
        <time>2021-03-27T14:06:27.763Z</time>
      </trkpt>
      <trkpt lat="45.91816" lon="3.36117">
        <ele>286.37844848633</ele>
        <time>2021-03-27T14:06:36.871Z</time>
      </trkpt>
      <trkpt lat="45.91813" lon="3.36107">
        <ele>286.12649536133</ele>
        <time>2021-03-27T14:06:45.980Z</time>
      </trkpt>
      <trkpt lat="45.9181" lon="3.36101">
        <ele>286.00415039062</ele>
        <time>2021-03-27T14:06:55.090Z</time>
      </trkpt>
      <trkpt lat="45.918" lon="3.36082">
        <ele>285.69104003906</ele>
        <time>2021-03-27T14:07:04.204Z</time>
      </trkpt>
      <trkpt lat="45.91781" lon="3.36052">
        <ele>284.63345336914</ele>
        <time>2021-03-27T14:07:13.323Z</time>
      </trkpt>
      <trkpt lat="45.91767" lon="3.36032">
        <ele>284.92074584961</ele>
        <time>2021-03-27T14:07:22.446Z</time>
      </trkpt>
      <trkpt lat="45.91753" lon="3.36014">
        <ele>285.64041137695</ele>
        <time>2021-03-27T14:07:31.573Z</time>
      </trkpt>
      <trkpt lat="45.9175" lon="3.36012">
        <ele>285.83477783203</ele>
        <time>2021-03-27T14:07:40.701Z</time>
      </trkpt>
      <trkpt lat="45.91748" lon="3.3601">
        <ele>285.99310302734</ele>
        <time>2021-03-27T14:07:49.829Z</time>
      </trkpt>
      <trkpt lat="45.91743" lon="3.3601">
        <ele>286.16226196289</ele>
        <time>2021-03-27T14:07:58.958Z</time>
      </trkpt>
      <trkpt lat="45.91738" lon="3.3601">
        <ele>286.35299682617</ele>
        <time>2021-03-27T14:08:08.088Z</time>
      </trkpt>
      <trkpt lat="45.91739" lon="3.36015">
        <ele>286.1442565918</ele>
        <time>2021-03-27T14:08:17.219Z</time>
      </trkpt>
      <trkpt lat="45.91739" lon="3.36017">
        <ele>286.07586669922</ele>
        <time>2021-03-27T14:08:26.350Z</time>
      </trkpt>
      <trkpt lat="45.9174" lon="3.3603">
        <ele>286.01135253906</ele>
        <time>2021-03-27T14:08:35.483Z</time>
      </trkpt>
      <trkpt lat="45.9174" lon="3.36044">
        <ele>286.49002075195</ele>
        <time>2021-03-27T14:08:44.618Z</time>
      </trkpt>
      <trkpt lat="45.9174" lon="3.36049">
        <ele>286.6735534668</ele>
        <time>2021-03-27T14:08:53.754Z</time>
      </trkpt>
      <trkpt lat="45.9174" lon="3.36057">
        <ele>286.95068359375</ele>
        <time>2021-03-27T14:09:02.891Z</time>
      </trkpt>
      <trkpt lat="45.9174" lon="3.36066">
        <ele>287</ele>
        <time>2021-03-27T14:09:12.029Z</time>
      </trkpt>
      <trkpt lat="45.91739" lon="3.36078">
        <ele>287</ele>
        <time>2021-03-27T14:09:21.169Z</time>
      </trkpt>
      <trkpt lat="45.91736" lon="3.36102">
        <ele>287.80374145508</ele>
        <time>2021-03-27T14:09:30.312Z</time>
      </trkpt>
      <trkpt lat="45.91731" lon="3.36129">
        <ele>287.05813598633</ele>
        <time>2021-03-27T14:09:39.459Z</time>
      </trkpt>
      <trkpt lat="45.91721" lon="3.36179">
        <ele>286.10668945312</ele>
        <time>2021-03-27T14:09:48.613Z</time>
      </trkpt>
      <trkpt lat="45.91712" lon="3.3622">
        <ele>286.40838623047</ele>
        <time>2021-03-27T14:09:57.773Z</time>
      </trkpt>
      <trkpt lat="45.91699" lon="3.36277">
        <ele>286.38507080078</ele>
        <time>2021-03-27T14:10:06.942Z</time>
      </trkpt>
      <trkpt lat="45.91686" lon="3.36337">
        <ele>283.72048950195</ele>
        <time>2021-03-27T14:10:16.120Z</time>
      </trkpt>
      <trkpt lat="45.91685" lon="3.36342">
        <ele>283.37857055664</ele>
        <time>2021-03-27T14:10:25.298Z</time>
      </trkpt>
      <trkpt lat="45.91683" lon="3.36352">
        <ele>282.52920532227</ele>
        <time>2021-03-27T14:10:34.478Z</time>
      </trkpt>
      <trkpt lat="45.9163" lon="3.36595">
        <ele>285.27938842773</ele>
        <time>2021-03-27T14:10:43.693Z</time>
      </trkpt>
      <trkpt lat="45.91628" lon="3.36608">
        <ele>285.83364868164</ele>
        <time>2021-03-27T14:10:52.910Z</time>
      </trkpt>
      <trkpt lat="45.91624" lon="3.36626">
        <ele>286.60021972656</ele>
        <time>2021-03-27T14:11:02.130Z</time>
      </trkpt>
      <trkpt lat="45.91623" lon="3.36634">
        <ele>286.92413330078</ele>
        <time>2021-03-27T14:11:11.351Z</time>
      </trkpt>
      <trkpt lat="45.91622" lon="3.36641">
        <ele>287.20956420898</ele>
        <time>2021-03-27T14:11:20.573Z</time>
      </trkpt>
      <trkpt lat="45.91622" lon="3.36645">
        <ele>287.33911132812</ele>
        <time>2021-03-27T14:11:29.795Z</time>
      </trkpt>
      <trkpt lat="45.91621" lon="3.36659">
        <ele>287.85018920898</ele>
        <time>2021-03-27T14:11:39.019Z</time>
      </trkpt>
      <trkpt lat="45.9162" lon="3.36664">
        <ele>288.03012084961</ele>
        <time>2021-03-27T14:11:48.244Z</time>
      </trkpt>
      <trkpt lat="45.9162" lon="3.36668">
        <ele>288.1884765625</ele>
        <time>2021-03-27T14:11:57.470Z</time>
      </trkpt>
      <trkpt lat="45.9162" lon="3.3667">
        <ele>288.25326538086</ele>
        <time>2021-03-27T14:12:06.696Z</time>
      </trkpt>
      <trkpt lat="45.91619" lon="3.36775">
        <ele>289.80764770508</ele>
        <time>2021-03-27T14:12:15.937Z</time>
      </trkpt>
      <trkpt lat="45.91619" lon="3.3688">
        <ele>291.94323730469</ele>
        <time>2021-03-27T14:12:25.192Z</time>
      </trkpt>
      <trkpt lat="45.91619" lon="3.36976">
        <ele>292.73379516602</ele>
        <time>2021-03-27T14:12:34.461Z</time>
      </trkpt>
      <trkpt lat="45.91619" lon="3.36989">
        <ele>292.26593017578</ele>
        <time>2021-03-27T14:12:43.731Z</time>
      </trkpt>
      <trkpt lat="45.91619" lon="3.37076">
        <ele>288.13479614258</ele>
        <time>2021-03-27T14:12:53.014Z</time>
      </trkpt>
      <trkpt lat="45.91619" lon="3.3708">
        <ele>288.00915527344</ele>
        <time>2021-03-27T14:13:02.297Z</time>
      </trkpt>
      <trkpt lat="45.91619" lon="3.37172">
        <ele>290.42352294922</ele>
        <time>2021-03-27T14:13:11.593Z</time>
      </trkpt>
      <trkpt lat="45.91618" lon="3.37217">
        <ele>291.15365600586</ele>
        <time>2021-03-27T14:13:20.895Z</time>
      </trkpt>
      <trkpt lat="45.91617" lon="3.37233">
        <ele>291.19686889648</ele>
        <time>2021-03-27T14:13:30.200Z</time>
      </trkpt>
      <trkpt lat="45.91635" lon="3.37244">
        <ele>290.57421875</ele>
        <time>2021-03-27T14:13:39.508Z</time>
      </trkpt>
      <trkpt lat="45.91662" lon="3.37262">
        <ele>290.57012939453</ele>
        <time>2021-03-27T14:13:48.822Z</time>
      </trkpt>
      <trkpt lat="45.91679" lon="3.37273">
        <ele>290.95523071289</ele>
        <time>2021-03-27T14:13:58.140Z</time>
      </trkpt>
      <trkpt lat="45.91688" lon="3.37278">
        <ele>291.13879394531</ele>
        <time>2021-03-27T14:14:07.460Z</time>
      </trkpt>
      <trkpt lat="45.91697" lon="3.37282">
        <ele>291.28634643555</ele>
        <time>2021-03-27T14:14:16.782Z</time>
      </trkpt>
      <trkpt lat="45.91704" lon="3.37285">
        <ele>291.36911010742</ele>
        <time>2021-03-27T14:14:26.105Z</time>
      </trkpt>
      <trkpt lat="45.91709" lon="3.37286">
        <ele>291.41949462891</ele>
        <time>2021-03-27T14:14:35.429Z</time>
      </trkpt>
      <trkpt lat="45.91715" lon="3.37287">
        <ele>291.45550537109</ele>
        <time>2021-03-27T14:14:44.755Z</time>
      </trkpt>
      <trkpt lat="45.91734" lon="3.3729">
        <ele>291.56387329102</ele>
        <time>2021-03-27T14:14:54.084Z</time>
      </trkpt>
      <trkpt lat="45.91748" lon="3.37294">
        <ele>291.19317626953</ele>
        <time>2021-03-27T14:15:03.416Z</time>
      </trkpt>
      <trkpt lat="45.91758" lon="3.37297">
        <ele>290.9772644043</ele>
        <time>2021-03-27T14:15:12.750Z</time>
      </trkpt>
      <trkpt lat="45.91762" lon="3.373">
        <ele>290.9377746582</ele>
        <time>2021-03-27T14:15:22.085Z</time>
      </trkpt>
      <trkpt lat="45.91768" lon="3.37304">
        <ele>291.078125</ele>
        <time>2021-03-27T14:15:31.422Z</time>
      </trkpt>
      <trkpt lat="45.91771" lon="3.37308">
        <ele>291.2041015625</ele>
        <time>2021-03-27T14:15:40.759Z</time>
      </trkpt>
      <trkpt lat="45.9178" lon="3.37298">
        <ele>290.84417724609</ele>
        <time>2021-03-27T14:15:50.099Z</time>
      </trkpt>
      <trkpt lat="45.91771" lon="3.37308">
        <ele>291.2041015625</ele>
        <time>2021-03-27T14:15:59.441Z</time>
      </trkpt>
      <trkpt lat="45.91772" lon="3.37309">
        <ele>291.23648071289</ele>
        <time>2021-03-27T14:16:08.783Z</time>
      </trkpt>
      <trkpt lat="45.91775" lon="3.37312">
        <ele>291.36245727539</ele>
        <time>2021-03-27T14:16:18.126Z</time>
      </trkpt>
      <trkpt lat="45.91778" lon="3.37318">
        <ele>291.58557128906</ele>
        <time>2021-03-27T14:16:27.470Z</time>
      </trkpt>
      <trkpt lat="45.9178" lon="3.37323">
        <ele>291.75833129883</ele>
        <time>2021-03-27T14:16:36.814Z</time>
      </trkpt>
      <trkpt lat="45.91787" lon="3.37339">
        <ele>292</ele>
        <time>2021-03-27T14:16:46.161Z</time>
      </trkpt>
      <trkpt lat="45.91792" lon="3.37348">
        <ele>291.90939331055</ele>
        <time>2021-03-27T14:16:55.510Z</time>
      </trkpt>
      <trkpt lat="45.91795" lon="3.37353">
        <ele>291.78344726562</ele>
        <time>2021-03-27T14:17:04.860Z</time>
      </trkpt>
      <trkpt lat="45.91807" lon="3.37363">
        <ele>291.16802978516</ele>
        <time>2021-03-27T14:17:14.212Z</time>
      </trkpt>
      <trkpt lat="45.91815" lon="3.37368">
        <ele>290.70016479492</ele>
        <time>2021-03-27T14:17:23.566Z</time>
      </trkpt>
      <trkpt lat="45.91829" lon="3.37376">
        <ele>289.92276000977</ele>
        <time>2021-03-27T14:17:32.923Z</time>
      </trkpt>
      <trkpt lat="45.91842" lon="3.37384">
        <ele>289.15979003906</ele>
        <time>2021-03-27T14:17:42.283Z</time>
      </trkpt>
      <trkpt lat="45.9185" lon="3.3739">
        <ele>288.8219909668</ele>
        <time>2021-03-27T14:17:51.645Z</time>
      </trkpt>
      <trkpt lat="45.91854" lon="3.37394">
        <ele>288.6780090332</ele>
        <time>2021-03-27T14:18:01.008Z</time>
      </trkpt>
      <trkpt lat="45.91857" lon="3.37398">
        <ele>288.53881835938</ele>
        <time>2021-03-27T14:18:10.372Z</time>
      </trkpt>
      <trkpt lat="45.91862" lon="3.37397">
        <ele>288.39730834961</ele>
        <time>2021-03-27T14:18:19.737Z</time>
      </trkpt>
      <trkpt lat="45.91868" lon="3.37395">
        <ele>288.17416381836</ele>
        <time>2021-03-27T14:18:29.103Z</time>
      </trkpt>
      <trkpt lat="45.91876" lon="3.37394">
        <ele>287.89343261719</ele>
        <time>2021-03-27T14:18:38.470Z</time>
      </trkpt>
      <trkpt lat="45.91886" lon="3.37392">
        <ele>287.52633666992</ele>
        <time>2021-03-27T14:18:47.840Z</time>
      </trkpt>
      <trkpt lat="45.91895" lon="3.3739">
        <ele>287.19165039062</ele>
        <time>2021-03-27T14:18:57.211Z</time>
      </trkpt>
      <trkpt lat="45.91918" lon="3.37387">
        <ele>285.69842529297</ele>
        <time>2021-03-27T14:19:06.587Z</time>
      </trkpt>
      <trkpt lat="45.91957" lon="3.37383">
        <ele>284</ele>
        <time>2021-03-27T14:19:15.971Z</time>
      </trkpt>
      <trkpt lat="45.92014" lon="3.37375">
        <ele>283.62261962891</ele>
        <time>2021-03-27T14:19:25.366Z</time>
      </trkpt>
      <trkpt lat="45.92052" lon="3.37369">
        <ele>283</ele>
        <time>2021-03-27T14:19:34.769Z</time>
      </trkpt>
      <trkpt lat="45.92062" lon="3.37367">
        <ele>283</ele>
        <time>2021-03-27T14:19:44.174Z</time>
      </trkpt>
      <trkpt lat="45.92062" lon="3.37371">
        <ele>283</ele>
        <time>2021-03-27T14:19:53.579Z</time>
      </trkpt>
      <trkpt lat="45.92062" lon="3.37378">
        <ele>283</ele>
        <time>2021-03-27T14:20:02.985Z</time>
      </trkpt>
      <trkpt lat="45.92065" lon="3.37402">
        <ele>283.69287109375</ele>
        <time>2021-03-27T14:20:12.395Z</time>
      </trkpt>
      <trkpt lat="45.92067" lon="3.37422">
        <ele>284</ele>
        <time>2021-03-27T14:20:21.808Z</time>
      </trkpt>
      <trkpt lat="45.92069" lon="3.37438">
        <ele>284</ele>
        <time>2021-03-27T14:20:31.223Z</time>
      </trkpt>
      <trkpt lat="45.92071" lon="3.37445">
        <ele>284</ele>
        <time>2021-03-27T14:20:40.639Z</time>
      </trkpt>
      <trkpt lat="45.92075" lon="3.37455">
        <ele>284</ele>
        <time>2021-03-27T14:20:50.057Z</time>
      </trkpt>
      <trkpt lat="45.92076" lon="3.37461">
        <ele>284</ele>
        <time>2021-03-27T14:20:59.475Z</time>
      </trkpt>
      <trkpt lat="45.92078" lon="3.3747">
        <ele>283.96194458008</ele>
        <time>2021-03-27T14:21:08.895Z</time>
      </trkpt>
      <trkpt lat="45.92079" lon="3.37475">
        <ele>283.76397705078</ele>
        <time>2021-03-27T14:21:18.316Z</time>
      </trkpt>
      <trkpt lat="45.92081" lon="3.37495">
        <ele>283.50830078125</ele>
        <time>2021-03-27T14:21:27.739Z</time>
      </trkpt>
      <trkpt lat="45.92087" lon="3.37541">
        <ele>282.30676269531</ele>
        <time>2021-03-27T14:21:37.169Z</time>
      </trkpt>
      <trkpt lat="45.92089" lon="3.37557">
        <ele>282.38955688477</ele>
        <time>2021-03-27T14:21:46.601Z</time>
      </trkpt>
      <trkpt lat="45.92092" lon="3.37571">
        <ele>282.79266357422</ele>
        <time>2021-03-27T14:21:56.035Z</time>
      </trkpt>
      <trkpt lat="45.92095" lon="3.37583">
        <ele>283.11657714844</ele>
        <time>2021-03-27T14:22:05.471Z</time>
      </trkpt>
      <trkpt lat="45.92096" lon="3.37588">
        <ele>283.25332641602</ele>
        <time>2021-03-27T14:22:14.908Z</time>
      </trkpt>
      <trkpt lat="45.92098" lon="3.37593">
        <ele>283.34689331055</ele>
        <time>2021-03-27T14:22:24.345Z</time>
      </trkpt>
      <trkpt lat="45.92103" lon="3.376">
        <ele>283.43688964844</ele>
        <time>2021-03-27T14:22:33.784Z</time>
      </trkpt>
      <trkpt lat="45.92112" lon="3.37613">
        <ele>283.59164428711</ele>
        <time>2021-03-27T14:22:43.225Z</time>
      </trkpt>
      <trkpt lat="45.92115" lon="3.37619">
        <ele>283.69241333008</ele>
        <time>2021-03-27T14:22:52.667Z</time>
      </trkpt>
      <trkpt lat="45.92117" lon="3.37625">
        <ele>283.82916259766</ele>
        <time>2021-03-27T14:23:02.110Z</time>
      </trkpt>
      <trkpt lat="45.92119" lon="3.37634">
        <ele>284</ele>
        <time>2021-03-27T14:23:11.555Z</time>
      </trkpt>
      <trkpt lat="45.9212" lon="3.37642">
        <ele>284.23913574219</ele>
        <time>2021-03-27T14:23:21.001Z</time>
      </trkpt>
      <trkpt lat="45.92121" lon="3.37674">
        <ele>284.93490600586</ele>
        <time>2021-03-27T14:23:30.451Z</time>
      </trkpt>
      <trkpt lat="45.92123" lon="3.37695">
        <ele>284.98233032227</ele>
        <time>2021-03-27T14:23:39.904Z</time>
      </trkpt>
      <trkpt lat="45.92124" lon="3.37707">
        <ele>284.94631958008</ele>
        <time>2021-03-27T14:23:49.359Z</time>
      </trkpt>
      <trkpt lat="45.92126" lon="3.37719">
        <ele>284.88513183594</ele>
        <time>2021-03-27T14:23:58.816Z</time>
      </trkpt>
      <trkpt lat="45.92129" lon="3.37743">
        <ele>284.77355957031</ele>
        <time>2021-03-27T14:24:08.276Z</time>
      </trkpt>
      <trkpt lat="45.92129" lon="3.37749">
        <ele>284.69430541992</ele>
        <time>2021-03-27T14:24:17.737Z</time>
      </trkpt>
      <trkpt lat="45.92129" lon="3.37762">
        <ele>284.23361206055</ele>
        <time>2021-03-27T14:24:27.200Z</time>
      </trkpt>
      <trkpt lat="45.92129" lon="3.37766">
        <ele>284.07165527344</ele>
        <time>2021-03-27T14:24:36.663Z</time>
      </trkpt>
      <trkpt lat="45.9213" lon="3.37769">
        <ele>283.94931030273</ele>
        <time>2021-03-27T14:24:46.127Z</time>
      </trkpt>
      <trkpt lat="45.9213" lon="3.37772">
        <ele>283.8161315918</ele>
        <time>2021-03-27T14:24:55.591Z</time>
      </trkpt>
      <trkpt lat="45.92136" lon="3.37787">
        <ele>283.53869628906</ele>
        <time>2021-03-27T14:25:05.058Z</time>
      </trkpt>
      <trkpt lat="45.92146" lon="3.37816">
        <ele>283</ele>
        <time>2021-03-27T14:25:14.529Z</time>
      </trkpt>
      <trkpt lat="45.92155" lon="3.37838">
        <ele>283.15856933594</ele>
        <time>2021-03-27T14:25:24.004Z</time>
      </trkpt>
      <trkpt lat="45.92164" lon="3.37856">
        <ele>283.46447753906</ele>
        <time>2021-03-27T14:25:33.482Z</time>
      </trkpt>
      <trkpt lat="45.92171" lon="3.37873">
        <ele>283.74160766602</ele>
        <time>2021-03-27T14:25:42.962Z</time>
      </trkpt>
      <trkpt lat="45.92175" lon="3.3788">
        <ele>283.87475585938</ele>
        <time>2021-03-27T14:25:52.444Z</time>
      </trkpt>
      <trkpt lat="45.92179" lon="3.37885">
        <ele>284</ele>
        <time>2021-03-27T14:26:01.927Z</time>
      </trkpt>
      <trkpt lat="45.92182" lon="3.3789">
        <ele>283.87329101562</ele>
        <time>2021-03-27T14:26:11.411Z</time>
      </trkpt>
      <trkpt lat="45.92194" lon="3.37904">
        <ele>283.4270324707</ele>
        <time>2021-03-27T14:26:20.898Z</time>
      </trkpt>
      <trkpt lat="45.92204" lon="3.37913">
        <ele>283.06713867188</ele>
        <time>2021-03-27T14:26:30.387Z</time>
      </trkpt>
      <trkpt lat="45.92215" lon="3.37922">
        <ele>282.67645263672</ele>
        <time>2021-03-27T14:26:39.879Z</time>
      </trkpt>
      <trkpt lat="45.92225" lon="3.37929">
        <ele>282.43173217773</ele>
        <time>2021-03-27T14:26:49.373Z</time>
      </trkpt>
      <trkpt lat="45.9223" lon="3.37932">
        <ele>282.32736206055</ele>
        <time>2021-03-27T14:26:58.868Z</time>
      </trkpt>
      <trkpt lat="45.92239" lon="3.37935">
        <ele>282.01605224609</ele>
        <time>2021-03-27T14:27:08.365Z</time>
      </trkpt>
      <trkpt lat="45.92251" lon="3.37938">
        <ele>281.49060058594</ele>
        <time>2021-03-27T14:27:17.864Z</time>
      </trkpt>
      <trkpt lat="45.92266" lon="3.3794">
        <ele>280.90036010742</ele>
        <time>2021-03-27T14:27:27.366Z</time>
      </trkpt>
      <trkpt lat="45.92274" lon="3.37941">
        <ele>280.56237792969</ele>
        <time>2021-03-27T14:27:36.870Z</time>
      </trkpt>
      <trkpt lat="45.92287" lon="3.37946">
        <ele>280.28164672852</ele>
        <time>2021-03-27T14:27:46.377Z</time>
      </trkpt>
      <trkpt lat="45.9229" lon="3.37948">
        <ele>280.24566650391</ele>
        <time>2021-03-27T14:27:55.884Z</time>
      </trkpt>
      <trkpt lat="45.92295" lon="3.37952">
        <ele>280.19888305664</ele>
        <time>2021-03-27T14:28:05.392Z</time>
      </trkpt>
      <trkpt lat="45.92302" lon="3.37959">
        <ele>280.20608520508</ele>
        <time>2021-03-27T14:28:14.902Z</time>
      </trkpt>
      <trkpt lat="45.92315" lon="3.37976">
        <ele>280.07943725586</ele>
        <time>2021-03-27T14:28:24.416Z</time>
      </trkpt>
      <trkpt lat="45.9233" lon="3.37993">
        <ele>279.53598022461</ele>
        <time>2021-03-27T14:28:33.933Z</time>
      </trkpt>
      <trkpt lat="45.92348" lon="3.38014">
        <ele>279.72845458984</ele>
        <time>2021-03-27T14:28:43.455Z</time>
      </trkpt>
      <trkpt lat="45.92365" lon="3.38033">
        <ele>280.7092590332</ele>
        <time>2021-03-27T14:28:52.981Z</time>
      </trkpt>
      <trkpt lat="45.92378" lon="3.38046">
        <ele>281.18432617188</ele>
        <time>2021-03-27T14:29:02.511Z</time>
      </trkpt>
      <trkpt lat="45.92392" lon="3.38059">
        <ele>281.67379760742</ele>
        <time>2021-03-27T14:29:12.044Z</time>
      </trkpt>
      <trkpt lat="45.92396" lon="3.38064">
        <ele>281.81414794922</ele>
        <time>2021-03-27T14:29:21.578Z</time>
      </trkpt>
      <trkpt lat="45.92399" lon="3.38068">
        <ele>281.92932128906</ele>
        <time>2021-03-27T14:29:31.113Z</time>
      </trkpt>
      <trkpt lat="45.92401" lon="3.38073">
        <ele>282.00131225586</ele>
        <time>2021-03-27T14:29:40.649Z</time>
      </trkpt>
      <trkpt lat="45.92403" lon="3.38078">
        <ele>282.06970214844</ele>
        <time>2021-03-27T14:29:50.185Z</time>
      </trkpt>
      <trkpt lat="45.92404" lon="3.38085">
        <ele>282.1164855957</ele>
        <time>2021-03-27T14:29:59.722Z</time>
      </trkpt>
      <trkpt lat="45.92405" lon="3.38092">
        <ele>282.13806152344</ele>
        <time>2021-03-27T14:30:09.260Z</time>
      </trkpt>
      <trkpt lat="45.92405" lon="3.38095">
        <ele>282.13806152344</ele>
        <time>2021-03-27T14:30:18.799Z</time>
      </trkpt>
      <trkpt lat="45.92404" lon="3.38095">
        <ele>282.13446044922</ele>
        <time>2021-03-27T14:30:28.338Z</time>
      </trkpt>
      <trkpt lat="45.92404" lon="3.38099">
        <ele>282.13446044922</ele>
        <time>2021-03-27T14:30:37.877Z</time>
      </trkpt>
      <trkpt lat="45.92414" lon="3.38111">
        <ele>282.35430908203</ele>
        <time>2021-03-27T14:30:47.419Z</time>
      </trkpt>
      <trkpt lat="45.92423" lon="3.38123">
        <ele>282.27154541016</ele>
        <time>2021-03-27T14:30:56.963Z</time>
      </trkpt>
      <trkpt lat="45.92428" lon="3.38128">
        <ele>282.2607421875</ele>
        <time>2021-03-27T14:31:06.509Z</time>
      </trkpt>
      <trkpt lat="45.92432" lon="3.38131">
        <ele>282.15814208984</ele>
        <time>2021-03-27T14:31:16.055Z</time>
      </trkpt>
      <trkpt lat="45.9244" lon="3.38136">
        <ele>281.99618530273</ele>
        <time>2021-03-27T14:31:25.603Z</time>
      </trkpt>
      <trkpt lat="45.92446" lon="3.38139">
        <ele>281.88821411133</ele>
        <time>2021-03-27T14:31:35.153Z</time>
      </trkpt>
      <trkpt lat="45.92449" lon="3.3814">
        <ele>281.84503173828</ele>
        <time>2021-03-27T14:31:44.703Z</time>
      </trkpt>
      <trkpt lat="45.92458" lon="3.38141">
        <ele>281.80184936523</ele>
        <time>2021-03-27T14:31:54.255Z</time>
      </trkpt>
      <trkpt lat="45.92475" lon="3.38141">
        <ele>281.7946472168</ele>
        <time>2021-03-27T14:32:03.810Z</time>
      </trkpt>
      <trkpt lat="45.92481" lon="3.38142">
        <ele>281.76226806641</ele>
        <time>2021-03-27T14:32:13.366Z</time>
      </trkpt>
      <trkpt lat="45.92486" lon="3.38144">
        <ele>281.77233886719</ele>
        <time>2021-03-27T14:32:22.923Z</time>
      </trkpt>
      <trkpt lat="45.92494" lon="3.38148">
        <ele>281.89468383789</ele>
        <time>2021-03-27T14:32:32.482Z</time>
      </trkpt>
      <trkpt lat="45.92522" lon="3.38164">
        <ele>281.64749145508</ele>
        <time>2021-03-27T14:32:42.047Z</time>
      </trkpt>
      <trkpt lat="45.92538" lon="3.38171">
        <ele>281.07525634766</ele>
        <time>2021-03-27T14:32:51.615Z</time>
      </trkpt>
      <trkpt lat="45.92545" lon="3.38173">
        <ele>281.18026733398</ele>
        <time>2021-03-27T14:33:01.185Z</time>
      </trkpt>
      <trkpt lat="45.92564" lon="3.38181">
        <ele>281.88928222656</ele>
        <time>2021-03-27T14:33:10.759Z</time>
      </trkpt>
      <trkpt lat="45.92585" lon="3.38189">
        <ele>282.63067626953</ele>
        <time>2021-03-27T14:33:20.337Z</time>
      </trkpt>
      <trkpt lat="45.9259" lon="3.38191">
        <ele>282.81420898438</ele>
        <time>2021-03-27T14:33:29.916Z</time>
      </trkpt>
      <trkpt lat="45.92597" lon="3.38195">
        <ele>283</ele>
        <time>2021-03-27T14:33:39.497Z</time>
      </trkpt>
      <trkpt lat="45.92602" lon="3.38199">
        <ele>283</ele>
        <time>2021-03-27T14:33:49.079Z</time>
      </trkpt>
      <trkpt lat="45.92607" lon="3.38203">
        <ele>283</ele>
        <time>2021-03-27T14:33:58.662Z</time>
      </trkpt>
      <trkpt lat="45.92609" lon="3.38206">
        <ele>283</ele>
        <time>2021-03-27T14:34:08.246Z</time>
      </trkpt>
      <trkpt lat="45.92609" lon="3.38209">
        <ele>283</ele>
        <time>2021-03-27T14:34:17.830Z</time>
      </trkpt>
      <trkpt lat="45.9261" lon="3.38212">
        <ele>283</ele>
        <time>2021-03-27T14:34:27.415Z</time>
      </trkpt>
      <trkpt lat="45.92608" lon="3.38217">
        <ele>283</ele>
        <time>2021-03-27T14:34:37.000Z</time>
      </trkpt>
      <trkpt lat="45.92607" lon="3.38222">
        <ele>282.8974609375</ele>
        <time>2021-03-27T14:34:46.586Z</time>
      </trkpt>
      <trkpt lat="45.92605" lon="3.38228">
        <ele>282.65991210938</ele>
        <time>2021-03-27T14:34:56.173Z</time>
      </trkpt>
      <trkpt lat="45.92605" lon="3.38231">
        <ele>282.55554199219</ele>
        <time>2021-03-27T14:35:05.760Z</time>
      </trkpt>
      <trkpt lat="45.92606" lon="3.38234">
        <ele>282.451171875</ele>
        <time>2021-03-27T14:35:15.348Z</time>
      </trkpt>
      <trkpt lat="45.92609" lon="3.3824">
        <ele>282.23162841797</ele>
        <time>2021-03-27T14:35:24.937Z</time>
      </trkpt>
      <trkpt lat="45.92612" lon="3.38239">
        <ele>282.29641723633</ele>
        <time>2021-03-27T14:35:34.527Z</time>
      </trkpt>
      <trkpt lat="45.92617" lon="3.38235">
        <ele>282.40798950195</ele>
        <time>2021-03-27T14:35:44.118Z</time>
      </trkpt>
      <trkpt lat="45.92624" lon="3.38233">
        <ele>282.49795532227</ele>
        <time>2021-03-27T14:35:53.710Z</time>
      </trkpt>
      <trkpt lat="45.92639" lon="3.3823">
        <ele>282.60592651367</ele>
        <time>2021-03-27T14:36:03.305Z</time>
      </trkpt>
      <trkpt lat="45.92646" lon="3.38228">
        <ele>282.68511962891</ele>
        <time>2021-03-27T14:36:12.901Z</time>
      </trkpt>
      <trkpt lat="45.92649" lon="3.38226">
        <ele>282.75347900391</ele>
        <time>2021-03-27T14:36:22.498Z</time>
      </trkpt>
      <trkpt lat="45.92653" lon="3.38224">
        <ele>282.82907104492</ele>
        <time>2021-03-27T14:36:32.096Z</time>
      </trkpt>
      <trkpt lat="45.92658" lon="3.38221">
        <ele>282.75646972656</ele>
        <time>2021-03-27T14:36:41.695Z</time>
      </trkpt>
      <trkpt lat="45.92663" lon="3.38215">
        <ele>282.69708251953</ele>
        <time>2021-03-27T14:36:51.295Z</time>
      </trkpt>
      <trkpt lat="45.92673" lon="3.38204">
        <ele>282.74029541016</ele>
        <time>2021-03-27T14:37:00.898Z</time>
      </trkpt>
      <trkpt lat="45.92676" lon="3.3821">
        <ele>282.41998291016</ele>
        <time>2021-03-27T14:37:10.502Z</time>
      </trkpt>
      <trkpt lat="45.92677" lon="3.38215">
        <ele>282.17523193359</ele>
        <time>2021-03-27T14:37:20.107Z</time>
      </trkpt>
      <trkpt lat="45.92679" lon="3.38226">
        <ele>282.02813720703</ele>
        <time>2021-03-27T14:37:29.713Z</time>
      </trkpt>
      <trkpt lat="45.9268" lon="3.38229">
        <ele>282.03890991211</ele>
        <time>2021-03-27T14:37:39.320Z</time>
      </trkpt>
      <trkpt lat="45.92682" lon="3.38254">
        <ele>282.27938842773</ele>
        <time>2021-03-27T14:37:48.930Z</time>
      </trkpt>
      <trkpt lat="45.92687" lon="3.38281">
        <ele>282.3557434082</ele>
        <time>2021-03-27T14:37:58.544Z</time>
      </trkpt>
      <trkpt lat="45.9269" lon="3.38303">
        <ele>282.37747192383</ele>
        <time>2021-03-27T14:38:08.161Z</time>
      </trkpt>
      <trkpt lat="45.92693" lon="3.38317">
        <ele>281.96719360352</ele>
        <time>2021-03-27T14:38:17.780Z</time>
      </trkpt>
      <trkpt lat="45.92696" lon="3.38334">
        <ele>281.34790039062</ele>
        <time>2021-03-27T14:38:27.402Z</time>
      </trkpt>
      <trkpt lat="45.92699" lon="3.38346">
        <ele>280.59210205078</ele>
        <time>2021-03-27T14:38:37.026Z</time>
      </trkpt>
      <trkpt lat="45.92703" lon="3.38357">
        <ele>280.01721191406</ele>
        <time>2021-03-27T14:38:46.651Z</time>
      </trkpt>
      <trkpt lat="45.92712" lon="3.38376">
        <ele>280</ele>
        <time>2021-03-27T14:38:56.279Z</time>
      </trkpt>
      <trkpt lat="45.92728" lon="3.38407">
        <ele>280</ele>
        <time>2021-03-27T14:39:05.913Z</time>
      </trkpt>
      <trkpt lat="45.92753" lon="3.3846">
        <ele>280</ele>
        <time>2021-03-27T14:39:15.556Z</time>
      </trkpt>
      <trkpt lat="45.92769" lon="3.38497">
        <ele>280.27081298828</ele>
        <time>2021-03-27T14:39:25.205Z</time>
      </trkpt>
      <trkpt lat="45.9278" lon="3.38523">
        <ele>280.30480957031</ele>
        <time>2021-03-27T14:39:34.858Z</time>
      </trkpt>
      <trkpt lat="45.92794" lon="3.38566">
        <ele>280.15618896484</ele>
        <time>2021-03-27T14:39:44.518Z</time>
      </trkpt>
      <trkpt lat="45.92799" lon="3.3858">
        <ele>280.31948852539</ele>
        <time>2021-03-27T14:39:54.180Z</time>
      </trkpt>
      <trkpt lat="45.92803" lon="3.38591">
        <ele>280.87014770508</ele>
        <time>2021-03-27T14:40:03.844Z</time>
      </trkpt>
      <trkpt lat="45.92806" lon="3.38596">
        <ele>281.14733886719</ele>
        <time>2021-03-27T14:40:13.509Z</time>
      </trkpt>
      <trkpt lat="45.9281" lon="3.38603">
        <ele>281.46405029297</ele>
        <time>2021-03-27T14:40:23.175Z</time>
      </trkpt>
      <trkpt lat="45.92818" lon="3.38615">
        <ele>281.7932434082</ele>
        <time>2021-03-27T14:40:32.843Z</time>
      </trkpt>
      <trkpt lat="45.92835" lon="3.38639">
        <ele>282.29232788086</ele>
        <time>2021-03-27T14:40:42.516Z</time>
      </trkpt>
      <trkpt lat="45.92851" lon="3.38656">
        <ele>282.79238891602</ele>
        <time>2021-03-27T14:40:52.193Z</time>
      </trkpt>
      <trkpt lat="45.92865" lon="3.38671">
        <ele>282.03005981445</ele>
        <time>2021-03-27T14:41:01.873Z</time>
      </trkpt>
      <trkpt lat="45.92869" lon="3.38676">
        <ele>281.69897460938</ele>
        <time>2021-03-27T14:41:11.555Z</time>
      </trkpt>
      <trkpt lat="45.92871" lon="3.38679">
        <ele>281.50820922852</ele>
        <time>2021-03-27T14:41:21.237Z</time>
      </trkpt>
      <trkpt lat="45.92874" lon="3.38685">
        <ele>281.22030639648</ele>
        <time>2021-03-27T14:41:30.920Z</time>
      </trkpt>
      <trkpt lat="45.92876" lon="3.38691">
        <ele>280.92877197266</ele>
        <time>2021-03-27T14:41:40.604Z</time>
      </trkpt>
      <trkpt lat="45.92877" lon="3.38695">
        <ele>280.87463378906</ele>
        <time>2021-03-27T14:41:50.289Z</time>
      </trkpt>
      <trkpt lat="45.92877" lon="3.38705">
        <ele>280.85305786133</ele>
        <time>2021-03-27T14:41:59.975Z</time>
      </trkpt>
      <trkpt lat="45.92876" lon="3.38728">
        <ele>280.81185913086</ele>
        <time>2021-03-27T14:42:09.664Z</time>
      </trkpt>
      <trkpt lat="45.92876" lon="3.38746">
        <ele>280.13885498047</ele>
        <time>2021-03-27T14:42:19.356Z</time>
      </trkpt>
      <trkpt lat="45.92877" lon="3.38753">
        <ele>280.14694213867</ele>
        <time>2021-03-27T14:42:29.049Z</time>
      </trkpt>
      <trkpt lat="45.92878" lon="3.38758">
        <ele>280.16494750977</ele>
        <time>2021-03-27T14:42:38.743Z</time>
      </trkpt>
      <trkpt lat="45.92879" lon="3.38763">
        <ele>280.22253417969</ele>
        <time>2021-03-27T14:42:48.437Z</time>
      </trkpt>
      <trkpt lat="45.92882" lon="3.38768">
        <ele>280.30529785156</ele>
        <time>2021-03-27T14:42:58.132Z</time>
      </trkpt>
      <trkpt lat="45.92887" lon="3.38776">
        <ele>280.51043701172</ele>
        <time>2021-03-27T14:43:07.829Z</time>
      </trkpt>
      <trkpt lat="45.92897" lon="3.38789">
        <ele>280.85595703125</ele>
        <time>2021-03-27T14:43:17.528Z</time>
      </trkpt>
      <trkpt lat="45.92907" lon="3.388">
        <ele>280.78414916992</ele>
        <time>2021-03-27T14:43:27.230Z</time>
      </trkpt>
      <trkpt lat="45.92921" lon="3.38814">
        <ele>280.66732788086</ele>
        <time>2021-03-27T14:43:36.935Z</time>
      </trkpt>
      <trkpt lat="45.9296" lon="3.38846">
        <ele>280.11251831055</ele>
        <time>2021-03-27T14:43:46.649Z</time>
      </trkpt>
      <trkpt lat="45.92995" lon="3.38874">
        <ele>280.06698608398</ele>
        <time>2021-03-27T14:43:56.371Z</time>
      </trkpt>
      <trkpt lat="45.93012" lon="3.38889">
        <ele>279</ele>
        <time>2021-03-27T14:44:06.097Z</time>
      </trkpt>
      <trkpt lat="45.93019" lon="3.38896">
        <ele>279</ele>
        <time>2021-03-27T14:44:15.825Z</time>
      </trkpt>
      <trkpt lat="45.93026" lon="3.38905">
        <ele>279</ele>
        <time>2021-03-27T14:44:25.555Z</time>
      </trkpt>
      <trkpt lat="45.93028" lon="3.38908">
        <ele>279</ele>
        <time>2021-03-27T14:44:35.285Z</time>
      </trkpt>
      <trkpt lat="45.9303" lon="3.38909">
        <ele>279</ele>
        <time>2021-03-27T14:44:45.016Z</time>
      </trkpt>
      <trkpt lat="45.93028" lon="3.38908">
        <ele>279</ele>
        <time>2021-03-27T14:44:54.747Z</time>
      </trkpt>
      <trkpt lat="45.93023" lon="3.38914">
        <ele>279.00042724609</ele>
        <time>2021-03-27T14:45:04.479Z</time>
      </trkpt>
      <trkpt lat="45.92993" lon="3.38942">
        <ele>279.71514892578</ele>
        <time>2021-03-27T14:45:14.219Z</time>
      </trkpt>
      <trkpt lat="45.92955" lon="3.38976">
        <ele>281</ele>
        <time>2021-03-27T14:45:23.968Z</time>
      </trkpt>
      <trkpt lat="45.92927" lon="3.39002">
        <ele>280.95364379883</ele>
        <time>2021-03-27T14:45:33.723Z</time>
      </trkpt>
      <trkpt lat="45.92916" lon="3.39013">
        <ele>280.58505249023</ele>
        <time>2021-03-27T14:45:43.481Z</time>
      </trkpt>
      <trkpt lat="45.92874" lon="3.39058">
        <ele>281.19378662109</ele>
        <time>2021-03-27T14:45:53.249Z</time>
      </trkpt>
      <trkpt lat="45.92861" lon="3.39072">
        <ele>282</ele>
        <time>2021-03-27T14:46:03.021Z</time>
      </trkpt>
      <trkpt lat="45.92853" lon="3.39079">
        <ele>282</ele>
        <time>2021-03-27T14:46:12.795Z</time>
      </trkpt>
      <trkpt lat="45.92844" lon="3.39089">
        <ele>282</ele>
        <time>2021-03-27T14:46:22.571Z</time>
      </trkpt>
      <trkpt lat="45.92835" lon="3.39095">
        <ele>282</ele>
        <time>2021-03-27T14:46:32.349Z</time>
      </trkpt>
      <trkpt lat="45.92816" lon="3.39111">
        <ele>281.93716430664</ele>
        <time>2021-03-27T14:46:42.131Z</time>
      </trkpt>
      <trkpt lat="45.92797" lon="3.39125">
        <ele>281.26055908203</ele>
        <time>2021-03-27T14:46:51.918Z</time>
      </trkpt>
      <trkpt lat="45.92788" lon="3.39133">
        <ele>281</ele>
        <time>2021-03-27T14:47:01.707Z</time>
      </trkpt>
      <trkpt lat="45.92776" lon="3.39145">
        <ele>281</ele>
        <time>2021-03-27T14:47:11.499Z</time>
      </trkpt>
      <trkpt lat="45.92764" lon="3.39158">
        <ele>280.26568603516</ele>
        <time>2021-03-27T14:47:21.294Z</time>
      </trkpt>
      <trkpt lat="45.92755" lon="3.39168">
        <ele>280</ele>
        <time>2021-03-27T14:47:31.091Z</time>
      </trkpt>
      <trkpt lat="45.92743" lon="3.39187">
        <ele>280.541015625</ele>
        <time>2021-03-27T14:47:40.892Z</time>
      </trkpt>
      <trkpt lat="45.92736" lon="3.39197">
        <ele>280.9348449707</ele>
        <time>2021-03-27T14:47:50.694Z</time>
      </trkpt>
      <trkpt lat="45.92728" lon="3.39207">
        <ele>281.22994995117</ele>
        <time>2021-03-27T14:48:00.499Z</time>
      </trkpt>
      <trkpt lat="45.92718" lon="3.39217">
        <ele>282.07791137695</ele>
        <time>2021-03-27T14:48:10.306Z</time>
      </trkpt>
      <trkpt lat="45.92691" lon="3.39247">
        <ele>284.13037109375</ele>
        <time>2021-03-27T14:48:20.120Z</time>
      </trkpt>
      <trkpt lat="45.92683" lon="3.39255">
        <ele>284.66302490234</ele>
        <time>2021-03-27T14:48:29.936Z</time>
      </trkpt>
      <trkpt lat="45.92677" lon="3.39263">
        <ele>285</ele>
        <time>2021-03-27T14:48:39.753Z</time>
      </trkpt>
      <trkpt lat="45.92671" lon="3.39272">
        <ele>285.1770324707</ele>
        <time>2021-03-27T14:48:49.572Z</time>
      </trkpt>
      <trkpt lat="45.92661" lon="3.39288">
        <ele>285.63409423828</ele>
        <time>2021-03-27T14:48:59.394Z</time>
      </trkpt>
      <trkpt lat="45.92658" lon="3.39292">
        <ele>285.74206542969</ele>
        <time>2021-03-27T14:49:09.217Z</time>
      </trkpt>
      <trkpt lat="45.9265" lon="3.39303">
        <ele>285.91790771484</ele>
        <time>2021-03-27T14:49:19.042Z</time>
      </trkpt>
      <trkpt lat="45.92646" lon="3.39307">
        <ele>285.51480102539</ele>
        <time>2021-03-27T14:49:28.868Z</time>
      </trkpt>
      <trkpt lat="45.92641" lon="3.39315">
        <ele>284.87060546875</ele>
        <time>2021-03-27T14:49:38.696Z</time>
      </trkpt>
      <trkpt lat="45.92638" lon="3.39321">
        <ele>284.42791748047</ele>
        <time>2021-03-27T14:49:48.525Z</time>
      </trkpt>
      <trkpt lat="45.92636" lon="3.39329">
        <ele>284.00323486328</ele>
        <time>2021-03-27T14:49:58.355Z</time>
      </trkpt>
      <trkpt lat="45.92635" lon="3.39338">
        <ele>283.57495117188</ele>
        <time>2021-03-27T14:50:08.186Z</time>
      </trkpt>
      <trkpt lat="45.92634" lon="3.3935">
        <ele>283.41217041016</ele>
        <time>2021-03-27T14:50:18.019Z</time>
      </trkpt>
      <trkpt lat="45.92635" lon="3.39361">
        <ele>283.34939575195</ele>
        <time>2021-03-27T14:50:27.853Z</time>
      </trkpt>
      <trkpt lat="45.92637" lon="3.39372">
        <ele>283</ele>
        <time>2021-03-27T14:50:37.689Z</time>
      </trkpt>
      <trkpt lat="45.92634" lon="3.39376">
        <ele>283</ele>
        <time>2021-03-27T14:50:47.526Z</time>
      </trkpt>
      <trkpt lat="45.92633" lon="3.39379">
        <ele>283</ele>
        <time>2021-03-27T14:50:57.363Z</time>
      </trkpt>
      <trkpt lat="45.92632" lon="3.39386">
        <ele>283</ele>
        <time>2021-03-27T14:51:07.201Z</time>
      </trkpt>
      <trkpt lat="45.92629" lon="3.39409">
        <ele>283</ele>
        <time>2021-03-27T14:51:17.042Z</time>
      </trkpt>
      <trkpt lat="45.92627" lon="3.39422">
        <ele>283</ele>
        <time>2021-03-27T14:51:26.885Z</time>
      </trkpt>
      <trkpt lat="45.92624" lon="3.39436">
        <ele>283</ele>
        <time>2021-03-27T14:51:36.730Z</time>
      </trkpt>
      <trkpt lat="45.92619" lon="3.39455">
        <ele>283.65628051758</ele>
        <time>2021-03-27T14:51:46.578Z</time>
      </trkpt>
      <trkpt lat="45.92615" lon="3.39469">
        <ele>284.27890014648</ele>
        <time>2021-03-27T14:51:56.428Z</time>
      </trkpt>
      <trkpt lat="45.92612" lon="3.39479">
        <ele>284.39761352539</ele>
        <time>2021-03-27T14:52:06.280Z</time>
      </trkpt>
      <trkpt lat="45.92606" lon="3.39493">
        <ele>285.07653808594</ele>
        <time>2021-03-27T14:52:16.134Z</time>
      </trkpt>
      <trkpt lat="45.92586" lon="3.39543">
        <ele>286</ele>
        <time>2021-03-27T14:52:25.996Z</time>
      </trkpt>
      <trkpt lat="45.92572" lon="3.39581">
        <ele>286.85159301758</ele>
        <time>2021-03-27T14:52:35.864Z</time>
      </trkpt>
      <trkpt lat="45.9257" lon="3.39585">
        <ele>286.93930053711</ele>
        <time>2021-03-27T14:52:45.733Z</time>
      </trkpt>
      <trkpt lat="45.92562" lon="3.39608">
        <ele>287.81008911133</ele>
        <time>2021-03-27T14:52:55.605Z</time>
      </trkpt>
      <trkpt lat="45.92556" lon="3.39629">
        <ele>287.74768066406</ele>
        <time>2021-03-27T14:53:05.481Z</time>
      </trkpt>
      <trkpt lat="45.92557" lon="3.39636">
        <ele>288</ele>
        <time>2021-03-27T14:53:15.358Z</time>
      </trkpt>
      <trkpt lat="45.92558" lon="3.39647">
        <ele>288</ele>
        <time>2021-03-27T14:53:25.236Z</time>
      </trkpt>
      <trkpt lat="45.92557" lon="3.39656">
        <ele>288.10366821289</ele>
        <time>2021-03-27T14:53:35.115Z</time>
      </trkpt>
      <trkpt lat="45.92554" lon="3.39668">
        <ele>288.48501586914</ele>
        <time>2021-03-27T14:53:44.996Z</time>
      </trkpt>
      <trkpt lat="45.92553" lon="3.39678">
        <ele>288.55322265625</ele>
        <time>2021-03-27T14:53:54.879Z</time>
      </trkpt>
      <trkpt lat="45.92552" lon="3.39687">
        <ele>288.90231323242</ele>
        <time>2021-03-27T14:54:04.763Z</time>
      </trkpt>
      <trkpt lat="45.92552" lon="3.39691">
        <ele>289.05706787109</ele>
        <time>2021-03-27T14:54:14.647Z</time>
      </trkpt>
      <trkpt lat="45.92546" lon="3.39688">
        <ele>289.44216918945</ele>
        <time>2021-03-27T14:54:24.533Z</time>
      </trkpt>
      <trkpt lat="45.92552" lon="3.39691">
        <ele>289.05706787109</ele>
        <time>2021-03-27T14:54:34.420Z</time>
      </trkpt>
      <trkpt lat="45.92553" lon="3.39698">
        <ele>288.82904052734</ele>
        <time>2021-03-27T14:54:44.308Z</time>
      </trkpt>
      <trkpt lat="45.92554" lon="3.39708">
        <ele>288.47665405273</ele>
        <time>2021-03-27T14:54:54.198Z</time>
      </trkpt>
      <trkpt lat="45.92557" lon="3.3972">
        <ele>288.16354370117</ele>
        <time>2021-03-27T14:55:04.089Z</time>
      </trkpt>
      <trkpt lat="45.9256" lon="3.3973">
        <ele>287.76406860352</ele>
        <time>2021-03-27T14:55:13.982Z</time>
      </trkpt>
      <trkpt lat="45.92564" lon="3.39736">
        <ele>287.38616943359</ele>
        <time>2021-03-27T14:55:23.876Z</time>
      </trkpt>
      <trkpt lat="45.92568" lon="3.3974">
        <ele>286.96231079102</ele>
        <time>2021-03-27T14:55:33.771Z</time>
      </trkpt>
      <trkpt lat="45.92573" lon="3.39743">
        <ele>286.60961914062</ele>
        <time>2021-03-27T14:55:43.667Z</time>
      </trkpt>
      <trkpt lat="45.92581" lon="3.39747">
        <ele>286.05535888672</ele>
        <time>2021-03-27T14:55:53.565Z</time>
      </trkpt>
      <trkpt lat="45.92569" lon="3.39777">
        <ele>288.13897705078</ele>
        <time>2021-03-27T14:56:03.468Z</time>
      </trkpt>
      <trkpt lat="45.92562" lon="3.39798">
        <ele>291.05969238281</ele>
        <time>2021-03-27T14:56:13.374Z</time>
      </trkpt>
      <trkpt lat="45.92558" lon="3.39809">
        <ele>292.91592407227</ele>
        <time>2021-03-27T14:56:23.282Z</time>
      </trkpt>
      <trkpt lat="45.92551" lon="3.39825">
        <ele>295.91748046875</ele>
        <time>2021-03-27T14:56:33.192Z</time>
      </trkpt>
      <trkpt lat="45.92544" lon="3.3984">
        <ele>299.03454589844</ele>
        <time>2021-03-27T14:56:43.105Z</time>
      </trkpt>
      <trkpt lat="45.9254" lon="3.39848">
        <ele>300.4309387207</ele>
        <time>2021-03-27T14:56:53.019Z</time>
      </trkpt>
      <trkpt lat="45.92538" lon="3.3986">
        <ele>302.42105102539</ele>
        <time>2021-03-27T14:57:02.935Z</time>
      </trkpt>
      <trkpt lat="45.92535" lon="3.39893">
        <ele>308.81289672852</ele>
        <time>2021-03-27T14:57:12.856Z</time>
      </trkpt>
      <trkpt lat="45.92528" lon="3.39943">
        <ele>319.78039550781</ele>
        <time>2021-03-27T14:57:22.784Z</time>
      </trkpt>
      <trkpt lat="45.92524" lon="3.39976">
        <ele>325.20150756836</ele>
        <time>2021-03-27T14:57:32.716Z</time>
      </trkpt>
      <trkpt lat="45.92524" lon="3.39989">
        <ele>326.53674316406</ele>
        <time>2021-03-27T14:57:42.650Z</time>
      </trkpt>
      <trkpt lat="45.92527" lon="3.40004">
        <ele>328.02752685547</ele>
        <time>2021-03-27T14:57:52.586Z</time>
      </trkpt>
      <trkpt lat="45.9253" lon="3.40035">
        <ele>330.01083374023</ele>
        <time>2021-03-27T14:58:02.527Z</time>
      </trkpt>
      <trkpt lat="45.9253" lon="3.40048">
        <ele>330.67657470703</ele>
        <time>2021-03-27T14:58:12.470Z</time>
      </trkpt>
      <trkpt lat="45.92527" lon="3.40068">
        <ele>331.58416748047</ele>
        <time>2021-03-27T14:58:22.415Z</time>
      </trkpt>
      <trkpt lat="45.92523" lon="3.40082">
        <ele>333.27416992188</ele>
        <time>2021-03-27T14:58:32.363Z</time>
      </trkpt>
      <trkpt lat="45.92512" lon="3.401">
        <ele>334.68817138672</ele>
        <time>2021-03-27T14:58:42.314Z</time>
      </trkpt>
      <trkpt lat="45.92505" lon="3.40112">
        <ele>335.26293945312</ele>
        <time>2021-03-27T14:58:52.267Z</time>
      </trkpt>
      <trkpt lat="45.925" lon="3.40122">
        <ele>335.4176940918</ele>
        <time>2021-03-27T14:59:02.222Z</time>
      </trkpt>
      <trkpt lat="45.92493" lon="3.40139">
        <ele>335.60302734375</ele>
        <time>2021-03-27T14:59:12.180Z</time>
      </trkpt>
      <trkpt lat="45.92488" lon="3.40153">
        <ele>335.74230957031</ele>
        <time>2021-03-27T14:59:22.140Z</time>
      </trkpt>
      <trkpt lat="45.92483" lon="3.40161">
        <ele>336.03311157227</ele>
        <time>2021-03-27T14:59:32.101Z</time>
      </trkpt>
      <trkpt lat="45.92473" lon="3.40174">
        <ele>336.76443481445</ele>
        <time>2021-03-27T14:59:42.065Z</time>
      </trkpt>
      <trkpt lat="45.92464" lon="3.40185">
        <ele>337.91607666016</ele>
        <time>2021-03-27T14:59:52.031Z</time>
      </trkpt>
      <trkpt lat="45.92453" lon="3.40201">
        <ele>339.21841430664</ele>
        <time>2021-03-27T15:00:02.000Z</time>
      </trkpt>
      <trkpt lat="45.92445" lon="3.40227">
        <ele>340.45751953125</ele>
        <time>2021-03-27T15:00:11.973Z</time>
      </trkpt>
      <trkpt lat="45.92446" lon="3.4024">
        <ele>340.7294921875</ele>
        <time>2021-03-27T15:00:21.948Z</time>
      </trkpt>
      <trkpt lat="45.92445" lon="3.40253">
        <ele>340.83026123047</ele>
        <time>2021-03-27T15:00:31.925Z</time>
      </trkpt>
      <trkpt lat="45.92445" lon="3.40272">
        <ele>340.84466552734</ele>
        <time>2021-03-27T15:00:41.905Z</time>
      </trkpt>
      <trkpt lat="45.92446" lon="3.40302">
        <ele>340.42098999023</ele>
        <time>2021-03-27T15:00:51.889Z</time>
      </trkpt>
      <trkpt lat="45.92446" lon="3.40316">
        <ele>340.35394287109</ele>
        <time>2021-03-27T15:01:01.875Z</time>
      </trkpt>
      <trkpt lat="45.92448" lon="3.40331">
        <ele>340</ele>
        <time>2021-03-27T15:01:11.863Z</time>
      </trkpt>
      <trkpt lat="45.9245" lon="3.40341">
        <ele>340</ele>
        <time>2021-03-27T15:01:21.852Z</time>
      </trkpt>
      <trkpt lat="45.92453" lon="3.40352">
        <ele>340</ele>
        <time>2021-03-27T15:01:31.843Z</time>
      </trkpt>
      <trkpt lat="45.92453" lon="3.40355">
        <ele>340</ele>
        <time>2021-03-27T15:01:41.834Z</time>
      </trkpt>
      <trkpt lat="45.92458" lon="3.40367">
        <ele>340</ele>
        <time>2021-03-27T15:01:51.827Z</time>
      </trkpt>
      <trkpt lat="45.92456" lon="3.40373">
        <ele>340</ele>
        <time>2021-03-27T15:02:01.821Z</time>
      </trkpt>
      <trkpt lat="45.92453" lon="3.40381">
        <ele>340</ele>
        <time>2021-03-27T15:02:11.817Z</time>
      </trkpt>
      <trkpt lat="45.9245" lon="3.40389">
        <ele>340.32806396484</ele>
        <time>2021-03-27T15:02:21.814Z</time>
      </trkpt>
      <trkpt lat="45.92449" lon="3.40398">
        <ele>340.6735534668</ele>
        <time>2021-03-27T15:02:31.812Z</time>
      </trkpt>
      <trkpt lat="45.92449" lon="3.40406">
        <ele>340.97589111328</ele>
        <time>2021-03-27T15:02:41.811Z</time>
      </trkpt>
      <trkpt lat="45.92449" lon="3.40413">
        <ele>341.23141479492</ele>
        <time>2021-03-27T15:02:51.811Z</time>
      </trkpt>
      <trkpt lat="45.92419" lon="3.40434">
        <ele>343.74694824219</ele>
        <time>2021-03-27T15:03:01.818Z</time>
      </trkpt>
      <trkpt lat="45.92385" lon="3.40476">
        <ele>346</ele>
        <time>2021-03-27T15:03:11.834Z</time>
      </trkpt>
      <trkpt lat="45.92351" lon="3.40502">
        <ele>345.68768310547</ele>
        <time>2021-03-27T15:03:21.857Z</time>
      </trkpt>
      <trkpt lat="45.92332" lon="3.40509">
        <ele>346.48199462891</ele>
        <time>2021-03-27T15:03:31.885Z</time>
      </trkpt>
      <trkpt lat="45.92297" lon="3.40513">
        <ele>347.73803710938</ele>
        <time>2021-03-27T15:03:41.920Z</time>
      </trkpt>
      <trkpt lat="45.92267" lon="3.40513">
        <ele>349.59951782227</ele>
        <time>2021-03-27T15:03:51.960Z</time>
      </trkpt>
      <trkpt lat="45.92188" lon="3.40515">
        <ele>353</ele>
        <time>2021-03-27T15:04:02.016Z</time>
      </trkpt>
      <trkpt lat="45.92132" lon="3.40524">
        <ele>351.33438110352</ele>
        <time>2021-03-27T15:04:12.084Z</time>
      </trkpt>
      <trkpt lat="45.92038" lon="3.40532">
        <ele>352.94772338867</ele>
        <time>2021-03-27T15:04:22.170Z</time>
      </trkpt>
      <trkpt lat="45.92035" lon="3.40533">
        <ele>352.85415649414</ele>
        <time>2021-03-27T15:04:32.257Z</time>
      </trkpt>
      <trkpt lat="45.91923" lon="3.40551">
        <ele>353.03765869141</ele>
        <time>2021-03-27T15:04:42.367Z</time>
      </trkpt>
      <trkpt lat="45.91802" lon="3.40573">
        <ele>351.4660949707</ele>
        <time>2021-03-27T15:04:52.501Z</time>
      </trkpt>
      <trkpt lat="45.91733" lon="3.4058">
        <ele>350.94116210938</ele>
        <time>2021-03-27T15:05:02.649Z</time>
      </trkpt>
      <trkpt lat="45.91659" lon="3.40583">
        <ele>349.39688110352</ele>
        <time>2021-03-27T15:05:12.812Z</time>
      </trkpt>
      <trkpt lat="45.91655" lon="3.40584">
        <ele>349.27450561523</ele>
        <time>2021-03-27T15:05:22.975Z</time>
      </trkpt>
      <trkpt lat="45.9165" lon="3.40575">
        <ele>348.59887695312</ele>
        <time>2021-03-27T15:05:33.140Z</time>
      </trkpt>
      <trkpt lat="45.91647" lon="3.40567">
        <ele>347.74951171875</ele>
        <time>2021-03-27T15:05:43.306Z</time>
      </trkpt>
      <trkpt lat="45.91645" lon="3.4056">
        <ele>347.12329101562</ele>
        <time>2021-03-27T15:05:53.473Z</time>
      </trkpt>
      <trkpt lat="45.91638" lon="3.40565">
        <ele>347.00091552734</ele>
        <time>2021-03-27T15:06:03.642Z</time>
      </trkpt>
      <trkpt lat="45.9163" lon="3.40571">
        <ele>346.76336669922</ele>
        <time>2021-03-27T15:06:13.813Z</time>
      </trkpt>
      <trkpt lat="45.91623" lon="3.40574">
        <ele>346.59063720703</ele>
        <time>2021-03-27T15:06:23.985Z</time>
      </trkpt>
      <trkpt lat="45.91618" lon="3.40579">
        <ele>346.58343505859</ele>
        <time>2021-03-27T15:06:34.158Z</time>
      </trkpt>
      <trkpt lat="45.91613" lon="3.40586">
        <ele>346.81674194336</ele>
        <time>2021-03-27T15:06:44.333Z</time>
      </trkpt>
      <trkpt lat="45.91607" lon="3.40593">
        <ele>347.18383789062</ele>
        <time>2021-03-27T15:06:54.509Z</time>
      </trkpt>
      <trkpt lat="45.91602" lon="3.40602">
        <ele>347.84243774414</ele>
        <time>2021-03-27T15:07:04.687Z</time>
      </trkpt>
      <trkpt lat="45.91597" lon="3.40615">
        <ele>348.50421142578</ele>
        <time>2021-03-27T15:07:14.867Z</time>
      </trkpt>
      <trkpt lat="45.9159" lon="3.40632">
        <ele>349.29653930664</ele>
        <time>2021-03-27T15:07:25.050Z</time>
      </trkpt>
      <trkpt lat="45.91582" lon="3.40655">
        <ele>349.21331787109</ele>
        <time>2021-03-27T15:07:35.236Z</time>
      </trkpt>
      <trkpt lat="45.91575" lon="3.4068">
        <ele>349.29156494141</ele>
        <time>2021-03-27T15:07:45.426Z</time>
      </trkpt>
      <trkpt lat="45.91568" lon="3.40709">
        <ele>349.64212036133</ele>
        <time>2021-03-27T15:07:55.620Z</time>
      </trkpt>
      <trkpt lat="45.9156" lon="3.40736">
        <ele>349.48184204102</ele>
        <time>2021-03-27T15:08:05.818Z</time>
      </trkpt>
      <trkpt lat="45.91552" lon="3.40762">
        <ele>348.35284423828</ele>
        <time>2021-03-27T15:08:16.020Z</time>
      </trkpt>
      <trkpt lat="45.91543" lon="3.40787">
        <ele>347.27975463867</ele>
        <time>2021-03-27T15:08:26.226Z</time>
      </trkpt>
      <trkpt lat="45.91535" lon="3.40809">
        <ele>347.15524291992</ele>
        <time>2021-03-27T15:08:36.436Z</time>
      </trkpt>
      <trkpt lat="45.91526" lon="3.40832">
        <ele>347.55160522461</ele>
        <time>2021-03-27T15:08:46.650Z</time>
      </trkpt>
      <trkpt lat="45.91516" lon="3.40853">
        <ele>348.64569091797</ele>
        <time>2021-03-27T15:08:56.867Z</time>
      </trkpt>
      <trkpt lat="45.91508" lon="3.40872">
        <ele>349.13775634766</ele>
        <time>2021-03-27T15:09:07.087Z</time>
      </trkpt>
      <trkpt lat="45.91498" lon="3.40896">
        <ele>349.81228637695</ele>
        <time>2021-03-27T15:09:17.311Z</time>
      </trkpt>
      <trkpt lat="45.91492" lon="3.40912">
        <ele>349.39233398438</ele>
        <time>2021-03-27T15:09:27.537Z</time>
      </trkpt>
      <trkpt lat="45.91488" lon="3.40927">
        <ele>349.14242553711</ele>
        <time>2021-03-27T15:09:37.766Z</time>
      </trkpt>
      <trkpt lat="45.91479" lon="3.40962">
        <ele>349.73315429688</ele>
        <time>2021-03-27T15:09:48.000Z</time>
      </trkpt>
      <trkpt lat="45.91463" lon="3.41019">
        <ele>350.52856445312</ele>
        <time>2021-03-27T15:09:58.243Z</time>
      </trkpt>
      <trkpt lat="45.91456" lon="3.41047">
        <ele>350.77227783203</ele>
        <time>2021-03-27T15:10:08.490Z</time>
      </trkpt>
      <trkpt lat="45.91451" lon="3.41066">
        <ele>350.61441040039</ele>
        <time>2021-03-27T15:10:18.740Z</time>
      </trkpt>
      <trkpt lat="45.91448" lon="3.4108">
        <ele>350.66842651367</ele>
        <time>2021-03-27T15:10:28.992Z</time>
      </trkpt>
      <trkpt lat="45.91445" lon="3.41095">
        <ele>350.61285400391</ele>
        <time>2021-03-27T15:10:39.246Z</time>
      </trkpt>
      <trkpt lat="45.91443" lon="3.41115">
        <ele>350.51568603516</ele>
        <time>2021-03-27T15:10:49.503Z</time>
      </trkpt>
      <trkpt lat="45.9144" lon="3.41138">
        <ele>350.36911010742</ele>
        <time>2021-03-27T15:10:59.763Z</time>
      </trkpt>
      <trkpt lat="45.91439" lon="3.41158">
        <ele>349.61334228516</ele>
        <time>2021-03-27T15:11:10.026Z</time>
      </trkpt>
      <trkpt lat="45.91439" lon="3.41168">
        <ele>349.24624633789</ele>
        <time>2021-03-27T15:11:20.290Z</time>
      </trkpt>
      <trkpt lat="45.91438" lon="3.41173">
        <ele>349.03747558594</ele>
        <time>2021-03-27T15:11:30.555Z</time>
      </trkpt>
      <trkpt lat="45.91435" lon="3.41185">
        <ele>349</ele>
        <time>2021-03-27T15:11:40.822Z</time>
      </trkpt>
      <trkpt lat="45.91431" lon="3.41203">
        <ele>349</ele>
        <time>2021-03-27T15:11:51.091Z</time>
      </trkpt>
      <trkpt lat="45.91427" lon="3.41225">
        <ele>348.7099609375</ele>
        <time>2021-03-27T15:12:01.363Z</time>
      </trkpt>
      <trkpt lat="45.91422" lon="3.41253">
        <ele>347.76708984375</ele>
        <time>2021-03-27T15:12:11.639Z</time>
      </trkpt>
      <trkpt lat="45.91414" lon="3.41291">
        <ele>347.55587768555</ele>
        <time>2021-03-27T15:12:21.921Z</time>
      </trkpt>
      <trkpt lat="45.91407" lon="3.4133">
        <ele>348.24523925781</ele>
        <time>2021-03-27T15:12:32.209Z</time>
      </trkpt>
      <trkpt lat="45.914" lon="3.41366">
        <ele>348.95062255859</ele>
        <time>2021-03-27T15:12:42.502Z</time>
      </trkpt>
      <trkpt lat="45.91393" lon="3.41392">
        <ele>349.15548706055</ele>
        <time>2021-03-27T15:12:52.799Z</time>
      </trkpt>
      <trkpt lat="45.91385" lon="3.41422">
        <ele>350.45346069336</ele>
        <time>2021-03-27T15:13:03.100Z</time>
      </trkpt>
      <trkpt lat="45.91372" lon="3.41473">
        <ele>350.86154174805</ele>
        <time>2021-03-27T15:13:13.409Z</time>
      </trkpt>
      <trkpt lat="45.91369" lon="3.41484">
        <ele>350.08053588867</ele>
        <time>2021-03-27T15:13:23.719Z</time>
      </trkpt>
      <trkpt lat="45.91365" lon="3.41493">
        <ele>349.32116699219</ele>
        <time>2021-03-27T15:13:34.031Z</time>
      </trkpt>
      <trkpt lat="45.91361" lon="3.41501">
        <ele>348.61935424805</ele>
        <time>2021-03-27T15:13:44.344Z</time>
      </trkpt>
      <trkpt lat="45.91357" lon="3.41507">
        <ele>347.96792602539</ele>
        <time>2021-03-27T15:13:54.658Z</time>
      </trkpt>
      <trkpt lat="45.91349" lon="3.41516">
        <ele>346.73345947266</ele>
        <time>2021-03-27T15:14:04.975Z</time>
      </trkpt>
      <trkpt lat="45.91337" lon="3.41528">
        <ele>345.73315429688</ele>
        <time>2021-03-27T15:14:15.294Z</time>
      </trkpt>
      <trkpt lat="45.91325" lon="3.41541">
        <ele>345.27966308594</ele>
        <time>2021-03-27T15:14:25.616Z</time>
      </trkpt>
      <trkpt lat="45.91316" lon="3.4155">
        <ele>345.02624511719</ele>
        <time>2021-03-27T15:14:35.941Z</time>
      </trkpt>
      <trkpt lat="45.91307" lon="3.41562">
        <ele>345.67730712891</ele>
        <time>2021-03-27T15:14:46.268Z</time>
      </trkpt>
      <trkpt lat="45.91295" lon="3.41576">
        <ele>346</ele>
        <time>2021-03-27T15:14:56.598Z</time>
      </trkpt>
      <trkpt lat="45.9129" lon="3.41583">
        <ele>346.06854248047</ele>
        <time>2021-03-27T15:15:06.930Z</time>
      </trkpt>
      <trkpt lat="45.91282" lon="3.41594">
        <ele>346.71435546875</ele>
        <time>2021-03-27T15:15:17.264Z</time>
      </trkpt>
      <trkpt lat="45.91276" lon="3.41606">
        <ele>347</ele>
        <time>2021-03-27T15:15:27.600Z</time>
      </trkpt>
      <trkpt lat="45.91268" lon="3.41623">
        <ele>347.2282409668</ele>
        <time>2021-03-27T15:15:37.939Z</time>
      </trkpt>
      <trkpt lat="45.91258" lon="3.41644">
        <ele>347</ele>
        <time>2021-03-27T15:15:48.281Z</time>
      </trkpt>
      <trkpt lat="45.91248" lon="3.41665">
        <ele>346.49230957031</ele>
        <time>2021-03-27T15:15:58.627Z</time>
      </trkpt>
      <trkpt lat="45.9124" lon="3.41683">
        <ele>345.5817565918</ele>
        <time>2021-03-27T15:16:08.976Z</time>
      </trkpt>
      <trkpt lat="45.91236" lon="3.41694">
        <ele>345.03112792969</ele>
        <time>2021-03-27T15:16:19.326Z</time>
      </trkpt>
      <trkpt lat="45.9123" lon="3.41712">
        <ele>345.1393737793</ele>
        <time>2021-03-27T15:16:29.679Z</time>
      </trkpt>
      <trkpt lat="45.91222" lon="3.41734">
        <ele>344.91705322266</ele>
        <time>2021-03-27T15:16:40.036Z</time>
      </trkpt>
      <trkpt lat="45.91214" lon="3.41755">
        <ele>344.70443725586</ele>
        <time>2021-03-27T15:16:50.396Z</time>
      </trkpt>
      <trkpt lat="45.91207" lon="3.41772">
        <ele>344.95275878906</ele>
        <time>2021-03-27T15:17:00.759Z</time>
      </trkpt>
      <trkpt lat="45.91201" lon="3.41785">
        <ele>345.16510009766</ele>
        <time>2021-03-27T15:17:11.124Z</time>
      </trkpt>
      <trkpt lat="45.91195" lon="3.41796">
        <ele>345.39184570312</ele>
        <time>2021-03-27T15:17:21.491Z</time>
      </trkpt>
      <trkpt lat="45.91189" lon="3.41806">
        <ele>345.50625610352</ele>
        <time>2021-03-27T15:17:31.860Z</time>
      </trkpt>
      <trkpt lat="45.91183" lon="3.41816">
        <ele>345.38027954102</ele>
        <time>2021-03-27T15:17:42.231Z</time>
      </trkpt>
      <trkpt lat="45.91177" lon="3.41823">
        <ele>345.27584838867</ele>
        <time>2021-03-27T15:17:52.603Z</time>
      </trkpt>
      <trkpt lat="45.91171" lon="3.41829">
        <ele>345.07070922852</ele>
        <time>2021-03-27T15:18:02.977Z</time>
      </trkpt>
      <trkpt lat="45.91172" lon="3.41819">
        <ele>345.45220947266</ele>
        <time>2021-03-27T15:18:13.352Z</time>
      </trkpt>
      <trkpt lat="45.91171" lon="3.4181">
        <ele>345.77612304688</ele>
        <time>2021-03-27T15:18:23.728Z</time>
      </trkpt>
      <trkpt lat="45.9117" lon="3.41803">
        <ele>346</ele>
        <time>2021-03-27T15:18:34.105Z</time>
      </trkpt>
      <trkpt lat="45.91168" lon="3.41798">
        <ele>346</ele>
        <time>2021-03-27T15:18:44.483Z</time>
      </trkpt>
      <trkpt lat="45.91166" lon="3.41792">
        <ele>346</ele>
        <time>2021-03-27T15:18:54.862Z</time>
      </trkpt>
      <trkpt lat="45.91162" lon="3.41786">
        <ele>346</ele>
        <time>2021-03-27T15:19:05.242Z</time>
      </trkpt>
      <trkpt lat="45.91157" lon="3.41778">
        <ele>346</ele>
        <time>2021-03-27T15:19:15.624Z</time>
      </trkpt>
      <trkpt lat="45.91149" lon="3.41767">
        <ele>345.95980834961</ele>
        <time>2021-03-27T15:19:26.008Z</time>
      </trkpt>
      <trkpt lat="45.91128" lon="3.4174">
        <ele>345.48504638672</ele>
        <time>2021-03-27T15:19:36.398Z</time>
      </trkpt>
      <trkpt lat="45.91115" lon="3.41723">
        <ele>345.607421875</ele>
        <time>2021-03-27T15:19:46.791Z</time>
      </trkpt>
      <trkpt lat="45.91105" lon="3.41712">
        <ele>345.67221069336</ele>
        <time>2021-03-27T15:19:57.187Z</time>
      </trkpt>
      <trkpt lat="45.91097" lon="3.41702">
        <ele>345.71899414062</ele>
        <time>2021-03-27T15:20:07.585Z</time>
      </trkpt>
      <trkpt lat="45.91091" lon="3.41696">
        <ele>345.9921875</ele>
        <time>2021-03-27T15:20:17.984Z</time>
      </trkpt>
      <trkpt lat="45.91084" lon="3.41691">
        <ele>346.38311767578</ele>
        <time>2021-03-27T15:20:28.385Z</time>
      </trkpt>
      <trkpt lat="45.91075" lon="3.41685">
        <ele>346.69982910156</ele>
        <time>2021-03-27T15:20:38.788Z</time>
      </trkpt>
      <trkpt lat="45.91066" lon="3.41679">
        <ele>347</ele>
        <time>2021-03-27T15:20:49.193Z</time>
      </trkpt>
      <trkpt lat="45.91049" lon="3.4167">
        <ele>347</ele>
        <time>2021-03-27T15:20:59.601Z</time>
      </trkpt>
      <trkpt lat="45.91019" lon="3.41655">
        <ele>347</ele>
        <time>2021-03-27T15:21:10.016Z</time>
      </trkpt>
      <trkpt lat="45.90998" lon="3.41644">
        <ele>347</ele>
        <time>2021-03-27T15:21:20.435Z</time>
      </trkpt>
      <trkpt lat="45.90977" lon="3.41634">
        <ele>347</ele>
        <time>2021-03-27T15:21:30.859Z</time>
      </trkpt>
      <trkpt lat="45.90957" lon="3.41623">
        <ele>347</ele>
        <time>2021-03-27T15:21:41.287Z</time>
      </trkpt>
      <trkpt lat="45.9094" lon="3.41615">
        <ele>346.42712402344</ele>
        <time>2021-03-27T15:21:51.718Z</time>
      </trkpt>
      <trkpt lat="45.90926" lon="3.41609">
        <ele>346.00650024414</ele>
        <time>2021-03-27T15:22:02.152Z</time>
      </trkpt>
      <trkpt lat="45.90912" lon="3.41602">
        <ele>346.24044799805</ele>
        <time>2021-03-27T15:22:12.589Z</time>
      </trkpt>
      <trkpt lat="45.90906" lon="3.41599">
        <ele>346.34121704102</ele>
        <time>2021-03-27T15:22:23.028Z</time>
      </trkpt>
      <trkpt lat="45.90897" lon="3.41594">
        <ele>346.39712524414</ele>
        <time>2021-03-27T15:22:33.469Z</time>
      </trkpt>
      <trkpt lat="45.9089" lon="3.41589">
        <ele>346.32873535156</ele>
        <time>2021-03-27T15:22:43.911Z</time>
      </trkpt>
      <trkpt lat="45.90887" lon="3.41597">
        <ele>346.03115844727</ele>
        <time>2021-03-27T15:22:54.354Z</time>
      </trkpt>
      <trkpt lat="45.90887" lon="3.41598">
        <ele>346.09594726562</ele>
        <time>2021-03-27T15:23:04.797Z</time>
      </trkpt>
      <trkpt lat="45.90884" lon="3.41608">
        <ele>346.5530090332</ele>
        <time>2021-03-27T15:23:15.242Z</time>
      </trkpt>
      <trkpt lat="45.9088" lon="3.41637">
        <ele>346.72509765625</ele>
        <time>2021-03-27T15:23:25.691Z</time>
      </trkpt>
      <trkpt lat="45.90876" lon="3.41669">
        <ele>346.1237487793</ele>
        <time>2021-03-27T15:23:36.145Z</time>
      </trkpt>
      <trkpt lat="45.90873" lon="3.41693">
        <ele>346.02297973633</ele>
        <time>2021-03-27T15:23:46.602Z</time>
      </trkpt>
      <trkpt lat="45.90872" lon="3.41708">
        <ele>345.97619628906</ele>
        <time>2021-03-27T15:23:57.061Z</time>
      </trkpt>
      <trkpt lat="45.90871" lon="3.41723">
        <ele>345.91641235352</ele>
        <time>2021-03-27T15:24:07.522Z</time>
      </trkpt>
      <trkpt lat="45.90872" lon="3.41739">
        <ele>345.95959472656</ele>
        <time>2021-03-27T15:24:17.985Z</time>
      </trkpt>
      <trkpt lat="45.90873" lon="3.41773">
        <ele>345.13433837891</ele>
        <time>2021-03-27T15:24:28.453Z</time>
      </trkpt>
      <trkpt lat="45.90876" lon="3.41822">
        <ele>343.8083190918</ele>
        <time>2021-03-27T15:24:38.928Z</time>
      </trkpt>
      <trkpt lat="45.90879" lon="3.41869">
        <ele>344.23532104492</ele>
        <time>2021-03-27T15:24:49.410Z</time>
      </trkpt>
      <trkpt lat="45.90882" lon="3.41912">
        <ele>344.70819091797</ele>
        <time>2021-03-27T15:24:59.898Z</time>
      </trkpt>
      <trkpt lat="45.90884" lon="3.41953">
        <ele>343.47448730469</ele>
        <time>2021-03-27T15:25:10.391Z</time>
      </trkpt>
      <trkpt lat="45.90885" lon="3.41968">
        <ele>342.98141479492</ele>
        <time>2021-03-27T15:25:20.886Z</time>
      </trkpt>
      <trkpt lat="45.90884" lon="3.41977">
        <ele>342.3908996582</ele>
        <time>2021-03-27T15:25:31.383Z</time>
      </trkpt>
      <trkpt lat="45.90883" lon="3.41986">
        <ele>341.82476806641</ele>
        <time>2021-03-27T15:25:41.881Z</time>
      </trkpt>
      <trkpt lat="45.90879" lon="3.42001">
        <ele>341.12295532227</ele>
        <time>2021-03-27T15:25:52.381Z</time>
      </trkpt>
      <trkpt lat="45.90873" lon="3.42024">
        <ele>340.06484985352</ele>
        <time>2021-03-27T15:26:02.885Z</time>
      </trkpt>
      <trkpt lat="45.90867" lon="3.42046">
        <ele>339.81423950195</ele>
        <time>2021-03-27T15:26:13.392Z</time>
      </trkpt>
      <trkpt lat="45.9086" lon="3.42076">
        <ele>340.80081176758</ele>
        <time>2021-03-27T15:26:23.903Z</time>
      </trkpt>
      <trkpt lat="45.90852" lon="3.42109">
        <ele>341.27798461914</ele>
        <time>2021-03-27T15:26:34.419Z</time>
      </trkpt>
      <trkpt lat="45.90847" lon="3.42136">
        <ele>341.98901367188</ele>
        <time>2021-03-27T15:26:44.939Z</time>
      </trkpt>
      <trkpt lat="45.90844" lon="3.42149">
        <ele>342</ele>
        <time>2021-03-27T15:26:55.461Z</time>
      </trkpt>
      <trkpt lat="45.90841" lon="3.4216">
        <ele>342</ele>
        <time>2021-03-27T15:27:05.985Z</time>
      </trkpt>
      <trkpt lat="45.90838" lon="3.4217">
        <ele>341.92562866211</ele>
        <time>2021-03-27T15:27:16.510Z</time>
      </trkpt>
      <trkpt lat="45.90833" lon="3.42179">
        <ele>342.08038330078</ele>
        <time>2021-03-27T15:27:27.037Z</time>
      </trkpt>
      <trkpt lat="45.90824" lon="3.42195">
        <ele>340.65072631836</ele>
        <time>2021-03-27T15:27:37.567Z</time>
      </trkpt>
      <trkpt lat="45.9082" lon="3.42202">
        <ele>340.12631225586</ele>
        <time>2021-03-27T15:27:48.098Z</time>
      </trkpt>
      <trkpt lat="45.90811" lon="3.42222">
        <ele>339.72183227539</ele>
        <time>2021-03-27T15:27:58.632Z</time>
      </trkpt>
      <trkpt lat="45.90793" lon="3.42256">
        <ele>339.41067504883</ele>
        <time>2021-03-27T15:28:09.172Z</time>
      </trkpt>
      <trkpt lat="45.90783" lon="3.42277">
        <ele>341.51022338867</ele>
        <time>2021-03-27T15:28:19.716Z</time>
      </trkpt>
      <trkpt lat="45.90779" lon="3.42286">
        <ele>342.07168579102</ele>
        <time>2021-03-27T15:28:30.261Z</time>
      </trkpt>
      <trkpt lat="45.90778" lon="3.42293">
        <ele>342.36056518555</ele>
        <time>2021-03-27T15:28:40.807Z</time>
      </trkpt>
      <trkpt lat="45.90775" lon="3.42312">
        <ele>341.69833374023</ele>
        <time>2021-03-27T15:28:51.356Z</time>
      </trkpt>
      <trkpt lat="45.90773" lon="3.42353">
        <ele>338.03103637695</ele>
        <time>2021-03-27T15:29:01.911Z</time>
      </trkpt>
      <trkpt lat="45.90773" lon="3.4238">
        <ele>335.14825439453</ele>
        <time>2021-03-27T15:29:12.470Z</time>
      </trkpt>
      <trkpt lat="45.90774" lon="3.42392">
        <ele>334.07666015625</ele>
        <time>2021-03-27T15:29:23.030Z</time>
      </trkpt>
      <trkpt lat="45.90775" lon="3.42406">
        <ele>332.96655273438</ele>
        <time>2021-03-27T15:29:33.592Z</time>
      </trkpt>
      <trkpt lat="45.90777" lon="3.42426">
        <ele>330.88272094727</ele>
        <time>2021-03-27T15:29:44.157Z</time>
      </trkpt>
      <trkpt lat="45.90779" lon="3.42443">
        <ele>329.61441040039</ele>
        <time>2021-03-27T15:29:54.724Z</time>
      </trkpt>
      <trkpt lat="45.9078" lon="3.42457">
        <ele>328.60308837891</ele>
        <time>2021-03-27T15:30:05.293Z</time>
      </trkpt>
      <trkpt lat="45.90779" lon="3.42475">
        <ele>327.30746459961</ele>
        <time>2021-03-27T15:30:15.865Z</time>
      </trkpt>
      <trkpt lat="45.90779" lon="3.42494">
        <ele>326.12655639648</ele>
        <time>2021-03-27T15:30:26.440Z</time>
      </trkpt>
      <trkpt lat="45.90779" lon="3.42504">
        <ele>325.59811401367</ele>
        <time>2021-03-27T15:30:37.016Z</time>
      </trkpt>
      <trkpt lat="45.9078" lon="3.4251">
        <ele>325.11584472656</ele>
        <time>2021-03-27T15:30:47.593Z</time>
      </trkpt>
      <trkpt lat="45.90782" lon="3.42517">
        <ele>324.63357543945</ele>
        <time>2021-03-27T15:30:58.171Z</time>
      </trkpt>
      <trkpt lat="45.90784" lon="3.42522">
        <ele>324.26647949219</ele>
        <time>2021-03-27T15:31:08.750Z</time>
      </trkpt>
      <trkpt lat="45.90787" lon="3.42526">
        <ele>323.9928894043</ele>
        <time>2021-03-27T15:31:19.330Z</time>
      </trkpt>
      <trkpt lat="45.90792" lon="3.4253">
        <ele>323.84173583984</ele>
        <time>2021-03-27T15:31:29.911Z</time>
      </trkpt>
      <trkpt lat="45.90797" lon="3.42534">
        <ele>323.70495605469</ele>
        <time>2021-03-27T15:31:40.493Z</time>
      </trkpt>
      <trkpt lat="45.90803" lon="3.42536">
        <ele>323.85952758789</ele>
        <time>2021-03-27T15:31:51.076Z</time>
      </trkpt>
      <trkpt lat="45.90811" lon="3.42539">
        <ele>324.12225341797</ele>
        <time>2021-03-27T15:32:01.661Z</time>
      </trkpt>
      <trkpt lat="45.90816" lon="3.4254">
        <ele>324.45333862305</ele>
        <time>2021-03-27T15:32:12.247Z</time>
      </trkpt>
      <trkpt lat="45.90822" lon="3.42539">
        <ele>324.98239135742</ele>
        <time>2021-03-27T15:32:22.834Z</time>
      </trkpt>
      <trkpt lat="45.90837" lon="3.42535">
        <ele>326.02209472656</ele>
        <time>2021-03-27T15:32:33.424Z</time>
      </trkpt>
      <trkpt lat="45.90847" lon="3.42535">
        <ele>326.70129394531</ele>
        <time>2021-03-27T15:32:44.016Z</time>
      </trkpt>
      <trkpt lat="45.90858" lon="3.42537">
        <ele>327.8825378418</ele>
        <time>2021-03-27T15:32:54.610Z</time>
      </trkpt>
      <trkpt lat="45.90867" lon="3.42538">
        <ele>328.2568359375</ele>
        <time>2021-03-27T15:33:05.206Z</time>
      </trkpt>
      <trkpt lat="45.90874" lon="3.4254">
        <ele>328.56994628906</ele>
        <time>2021-03-27T15:33:15.803Z</time>
      </trkpt>
      <trkpt lat="45.90878" lon="3.42544">
        <ele>328.83267211914</ele>
        <time>2021-03-27T15:33:26.401Z</time>
      </trkpt>
      <trkpt lat="45.9088" lon="3.42548">
        <ele>329.07382202148</ele>
        <time>2021-03-27T15:33:37.000Z</time>
      </trkpt>
      <trkpt lat="45.90882" lon="3.42553">
        <ele>329.30773925781</ele>
        <time>2021-03-27T15:33:47.600Z</time>
      </trkpt>
      <trkpt lat="45.90885" lon="3.42577">
        <ele>329.49319458008</ele>
        <time>2021-03-27T15:33:58.203Z</time>
      </trkpt>
      <trkpt lat="45.90887" lon="3.42606">
        <ele>327.79348754883</ele>
        <time>2021-03-27T15:34:08.810Z</time>
      </trkpt>
      <trkpt lat="45.90888" lon="3.42626">
        <ele>326.50503540039</ele>
        <time>2021-03-27T15:34:19.420Z</time>
      </trkpt>
      <trkpt lat="45.90891" lon="3.42642">
        <ele>325.59451293945</ele>
        <time>2021-03-27T15:34:30.032Z</time>
      </trkpt>
      <trkpt lat="45.90894" lon="3.42654">
        <ele>325.08343505859</ele>
        <time>2021-03-27T15:34:40.646Z</time>
      </trkpt>
      <trkpt lat="45.909" lon="3.42671">
        <ele>324.32489013672</ele>
        <time>2021-03-27T15:34:51.263Z</time>
      </trkpt>
      <trkpt lat="45.90903" lon="3.4268">
        <ele>323.43954467773</ele>
        <time>2021-03-27T15:35:01.881Z</time>
      </trkpt>
      <trkpt lat="45.90904" lon="3.42685">
        <ele>322.97888183594</ele>
        <time>2021-03-27T15:35:12.500Z</time>
      </trkpt>
      <trkpt lat="45.90904" lon="3.42691">
        <ele>322.29147338867</ele>
        <time>2021-03-27T15:35:23.120Z</time>
      </trkpt>
      <trkpt lat="45.90902" lon="3.42698">
        <ele>321.48168945312</ele>
        <time>2021-03-27T15:35:33.741Z</time>
      </trkpt>
      <trkpt lat="45.90898" lon="3.42706">
        <ele>320.24746704102</ele>
        <time>2021-03-27T15:35:44.363Z</time>
      </trkpt>
      <trkpt lat="45.9088" lon="3.42729">
        <ele>317.6833190918</ele>
        <time>2021-03-27T15:35:54.990Z</time>
      </trkpt>
      <trkpt lat="45.90865" lon="3.42751">
        <ele>316.90591430664</ele>
        <time>2021-03-27T15:36:05.621Z</time>
      </trkpt>
      <trkpt lat="45.90849" lon="3.42771">
        <ele>316.8371887207</ele>
        <time>2021-03-27T15:36:16.257Z</time>
      </trkpt>
      <trkpt lat="45.90839" lon="3.42789">
        <ele>317</ele>
        <time>2021-03-27T15:36:26.896Z</time>
      </trkpt>
      <trkpt lat="45.90821" lon="3.42823">
        <ele>316.84130859375</ele>
        <time>2021-03-27T15:36:37.541Z</time>
      </trkpt>
      <trkpt lat="45.90813" lon="3.4284">
        <ele>316.83923339844</ele>
        <time>2021-03-27T15:36:48.189Z</time>
      </trkpt>
      <trkpt lat="45.90803" lon="3.42852">
        <ele>317.03582763672</ele>
        <time>2021-03-27T15:36:58.839Z</time>
      </trkpt>
      <trkpt lat="45.908" lon="3.42854">
        <ele>317.22296142578</ele>
        <time>2021-03-27T15:37:09.490Z</time>
      </trkpt>
      <trkpt lat="45.90787" lon="3.42865">
        <ele>317.73449707031</ele>
        <time>2021-03-27T15:37:20.144Z</time>
      </trkpt>
      <trkpt lat="45.90777" lon="3.42871">
        <ele>317.12268066406</ele>
        <time>2021-03-27T15:37:30.800Z</time>
      </trkpt>
      <trkpt lat="45.90764" lon="3.42885">
        <ele>316.1689453125</ele>
        <time>2021-03-27T15:37:41.459Z</time>
      </trkpt>
      <trkpt lat="45.90756" lon="3.42894">
        <ele>315.79415893555</ele>
        <time>2021-03-27T15:37:52.120Z</time>
      </trkpt>
      <trkpt lat="45.90749" lon="3.42903">
        <ele>315.55947875977</ele>
        <time>2021-03-27T15:38:02.783Z</time>
      </trkpt>
      <trkpt lat="45.90743" lon="3.42911">
        <ele>314.86129760742</ele>
        <time>2021-03-27T15:38:13.448Z</time>
      </trkpt>
      <trkpt lat="45.90739" lon="3.42915">
        <ele>314.33224487305</ele>
        <time>2021-03-27T15:38:24.114Z</time>
      </trkpt>
      <trkpt lat="45.9073" lon="3.42922">
        <ele>313.75524902344</ele>
        <time>2021-03-27T15:38:34.782Z</time>
      </trkpt>
      <trkpt lat="45.90721" lon="3.42927">
        <ele>313.56448364258</ele>
        <time>2021-03-27T15:38:45.452Z</time>
      </trkpt>
      <trkpt lat="45.90717" lon="3.42929">
        <ele>313.49969482422</ele>
        <time>2021-03-27T15:38:56.123Z</time>
      </trkpt>
      <trkpt lat="45.90715" lon="3.4293">
        <ele>313.46731567383</ele>
        <time>2021-03-27T15:39:06.794Z</time>
      </trkpt>
      <trkpt lat="45.90706" lon="3.42932">
        <ele>313.36654663086</ele>
        <time>2021-03-27T15:39:17.467Z</time>
      </trkpt>
      <trkpt lat="45.90687" lon="3.42938">
        <ele>313</ele>
        <time>2021-03-27T15:39:28.144Z</time>
      </trkpt>
      <trkpt lat="45.90678" lon="3.42941">
        <ele>313</ele>
        <time>2021-03-27T15:39:38.823Z</time>
      </trkpt>
      <trkpt lat="45.90676" lon="3.42943">
        <ele>313</ele>
        <time>2021-03-27T15:39:49.502Z</time>
      </trkpt>
      <trkpt lat="45.90664" lon="3.42924">
        <ele>313.49533081055</ele>
        <time>2021-03-27T15:40:00.185Z</time>
      </trkpt>
      <trkpt lat="45.90644" lon="3.42893">
        <ele>314.62377929688</ele>
        <time>2021-03-27T15:40:10.874Z</time>
      </trkpt>
      <trkpt lat="45.90634" lon="3.42879">
        <ele>316.00268554688</ele>
        <time>2021-03-27T15:40:21.565Z</time>
      </trkpt>
      <trkpt lat="45.90631" lon="3.42874">
        <ele>316.5065612793</ele>
        <time>2021-03-27T15:40:32.257Z</time>
      </trkpt>
      <trkpt lat="45.90624" lon="3.42863">
        <ele>317.71942138672</ele>
        <time>2021-03-27T15:40:42.951Z</time>
      </trkpt>
      <trkpt lat="45.9062" lon="3.42856">
        <ele>318.32794189453</ele>
        <time>2021-03-27T15:40:53.647Z</time>
      </trkpt>
      <trkpt lat="45.90618" lon="3.42851">
        <ele>318.61587524414</ele>
        <time>2021-03-27T15:41:04.344Z</time>
      </trkpt>
      <trkpt lat="45.90617" lon="3.42845">
        <ele>318.86779785156</ele>
        <time>2021-03-27T15:41:15.041Z</time>
      </trkpt>
      <trkpt lat="45.90618" lon="3.4284">
        <ele>319.04412841797</ele>
        <time>2021-03-27T15:41:25.739Z</time>
      </trkpt>
      <trkpt lat="45.90618" lon="3.42835">
        <ele>319.16650390625</ele>
        <time>2021-03-27T15:41:36.438Z</time>
      </trkpt>
      <trkpt lat="45.90621" lon="3.4283">
        <ele>319.05010986328</ele>
        <time>2021-03-27T15:41:47.138Z</time>
      </trkpt>
      <trkpt lat="45.90623" lon="3.42823">
        <ele>318.88366699219</ele>
        <time>2021-03-27T15:41:57.839Z</time>
      </trkpt>
      <trkpt lat="45.90624" lon="3.42813">
        <ele>318.73971557617</ele>
        <time>2021-03-27T15:42:08.541Z</time>
      </trkpt>
      <trkpt lat="45.90623" lon="3.42805">
        <ele>318.85488891602</ele>
        <time>2021-03-27T15:42:19.244Z</time>
      </trkpt>
      <trkpt lat="45.90621" lon="3.42796">
        <ele>319.0537109375</ele>
        <time>2021-03-27T15:42:29.949Z</time>
      </trkpt>
      <trkpt lat="45.90618" lon="3.42788">
        <ele>319.16885375977</ele>
        <time>2021-03-27T15:42:40.655Z</time>
      </trkpt>
      <trkpt lat="45.90614" lon="3.42784">
        <ele>319.29483032227</ele>
        <time>2021-03-27T15:42:51.362Z</time>
      </trkpt>
      <trkpt lat="45.90608" lon="3.4278">
        <ele>319.51077270508</ele>
        <time>2021-03-27T15:43:02.070Z</time>
      </trkpt>
      <trkpt lat="45.90598" lon="3.42776">
        <ele>319.86346435547</ele>
        <time>2021-03-27T15:43:12.780Z</time>
      </trkpt>
      <trkpt lat="45.90591" lon="3.42773">
        <ele>320</ele>
        <time>2021-03-27T15:43:23.492Z</time>
      </trkpt>
      <trkpt lat="45.90582" lon="3.42771">
        <ele>320</ele>
        <time>2021-03-27T15:43:34.206Z</time>
      </trkpt>
      <trkpt lat="45.90569" lon="3.4277">
        <ele>320</ele>
        <time>2021-03-27T15:43:44.922Z</time>
      </trkpt>
      <trkpt lat="45.90565" lon="3.4277">
        <ele>320.13827514648</ele>
        <time>2021-03-27T15:43:55.639Z</time>
      </trkpt>
      <trkpt lat="45.90562" lon="3.4277">
        <ele>320.33981323242</ele>
        <time>2021-03-27T15:44:06.356Z</time>
      </trkpt>
      <trkpt lat="45.90557" lon="3.4277">
        <ele>320.728515625</ele>
        <time>2021-03-27T15:44:17.075Z</time>
      </trkpt>
      <trkpt lat="45.90548" lon="3.42772">
        <ele>321.3835144043</ele>
        <time>2021-03-27T15:44:27.795Z</time>
      </trkpt>
      <trkpt lat="45.90534" lon="3.42775">
        <ele>322.18121337891</ele>
        <time>2021-03-27T15:44:38.518Z</time>
      </trkpt>
      <trkpt lat="45.90528" lon="3.42777">
        <ele>322.38638305664</ele>
        <time>2021-03-27T15:44:49.242Z</time>
      </trkpt>
      <trkpt lat="45.90506" lon="3.42784">
        <ele>322.81823730469</ele>
        <time>2021-03-27T15:44:59.971Z</time>
      </trkpt>
      <trkpt lat="45.90458" lon="3.42801">
        <ele>321.91876220703</ele>
        <time>2021-03-27T15:45:10.710Z</time>
      </trkpt>
      <trkpt lat="45.90443" lon="3.42806">
        <ele>322</ele>
        <time>2021-03-27T15:45:21.452Z</time>
      </trkpt>
      <trkpt lat="45.90431" lon="3.4281">
        <ele>322</ele>
        <time>2021-03-27T15:45:32.196Z</time>
      </trkpt>
      <trkpt lat="45.90414" lon="3.42816">
        <ele>323.03604125977</ele>
        <time>2021-03-27T15:45:42.944Z</time>
      </trkpt>
      <trkpt lat="45.90402" lon="3.4282">
        <ele>323.32214355469</ele>
        <time>2021-03-27T15:45:53.694Z</time>
      </trkpt>
      <trkpt lat="45.90387" lon="3.42827">
        <ele>323.65682983398</ele>
        <time>2021-03-27T15:46:04.447Z</time>
      </trkpt>
      <trkpt lat="45.90381" lon="3.42828">
        <ele>323.81878662109</ele>
        <time>2021-03-27T15:46:15.202Z</time>
      </trkpt>
      <trkpt lat="45.90378" lon="3.42829">
        <ele>323.88357543945</ele>
        <time>2021-03-27T15:46:25.957Z</time>
      </trkpt>
      <trkpt lat="45.90376" lon="3.42829">
        <ele>323.96994018555</ele>
        <time>2021-03-27T15:46:36.713Z</time>
      </trkpt>
      <trkpt lat="45.90374" lon="3.42829">
        <ele>324.01675415039</ele>
        <time>2021-03-27T15:46:47.469Z</time>
      </trkpt>
      <trkpt lat="45.90357" lon="3.4283">
        <ele>324.61416625977</ele>
        <time>2021-03-27T15:46:58.228Z</time>
      </trkpt>
      <trkpt lat="45.90319" lon="3.42829">
        <ele>324.15084838867</ele>
        <time>2021-03-27T15:47:08.995Z</time>
      </trkpt>
      <trkpt lat="45.90281" lon="3.42829">
        <ele>324.29748535156</ele>
        <time>2021-03-27T15:47:19.770Z</time>
      </trkpt>
      <trkpt lat="45.9024" lon="3.42829">
        <ele>325</ele>
        <time>2021-03-27T15:47:30.553Z</time>
      </trkpt>
      <trkpt lat="45.90177" lon="3.42829">
        <ele>323.0510559082</ele>
        <time>2021-03-27T15:47:41.348Z</time>
      </trkpt>
      <trkpt lat="45.9016" lon="3.42828">
        <ele>323</ele>
        <time>2021-03-27T15:47:52.147Z</time>
      </trkpt>
      <trkpt lat="45.90148" lon="3.42829">
        <ele>323.07336425781</ele>
        <time>2021-03-27T15:48:02.948Z</time>
      </trkpt>
      <trkpt lat="45.9016" lon="3.42828">
        <ele>323</ele>
        <time>2021-03-27T15:48:13.752Z</time>
      </trkpt>
      <trkpt lat="45.90156" lon="3.42833">
        <ele>323</ele>
        <time>2021-03-27T15:48:24.557Z</time>
      </trkpt>
      <trkpt lat="45.90155" lon="3.42836">
        <ele>323</ele>
        <time>2021-03-27T15:48:35.362Z</time>
      </trkpt>
      <trkpt lat="45.90154" lon="3.4284">
        <ele>323</ele>
        <time>2021-03-27T15:48:46.168Z</time>
      </trkpt>
      <trkpt lat="45.90154" lon="3.42844">
        <ele>323</ele>
        <time>2021-03-27T15:48:56.974Z</time>
      </trkpt>
      <trkpt lat="45.90155" lon="3.42858">
        <ele>323</ele>
        <time>2021-03-27T15:49:07.782Z</time>
      </trkpt>
      <trkpt lat="45.90158" lon="3.42913">
        <ele>322.72067260742</ele>
        <time>2021-03-27T15:49:18.598Z</time>
      </trkpt>
      <trkpt lat="45.90161" lon="3.42969">
        <ele>321.21820068359</ele>
        <time>2021-03-27T15:49:29.422Z</time>
      </trkpt>
      <trkpt lat="45.90164" lon="3.43041">
        <ele>320.4831237793</ele>
        <time>2021-03-27T15:49:40.256Z</time>
      </trkpt>
      <trkpt lat="45.90168" lon="3.43095">
        <ele>319.87893676758</ele>
        <time>2021-03-27T15:49:51.097Z</time>
      </trkpt>
      <trkpt lat="45.90169" lon="3.43121">
        <ele>318.56802368164</ele>
        <time>2021-03-27T15:50:01.942Z</time>
      </trkpt>
      <trkpt lat="45.9017" lon="3.43155">
        <ele>316.73193359375</ele>
        <time>2021-03-27T15:50:12.792Z</time>
      </trkpt>
      <trkpt lat="45.90173" lon="3.43215">
        <ele>314.34002685547</ele>
        <time>2021-03-27T15:50:23.650Z</time>
      </trkpt>
      <trkpt lat="45.90174" lon="3.43274">
        <ele>315</ele>
        <time>2021-03-27T15:50:34.516Z</time>
      </trkpt>
      <trkpt lat="45.90175" lon="3.43349">
        <ele>312.36950683594</ele>
        <time>2021-03-27T15:50:45.393Z</time>
      </trkpt>
      <trkpt lat="45.90177" lon="3.43398">
        <ele>310.64645385742</ele>
        <time>2021-03-27T15:50:56.277Z</time>
      </trkpt>
      <trkpt lat="45.90177" lon="3.43412">
        <ele>310.13180541992</ele>
        <time>2021-03-27T15:51:07.163Z</time>
      </trkpt>
      <trkpt lat="45.90177" lon="3.43419">
        <ele>310.03326416016</ele>
        <time>2021-03-27T15:51:18.050Z</time>
      </trkpt>
      <trkpt lat="45.90175" lon="3.43426">
        <ele>310.0944519043</ele>
        <time>2021-03-27T15:51:28.938Z</time>
      </trkpt>
      <trkpt lat="45.90173" lon="3.43434">
        <ele>310.16641235352</ele>
        <time>2021-03-27T15:51:39.827Z</time>
      </trkpt>
      <trkpt lat="45.90167" lon="3.43446">
        <ele>310.38235473633</ele>
        <time>2021-03-27T15:51:50.718Z</time>
      </trkpt>
      <trkpt lat="45.90151" lon="3.4347">
        <ele>310.96179199219</ele>
        <time>2021-03-27T15:52:01.614Z</time>
      </trkpt>
      <trkpt lat="45.90141" lon="3.43483">
        <ele>311.96508789062</ele>
        <time>2021-03-27T15:52:12.512Z</time>
      </trkpt>
      <trkpt lat="45.90133" lon="3.43494">
        <ele>312.4313659668</ele>
        <time>2021-03-27T15:52:23.413Z</time>
      </trkpt>
      <trkpt lat="45.90117" lon="3.43508">
        <ele>312.45806884766</ele>
        <time>2021-03-27T15:52:34.317Z</time>
      </trkpt>
      <trkpt lat="45.90109" lon="3.43518">
        <ele>312.24835205078</ele>
        <time>2021-03-27T15:52:45.223Z</time>
      </trkpt>
      <trkpt lat="45.90104" lon="3.43525">
        <ele>312.36352539062</ele>
        <time>2021-03-27T15:52:56.131Z</time>
      </trkpt>
      <trkpt lat="45.90101" lon="3.43531">
        <ele>312.37432861328</ele>
        <time>2021-03-27T15:53:07.040Z</time>
      </trkpt>
      <trkpt lat="45.90098" lon="3.4354">
        <ele>311.89248657227</ele>
        <time>2021-03-27T15:53:17.950Z</time>
      </trkpt>
      <trkpt lat="45.90104" lon="3.4354">
        <ele>311.60458374023</ele>
        <time>2021-03-27T15:53:28.862Z</time>
      </trkpt>
      <trkpt lat="45.90109" lon="3.43542">
        <ele>311.37783813477</ele>
        <time>2021-03-27T15:53:39.774Z</time>
      </trkpt>
      <trkpt lat="45.90122" lon="3.43545">
        <ele>310.32647705078</ele>
        <time>2021-03-27T15:53:50.689Z</time>
      </trkpt>
      <trkpt lat="45.9014" lon="3.43551">
        <ele>310.11752319336</ele>
        <time>2021-03-27T15:54:01.608Z</time>
      </trkpt>
      <trkpt lat="45.90154" lon="3.43555">
        <ele>310</ele>
        <time>2021-03-27T15:54:12.530Z</time>
      </trkpt>
      <trkpt lat="45.90171" lon="3.43563">
        <ele>310</ele>
        <time>2021-03-27T15:54:23.455Z</time>
      </trkpt>
      <trkpt lat="45.90181" lon="3.4357">
        <ele>310</ele>
        <time>2021-03-27T15:54:34.383Z</time>
      </trkpt>
      <trkpt lat="45.90197" lon="3.43584">
        <ele>309.92984008789</ele>
        <time>2021-03-27T15:54:45.314Z</time>
      </trkpt>
      <trkpt lat="45.90208" lon="3.43594">
        <ele>309.47311401367</ele>
        <time>2021-03-27T15:54:56.248Z</time>
      </trkpt>
      <trkpt lat="45.90216" lon="3.43603">
        <ele>308.85049438477</ele>
        <time>2021-03-27T15:55:07.184Z</time>
      </trkpt>
      <trkpt lat="45.90226" lon="3.43616">
        <ele>308.2805480957</ele>
        <time>2021-03-27T15:55:18.123Z</time>
      </trkpt>
      <trkpt lat="45.90237" lon="3.43635">
        <ele>308</ele>
        <time>2021-03-27T15:55:29.065Z</time>
      </trkpt>
      <trkpt lat="45.90246" lon="3.43648">
        <ele>308</ele>
        <time>2021-03-27T15:55:40.010Z</time>
      </trkpt>
      <trkpt lat="45.90254" lon="3.43658">
        <ele>307.97576904297</ele>
        <time>2021-03-27T15:55:50.957Z</time>
      </trkpt>
      <trkpt lat="45.90264" lon="3.43668">
        <ele>307.88150024414</ele>
        <time>2021-03-27T15:56:01.906Z</time>
      </trkpt>
      <trkpt lat="45.90286" lon="3.43682">
        <ele>307.12115478516</ele>
        <time>2021-03-27T15:56:12.860Z</time>
      </trkpt>
      <trkpt lat="45.90297" lon="3.4369">
        <ele>307</ele>
        <time>2021-03-27T15:56:23.816Z</time>
      </trkpt>
      <trkpt lat="45.90301" lon="3.43694">
        <ele>306.95297241211</ele>
        <time>2021-03-27T15:56:34.773Z</time>
      </trkpt>
    </trkseg>
  </trk>
</gpx>